GEFSSGP_prec_meanprecacc_012.txt.gz
Total_Precipitation_Accumulation
0.00 0.00 0.00 0.01 0.01 0.01 0.01 0.00 0.00 0.00 0.00 0.00 0.00 0.00 0.00 0.00 0.01 0.02 0.00 0.00 0.00 0.00 0.00 0.00 0.00 0.00 0.00 0.00 0.00 0.00 0.00 0.00 0.00 0.00 0.00 0.00 0.00 0.00 0.00 0.00 0.00 0.00 0.00 0.00 0.00 0.00 0.00 0.00 0.00
0.00 0.00 0.01 0.02 0.03 0.04 0.02 0.00 0.00 0.00 0.00 0.00 0.00 0.00 0.00 0.00 0.00 0.00 0.00 0.00 0.00 0.00 0.00 0.00 0.00 0.00 0.00 0.00 0.00 0.00 0.00 0.00 0.00 0.00 0.00 0.00 0.00 0.00 0.00 0.00 0.00 0.00 0.00 0.00 0.00 0.00 0.00 0.00 0.00
0.00 0.00 0.01 0.01 0.03 0.08 0.06 0.01 0.00 0.00 0.00 0.00 0.00 0.00 0.00 0.00 0.00 0.00 0.00 0.00 0.00 0.00 0.00 0.00 0.00 0.00 0.00 0.00 0.00 0.00 0.00 0.00 0.00 0.00 0.00 0.00 0.00 0.00 0.00 0.00 0.00 0.00 0.00 0.00 0.00 0.00 0.00 0.00 0.00
0.00 0.00 0.00 0.00 0.02 0.04 0.03 0.01 0.00 0.00 0.01 0.00 0.00 0.00 0.00 0.00 0.00 0.00 0.00 0.00 0.00 0.00 0.00 0.00 0.00 0.00 0.00 0.00 0.00 0.00 0.00 0.00 0.00 0.00 0.00 0.00 0.00 0.00 0.00 0.00 0.00 0.00 0.00 0.00 0.00 0.00 0.00 0.00 0.00
0.00 0.00 0.00 0.00 0.01 0.01 0.02 0.01 0.00 0.00 0.01 0.00 0.00 0.00 0.00 0.00 0.00 0.00 0.00 0.00 0.00 0.00 0.00 0.00 0.00 0.00 0.00 0.00 0.00 0.00 0.00 0.00 0.00 0.00 0.00 0.00 0.00 0.00 0.00 0.01 0.01 0.01 0.01 0.01 0.01 0.01 0.01 0.01 0.01
0.00 0.00 0.00 0.00 0.00 0.01 0.01 0.00 0.00 0.00 0.00 0.00 0.00 0.00 0.00 0.00 0.00 0.00 0.00 0.00 0.00 0.00 0.00 0.00 0.00 0.00 0.00 0.00 0.00 0.00 0.00 0.00 0.00 0.00 0.00 0.00 0.00 0.00 0.00 0.00 0.00 0.00 0.00 0.01 0.01 0.01 0.01 0.01 0.02
0.00 0.00 0.00 0.00 0.00 0.00 0.00 0.00 0.01 0.01 0.02 0.01 0.01 0.00 0.00 0.00 0.00 0.00 0.00 0.00 0.00 0.00 0.00 0.00 0.00 0.00 0.00 0.00 0.00 0.00 0.00 0.00 0.00 0.00 0.00 0.00 0.00 0.00 0.01 0.01 0.00 0.00 0.00 0.00 0.00 0.00 0.00 0.00 0.01
0.00 0.00 0.00 0.00 0.00 0.01 0.01 0.01 0.00 0.00 0.05 0.04 0.01 0.01 0.00 0.00 0.00 0.00 0.00 0.00 0.00 0.00 0.00 0.00 0.00 0.00 0.00 0.00 0.00 0.00 0.00 0.00 0.00 0.00 0.00 0.00 0.00 0.00 0.01 0.01 0.01 0.01 0.00 0.00 0.01 0.00 0.00 0.01 0.03
0.00 0.00 0.00 0.00 0.00 0.00 0.01 0.01 0.01 0.00 0.00 0.00 0.01 0.01 0.00 0.00 0.00 0.00 0.00 0.00 0.00 0.00 0.00 0.00 0.00 0.00 0.00 0.00 0.00 0.00 0.00 0.00 0.00 0.00 0.00 0.00 0.00 0.00 0.02 0.05 0.06 0.05 0.04 0.03 0.03 0.03 0.05 0.07 0.07
0.00 0.00 0.00 0.00 0.00 0.00 0.00 0.00 0.01 0.00 0.00 0.00 0.00 0.01 0.00 0.00 0.00 0.00 0.00 0.00 0.00 0.00 0.00 0.00 0.00 0.00 0.00 0.00 0.00 0.00 0.00 0.00 0.01 0.02 0.08 0.08 0.09 0.06 0.03 0.13 0.16 0.11 0.13 0.10 0.07 0.13 0.15 0.17 0.12
0.00 0.00 0.00 0.00 0.00 0.00 0.00 0.00 0.00 0.00 0.00 0.00 0.01 0.05 0.02 0.00 0.00 0.00 0.00 0.00 0.00 0.00 0.00 0.00 0.00 0.00 0.00 0.00 0.00 0.01 0.02 0.04 0.06 0.08 0.17 0.27 0.28 0.17 0.09 0.18 0.27 0.26 0.21 0.24 0.32 0.32 0.23 0.21 0.17
0.00 0.00 0.00 0.00 0.00 0.00 0.00 0.00 0.00 0.00 0.00 0.00 0.02 0.10 0.07 0.00 0.00 0.00 0.00 0.00 0.00 0.00 0.00 0.00 0.00 0.00 0.00 0.01 0.04 0.05 0.04 0.06 0.09 0.15 0.20 0.37 0.29 0.21 0.24 0.30 0.30 0.35 0.33 0.43 0.40 0.33 0.25 0.23 0.13
0.00 0.00 0.00 0.00 0.00 0.00 0.00 0.00 0.00 0.00 0.00 0.00 0.00 0.01 0.01 0.00 0.00 0.00 0.00 0.00 0.00 0.00 0.01 0.01 0.01 0.01 0.01 0.03 0.05 0.07 0.06 0.07 0.08 0.16 0.21 0.36 0.38 0.33 0.35 0.28 0.29 0.26 0.33 0.45 0.38 0.25 0.20 0.21 0.22
0.00 0.00 0.00 0.00 0.00 0.00 0.00 0.00 0.00 0.00 0.00 0.00 0.00 0.00 0.00 0.00 0.00 0.00 0.00 0.01 0.00 0.01 0.04 0.06 0.06 0.04 0.03 0.04 0.09 0.14 0.13 0.12 0.11 0.19 0.23 0.44 0.58 0.50 0.42 0.42 0.43 0.44 0.57 0.55 0.43 0.33 0.25 0.17 0.17
0.00 0.00 0.00 0.00 0.00 0.00 0.00 0.00 0.00 0.00 0.00 0.00 0.00 0.00 0.00 0.00 0.00 0.01 0.02 0.05 0.03 0.04 0.10 0.15 0.15 0.13 0.12 0.16 0.18 0.18 0.14 0.15 0.18 0.25 0.26 0.46 0.63 0.65 0.65 0.60 0.55 0.62 0.63 0.60 0.60 0.50 0.32 0.20 0.22
0.00 0.00 0.00 0.00 0.00 0.00 0.00 0.00 0.00 0.00 0.00 0.00 0.00 0.00 0.00 0.00 0.00 0.02 0.01 0.03 0.03 0.08 0.19 0.19 0.15 0.16 0.17 0.18 0.16 0.17 0.15 0.14 0.16 0.22 0.26 0.39 0.55 0.65 0.65 0.59 0.62 0.69 0.56 0.47 0.44 0.32 0.23 0.19 0.22
0.00 0.00 0.00 0.00 0.00 0.00 0.00 0.00 0.00 0.00 0.00 0.00 0.01 0.02 0.04 0.03 0.02 0.02 0.02 0.05 0.04 0.13 0.25 0.17 0.14 0.15 0.14 0.13 0.12 0.13 0.15 0.11 0.09 0.13 0.19 0.24 0.28 0.29 0.31 0.29 0.34 0.42 0.39 0.31 0.25 0.28 0.23 0.17 0.21
0.00 0.00 0.00 0.00 0.00 0.00 0.00 0.00 0.01 0.01 0.01 0.01 0.02 0.04 0.06 0.04 0.02 0.01 0.02 0.03 0.06 0.14 0.15 0.12 0.10 0.09 0.09 0.08 0.06 0.06 0.05 0.05 0.07 0.08 0.10 0.11 0.12 0.13 0.10 0.10 0.12 0.14 0.17 0.17 0.16 0.14 0.16 0.11 0.12
0.00 0.00 0.00 0.00 0.00 0.00 0.00 0.01 0.02 0.03 0.03 0.03 0.03 0.02 0.01 0.01 0.03 0.05 0.11 0.15 0.10 0.11 0.09 0.08 0.06 0.06 0.07 0.06 0.03 0.02 0.02 0.02 0.03 0.03 0.02 0.01 0.01 0.01 0.01 0.01 0.01 0.01 0.02 0.03 0.05 0.07 0.08 0.06 0.12
0.00 0.00 0.00 0.00 0.00 0.00 0.00 0.00 0.01 0.02 0.02 0.01 0.01 0.01 0.04 0.11 0.22 0.49 0.74 0.61 0.26 0.10 0.04 0.02 0.03 0.03 0.03 0.02 0.01 0.01 0.01 0.00 0.00 0.00 0.00 0.00 0.00 0.00 0.00 0.00 0.00 0.00 0.00 0.00 0.00 0.02 0.03 0.04 0.05
0.00 0.00 0.00 0.00 0.00 0.00 0.00 0.00 0.00 0.01 0.01 0.00 0.01 0.04 0.16 0.32 0.61 1.11 1.15 0.72 0.34 0.13 0.06 0.02 0.01 0.01 0.01 0.01 0.00 0.00 0.00 0.00 0.00 0.00 0.02 0.02 0.00 0.00 0.00 0.00 0.00 0.00 0.00 0.01 0.01 0.01 0.02 0.03 0.03
0.00 0.00 0.00 0.00 0.00 0.00 0.00 0.00 0.00 0.00 0.00 0.02 0.03 0.08 0.16 0.31 0.56 0.82 0.81 0.47 0.27 0.18 0.16 0.07 0.01 0.01 0.00 0.00 0.00 0.00 0.00 0.00 0.00 0.01 0.02 0.01 0.00 0.00 0.00 0.00 0.00 0.01 0.01 0.02 0.02 0.02 0.04 0.05 0.05
0.00 0.00 0.00 0.00 0.00 0.00 0.00 0.00 0.00 0.00 0.00 0.02 0.04 0.06 0.13 0.32 0.42 0.38 0.33 0.26 0.23 0.22 0.22 0.15 0.07 0.08 0.05 0.03 0.03 0.02 0.01 0.00 0.00 0.00 0.00 0.00 0.00 0.00 0.00 0.00 0.01 0.01 0.01 0.02 0.02 0.03 0.05 0.07 0.09
0.00 0.00 0.00 0.00 0.01 0.05 0.04 0.02 0.01 0.00 0.00 0.01 0.02 0.07 0.19 0.36 0.40 0.33 0.24 0.19 0.18 0.17 0.15 0.12 0.14 0.22 0.17 0.12 0.08 0.09 0.07 0.04 0.02 0.01 0.01 0.00 0.00 0.00 0.00 0.00 0.01 0.01 0.01 0.01 0.02 0.03 0.05 0.07 0.09
0.01 0.01 0.00 0.01 0.08 0.12 0.06 0.03 0.04 0.00 0.00 0.00 0.01 0.06 0.19 0.35 0.44 0.41 0.30 0.21 0.16 0.14 0.10 0.06 0.07 0.13 0.14 0.10 0.09 0.12 0.14 0.11 0.07 0.04 0.02 0.02 0.00 0.00 0.00 0.00 0.00 0.00 0.00 0.01 0.01 0.02 0.03 0.04 0.07
0.00 0.00 0.00 0.00 0.00 0.01 0.01 0.02 0.04 0.03 0.01 0.00 0.01 0.04 0.14 0.21 0.24 0.24 0.18 0.13 0.08 0.06 0.04 0.03 0.02 0.03 0.04 0.05 0.07 0.10 0.13 0.08 0.07 0.12 0.08 0.04 0.02 0.00 0.00 0.00 0.00 0.00 0.00 0.00 0.01 0.01 0.01 0.03 0.06
0.00 0.00 0.00 0.00 0.00 0.00 0.01 0.05 0.12 0.16 0.11 0.04 0.02 0.02 0.05 0.07 0.08 0.10 0.10 0.07 0.06 0.04 0.03 0.03 0.02 0.01 0.01 0.02 0.05 0.08 0.13 0.13 0.11 0.12 0.11 0.08 0.07 0.03 0.02 0.01 0.00 0.00 0.00 0.00 0.01 0.01 0.02 0.04 0.07
0.00 0.00 0.00 0.00 0.00 0.00 0.00 0.07 0.20 0.28 0.20 0.06 0.03 0.03 0.05 0.07 0.07 0.07 0.06 0.06 0.05 0.04 0.04 0.04 0.03 0.02 0.02 0.02 0.02 0.05 0.11 0.15 0.14 0.13 0.14 0.14 0.12 0.08 0.05 0.03 0.02 0.01 0.01 0.01 0.01 0.02 0.04 0.06 0.12
0.00 0.00 0.00 0.00 0.00 0.00 0.00 0.06 0.09 0.09 0.05 0.02 0.01 0.02 0.03 0.04 0.05 0.04 0.04 0.04 0.03 0.03 0.03 0.03 0.03 0.03 0.02 0.02 0.02 0.02 0.05 0.09 0.14 0.17 0.18 0.18 0.16 0.14 0.10 0.08 0.07 0.04 0.02 0.01 0.02 0.04 0.04 0.05 0.08
0.00 0.00 0.00 0.00 0.00 0.00 0.01 0.07 0.05 0.05 0.05 0.03 0.01 0.00 0.00 0.01 0.01 0.01 0.02 0.02 0.02 0.03 0.03 0.03 0.03 0.03 0.03 0.02 0.02 0.01 0.01 0.03 0.06 0.10 0.14 0.16 0.15 0.14 0.13 0.12 0.10 0.06 0.04 0.02 0.02 0.03 0.03 0.04 0.04

GEFSSGP_prec_meanprecacc_018.txt.gz
Total_Precipitation_Accumulation
0.00 0.00 0.01 0.02 0.02 0.07 0.16 0.07 0.01 0.00 0.00 0.00 0.00 0.00 0.00 0.00 0.01 0.02 0.00 0.00 0.00 0.00 0.00 0.00 0.00 0.00 0.00 0.00 0.00 0.00 0.00 0.00 0.00 0.00 0.00 0.00 0.00 0.00 0.00 0.00 0.00 0.00 0.01 0.00 0.00 0.00 0.00 0.00 0.00
0.00 0.00 0.01 0.03 0.04 0.11 0.22 0.09 0.02 0.01 0.00 0.00 0.00 0.00 0.00 0.00 0.00 0.00 0.00 0.00 0.00 0.00 0.00 0.00 0.00 0.00 0.00 0.00 0.00 0.00 0.00 0.00 0.00 0.00 0.00 0.00 0.00 0.00 0.00 0.00 0.00 0.00 0.00 0.00 0.00 0.00 0.00 0.00 0.00
0.00 0.00 0.01 0.01 0.04 0.18 0.35 0.12 0.04 0.02 0.01 0.01 0.00 0.00 0.00 0.00 0.00 0.00 0.00 0.00 0.00 0.00 0.00 0.00 0.00 0.00 0.00 0.00 0.00 0.00 0.00 0.00 0.00 0.00 0.00 0.00 0.00 0.00 0.00 0.00 0.00 0.00 0.00 0.00 0.00 0.00 0.00 0.00 0.00
0.00 0.00 0.00 0.00 0.02 0.07 0.16 0.14 0.09 0.06 0.04 0.02 0.01 0.00 0.00 0.00 0.00 0.00 0.00 0.00 0.00 0.00 0.00 0.00 0.00 0.00 0.00 0.00 0.00 0.00 0.00 0.00 0.00 0.00 0.00 0.00 0.00 0.00 0.00 0.00 0.00 0.00 0.00 0.00 0.00 0.00 0.00 0.00 0.00
0.00 0.00 0.00 0.00 0.01 0.02 0.05 0.06 0.11 0.11 0.04 0.01 0.00 0.00 0.00 0.00 0.00 0.00 0.00 0.00 0.00 0.00 0.00 0.00 0.00 0.00 0.00 0.00 0.00 0.00 0.00 0.00 0.00 0.00 0.00 0.00 0.00 0.00 0.00 0.01 0.01 0.01 0.01 0.01 0.01 0.01 0.01 0.01 0.01
0.00 0.00 0.00 0.00 0.00 0.01 0.03 0.05 0.11 0.13 0.07 0.02 0.00 0.00 0.00 0.00 0.00 0.00 0.00 0.00 0.00 0.00 0.00 0.00 0.00 0.00 0.00 0.00 0.00 0.00 0.00 0.00 0.00 0.00 0.00 0.00 0.00 0.00 0.00 0.00 0.00 0.00 0.00 0.01 0.01 0.01 0.01 0.01 0.02
0.00 0.00 0.00 0.00 0.00 0.01 0.03 0.05 0.07 0.10 0.08 0.05 0.02 0.00 0.00 0.00 0.00 0.00 0.00 0.00 0.00 0.00 0.00 0.00 0.00 0.00 0.00 0.00 0.00 0.00 0.00 0.00 0.00 0.00 0.00 0.00 0.00 0.00 0.01 0.01 0.00 0.00 0.00 0.00 0.00 0.00 0.01 0.01 0.01
0.00 0.00 0.00 0.00 0.00 0.01 0.02 0.04 0.06 0.07 0.10 0.07 0.03 0.02 0.00 0.00 0.00 0.00 0.00 0.00 0.00 0.00 0.00 0.00 0.00 0.00 0.00 0.00 0.00 0.00 0.00 0.00 0.00 0.00 0.00 0.00 0.00 0.00 0.01 0.01 0.01 0.01 0.01 0.01 0.01 0.01 0.01 0.02 0.03
0.00 0.00 0.00 0.00 0.00 0.00 0.01 0.03 0.04 0.03 0.02 0.02 0.05 0.04 0.02 0.00 0.00 0.00 0.00 0.00 0.00 0.00 0.00 0.00 0.00 0.00 0.00 0.00 0.00 0.00 0.00 0.00 0.00 0.00 0.00 0.00 0.00 0.00 0.02 0.06 0.10 0.11 0.12 0.13 0.11 0.09 0.10 0.10 0.08
0.00 0.00 0.00 0.00 0.00 0.00 0.00 0.00 0.01 0.00 0.01 0.04 0.09 0.10 0.07 0.02 0.00 0.00 0.00 0.00 0.00 0.00 0.00 0.00 0.00 0.00 0.00 0.00 0.00 0.00 0.00 0.00 0.01 0.02 0.08 0.08 0.10 0.06 0.04 0.18 0.28 0.27 0.32 0.30 0.26 0.33 0.29 0.23 0.14
0.00 0.00 0.00 0.00 0.00 0.00 0.00 0.00 0.00 0.00 0.00 0.01 0.04 0.12 0.08 0.01 0.00 0.00 0.00 0.00 0.01 0.01 0.01 0.01 0.00 0.00 0.00 0.00 0.01 0.01 0.02 0.04 0.06 0.09 0.19 0.30 0.35 0.25 0.17 0.29 0.41 0.42 0.41 0.40 0.52 0.54 0.37 0.31 0.23
0.00 0.00 0.00 0.00 0.00 0.00 0.00 0.00 0.00 0.00 0.00 0.00 0.02 0.12 0.14 0.06 0.01 0.00 0.00 0.01 0.02 0.03 0.03 0.03 0.03 0.02 0.01 0.02 0.04 0.06 0.05 0.07 0.12 0.18 0.25 0.50 0.52 0.50 0.49 0.51 0.42 0.43 0.42 0.56 0.53 0.45 0.39 0.37 0.23
0.00 0.00 0.00 0.00 0.00 0.00 0.00 0.00 0.00 0.00 0.00 0.00 0.00 0.02 0.09 0.10 0.03 0.01 0.01 0.03 0.06 0.11 0.17 0.15 0.14 0.08 0.07 0.07 0.08 0.11 0.11 0.14 0.17 0.26 0.33 0.57 0.67 0.68 0.69 0.50 0.42 0.35 0.41 0.55 0.48 0.34 0.31 0.33 0.32
0.00 0.00 0.00 0.00 0.00 0.00 0.00 0.00 0.00 0.00 0.00 0.00 0.00 0.01 0.03 0.06 0.06 0.05 0.06 0.11 0.24 0.34 0.37 0.31 0.25 0.21 0.16 0.13 0.17 0.24 0.24 0.22 0.21 0.31 0.36 0.64 0.89 0.81 0.65 0.59 0.56 0.54 0.65 0.63 0.51 0.42 0.37 0.32 0.34
0.00 0.00 0.00 0.00 0.00 0.00 0.00 0.00 0.00 0.00 0.00 0.00 0.00 0.00 0.01 0.02 0.05 0.11 0.17 0.34 0.54 0.67 0.73 0.76 0.76 0.63 0.48 0.38 0.34 0.35 0.29 0.28 0.30 0.35 0.37 0.61 0.83 0.83 0.80 0.71 0.64 0.70 0.70 0.67 0.67 0.58 0.44 0.34 0.37
0.00 0.00 0.00 0.00 0.00 0.00 0.00 0.00 0.00 0.00 0.00 0.00 0.00 0.02 0.03 0.05 0.11 0.19 0.26 0.46 0.78 1.15 1.53 1.65 1.44 1.18 0.92 0.63 0.42 0.34 0.27 0.25 0.25 0.28 0.31 0.43 0.60 0.70 0.71 0.64 0.67 0.73 0.59 0.51 0.49 0.39 0.31 0.26 0.28
0.00 0.00 0.00 0.00 0.00 0.00 0.00 0.00 0.00 0.00 0.00 0.00 0.01 0.04 0.08 0.11 0.18 0.28 0.40 0.64 1.04 1.65 2.35 2.39 1.90 1.51 1.13 0.77 0.48 0.32 0.25 0.17 0.13 0.16 0.20 0.25 0.29 0.30 0.32 0.30 0.35 0.43 0.40 0.33 0.26 0.30 0.25 0.20 0.24
0.00 0.00 0.00 0.00 0.00 0.00 0.00 0.00 0.01 0.01 0.01 0.01 0.03 0.05 0.09 0.12 0.20 0.31 0.51 0.87 1.53 2.37 2.95 2.85 2.22 1.65 1.15 0.80 0.52 0.29 0.15 0.09 0.09 0.11 0.11 0.11 0.12 0.13 0.10 0.10 0.12 0.15 0.17 0.18 0.17 0.14 0.17 0.12 0.13
0.00 0.00 0.00 0.00 0.00 0.00 0.00 0.01 0.02 0.03 0.04 0.04 0.04 0.03 0.04 0.11 0.24 0.47 0.91 1.60 2.43 3.14 3.22 2.60 1.99 1.57 1.17 0.81 0.41 0.17 0.09 0.05 0.05 0.04 0.02 0.01 0.01 0.01 0.01 0.01 0.01 0.01 0.02 0.03 0.05 0.07 0.08 0.06 0.12
0.00 0.00 0.00 0.00 0.00 0.00 0.00 0.00 0.01 0.02 0.02 0.01 0.02 0.04 0.11 0.28 0.57 1.09 1.92 2.47 2.50 2.42 2.00 1.52 1.23 1.04 0.76 0.47 0.22 0.12 0.06 0.03 0.01 0.01 0.00 0.00 0.00 0.00 0.00 0.00 0.00 0.00 0.00 0.00 0.00 0.02 0.03 0.04 0.05
0.00 0.00 0.00 0.00 0.00 0.00 0.00 0.00 0.01 0.01 0.01 0.01 0.04 0.10 0.31 0.65 1.10 1.75 2.18 2.08 1.55 1.07 0.87 0.78 0.70 0.46 0.29 0.22 0.11 0.05 0.03 0.02 0.02 0.01 0.02 0.02 0.00 0.00 0.00 0.00 0.00 0.00 0.00 0.01 0.01 0.01 0.02 0.03 0.03
0.00 0.00 0.00 0.00 0.00 0.00 0.00 0.01 0.02 0.03 0.04 0.06 0.09 0.16 0.32 0.56 0.80 1.10 1.23 0.98 0.82 0.71 0.62 0.63 0.54 0.30 0.21 0.15 0.08 0.07 0.06 0.05 0.04 0.03 0.03 0.02 0.01 0.00 0.00 0.00 0.00 0.01 0.01 0.02 0.02 0.02 0.04 0.05 0.05
0.00 0.00 0.00 0.00 0.00 0.00 0.00 0.01 0.04 0.07 0.10 0.12 0.15 0.17 0.22 0.38 0.46 0.44 0.44 0.39 0.38 0.40 0.43 0.49 0.48 0.39 0.30 0.23 0.16 0.14 0.11 0.09 0.08 0.06 0.05 0.03 0.02 0.01 0.00 0.00 0.01 0.01 0.01 0.02 0.02 0.03 0.05 0.07 0.09
0.00 0.00 0.00 0.00 0.02 0.07 0.06 0.05 0.10 0.22 0.35 0.36 0.26 0.20 0.24 0.38 0.41 0.34 0.26 0.22 0.23 0.25 0.26 0.32 0.42 0.50 0.47 0.41 0.32 0.26 0.19 0.15 0.12 0.09 0.08 0.05 0.02 0.01 0.01 0.01 0.01 0.01 0.01 0.01 0.02 0.03 0.05 0.07 0.09
0.01 0.01 0.00 0.01 0.09 0.15 0.09 0.06 0.16 0.34 0.44 0.30 0.14 0.10 0.20 0.35 0.45 0.42 0.30 0.22 0.18 0.16 0.15 0.13 0.14 0.23 0.28 0.28 0.29 0.30 0.28 0.23 0.17 0.13 0.09 0.08 0.05 0.04 0.03 0.02 0.02 0.02 0.02 0.01 0.01 0.02 0.03 0.04 0.07
0.01 0.00 0.00 0.00 0.01 0.01 0.03 0.10 0.32 0.49 0.34 0.14 0.04 0.05 0.15 0.22 0.25 0.25 0.19 0.13 0.08 0.06 0.05 0.04 0.03 0.05 0.07 0.09 0.13 0.17 0.21 0.17 0.15 0.20 0.15 0.15 0.17 0.17 0.14 0.08 0.04 0.03 0.02 0.01 0.01 0.01 0.01 0.03 0.06
0.01 0.00 0.00 0.00 0.00 0.01 0.05 0.19 0.33 0.42 0.30 0.12 0.05 0.03 0.05 0.08 0.08 0.10 0.10 0.07 0.06 0.04 0.03 0.03 0.02 0.01 0.02 0.03 0.05 0.09 0.14 0.15 0.14 0.16 0.16 0.16 0.21 0.22 0.19 0.14 0.09 0.05 0.03 0.02 0.02 0.01 0.02 0.04 0.07
0.01 0.01 0.01 0.01 0.01 0.01 0.03 0.20 0.38 0.42 0.32 0.13 0.07 0.06 0.06 0.07 0.07 0.07 0.06 0.06 0.05 0.04 0.04 0.04 0.03 0.02 0.02 0.02 0.03 0.05 0.11 0.15 0.15 0.14 0.17 0.18 0.18 0.18 0.16 0.14 0.10 0.07 0.05 0.05 0.04 0.03 0.04 0.07 0.12
0.02 0.01 0.01 0.01 0.01 0.02 0.04 0.14 0.20 0.19 0.13 0.08 0.05 0.03 0.04 0.04 0.05 0.04 0.04 0.04 0.03 0.03 0.03 0.03 0.03 0.03 0.02 0.02 0.02 0.02 0.05 0.09 0.14 0.17 0.18 0.19 0.18 0.16 0.14 0.13 0.12 0.09 0.06 0.05 0.06 0.06 0.05 0.06 0.08
0.02 0.02 0.02 0.02 0.02 0.02 0.05 0.14 0.10 0.10 0.09 0.05 0.02 0.00 0.00 0.01 0.01 0.01 0.02 0.02 0.02 0.03 0.03 0.03 0.04 0.03 0.03 0.02 0.02 0.01 0.01 0.03 0.06 0.10 0.14 0.16 0.15 0.14 0.14 0.13 0.11 0.08 0.07 0.07 0.07 0.07 0.05 0.05 0.05

GEFSSGP_prec_meanprecacc_024.txt.gz
Total_Precipitation_Accumulation
0.00 0.00 0.01 0.02 0.03 0.08 0.18 0.08 0.02 0.01 0.00 0.00 0.00 0.00 0.00 0.00 0.01 0.02 0.00 0.00 0.00 0.00 0.00 0.00 0.00 0.00 0.00 0.00 0.00 0.00 0.00 0.00 0.00 0.00 0.00 0.00 0.00 0.00 0.00 0.00 0.00 0.01 0.01 0.01 0.01 0.01 0.01 0.00 0.00
0.00 0.00 0.01 0.03 0.04 0.12 0.23 0.10 0.03 0.01 0.00 0.00 0.00 0.00 0.00 0.00 0.00 0.00 0.00 0.00 0.00 0.00 0.00 0.00 0.00 0.00 0.00 0.00 0.00 0.00 0.00 0.00 0.00 0.00 0.00 0.00 0.00 0.00 0.00 0.00 0.00 0.01 0.01 0.00 0.00 0.00 0.00 0.00 0.00
0.00 0.00 0.01 0.01 0.04 0.18 0.35 0.12 0.05 0.03 0.02 0.01 0.00 0.00 0.00 0.00 0.00 0.00 0.00 0.00 0.00 0.00 0.00 0.00 0.00 0.00 0.00 0.00 0.00 0.00 0.00 0.00 0.00 0.00 0.00 0.00 0.00 0.00 0.01 0.01 0.01 0.01 0.01 0.01 0.00 0.00 0.00 0.00 0.00
0.00 0.00 0.00 0.00 0.02 0.07 0.16 0.14 0.10 0.08 0.04 0.02 0.01 0.00 0.00 0.00 0.00 0.00 0.00 0.00 0.00 0.00 0.00 0.00 0.00 0.00 0.00 0.00 0.00 0.00 0.00 0.00 0.00 0.00 0.00 0.00 0.00 0.01 0.01 0.01 0.01 0.01 0.01 0.01 0.01 0.01 0.01 0.00 0.00
0.00 0.00 0.00 0.00 0.01 0.02 0.05 0.06 0.12 0.12 0.05 0.01 0.00 0.00 0.00 0.00 0.00 0.00 0.00 0.00 0.00 0.00 0.00 0.00 0.00 0.00 0.00 0.00 0.00 0.00 0.00 0.00 0.00 0.00 0.00 0.00 0.00 0.00 0.01 0.01 0.01 0.01 0.01 0.01 0.01 0.01 0.01 0.01 0.01
0.00 0.00 0.00 0.00 0.00 0.01 0.03 0.05 0.11 0.14 0.08 0.02 0.00 0.00 0.00 0.00 0.00 0.00 0.00 0.00 0.00 0.00 0.00 0.00 0.00 0.00 0.00 0.00 0.00 0.00 0.00 0.00 0.00 0.00 0.00 0.00 0.00 0.00 0.00 0.00 0.01 0.01 0.01 0.01 0.01 0.01 0.01 0.01 0.02
0.00 0.00 0.00 0.00 0.00 0.01 0.03 0.05 0.08 0.10 0.09 0.05 0.02 0.00 0.00 0.00 0.00 0.00 0.00 0.00 0.00 0.00 0.00 0.00 0.00 0.00 0.00 0.00 0.00 0.00 0.00 0.01 0.01 0.00 0.00 0.00 0.00 0.00 0.01 0.01 0.00 0.00 0.00 0.01 0.01 0.01 0.01 0.01 0.01
0.00 0.00 0.00 0.00 0.00 0.01 0.02 0.04 0.06 0.07 0.10 0.07 0.03 0.02 0.00 0.00 0.00 0.00 0.00 0.00 0.00 0.00 0.00 0.01 0.01 0.00 0.00 0.01 0.01 0.01 0.01 0.01 0.01 0.01 0.01 0.01 0.01 0.01 0.01 0.01 0.01 0.02 0.02 0.02 0.01 0.01 0.01 0.02 0.04
0.00 0.00 0.00 0.00 0.00 0.00 0.01 0.03 0.04 0.03 0.02 0.02 0.05 0.04 0.02 0.00 0.00 0.00 0.00 0.00 0.00 0.00 0.00 0.01 0.01 0.01 0.01 0.01 0.01 0.02 0.02 0.02 0.02 0.02 0.02 0.01 0.01 0.00 0.03 0.06 0.10 0.12 0.13 0.16 0.14 0.12 0.13 0.13 0.11
0.00 0.00 0.00 0.00 0.00 0.00 0.00 0.00 0.01 0.00 0.01 0.04 0.09 0.10 0.07 0.02 0.00 0.00 0.00 0.00 0.01 0.01 0.01 0.01 0.01 0.01 0.02 0.02 0.02 0.03 0.04 0.04 0.04 0.04 0.10 0.10 0.11 0.07 0.05 0.19 0.29 0.29 0.37 0.39 0.40 0.49 0.42 0.33 0.19
0.00 0.00 0.00 0.00 0.00 0.00 0.00 0.00 0.00 0.00 0.00 0.01 0.04 0.12 0.08 0.01 0.00 0.00 0.00 0.01 0.02 0.03 0.04 0.03 0.02 0.02 0.03 0.03 0.03 0.05 0.06 0.08 0.12 0.14 0.23 0.35 0.40 0.31 0.21 0.32 0.44 0.50 0.56 0.55 0.71 0.81 0.55 0.41 0.33
0.00 0.00 0.00 0.00 0.00 0.00 0.00 0.00 0.00 0.00 0.00 0.00 0.02 0.12 0.14 0.06 0.01 0.00 0.01 0.02 0.06 0.11 0.15 0.15 0.12 0.09 0.07 0.07 0.08 0.09 0.09 0.14 0.20 0.28 0.36 0.62 0.66 0.65 0.62 0.64 0.54 0.58 0.62 0.82 0.81 0.74 0.59 0.53 0.41
0.00 0.00 0.00 0.00 0.00 0.00 0.00 0.00 0.00 0.00 0.00 0.00 0.00 0.02 0.10 0.10 0.04 0.01 0.03 0.06 0.15 0.30 0.45 0.48 0.47 0.34 0.26 0.23 0.22 0.22 0.22 0.25 0.30 0.43 0.54 0.79 0.88 0.86 0.90 0.69 0.62 0.57 0.65 0.81 0.75 0.58 0.53 0.57 0.56
0.00 0.00 0.00 0.00 0.00 0.00 0.00 0.00 0.00 0.00 0.00 0.00 0.00 0.01 0.04 0.07 0.07 0.07 0.12 0.22 0.42 0.65 0.86 0.90 0.87 0.77 0.67 0.58 0.56 0.61 0.60 0.50 0.45 0.57 0.63 0.92 1.15 1.05 0.88 0.81 0.75 0.71 0.81 0.79 0.69 0.60 0.57 0.57 0.61
0.00 0.00 0.00 0.00 0.00 0.00 0.00 0.00 0.00 0.00 0.00 0.00 0.00 0.01 0.04 0.06 0.10 0.20 0.34 0.57 0.88 1.12 1.28 1.42 1.50 1.38 1.26 1.19 1.09 0.99 0.91 0.83 0.75 0.70 0.65 0.88 1.07 1.05 1.02 0.89 0.77 0.80 0.80 0.78 0.80 0.74 0.61 0.50 0.53
0.00 0.00 0.00 0.00 0.00 0.00 0.00 0.00 0.00 0.00 0.00 0.00 0.02 0.05 0.10 0.13 0.21 0.35 0.48 0.72 1.10 1.50 1.95 2.12 2.00 1.85 1.71 1.54 1.36 1.31 1.28 1.21 1.03 0.76 0.62 0.67 0.78 0.85 0.85 0.73 0.72 0.77 0.63 0.56 0.56 0.49 0.40 0.34 0.36
0.00 0.00 0.00 0.00 0.00 0.00 0.00 0.00 0.00 0.00 0.01 0.01 0.04 0.10 0.18 0.24 0.35 0.50 0.62 0.86 1.25 1.86 2.57 2.66 2.27 1.99 1.81 1.68 1.57 1.52 1.45 1.19 0.97 0.75 0.60 0.49 0.44 0.40 0.38 0.33 0.37 0.44 0.41 0.34 0.29 0.32 0.27 0.22 0.25
0.00 0.00 0.00 0.00 0.00 0.00 0.00 0.00 0.01 0.01 0.01 0.02 0.06 0.12 0.19 0.26 0.36 0.49 0.66 1.01 1.65 2.46 3.08 3.06 2.57 2.18 1.94 1.77 1.59 1.37 1.21 0.96 0.74 0.60 0.46 0.31 0.24 0.20 0.14 0.11 0.13 0.15 0.17 0.18 0.17 0.14 0.17 0.12 0.13
0.00 0.00 0.00 0.00 0.00 0.00 0.00 0.01 0.02 0.04 0.04 0.05 0.07 0.09 0.12 0.21 0.34 0.56 0.99 1.66 2.47 3.19 3.34 2.93 2.49 2.21 1.94 1.63 1.14 0.80 0.62 0.51 0.39 0.28 0.21 0.15 0.10 0.07 0.05 0.02 0.01 0.02 0.02 0.03 0.05 0.07 0.08 0.06 0.12
0.00 0.00 0.00 0.00 0.00 0.00 0.00 0.01 0.01 0.02 0.03 0.03 0.04 0.07 0.16 0.33 0.62 1.14 1.96 2.48 2.51 2.42 2.06 1.67 1.48 1.35 1.08 0.80 0.55 0.43 0.36 0.29 0.22 0.17 0.15 0.12 0.08 0.06 0.03 0.01 0.00 0.00 0.00 0.00 0.00 0.02 0.03 0.04 0.05
0.00 0.00 0.00 0.00 0.00 0.00 0.00 0.00 0.01 0.01 0.01 0.02 0.05 0.12 0.34 0.68 1.13 1.77 2.19 2.09 1.55 1.07 0.88 0.80 0.74 0.54 0.39 0.34 0.30 0.25 0.21 0.19 0.16 0.14 0.15 0.12 0.07 0.05 0.03 0.01 0.00 0.00 0.00 0.01 0.01 0.01 0.02 0.03 0.03
0.00 0.00 0.00 0.00 0.00 0.00 0.00 0.01 0.03 0.03 0.04 0.07 0.10 0.18 0.35 0.58 0.82 1.11 1.24 0.99 0.82 0.71 0.63 0.65 0.57 0.34 0.27 0.22 0.18 0.16 0.15 0.16 0.16 0.14 0.14 0.13 0.10 0.07 0.05 0.03 0.01 0.01 0.01 0.02 0.02 0.02 0.04 0.05 0.05
0.00 0.00 0.00 0.00 0.00 0.00 0.01 0.02 0.05 0.07 0.11 0.13 0.16 0.18 0.24 0.41 0.48 0.45 0.44 0.40 0.39 0.40 0.43 0.51 0.49 0.42 0.34 0.28 0.22 0.20 0.17 0.17 0.17 0.17 0.17 0.17 0.16 0.13 0.10 0.08 0.06 0.03 0.02 0.02 0.02 0.03 0.05 0.07 0.09
0.01 0.00 0.00 0.00 0.02 0.07 0.07 0.05 0.11 0.23 0.36 0.37 0.28 0.21 0.26 0.39 0.42 0.34 0.26 0.22 0.24 0.25 0.27 0.33 0.43 0.52 0.49 0.43 0.34 0.29 0.23 0.20 0.19 0.18 0.18 0.18 0.16 0.15 0.14 0.13 0.11 0.09 0.05 0.03 0.02 0.03 0.05 0.07 0.09
0.02 0.01 0.00 0.01 0.09 0.15 0.10 0.07 0.17 0.35 0.45 0.31 0.15 0.10 0.20 0.36 0.45 0.42 0.30 0.22 0.18 0.17 0.15 0.13 0.14 0.24 0.28 0.28 0.30 0.31 0.29 0.25 0.20 0.17 0.14 0.16 0.15 0.16 0.15 0.14 0.14 0.13 0.11 0.07 0.04 0.03 0.03 0.05 0.07
0.02 0.01 0.00 0.01 0.02 0.02 0.04 0.12 0.33 0.50 0.34 0.14 0.05 0.05 0.15 0.22 0.25 0.25 0.19 0.13 0.08 0.06 0.05 0.04 0.03 0.05 0.07 0.09 0.13 0.17 0.21 0.17 0.15 0.20 0.16 0.17 0.21 0.22 0.21 0.15 0.13 0.14 0.14 0.12 0.08 0.05 0.03 0.03 0.06
0.02 0.01 0.01 0.02 0.02 0.02 0.08 0.22 0.35 0.43 0.30 0.13 0.06 0.04 0.05 0.08 0.09 0.10 0.10 0.08 0.06 0.04 0.03 0.03 0.02 0.01 0.02 0.03 0.05 0.09 0.14 0.15 0.14 0.16 0.16 0.16 0.22 0.23 0.21 0.17 0.14 0.13 0.14 0.14 0.12 0.09 0.07 0.06 0.08
0.02 0.01 0.01 0.02 0.02 0.03 0.06 0.25 0.41 0.43 0.32 0.13 0.08 0.06 0.06 0.08 0.07 0.07 0.06 0.06 0.05 0.04 0.04 0.04 0.03 0.02 0.02 0.02 0.03 0.05 0.11 0.15 0.15 0.14 0.17 0.18 0.18 0.18 0.17 0.16 0.13 0.11 0.12 0.13 0.13 0.12 0.12 0.12 0.14
0.02 0.02 0.02 0.02 0.03 0.04 0.05 0.16 0.22 0.19 0.13 0.09 0.05 0.03 0.04 0.04 0.05 0.04 0.04 0.04 0.04 0.03 0.03 0.03 0.03 0.03 0.02 0.02 0.02 0.02 0.05 0.09 0.14 0.17 0.18 0.19 0.18 0.16 0.14 0.14 0.13 0.12 0.11 0.13 0.14 0.15 0.15 0.13 0.14
0.02 0.02 0.02 0.03 0.03 0.03 0.05 0.14 0.10 0.10 0.09 0.06 0.02 0.01 0.01 0.01 0.01 0.01 0.02 0.02 0.02 0.03 0.03 0.04 0.04 0.03 0.03 0.02 0.02 0.01 0.01 0.03 0.06 0.10 0.14 0.16 0.15 0.14 0.14 0.13 0.12 0.09 0.09 0.12 0.16 0.18 0.17 0.16 0.15

GEFSSGP_prec_meanprecacc_030.txt.gz
Total_Precipitation_Accumulation
0.00 0.00 0.01 0.02 0.03 0.08 0.18 0.08 0.02 0.01 0.00 0.00 0.00 0.00 0.00 0.00 0.01 0.02 0.00 0.00 0.00 0.00 0.00 0.00 0.00 0.00 0.00 0.00 0.00 0.00 0.00 0.00 0.00 0.00 0.00 0.00 0.00 0.00 0.00 0.00 0.00 0.01 0.01 0.01 0.01 0.01 0.01 0.01 0.00
0.00 0.00 0.01 0.03 0.04 0.12 0.23 0.10 0.03 0.01 0.00 0.00 0.00 0.00 0.00 0.00 0.00 0.00 0.00 0.00 0.00 0.00 0.00 0.00 0.00 0.00 0.00 0.00 0.00 0.00 0.00 0.00 0.00 0.00 0.00 0.00 0.00 0.00 0.00 0.00 0.00 0.01 0.01 0.01 0.01 0.01 0.01 0.01 0.00
0.00 0.00 0.01 0.01 0.04 0.18 0.35 0.12 0.05 0.03 0.02 0.01 0.00 0.00 0.00 0.00 0.00 0.00 0.00 0.00 0.00 0.00 0.00 0.00 0.00 0.00 0.00 0.00 0.00 0.00 0.00 0.00 0.00 0.00 0.00 0.00 0.01 0.01 0.01 0.01 0.01 0.01 0.01 0.01 0.01 0.01 0.01 0.01 0.00
0.00 0.00 0.00 0.00 0.02 0.07 0.16 0.14 0.10 0.08 0.05 0.02 0.01 0.00 0.00 0.00 0.00 0.00 0.00 0.00 0.00 0.00 0.00 0.00 0.00 0.00 0.00 0.00 0.00 0.00 0.00 0.00 0.00 0.00 0.00 0.01 0.01 0.01 0.01 0.01 0.02 0.02 0.02 0.02 0.02 0.02 0.02 0.01 0.00
0.00 0.00 0.00 0.00 0.01 0.02 0.05 0.06 0.12 0.12 0.05 0.01 0.00 0.00 0.00 0.00 0.00 0.00 0.00 0.00 0.00 0.00 0.00 0.00 0.00 0.00 0.00 0.00 0.00 0.00 0.00 0.00 0.00 0.00 0.00 0.01 0.01 0.01 0.01 0.02 0.02 0.02 0.02 0.02 0.02 0.02 0.02 0.02 0.01
0.00 0.00 0.00 0.00 0.00 0.01 0.03 0.05 0.11 0.14 0.08 0.02 0.00 0.00 0.00 0.00 0.00 0.00 0.00 0.00 0.00 0.00 0.00 0.01 0.01 0.01 0.01 0.00 0.00 0.00 0.00 0.00 0.00 0.00 0.00 0.00 0.01 0.01 0.01 0.01 0.01 0.02 0.02 0.02 0.02 0.02 0.02 0.02 0.02
0.00 0.00 0.00 0.00 0.00 0.01 0.03 0.05 0.08 0.10 0.09 0.05 0.02 0.00 0.00 0.00 0.00 0.00 0.00 0.00 0.00 0.00 0.00 0.01 0.01 0.01 0.01 0.01 0.01 0.01 0.01 0.01 0.01 0.01 0.01 0.00 0.00 0.01 0.01 0.01 0.01 0.01 0.01 0.01 0.01 0.01 0.01 0.01 0.02
0.00 0.00 0.00 0.00 0.00 0.01 0.02 0.04 0.06 0.07 0.10 0.07 0.03 0.02 0.00 0.00 0.00 0.00 0.00 0.00 0.00 0.00 0.01 0.01 0.02 0.03 0.03 0.02 0.02 0.02 0.02 0.02 0.02 0.01 0.01 0.01 0.01 0.01 0.01 0.02 0.02 0.02 0.03 0.03 0.02 0.02 0.02 0.03 0.05
0.00 0.00 0.00 0.00 0.00 0.00 0.01 0.03 0.04 0.03 0.02 0.03 0.05 0.04 0.02 0.00 0.00 0.00 0.00 0.00 0.00 0.01 0.01 0.02 0.03 0.04 0.05 0.05 0.04 0.05 0.05 0.06 0.05 0.05 0.04 0.04 0.03 0.02 0.03 0.07 0.11 0.12 0.14 0.17 0.16 0.14 0.15 0.17 0.14
0.00 0.00 0.00 0.00 0.00 0.00 0.00 0.00 0.01 0.00 0.01 0.04 0.09 0.10 0.07 0.02 0.00 0.00 0.00 0.00 0.01 0.01 0.02 0.03 0.03 0.04 0.06 0.06 0.06 0.08 0.08 0.09 0.09 0.10 0.16 0.16 0.16 0.11 0.07 0.20 0.30 0.32 0.39 0.42 0.44 0.57 0.52 0.43 0.28
0.00 0.00 0.00 0.00 0.00 0.00 0.00 0.00 0.00 0.00 0.00 0.01 0.04 0.12 0.08 0.01 0.00 0.00 0.00 0.01 0.03 0.04 0.04 0.04 0.03 0.03 0.04 0.06 0.06 0.08 0.10 0.13 0.18 0.21 0.30 0.42 0.48 0.37 0.27 0.38 0.49 0.55 0.61 0.62 0.78 0.93 0.67 0.55 0.47
0.00 0.00 0.00 0.00 0.00 0.00 0.00 0.00 0.00 0.00 0.00 0.00 0.02 0.12 0.14 0.06 0.01 0.00 0.01 0.03 0.08 0.15 0.17 0.16 0.13 0.10 0.08 0.09 0.10 0.11 0.12 0.17 0.24 0.34 0.43 0.72 0.76 0.74 0.73 0.73 0.62 0.67 0.72 0.93 0.93 0.86 0.72 0.67 0.56
0.00 0.00 0.00 0.00 0.00 0.00 0.00 0.00 0.00 0.00 0.00 0.00 0.00 0.02 0.10 0.10 0.04 0.02 0.03 0.08 0.19 0.37 0.53 0.54 0.51 0.37 0.28 0.25 0.23 0.23 0.24 0.27 0.33 0.48 0.61 0.89 1.00 0.98 1.02 0.79 0.73 0.68 0.80 0.97 0.90 0.71 0.68 0.73 0.75
0.00 0.00 0.00 0.00 0.00 0.00 0.00 0.00 0.00 0.00 0.00 0.00 0.00 0.01 0.04 0.08 0.07 0.08 0.13 0.24 0.46 0.72 0.95 0.99 0.95 0.82 0.70 0.59 0.57 0.63 0.62 0.52 0.47 0.62 0.71 1.05 1.29 1.20 1.03 0.96 0.92 0.86 0.99 0.99 0.91 0.83 0.81 0.80 0.84
0.00 0.00 0.00 0.00 0.00 0.00 0.00 0.00 0.00 0.00 0.00 0.00 0.01 0.02 0.04 0.07 0.11 0.22 0.36 0.61 0.92 1.17 1.33 1.47 1.54 1.41 1.29 1.21 1.10 1.01 0.93 0.85 0.77 0.75 0.74 1.01 1.24 1.24 1.21 1.08 0.94 0.96 0.99 1.00 1.05 1.03 0.93 0.79 0.78
0.00 0.00 0.00 0.00 0.00 0.00 0.00 0.00 0.01 0.01 0.01 0.01 0.03 0.06 0.11 0.16 0.24 0.38 0.51 0.76 1.14 1.53 1.98 2.15 2.03 1.87 1.72 1.55 1.37 1.32 1.30 1.25 1.08 0.86 0.76 0.83 0.98 1.08 1.08 0.93 0.88 0.93 0.78 0.72 0.73 0.70 0.66 0.64 0.68
0.00 0.00 0.00 0.00 0.00 0.00 0.00 0.00 0.01 0.01 0.01 0.03 0.06 0.12 0.20 0.26 0.37 0.53 0.66 0.91 1.30 1.89 2.59 2.67 2.28 2.00 1.82 1.69 1.59 1.54 1.49 1.26 1.11 0.94 0.83 0.76 0.71 0.65 0.62 0.53 0.53 0.58 0.53 0.45 0.41 0.48 0.47 0.46 0.53
0.00 0.00 0.00 0.00 0.00 0.00 0.00 0.00 0.02 0.02 0.03 0.04 0.08 0.14 0.21 0.28 0.39 0.51 0.69 1.04 1.67 2.49 3.09 3.06 2.57 2.18 1.94 1.78 1.60 1.41 1.31 1.16 1.00 0.88 0.78 0.62 0.55 0.46 0.36 0.28 0.26 0.25 0.25 0.25 0.26 0.24 0.28 0.26 0.28
0.00 0.00 0.00 0.00 0.00 0.00 0.00 0.01 0.02 0.04 0.05 0.05 0.08 0.09 0.13 0.22 0.35 0.57 1.00 1.67 2.48 3.19 3.35 2.93 2.49 2.21 1.95 1.63 1.15 0.84 0.72 0.69 0.63 0.53 0.46 0.39 0.33 0.29 0.24 0.18 0.14 0.10 0.09 0.09 0.11 0.13 0.13 0.12 0.18
0.00 0.00 0.00 0.00 0.00 0.00 0.00 0.01 0.02 0.03 0.03 0.03 0.05 0.08 0.16 0.33 0.62 1.15 1.96 2.48 2.51 2.43 2.06 1.67 1.48 1.36 1.09 0.80 0.56 0.45 0.40 0.37 0.33 0.31 0.31 0.29 0.25 0.23 0.19 0.16 0.14 0.09 0.06 0.04 0.04 0.05 0.06 0.06 0.07
0.00 0.01 0.00 0.00 0.00 0.00 0.01 0.01 0.01 0.01 0.02 0.02 0.05 0.12 0.34 0.68 1.13 1.78 2.19 2.09 1.55 1.07 0.88 0.80 0.74 0.54 0.39 0.35 0.31 0.27 0.24 0.24 0.22 0.21 0.22 0.22 0.18 0.17 0.15 0.13 0.11 0.09 0.07 0.06 0.05 0.04 0.05 0.05 0.04
0.00 0.00 0.00 0.00 0.00 0.01 0.01 0.05 0.05 0.04 0.05 0.07 0.10 0.18 0.35 0.58 0.82 1.11 1.24 0.99 0.82 0.71 0.63 0.65 0.57 0.34 0.27 0.23 0.19 0.18 0.17 0.19 0.19 0.18 0.19 0.18 0.16 0.16 0.14 0.11 0.08 0.06 0.06 0.07 0.06 0.04 0.06 0.07 0.06
0.00 0.00 0.00 0.00 0.00 0.01 0.02 0.06 0.09 0.08 0.12 0.13 0.16 0.18 0.24 0.41 0.48 0.45 0.44 0.40 0.39 0.40 0.43 0.51 0.50 0.42 0.34 0.28 0.22 0.20 0.18 0.17 0.18 0.19 0.19 0.20 0.20 0.18 0.17 0.17 0.14 0.10 0.06 0.06 0.05 0.05 0.06 0.08 0.09
0.01 0.01 0.01 0.01 0.03 0.09 0.08 0.09 0.18 0.26 0.37 0.37 0.28 0.21 0.26 0.39 0.42 0.34 0.26 0.22 0.24 0.25 0.27 0.33 0.43 0.52 0.49 0.43 0.34 0.29 0.23 0.20 0.19 0.18 0.19 0.18 0.18 0.18 0.17 0.18 0.18 0.17 0.15 0.10 0.06 0.05 0.07 0.09 0.11
0.03 0.01 0.01 0.02 0.10 0.17 0.11 0.12 0.23 0.36 0.45 0.31 0.15 0.11 0.21 0.36 0.45 0.42 0.31 0.23 0.18 0.17 0.15 0.13 0.15 0.24 0.28 0.28 0.30 0.31 0.29 0.25 0.20 0.17 0.15 0.16 0.15 0.16 0.16 0.16 0.17 0.18 0.18 0.17 0.13 0.09 0.07 0.08 0.10
0.02 0.01 0.01 0.01 0.02 0.05 0.08 0.20 0.37 0.50 0.34 0.14 0.05 0.05 0.15 0.22 0.25 0.25 0.19 0.13 0.08 0.06 0.06 0.04 0.04 0.05 0.07 0.09 0.13 0.17 0.21 0.17 0.15 0.20 0.17 0.17 0.21 0.22 0.21 0.16 0.14 0.16 0.17 0.18 0.16 0.14 0.12 0.10 0.10
0.02 0.01 0.01 0.02 0.03 0.06 0.15 0.28 0.37 0.43 0.30 0.13 0.06 0.04 0.05 0.08 0.09 0.10 0.10 0.08 0.06 0.04 0.03 0.03 0.02 0.02 0.02 0.03 0.05 0.09 0.15 0.15 0.14 0.16 0.17 0.16 0.22 0.23 0.21 0.18 0.14 0.14 0.15 0.16 0.17 0.16 0.17 0.17 0.17
0.02 0.01 0.01 0.02 0.04 0.06 0.10 0.31 0.46 0.44 0.32 0.13 0.08 0.06 0.06 0.08 0.07 0.07 0.06 0.06 0.05 0.04 0.04 0.04 0.03 0.02 0.02 0.02 0.03 0.05 0.11 0.15 0.15 0.14 0.17 0.18 0.18 0.18 0.17 0.16 0.13 0.11 0.12 0.14 0.15 0.17 0.21 0.23 0.27
0.02 0.02 0.02 0.02 0.03 0.05 0.06 0.17 0.23 0.20 0.13 0.09 0.05 0.03 0.04 0.04 0.05 0.04 0.04 0.04 0.04 0.03 0.03 0.03 0.03 0.03 0.02 0.02 0.02 0.02 0.05 0.09 0.14 0.17 0.18 0.19 0.18 0.17 0.14 0.14 0.13 0.12 0.11 0.13 0.15 0.18 0.20 0.23 0.28
0.02 0.02 0.02 0.03 0.03 0.03 0.05 0.14 0.10 0.10 0.09 0.06 0.02 0.01 0.01 0.01 0.01 0.01 0.02 0.02 0.02 0.03 0.03 0.04 0.04 0.03 0.03 0.02 0.02 0.01 0.01 0.03 0.06 0.10 0.14 0.16 0.15 0.14 0.14 0.13 0.12 0.10 0.10 0.12 0.16 0.19 0.20 0.22 0.26

GEFSSGP_prec_meanprecacc_036.txt.gz
Total_Precipitation_Accumulation
0.00 0.00 0.01 0.02 0.05 0.17 0.25 0.09 0.02 0.01 0.00 0.00 0.00 0.00 0.00 0.00 0.01 0.04 0.00 0.00 0.00 0.00 0.00 0.00 0.00 0.00 0.00 0.00 0.00 0.00 0.00 0.00 0.01 0.01 0.01 0.00 0.00 0.00 0.00 0.00 0.00 0.01 0.01 0.01 0.01 0.01 0.01 0.01 0.01
0.00 0.00 0.01 0.03 0.07 0.18 0.26 0.10 0.03 0.01 0.00 0.00 0.00 0.00 0.00 0.00 0.00 0.00 0.00 0.00 0.00 0.00 0.00 0.00 0.00 0.00 0.00 0.00 0.00 0.00 0.00 0.00 0.01 0.00 0.00 0.00 0.01 0.01 0.01 0.00 0.00 0.01 0.01 0.01 0.01 0.01 0.01 0.01 0.00
0.00 0.00 0.01 0.01 0.05 0.19 0.36 0.13 0.06 0.03 0.02 0.01 0.00 0.00 0.00 0.00 0.00 0.00 0.00 0.00 0.00 0.00 0.00 0.00 0.00 0.00 0.00 0.00 0.00 0.00 0.00 0.00 0.01 0.01 0.00 0.01 0.01 0.01 0.01 0.01 0.01 0.02 0.02 0.02 0.02 0.02 0.02 0.01 0.00
0.00 0.00 0.00 0.00 0.02 0.07 0.16 0.14 0.10 0.08 0.05 0.02 0.01 0.00 0.00 0.00 0.00 0.00 0.00 0.00 0.00 0.00 0.00 0.00 0.00 0.00 0.00 0.00 0.00 0.00 0.00 0.00 0.01 0.01 0.01 0.01 0.01 0.02 0.02 0.02 0.02 0.03 0.03 0.03 0.03 0.03 0.02 0.02 0.01
0.00 0.00 0.00 0.00 0.01 0.02 0.05 0.06 0.12 0.12 0.05 0.02 0.00 0.00 0.00 0.00 0.00 0.00 0.00 0.00 0.00 0.00 0.00 0.00 0.00 0.00 0.00 0.00 0.00 0.00 0.00 0.00 0.00 0.01 0.01 0.01 0.01 0.02 0.02 0.02 0.02 0.03 0.04 0.04 0.03 0.03 0.03 0.02 0.01
0.00 0.00 0.00 0.00 0.00 0.01 0.03 0.05 0.11 0.14 0.08 0.03 0.01 0.00 0.00 0.00 0.00 0.00 0.00 0.00 0.00 0.00 0.00 0.01 0.01 0.01 0.01 0.00 0.00 0.00 0.00 0.00 0.00 0.00 0.00 0.01 0.01 0.01 0.01 0.02 0.02 0.03 0.03 0.03 0.04 0.03 0.03 0.02 0.02
0.00 0.00 0.00 0.00 0.00 0.01 0.03 0.05 0.08 0.10 0.10 0.06 0.03 0.01 0.02 0.01 0.00 0.00 0.00 0.00 0.00 0.00 0.00 0.01 0.01 0.01 0.01 0.01 0.01 0.01 0.01 0.01 0.01 0.01 0.01 0.01 0.01 0.01 0.02 0.02 0.02 0.02 0.03 0.04 0.03 0.03 0.03 0.02 0.02
0.00 0.00 0.00 0.00 0.00 0.01 0.02 0.04 0.06 0.07 0.11 0.07 0.03 0.03 0.03 0.01 0.00 0.00 0.00 0.00 0.00 0.00 0.01 0.01 0.02 0.03 0.03 0.02 0.02 0.02 0.02 0.02 0.02 0.02 0.02 0.01 0.01 0.01 0.02 0.02 0.02 0.03 0.04 0.05 0.04 0.04 0.04 0.05 0.06
0.00 0.00 0.00 0.00 0.00 0.00 0.01 0.03 0.04 0.03 0.02 0.03 0.06 0.05 0.02 0.01 0.00 0.00 0.00 0.00 0.00 0.01 0.01 0.02 0.03 0.04 0.05 0.05 0.05 0.05 0.05 0.06 0.06 0.06 0.05 0.05 0.03 0.03 0.05 0.07 0.12 0.13 0.15 0.19 0.17 0.16 0.17 0.19 0.16
0.00 0.00 0.00 0.00 0.00 0.00 0.00 0.00 0.01 0.00 0.01 0.08 0.14 0.12 0.07 0.02 0.00 0.00 0.00 0.01 0.01 0.01 0.02 0.03 0.03 0.04 0.06 0.06 0.08 0.11 0.11 0.13 0.12 0.15 0.21 0.20 0.20 0.14 0.09 0.24 0.35 0.34 0.41 0.44 0.45 0.59 0.55 0.46 0.30
0.00 0.00 0.00 0.00 0.00 0.00 0.00 0.00 0.00 0.00 0.01 0.04 0.09 0.14 0.08 0.01 0.01 0.01 0.01 0.02 0.03 0.04 0.05 0.04 0.03 0.03 0.05 0.06 0.08 0.12 0.15 0.22 0.29 0.36 0.49 0.60 0.63 0.46 0.30 0.43 0.60 0.61 0.65 0.64 0.81 0.96 0.69 0.58 0.51
0.00 0.00 0.00 0.00 0.00 0.00 0.00 0.00 0.00 0.00 0.00 0.01 0.05 0.13 0.15 0.07 0.02 0.02 0.03 0.05 0.09 0.16 0.18 0.17 0.14 0.11 0.09 0.10 0.12 0.13 0.15 0.22 0.32 0.49 0.63 0.92 0.95 0.90 0.85 0.87 0.77 0.83 0.85 1.03 1.01 0.94 0.77 0.74 0.64
0.00 0.00 0.00 0.00 0.00 0.00 0.00 0.00 0.00 0.00 0.00 0.00 0.00 0.03 0.10 0.11 0.05 0.04 0.05 0.10 0.22 0.40 0.56 0.57 0.54 0.39 0.31 0.28 0.25 0.25 0.25 0.30 0.36 0.57 0.74 1.07 1.20 1.18 1.24 1.00 0.93 0.85 0.96 1.17 1.05 0.81 0.82 0.89 0.91
0.00 0.00 0.00 0.00 0.00 0.00 0.00 0.00 0.00 0.00 0.00 0.00 0.00 0.01 0.05 0.09 0.09 0.11 0.16 0.28 0.50 0.76 0.99 1.01 0.98 0.85 0.74 0.63 0.60 0.65 0.63 0.53 0.49 0.66 0.79 1.20 1.47 1.41 1.27 1.21 1.18 1.09 1.22 1.24 1.21 1.11 1.10 1.06 1.09
0.00 0.00 0.00 0.00 0.00 0.00 0.00 0.00 0.00 0.01 0.00 0.00 0.01 0.02 0.05 0.08 0.13 0.25 0.40 0.65 0.97 1.21 1.37 1.51 1.57 1.43 1.31 1.23 1.12 1.02 0.94 0.86 0.80 0.80 0.82 1.13 1.40 1.44 1.46 1.36 1.22 1.26 1.34 1.36 1.39 1.35 1.29 1.09 1.04
0.00 0.00 0.00 0.00 0.01 0.00 0.00 0.03 0.01 0.01 0.01 0.01 0.03 0.06 0.12 0.17 0.25 0.40 0.54 0.78 1.16 1.55 2.00 2.17 2.04 1.88 1.73 1.56 1.38 1.33 1.32 1.27 1.12 0.92 0.84 0.91 1.10 1.24 1.29 1.19 1.17 1.26 1.16 1.12 1.11 1.05 1.01 0.97 1.00
0.00 0.00 0.01 0.05 0.04 0.01 0.00 0.02 0.01 0.01 0.02 0.03 0.06 0.13 0.21 0.27 0.39 0.55 0.68 0.92 1.31 1.90 2.60 2.69 2.29 2.01 1.82 1.69 1.59 1.55 1.50 1.30 1.16 1.02 0.92 0.85 0.81 0.77 0.80 0.77 0.80 0.88 0.87 0.84 0.77 0.84 0.84 0.82 0.88
0.01 0.03 0.07 0.09 0.04 0.03 0.01 0.03 0.03 0.02 0.03 0.04 0.08 0.14 0.22 0.29 0.40 0.52 0.70 1.05 1.68 2.49 3.10 3.07 2.58 2.18 1.94 1.78 1.61 1.42 1.33 1.19 1.06 0.96 0.86 0.70 0.65 0.60 0.57 0.55 0.55 0.54 0.57 0.61 0.60 0.58 0.61 0.57 0.57
0.01 0.03 0.09 0.07 0.04 0.03 0.01 0.01 0.03 0.04 0.05 0.05 0.08 0.10 0.14 0.22 0.35 0.57 1.00 1.67 2.48 3.20 3.35 2.93 2.49 2.22 1.95 1.64 1.16 0.85 0.74 0.71 0.67 0.57 0.51 0.46 0.42 0.43 0.44 0.41 0.39 0.36 0.35 0.35 0.37 0.41 0.42 0.39 0.44
0.00 0.01 0.04 0.07 0.05 0.01 0.01 0.01 0.02 0.03 0.03 0.03 0.05 0.08 0.16 0.33 0.62 1.15 1.97 2.49 2.51 2.43 2.06 1.67 1.49 1.36 1.09 0.81 0.56 0.45 0.40 0.38 0.35 0.34 0.35 0.33 0.29 0.30 0.30 0.30 0.31 0.29 0.26 0.26 0.27 0.28 0.27 0.26 0.29
0.01 0.02 0.08 0.15 0.07 0.01 0.01 0.06 0.06 0.04 0.03 0.02 0.05 0.12 0.34 0.68 1.13 1.78 2.19 2.09 1.55 1.07 0.88 0.81 0.74 0.54 0.39 0.35 0.31 0.27 0.24 0.24 0.23 0.22 0.24 0.23 0.21 0.22 0.23 0.23 0.23 0.26 0.26 0.26 0.26 0.24 0.23 0.20 0.18
0.03 0.02 0.03 0.04 0.03 0.04 0.06 0.23 0.26 0.17 0.12 0.09 0.10 0.18 0.35 0.58 0.82 1.11 1.24 0.99 0.82 0.71 0.63 0.65 0.57 0.34 0.27 0.23 0.19 0.18 0.17 0.19 0.19 0.19 0.19 0.19 0.17 0.18 0.17 0.17 0.16 0.17 0.21 0.26 0.23 0.25 0.24 0.23 0.17
0.01 0.01 0.01 0.02 0.04 0.06 0.16 0.35 0.37 0.26 0.26 0.18 0.17 0.19 0.26 0.42 0.48 0.45 0.44 0.40 0.39 0.40 0.43 0.51 0.50 0.43 0.34 0.28 0.22 0.20 0.18 0.17 0.18 0.19 0.19 0.20 0.20 0.18 0.18 0.18 0.16 0.15 0.15 0.19 0.20 0.25 0.26 0.27 0.23
0.01 0.01 0.01 0.05 0.11 0.28 0.41 0.50 0.56 0.44 0.49 0.41 0.29 0.22 0.26 0.39 0.42 0.34 0.26 0.22 0.24 0.25 0.27 0.33 0.43 0.52 0.49 0.43 0.35 0.29 0.23 0.21 0.19 0.18 0.19 0.19 0.18 0.18 0.17 0.18 0.18 0.19 0.17 0.15 0.14 0.18 0.23 0.28 0.29
0.03 0.02 0.04 0.25 0.46 0.53 0.41 0.42 0.53 0.45 0.48 0.32 0.16 0.11 0.21 0.36 0.45 0.42 0.31 0.23 0.18 0.17 0.15 0.13 0.15 0.24 0.28 0.28 0.30 0.31 0.30 0.26 0.21 0.18 0.15 0.17 0.16 0.16 0.16 0.16 0.17 0.18 0.19 0.19 0.17 0.15 0.18 0.23 0.27
0.02 0.01 0.02 0.06 0.11 0.18 0.23 0.41 0.54 0.52 0.35 0.14 0.05 0.05 0.15 0.22 0.25 0.25 0.19 0.13 0.08 0.06 0.06 0.04 0.04 0.05 0.07 0.09 0.13 0.18 0.21 0.17 0.15 0.21 0.17 0.17 0.21 0.22 0.21 0.16 0.15 0.16 0.17 0.18 0.18 0.16 0.16 0.20 0.24
0.02 0.01 0.01 0.02 0.03 0.09 0.25 0.40 0.43 0.44 0.30 0.13 0.06 0.04 0.05 0.08 0.09 0.10 0.10 0.08 0.06 0.04 0.03 0.03 0.02 0.02 0.02 0.03 0.05 0.09 0.15 0.15 0.14 0.16 0.17 0.16 0.22 0.23 0.21 0.18 0.14 0.14 0.15 0.17 0.17 0.17 0.19 0.22 0.25
0.02 0.01 0.01 0.02 0.05 0.07 0.13 0.38 0.54 0.46 0.32 0.13 0.08 0.06 0.06 0.08 0.07 0.07 0.06 0.06 0.05 0.04 0.04 0.04 0.03 0.02 0.02 0.02 0.03 0.05 0.12 0.15 0.16 0.15 0.17 0.19 0.18 0.18 0.17 0.16 0.13 0.12 0.13 0.15 0.15 0.17 0.21 0.25 0.31
0.02 0.02 0.02 0.02 0.03 0.05 0.06 0.20 0.24 0.20 0.13 0.09 0.05 0.03 0.04 0.04 0.05 0.04 0.04 0.04 0.04 0.03 0.03 0.03 0.03 0.03 0.02 0.02 0.02 0.02 0.06 0.10 0.14 0.17 0.19 0.20 0.19 0.17 0.15 0.14 0.14 0.12 0.12 0.13 0.16 0.18 0.20 0.24 0.30
0.02 0.02 0.02 0.03 0.03 0.03 0.05 0.15 0.10 0.10 0.09 0.06 0.02 0.01 0.01 0.01 0.01 0.01 0.02 0.02 0.02 0.03 0.03 0.04 0.04 0.03 0.03 0.02 0.02 0.01 0.01 0.03 0.06 0.11 0.14 0.16 0.16 0.15 0.14 0.14 0.13 0.10 0.10 0.13 0.17 0.20 0.21 0.23 0.26

GEFSSGP_prec_meanprecacc_042.txt.gz
Total_Precipitation_Accumulation
0.00 0.00 0.03 0.08 0.16 0.28 0.37 0.19 0.06 0.03 0.01 0.01 0.01 0.01 0.00 0.00 0.01 0.04 0.01 0.00 0.00 0.00 0.00 0.00 0.00 0.00 0.00 0.00 0.00 0.00 0.00 0.00 0.01 0.01 0.01 0.00 0.00 0.00 0.01 0.00 0.00 0.01 0.01 0.01 0.01 0.01 0.01 0.01 0.01
0.00 0.00 0.02 0.07 0.18 0.28 0.31 0.13 0.05 0.03 0.01 0.01 0.01 0.00 0.00 0.00 0.00 0.00 0.00 0.00 0.00 0.00 0.00 0.00 0.00 0.00 0.00 0.00 0.00 0.00 0.00 0.01 0.01 0.01 0.01 0.01 0.01 0.01 0.01 0.01 0.00 0.01 0.01 0.02 0.02 0.02 0.01 0.01 0.00
0.00 0.00 0.01 0.03 0.11 0.24 0.37 0.14 0.07 0.05 0.03 0.01 0.01 0.00 0.00 0.00 0.00 0.00 0.00 0.00 0.00 0.00 0.00 0.00 0.00 0.00 0.00 0.00 0.00 0.00 0.00 0.01 0.01 0.01 0.01 0.01 0.01 0.01 0.01 0.01 0.01 0.02 0.02 0.03 0.03 0.02 0.02 0.01 0.00
0.00 0.00 0.00 0.01 0.03 0.08 0.18 0.16 0.10 0.09 0.06 0.03 0.01 0.00 0.00 0.00 0.00 0.00 0.00 0.00 0.00 0.00 0.00 0.00 0.00 0.00 0.00 0.00 0.00 0.00 0.00 0.00 0.01 0.01 0.01 0.01 0.01 0.02 0.02 0.02 0.03 0.03 0.03 0.04 0.03 0.03 0.03 0.02 0.01
0.00 0.00 0.00 0.00 0.01 0.02 0.05 0.07 0.12 0.12 0.06 0.03 0.02 0.01 0.01 0.00 0.00 0.00 0.00 0.00 0.00 0.00 0.00 0.00 0.00 0.00 0.00 0.00 0.00 0.00 0.00 0.00 0.01 0.01 0.01 0.01 0.02 0.02 0.03 0.02 0.03 0.03 0.04 0.04 0.04 0.03 0.03 0.02 0.01
0.00 0.00 0.00 0.00 0.01 0.01 0.03 0.05 0.12 0.14 0.09 0.05 0.06 0.03 0.01 0.00 0.01 0.00 0.00 0.00 0.00 0.00 0.00 0.01 0.01 0.01 0.01 0.00 0.00 0.00 0.00 0.01 0.01 0.01 0.01 0.01 0.01 0.01 0.02 0.02 0.02 0.03 0.03 0.04 0.04 0.04 0.03 0.03 0.02
0.00 0.00 0.00 0.00 0.00 0.01 0.03 0.05 0.08 0.10 0.11 0.10 0.13 0.11 0.06 0.04 0.01 0.01 0.01 0.01 0.00 0.00 0.00 0.01 0.01 0.01 0.01 0.01 0.01 0.01 0.01 0.01 0.01 0.01 0.01 0.01 0.01 0.01 0.02 0.02 0.02 0.03 0.03 0.04 0.04 0.03 0.03 0.03 0.02
0.00 0.00 0.00 0.00 0.00 0.01 0.02 0.05 0.06 0.07 0.11 0.09 0.12 0.18 0.11 0.07 0.03 0.02 0.01 0.02 0.02 0.01 0.01 0.02 0.02 0.03 0.03 0.03 0.02 0.02 0.02 0.03 0.02 0.02 0.02 0.02 0.02 0.02 0.02 0.02 0.03 0.04 0.05 0.05 0.04 0.04 0.05 0.06 0.06
0.00 0.00 0.00 0.00 0.00 0.01 0.01 0.03 0.04 0.03 0.03 0.05 0.10 0.15 0.11 0.05 0.05 0.05 0.03 0.03 0.02 0.02 0.02 0.03 0.03 0.05 0.05 0.05 0.05 0.06 0.06 0.07 0.06 0.06 0.07 0.05 0.04 0.03 0.05 0.08 0.13 0.16 0.18 0.20 0.19 0.18 0.20 0.21 0.17
0.00 0.00 0.00 0.00 0.00 0.00 0.00 0.00 0.01 0.01 0.02 0.11 0.20 0.21 0.18 0.10 0.06 0.08 0.08 0.06 0.05 0.04 0.04 0.05 0.05 0.06 0.07 0.08 0.11 0.14 0.14 0.16 0.15 0.16 0.23 0.22 0.21 0.14 0.10 0.27 0.42 0.43 0.51 0.53 0.54 0.68 0.63 0.52 0.33
0.00 0.00 0.00 0.00 0.00 0.00 0.00 0.00 0.00 0.01 0.02 0.07 0.16 0.23 0.18 0.10 0.10 0.11 0.12 0.12 0.09 0.09 0.09 0.10 0.09 0.08 0.11 0.12 0.13 0.17 0.23 0.31 0.37 0.43 0.54 0.65 0.67 0.50 0.33 0.48 0.71 0.76 0.81 0.81 0.98 1.15 0.84 0.71 0.61
0.00 0.00 0.00 0.00 0.00 0.00 0.00 0.00 0.00 0.00 0.01 0.03 0.09 0.22 0.28 0.24 0.22 0.22 0.19 0.18 0.20 0.24 0.24 0.22 0.22 0.20 0.16 0.17 0.18 0.18 0.21 0.30 0.40 0.57 0.69 1.01 1.07 1.01 0.94 0.97 0.89 1.01 1.06 1.28 1.30 1.22 1.02 0.97 0.84
0.00 0.00 0.00 0.00 0.00 0.00 0.00 0.00 0.00 0.00 0.01 0.02 0.04 0.09 0.23 0.28 0.28 0.28 0.25 0.26 0.33 0.52 0.66 0.66 0.63 0.49 0.40 0.37 0.34 0.31 0.32 0.36 0.42 0.63 0.81 1.16 1.33 1.34 1.43 1.16 1.08 1.05 1.24 1.49 1.41 1.19 1.18 1.21 1.20
0.00 0.00 0.00 0.00 0.00 0.00 0.00 0.00 0.00 0.01 0.01 0.01 0.03 0.05 0.10 0.16 0.17 0.20 0.29 0.41 0.64 0.89 1.11 1.14 1.11 0.96 0.85 0.73 0.67 0.69 0.68 0.57 0.53 0.71 0.83 1.24 1.52 1.48 1.35 1.32 1.29 1.21 1.38 1.43 1.47 1.47 1.55 1.53 1.53
0.00 0.00 0.00 0.00 0.00 0.00 0.01 0.01 0.02 0.02 0.02 0.02 0.03 0.04 0.08 0.12 0.17 0.31 0.47 0.72 1.05 1.32 1.48 1.61 1.67 1.51 1.36 1.28 1.15 1.04 0.96 0.87 0.81 0.81 0.84 1.16 1.43 1.49 1.50 1.40 1.28 1.32 1.41 1.46 1.51 1.53 1.57 1.45 1.45
0.00 0.00 0.00 0.01 0.02 0.02 0.02 0.08 0.08 0.07 0.04 0.04 0.05 0.08 0.13 0.18 0.28 0.43 0.59 0.84 1.22 1.61 2.07 2.23 2.09 1.91 1.75 1.57 1.39 1.33 1.32 1.27 1.13 0.93 0.85 0.93 1.11 1.26 1.31 1.21 1.20 1.29 1.20 1.18 1.20 1.17 1.19 1.21 1.30
0.00 0.00 0.01 0.06 0.07 0.04 0.06 0.13 0.16 0.09 0.07 0.09 0.12 0.15 0.22 0.28 0.40 0.57 0.70 0.95 1.34 1.93 2.63 2.71 2.30 2.02 1.83 1.69 1.60 1.55 1.51 1.30 1.17 1.02 0.93 0.85 0.81 0.78 0.81 0.79 0.82 0.90 0.90 0.89 0.86 0.99 1.05 1.08 1.18
0.01 0.03 0.08 0.13 0.11 0.10 0.14 0.20 0.17 0.13 0.16 0.16 0.14 0.17 0.23 0.29 0.40 0.53 0.71 1.06 1.69 2.50 3.10 3.07 2.58 2.18 1.95 1.79 1.61 1.42 1.33 1.19 1.06 0.97 0.87 0.71 0.66 0.61 0.57 0.56 0.57 0.57 0.60 0.66 0.69 0.71 0.80 0.81 0.84
0.02 0.04 0.13 0.16 0.13 0.19 0.18 0.19 0.27 0.38 0.34 0.23 0.17 0.13 0.15 0.22 0.36 0.57 1.00 1.67 2.48 3.20 3.35 2.93 2.49 2.22 1.96 1.64 1.16 0.85 0.74 0.71 0.67 0.57 0.51 0.46 0.42 0.43 0.45 0.41 0.40 0.39 0.39 0.40 0.43 0.50 0.56 0.57 0.64
0.03 0.03 0.11 0.18 0.13 0.13 0.17 0.28 0.44 0.47 0.37 0.22 0.15 0.13 0.18 0.34 0.63 1.15 1.97 2.49 2.51 2.43 2.06 1.67 1.49 1.36 1.09 0.81 0.56 0.45 0.41 0.38 0.36 0.34 0.36 0.34 0.29 0.30 0.30 0.30 0.31 0.31 0.28 0.29 0.31 0.34 0.35 0.38 0.48
0.06 0.05 0.11 0.19 0.10 0.07 0.19 0.46 0.55 0.45 0.37 0.23 0.16 0.16 0.35 0.69 1.14 1.78 2.20 2.09 1.55 1.07 0.88 0.81 0.74 0.54 0.39 0.35 0.31 0.27 0.24 0.25 0.23 0.22 0.24 0.24 0.21 0.22 0.23 0.23 0.24 0.27 0.28 0.28 0.31 0.30 0.29 0.28 0.31
0.05 0.03 0.04 0.06 0.07 0.17 0.34 0.66 0.71 0.47 0.44 0.33 0.27 0.23 0.36 0.59 0.82 1.11 1.24 0.99 0.82 0.71 0.63 0.65 0.57 0.34 0.27 0.23 0.19 0.18 0.17 0.19 0.19 0.19 0.19 0.19 0.17 0.18 0.17 0.17 0.16 0.18 0.23 0.28 0.28 0.32 0.31 0.29 0.23
0.02 0.02 0.02 0.05 0.09 0.17 0.31 0.57 0.67 0.53 0.58 0.42 0.27 0.24 0.28 0.42 0.48 0.45 0.44 0.40 0.39 0.40 0.43 0.51 0.50 0.43 0.34 0.28 0.22 0.20 0.18 0.17 0.18 0.19 0.19 0.20 0.20 0.18 0.18 0.18 0.16 0.15 0.15 0.20 0.22 0.29 0.33 0.33 0.28
0.02 0.03 0.04 0.09 0.14 0.32 0.47 0.60 0.77 0.70 0.74 0.54 0.35 0.25 0.27 0.39 0.42 0.34 0.26 0.22 0.24 0.25 0.27 0.33 0.43 0.52 0.49 0.43 0.35 0.29 0.23 0.21 0.19 0.18 0.19 0.19 0.18 0.18 0.17 0.18 0.18 0.19 0.17 0.15 0.15 0.19 0.26 0.32 0.34
0.04 0.03 0.07 0.30 0.51 0.60 0.46 0.54 0.78 0.62 0.57 0.41 0.21 0.14 0.21 0.36 0.45 0.42 0.31 0.23 0.18 0.17 0.15 0.13 0.15 0.24 0.28 0.28 0.30 0.31 0.30 0.26 0.21 0.18 0.15 0.17 0.16 0.16 0.16 0.16 0.17 0.19 0.19 0.19 0.17 0.15 0.19 0.25 0.30
0.03 0.01 0.04 0.08 0.13 0.24 0.34 0.60 0.76 0.60 0.38 0.17 0.07 0.06 0.15 0.22 0.25 0.25 0.19 0.13 0.08 0.06 0.06 0.04 0.04 0.05 0.07 0.09 0.13 0.18 0.21 0.17 0.15 0.21 0.17 0.17 0.21 0.22 0.21 0.16 0.15 0.16 0.18 0.18 0.18 0.16 0.17 0.20 0.25
0.02 0.01 0.01 0.02 0.04 0.14 0.36 0.59 0.54 0.46 0.31 0.13 0.07 0.05 0.06 0.08 0.09 0.10 0.10 0.08 0.06 0.04 0.03 0.03 0.02 0.02 0.02 0.03 0.05 0.09 0.15 0.15 0.14 0.16 0.17 0.16 0.22 0.23 0.21 0.18 0.15 0.14 0.15 0.17 0.18 0.18 0.19 0.22 0.25
0.02 0.01 0.01 0.02 0.05 0.09 0.22 0.50 0.61 0.47 0.32 0.13 0.08 0.07 0.06 0.08 0.07 0.07 0.06 0.06 0.05 0.04 0.04 0.04 0.03 0.02 0.02 0.02 0.03 0.05 0.12 0.15 0.16 0.15 0.17 0.19 0.18 0.18 0.17 0.16 0.13 0.12 0.13 0.15 0.16 0.18 0.22 0.25 0.31
0.02 0.02 0.02 0.02 0.03 0.05 0.09 0.24 0.25 0.20 0.13 0.09 0.05 0.03 0.04 0.04 0.05 0.04 0.04 0.04 0.04 0.03 0.03 0.03 0.03 0.03 0.02 0.02 0.02 0.02 0.06 0.10 0.14 0.18 0.19 0.20 0.19 0.17 0.15 0.14 0.14 0.12 0.12 0.13 0.16 0.18 0.20 0.24 0.30
0.02 0.02 0.02 0.03 0.03 0.03 0.05 0.15 0.10 0.10 0.09 0.06 0.02 0.01 0.01 0.01 0.01 0.01 0.02 0.02 0.02 0.03 0.03 0.04 0.04 0.03 0.03 0.02 0.02 0.01 0.01 0.03 0.06 0.11 0.14 0.16 0.16 0.15 0.15 0.14 0.13 0.10 0.10 0.13 0.18 0.20 0.21 0.23 0.27

GEFSSGP_prec_meanprecacc_048.txt.gz
Total_Precipitation_Accumulation
0.00 0.01 0.04 0.10 0.18 0.29 0.38 0.20 0.07 0.04 0.03 0.02 0.02 0.02 0.01 0.01 0.02 0.05 0.01 0.00 0.00 0.00 0.00 0.01 0.01 0.01 0.01 0.01 0.00 0.00 0.00 0.01 0.01 0.01 0.01 0.01 0.00 0.01 0.01 0.00 0.01 0.01 0.01 0.01 0.01 0.01 0.01 0.01 0.01
0.00 0.01 0.03 0.09 0.19 0.30 0.32 0.14 0.06 0.04 0.02 0.02 0.02 0.01 0.01 0.00 0.00 0.00 0.00 0.00 0.00 0.00 0.00 0.00 0.01 0.00 0.00 0.00 0.01 0.01 0.01 0.01 0.01 0.01 0.01 0.01 0.01 0.01 0.01 0.01 0.01 0.01 0.01 0.02 0.02 0.02 0.01 0.01 0.00
0.00 0.00 0.02 0.04 0.12 0.25 0.38 0.14 0.08 0.06 0.05 0.04 0.02 0.00 0.00 0.00 0.00 0.00 0.00 0.00 0.00 0.00 0.00 0.00 0.00 0.00 0.00 0.00 0.01 0.01 0.01 0.01 0.01 0.01 0.01 0.01 0.01 0.01 0.02 0.01 0.02 0.02 0.02 0.03 0.03 0.02 0.02 0.01 0.00
0.00 0.00 0.01 0.01 0.03 0.08 0.18 0.16 0.12 0.10 0.08 0.05 0.02 0.00 0.00 0.00 0.00 0.00 0.00 0.00 0.00 0.00 0.00 0.00 0.00 0.00 0.00 0.00 0.01 0.01 0.01 0.01 0.01 0.01 0.01 0.01 0.02 0.02 0.02 0.02 0.03 0.03 0.04 0.04 0.04 0.04 0.03 0.02 0.01
0.00 0.00 0.00 0.00 0.01 0.02 0.06 0.07 0.13 0.14 0.08 0.05 0.02 0.01 0.01 0.00 0.00 0.00 0.00 0.00 0.00 0.00 0.00 0.00 0.00 0.00 0.00 0.00 0.00 0.01 0.01 0.01 0.01 0.01 0.01 0.01 0.02 0.02 0.03 0.03 0.03 0.04 0.05 0.05 0.06 0.05 0.05 0.04 0.02
0.00 0.00 0.00 0.00 0.01 0.01 0.03 0.06 0.13 0.16 0.11 0.07 0.07 0.03 0.01 0.01 0.01 0.01 0.00 0.00 0.00 0.00 0.00 0.01 0.01 0.01 0.01 0.00 0.01 0.01 0.01 0.01 0.01 0.01 0.02 0.02 0.02 0.02 0.03 0.03 0.03 0.04 0.05 0.06 0.07 0.07 0.06 0.06 0.05
0.00 0.00 0.00 0.00 0.00 0.01 0.04 0.06 0.10 0.12 0.12 0.11 0.13 0.11 0.06 0.05 0.02 0.01 0.01 0.01 0.00 0.00 0.00 0.01 0.01 0.01 0.02 0.01 0.01 0.01 0.01 0.02 0.02 0.02 0.02 0.02 0.02 0.02 0.03 0.04 0.04 0.05 0.06 0.07 0.07 0.07 0.07 0.07 0.07
0.00 0.00 0.00 0.00 0.00 0.02 0.03 0.06 0.08 0.09 0.13 0.10 0.12 0.19 0.11 0.07 0.04 0.03 0.02 0.03 0.02 0.02 0.01 0.02 0.02 0.03 0.03 0.03 0.03 0.03 0.03 0.04 0.03 0.03 0.03 0.03 0.03 0.03 0.04 0.04 0.05 0.06 0.09 0.09 0.09 0.09 0.10 0.12 0.12
0.00 0.00 0.00 0.00 0.00 0.02 0.03 0.04 0.05 0.05 0.05 0.06 0.10 0.15 0.12 0.06 0.07 0.07 0.05 0.04 0.04 0.03 0.03 0.03 0.04 0.05 0.06 0.06 0.06 0.07 0.07 0.08 0.08 0.07 0.08 0.07 0.05 0.04 0.06 0.10 0.16 0.19 0.23 0.28 0.28 0.28 0.30 0.33 0.28
0.00 0.00 0.00 0.00 0.00 0.01 0.02 0.02 0.02 0.02 0.04 0.12 0.21 0.21 0.19 0.12 0.09 0.12 0.12 0.10 0.09 0.07 0.07 0.08 0.09 0.09 0.10 0.10 0.14 0.18 0.18 0.20 0.19 0.21 0.27 0.25 0.23 0.15 0.11 0.28 0.48 0.52 0.63 0.69 0.73 0.89 0.84 0.71 0.50
0.00 0.00 0.00 0.00 0.00 0.00 0.01 0.01 0.02 0.02 0.04 0.08 0.17 0.24 0.19 0.13 0.15 0.16 0.18 0.18 0.18 0.16 0.16 0.19 0.19 0.18 0.19 0.20 0.22 0.27 0.33 0.42 0.47 0.52 0.61 0.70 0.71 0.53 0.37 0.52 0.77 0.85 0.97 0.97 1.17 1.39 1.09 0.94 0.82
0.00 0.00 0.00 0.00 0.00 0.00 0.00 0.01 0.02 0.03 0.04 0.05 0.12 0.25 0.32 0.30 0.30 0.33 0.30 0.30 0.32 0.36 0.35 0.36 0.38 0.38 0.36 0.36 0.35 0.34 0.35 0.44 0.53 0.67 0.79 1.10 1.16 1.10 1.03 1.04 0.97 1.10 1.16 1.39 1.44 1.39 1.22 1.19 1.06
0.00 0.00 0.00 0.00 0.00 0.00 0.01 0.01 0.02 0.03 0.04 0.06 0.09 0.16 0.32 0.39 0.41 0.41 0.38 0.37 0.45 0.65 0.79 0.81 0.80 0.69 0.63 0.57 0.50 0.47 0.47 0.49 0.52 0.72 0.90 1.24 1.41 1.43 1.53 1.26 1.16 1.12 1.29 1.56 1.51 1.32 1.33 1.41 1.41
0.00 0.00 0.00 0.00 0.00 0.01 0.01 0.02 0.02 0.03 0.04 0.06 0.09 0.13 0.20 0.28 0.28 0.32 0.40 0.52 0.74 1.01 1.24 1.30 1.27 1.11 0.98 0.86 0.78 0.78 0.76 0.66 0.59 0.76 0.86 1.27 1.56 1.51 1.39 1.36 1.34 1.26 1.42 1.47 1.53 1.55 1.65 1.66 1.69
0.00 0.00 0.00 0.01 0.01 0.01 0.02 0.03 0.03 0.04 0.05 0.06 0.09 0.12 0.16 0.20 0.25 0.40 0.57 0.82 1.15 1.43 1.60 1.73 1.79 1.61 1.44 1.34 1.21 1.10 1.00 0.90 0.83 0.83 0.85 1.17 1.44 1.50 1.51 1.41 1.30 1.34 1.44 1.50 1.56 1.58 1.63 1.51 1.54
0.00 0.00 0.00 0.02 0.03 0.03 0.03 0.09 0.09 0.09 0.07 0.08 0.12 0.15 0.20 0.25 0.34 0.50 0.66 0.92 1.31 1.71 2.16 2.31 2.16 1.97 1.79 1.60 1.41 1.35 1.33 1.28 1.13 0.94 0.85 0.93 1.12 1.27 1.32 1.21 1.20 1.30 1.21 1.19 1.22 1.20 1.23 1.24 1.34
0.00 0.00 0.02 0.07 0.07 0.05 0.07 0.15 0.19 0.12 0.10 0.14 0.19 0.23 0.29 0.35 0.46 0.63 0.76 1.01 1.40 1.98 2.67 2.74 2.33 2.04 1.85 1.70 1.61 1.55 1.51 1.30 1.17 1.02 0.93 0.85 0.81 0.78 0.82 0.79 0.82 0.90 0.90 0.90 0.87 1.00 1.07 1.11 1.20
0.01 0.03 0.08 0.13 0.11 0.10 0.15 0.21 0.19 0.16 0.20 0.23 0.21 0.23 0.28 0.34 0.45 0.57 0.74 1.08 1.71 2.52 3.12 3.09 2.59 2.19 1.95 1.79 1.61 1.42 1.33 1.19 1.06 0.97 0.87 0.71 0.66 0.61 0.57 0.56 0.57 0.57 0.60 0.66 0.69 0.72 0.82 0.84 0.87
0.02 0.04 0.13 0.17 0.13 0.20 0.20 0.20 0.29 0.41 0.40 0.31 0.24 0.19 0.19 0.25 0.38 0.59 1.02 1.68 2.49 3.20 3.36 2.94 2.50 2.22 1.96 1.64 1.16 0.85 0.74 0.71 0.67 0.57 0.51 0.46 0.42 0.43 0.45 0.41 0.40 0.39 0.39 0.40 0.44 0.51 0.56 0.58 0.66
0.03 0.03 0.12 0.19 0.13 0.14 0.19 0.31 0.48 0.52 0.43 0.28 0.22 0.19 0.23 0.38 0.64 1.16 1.97 2.49 2.51 2.43 2.06 1.67 1.49 1.36 1.09 0.81 0.56 0.45 0.41 0.38 0.36 0.34 0.36 0.34 0.29 0.30 0.30 0.30 0.31 0.31 0.28 0.29 0.31 0.34 0.36 0.39 0.50
0.07 0.06 0.12 0.20 0.11 0.08 0.21 0.49 0.59 0.51 0.44 0.31 0.23 0.22 0.39 0.71 1.14 1.78 2.20 2.09 1.55 1.07 0.89 0.81 0.74 0.54 0.39 0.35 0.31 0.27 0.24 0.25 0.23 0.22 0.24 0.24 0.21 0.22 0.23 0.23 0.24 0.27 0.28 0.28 0.31 0.30 0.30 0.30 0.33
0.06 0.04 0.04 0.07 0.08 0.19 0.35 0.67 0.73 0.51 0.50 0.40 0.33 0.27 0.38 0.60 0.82 1.11 1.24 0.99 0.82 0.71 0.63 0.65 0.57 0.34 0.27 0.23 0.19 0.18 0.17 0.19 0.19 0.19 0.19 0.19 0.17 0.18 0.17 0.17 0.16 0.18 0.23 0.28 0.28 0.33 0.32 0.30 0.25
0.03 0.02 0.03 0.06 0.11 0.18 0.32 0.57 0.68 0.54 0.60 0.45 0.30 0.25 0.29 0.43 0.48 0.45 0.44 0.40 0.39 0.40 0.43 0.51 0.50 0.43 0.34 0.28 0.22 0.20 0.18 0.17 0.18 0.19 0.19 0.20 0.20 0.18 0.18 0.18 0.16 0.15 0.15 0.20 0.22 0.30 0.34 0.35 0.29
0.03 0.04 0.06 0.11 0.16 0.33 0.47 0.60 0.77 0.71 0.74 0.55 0.36 0.26 0.27 0.40 0.42 0.34 0.26 0.23 0.24 0.25 0.27 0.33 0.43 0.52 0.49 0.43 0.35 0.29 0.23 0.21 0.19 0.18 0.19 0.19 0.18 0.18 0.17 0.18 0.18 0.19 0.17 0.15 0.15 0.19 0.26 0.33 0.35
0.04 0.04 0.09 0.31 0.51 0.60 0.46 0.54 0.78 0.62 0.57 0.41 0.21 0.14 0.21 0.36 0.45 0.42 0.31 0.23 0.18 0.17 0.15 0.13 0.15 0.24 0.28 0.28 0.30 0.31 0.30 0.26 0.21 0.18 0.15 0.17 0.16 0.16 0.16 0.16 0.17 0.19 0.19 0.19 0.17 0.15 0.19 0.25 0.30
0.03 0.02 0.04 0.08 0.13 0.25 0.34 0.60 0.76 0.60 0.38 0.17 0.07 0.06 0.15 0.22 0.25 0.25 0.19 0.13 0.08 0.06 0.06 0.04 0.04 0.05 0.07 0.09 0.13 0.18 0.21 0.17 0.15 0.21 0.17 0.17 0.21 0.22 0.21 0.16 0.15 0.16 0.18 0.18 0.18 0.16 0.17 0.20 0.25
0.02 0.01 0.02 0.02 0.04 0.14 0.36 0.59 0.54 0.46 0.31 0.13 0.07 0.05 0.06 0.08 0.09 0.10 0.10 0.08 0.06 0.04 0.03 0.03 0.02 0.02 0.02 0.03 0.05 0.09 0.15 0.15 0.14 0.16 0.17 0.16 0.22 0.23 0.21 0.18 0.15 0.14 0.15 0.17 0.18 0.18 0.19 0.22 0.25
0.02 0.01 0.01 0.02 0.05 0.09 0.22 0.50 0.61 0.47 0.32 0.13 0.08 0.07 0.06 0.08 0.07 0.07 0.06 0.06 0.05 0.04 0.04 0.04 0.03 0.02 0.02 0.02 0.03 0.05 0.12 0.15 0.16 0.15 0.17 0.19 0.18 0.18 0.17 0.16 0.13 0.12 0.13 0.15 0.16 0.18 0.22 0.25 0.31
0.02 0.02 0.02 0.02 0.03 0.05 0.09 0.24 0.25 0.20 0.13 0.09 0.05 0.03 0.04 0.04 0.05 0.04 0.04 0.04 0.04 0.03 0.03 0.03 0.03 0.03 0.02 0.02 0.02 0.02 0.06 0.10 0.14 0.18 0.19 0.20 0.19 0.17 0.15 0.14 0.14 0.12 0.12 0.13 0.16 0.18 0.20 0.24 0.30
0.02 0.02 0.02 0.03 0.03 0.03 0.05 0.15 0.10 0.10 0.09 0.06 0.02 0.01 0.01 0.01 0.01 0.01 0.02 0.02 0.02 0.03 0.03 0.04 0.04 0.03 0.03 0.02 0.02 0.01 0.01 0.03 0.06 0.11 0.14 0.16 0.16 0.15 0.15 0.14 0.13 0.10 0.10 0.13 0.18 0.20 0.21 0.23 0.27

GEFSSGP_prec_meanprecacc_054.txt.gz
Total_Precipitation_Accumulation
0.00 0.01 0.04 0.10 0.19 0.30 0.39 0.20 0.07 0.04 0.03 0.03 0.03 0.02 0.01 0.02 0.04 0.07 0.01 0.00 0.00 0.00 0.00 0.01 0.01 0.01 0.01 0.01 0.01 0.01 0.01 0.02 0.02 0.02 0.02 0.01 0.01 0.01 0.01 0.01 0.01 0.01 0.01 0.02 0.01 0.01 0.01 0.01 0.01
0.00 0.01 0.03 0.09 0.20 0.31 0.33 0.15 0.06 0.05 0.03 0.03 0.02 0.01 0.01 0.00 0.00 0.00 0.00 0.00 0.00 0.00 0.00 0.00 0.01 0.01 0.01 0.01 0.01 0.01 0.01 0.02 0.02 0.01 0.01 0.01 0.01 0.01 0.01 0.01 0.01 0.01 0.02 0.02 0.02 0.02 0.02 0.01 0.01
0.00 0.00 0.02 0.04 0.12 0.25 0.38 0.15 0.09 0.07 0.06 0.04 0.02 0.01 0.00 0.00 0.00 0.00 0.00 0.00 0.00 0.00 0.00 0.00 0.01 0.01 0.01 0.01 0.02 0.02 0.02 0.02 0.01 0.01 0.01 0.02 0.02 0.02 0.02 0.02 0.02 0.03 0.03 0.04 0.03 0.03 0.03 0.01 0.01
0.00 0.00 0.01 0.01 0.03 0.08 0.18 0.16 0.12 0.11 0.09 0.05 0.02 0.01 0.00 0.00 0.00 0.00 0.00 0.00 0.00 0.00 0.00 0.01 0.01 0.02 0.02 0.02 0.02 0.03 0.03 0.03 0.03 0.02 0.02 0.02 0.02 0.03 0.03 0.03 0.04 0.05 0.05 0.06 0.05 0.05 0.05 0.03 0.02
0.00 0.00 0.00 0.00 0.01 0.02 0.06 0.07 0.14 0.15 0.09 0.05 0.03 0.01 0.01 0.01 0.01 0.00 0.00 0.00 0.00 0.00 0.00 0.01 0.02 0.02 0.03 0.02 0.03 0.04 0.04 0.04 0.04 0.04 0.03 0.03 0.03 0.03 0.04 0.04 0.04 0.05 0.07 0.08 0.09 0.08 0.07 0.05 0.03
0.00 0.00 0.00 0.00 0.01 0.01 0.03 0.06 0.13 0.16 0.11 0.07 0.07 0.04 0.02 0.01 0.01 0.01 0.01 0.00 0.00 0.00 0.01 0.01 0.02 0.03 0.03 0.03 0.04 0.04 0.05 0.05 0.05 0.05 0.05 0.05 0.05 0.05 0.05 0.06 0.05 0.06 0.07 0.09 0.12 0.12 0.11 0.09 0.07
0.00 0.00 0.00 0.00 0.00 0.02 0.04 0.06 0.10 0.13 0.12 0.12 0.14 0.11 0.06 0.05 0.03 0.02 0.01 0.02 0.01 0.01 0.01 0.02 0.02 0.03 0.04 0.04 0.06 0.07 0.07 0.07 0.08 0.07 0.07 0.07 0.07 0.07 0.08 0.08 0.08 0.09 0.10 0.11 0.12 0.14 0.16 0.13 0.12
0.00 0.00 0.00 0.00 0.00 0.02 0.04 0.07 0.09 0.10 0.13 0.11 0.13 0.19 0.11 0.07 0.04 0.04 0.03 0.03 0.03 0.02 0.02 0.03 0.04 0.06 0.06 0.06 0.06 0.08 0.09 0.10 0.09 0.08 0.08 0.07 0.08 0.09 0.11 0.12 0.11 0.12 0.15 0.16 0.16 0.16 0.20 0.23 0.22
0.00 0.00 0.00 0.00 0.00 0.02 0.03 0.04 0.06 0.06 0.05 0.06 0.10 0.15 0.12 0.06 0.07 0.08 0.05 0.05 0.05 0.04 0.04 0.05 0.05 0.07 0.09 0.09 0.08 0.12 0.13 0.14 0.13 0.14 0.14 0.13 0.13 0.14 0.15 0.18 0.24 0.26 0.30 0.37 0.39 0.37 0.41 0.46 0.40
0.00 0.00 0.00 0.00 0.00 0.01 0.02 0.02 0.04 0.04 0.04 0.12 0.21 0.22 0.19 0.12 0.09 0.12 0.13 0.11 0.10 0.08 0.08 0.09 0.10 0.11 0.13 0.13 0.19 0.24 0.25 0.30 0.30 0.32 0.39 0.40 0.41 0.31 0.22 0.39 0.56 0.60 0.72 0.80 0.85 1.00 0.97 0.84 0.63
0.00 0.00 0.00 0.00 0.00 0.00 0.01 0.02 0.02 0.03 0.04 0.08 0.17 0.25 0.20 0.13 0.16 0.18 0.20 0.20 0.20 0.19 0.18 0.22 0.22 0.21 0.24 0.26 0.29 0.36 0.45 0.59 0.62 0.70 0.82 0.93 0.96 0.76 0.58 0.74 0.96 1.01 1.11 1.11 1.31 1.54 1.22 1.07 0.96
0.00 0.00 0.00 0.00 0.00 0.00 0.01 0.01 0.02 0.03 0.05 0.06 0.13 0.26 0.33 0.32 0.33 0.36 0.33 0.33 0.37 0.41 0.42 0.44 0.45 0.44 0.44 0.46 0.47 0.47 0.49 0.57 0.64 0.79 0.94 1.27 1.34 1.28 1.20 1.23 1.15 1.27 1.31 1.55 1.60 1.56 1.38 1.35 1.20
0.00 0.00 0.00 0.00 0.00 0.00 0.01 0.02 0.03 0.04 0.06 0.07 0.10 0.17 0.33 0.41 0.45 0.46 0.43 0.44 0.54 0.73 0.88 0.91 0.91 0.80 0.76 0.71 0.63 0.58 0.59 0.60 0.61 0.82 1.00 1.33 1.52 1.55 1.64 1.36 1.26 1.21 1.38 1.64 1.60 1.44 1.46 1.54 1.55
0.00 0.00 0.00 0.01 0.01 0.01 0.02 0.03 0.03 0.04 0.04 0.07 0.10 0.14 0.22 0.31 0.32 0.36 0.46 0.59 0.83 1.09 1.32 1.38 1.36 1.21 1.08 0.96 0.88 0.86 0.85 0.75 0.65 0.81 0.90 1.31 1.61 1.57 1.45 1.41 1.39 1.30 1.46 1.51 1.58 1.61 1.74 1.77 1.82
0.00 0.00 0.01 0.01 0.02 0.02 0.03 0.05 0.04 0.05 0.06 0.08 0.11 0.14 0.18 0.23 0.29 0.44 0.62 0.87 1.22 1.50 1.68 1.79 1.85 1.65 1.48 1.39 1.25 1.14 1.06 0.96 0.88 0.86 0.86 1.18 1.46 1.52 1.53 1.43 1.31 1.36 1.46 1.51 1.58 1.61 1.68 1.57 1.60
0.00 0.00 0.01 0.02 0.04 0.04 0.05 0.11 0.10 0.10 0.08 0.10 0.14 0.18 0.23 0.28 0.38 0.55 0.71 0.98 1.37 1.77 2.20 2.33 2.18 1.99 1.81 1.63 1.43 1.37 1.36 1.30 1.14 0.94 0.86 0.93 1.13 1.28 1.33 1.22 1.21 1.30 1.22 1.20 1.23 1.21 1.26 1.28 1.39
0.00 0.00 0.02 0.07 0.08 0.06 0.08 0.17 0.20 0.12 0.11 0.17 0.23 0.27 0.32 0.38 0.50 0.66 0.80 1.05 1.44 2.01 2.70 2.75 2.34 2.05 1.86 1.72 1.61 1.56 1.51 1.31 1.17 1.02 0.93 0.85 0.81 0.78 0.82 0.80 0.83 0.90 0.90 0.90 0.87 1.01 1.08 1.13 1.23
0.01 0.03 0.08 0.14 0.11 0.11 0.16 0.23 0.20 0.17 0.23 0.27 0.25 0.28 0.32 0.38 0.49 0.60 0.76 1.11 1.74 2.54 3.13 3.10 2.60 2.19 1.95 1.79 1.61 1.42 1.33 1.19 1.06 0.97 0.87 0.71 0.66 0.61 0.57 0.56 0.57 0.57 0.60 0.66 0.69 0.72 0.83 0.85 0.90
0.02 0.05 0.14 0.17 0.13 0.20 0.22 0.25 0.33 0.44 0.44 0.35 0.29 0.24 0.24 0.30 0.42 0.62 1.03 1.70 2.50 3.21 3.36 2.94 2.50 2.22 1.96 1.64 1.16 0.85 0.74 0.71 0.67 0.57 0.51 0.46 0.42 0.43 0.45 0.41 0.40 0.40 0.39 0.40 0.44 0.51 0.56 0.59 0.68
0.04 0.04 0.12 0.19 0.13 0.15 0.22 0.36 0.52 0.57 0.48 0.34 0.29 0.27 0.30 0.45 0.72 1.19 1.98 2.49 2.51 2.43 2.06 1.67 1.49 1.36 1.09 0.81 0.57 0.45 0.41 0.38 0.36 0.34 0.36 0.34 0.29 0.30 0.30 0.30 0.31 0.31 0.29 0.30 0.32 0.35 0.36 0.39 0.50
0.07 0.06 0.13 0.20 0.11 0.09 0.24 0.55 0.66 0.58 0.51 0.35 0.26 0.26 0.46 0.77 1.19 1.80 2.21 2.09 1.55 1.08 0.89 0.81 0.75 0.55 0.40 0.35 0.32 0.27 0.24 0.25 0.23 0.22 0.24 0.24 0.21 0.22 0.23 0.23 0.24 0.27 0.28 0.29 0.32 0.31 0.31 0.30 0.33
0.06 0.04 0.04 0.07 0.09 0.20 0.37 0.73 0.78 0.57 0.57 0.45 0.38 0.31 0.42 0.62 0.84 1.12 1.24 0.99 0.83 0.72 0.63 0.66 0.58 0.36 0.28 0.23 0.20 0.18 0.17 0.19 0.19 0.19 0.19 0.19 0.17 0.18 0.17 0.17 0.16 0.18 0.23 0.28 0.28 0.33 0.32 0.30 0.25
0.03 0.03 0.03 0.06 0.11 0.19 0.33 0.59 0.69 0.56 0.64 0.48 0.34 0.29 0.30 0.43 0.48 0.45 0.45 0.40 0.39 0.40 0.44 0.51 0.50 0.44 0.35 0.28 0.22 0.20 0.18 0.17 0.18 0.19 0.19 0.20 0.20 0.18 0.18 0.18 0.16 0.15 0.15 0.20 0.23 0.30 0.34 0.35 0.30
0.03 0.04 0.06 0.11 0.16 0.34 0.47 0.61 0.77 0.72 0.75 0.56 0.37 0.27 0.28 0.40 0.42 0.34 0.26 0.23 0.24 0.26 0.27 0.33 0.43 0.53 0.50 0.43 0.35 0.29 0.23 0.21 0.19 0.18 0.19 0.19 0.18 0.18 0.17 0.18 0.19 0.19 0.17 0.15 0.15 0.19 0.26 0.33 0.35
0.04 0.04 0.09 0.31 0.52 0.61 0.46 0.54 0.78 0.62 0.57 0.41 0.21 0.14 0.21 0.36 0.45 0.42 0.31 0.23 0.18 0.17 0.15 0.13 0.15 0.24 0.28 0.28 0.30 0.31 0.30 0.26 0.21 0.18 0.15 0.17 0.16 0.16 0.16 0.16 0.18 0.19 0.19 0.19 0.17 0.15 0.19 0.25 0.31
0.03 0.02 0.05 0.09 0.14 0.25 0.34 0.60 0.76 0.60 0.38 0.17 0.07 0.06 0.15 0.22 0.25 0.25 0.19 0.13 0.08 0.06 0.06 0.04 0.04 0.05 0.07 0.09 0.13 0.18 0.21 0.17 0.15 0.21 0.17 0.17 0.21 0.22 0.21 0.16 0.15 0.16 0.18 0.18 0.18 0.16 0.17 0.20 0.25
0.02 0.01 0.02 0.03 0.04 0.14 0.36 0.59 0.54 0.46 0.31 0.13 0.07 0.05 0.06 0.08 0.09 0.10 0.10 0.08 0.06 0.04 0.03 0.03 0.02 0.02 0.02 0.03 0.05 0.09 0.15 0.15 0.14 0.16 0.17 0.16 0.22 0.23 0.21 0.18 0.15 0.14 0.15 0.17 0.18 0.18 0.20 0.22 0.25
0.02 0.01 0.01 0.02 0.05 0.09 0.22 0.50 0.61 0.47 0.32 0.13 0.08 0.07 0.06 0.08 0.07 0.07 0.06 0.06 0.05 0.04 0.04 0.04 0.03 0.02 0.02 0.02 0.03 0.05 0.12 0.15 0.16 0.15 0.17 0.19 0.18 0.18 0.17 0.16 0.13 0.12 0.13 0.15 0.16 0.18 0.22 0.25 0.31
0.02 0.02 0.02 0.02 0.03 0.05 0.09 0.24 0.25 0.20 0.13 0.09 0.05 0.03 0.04 0.04 0.05 0.04 0.04 0.04 0.04 0.03 0.03 0.03 0.03 0.03 0.02 0.02 0.02 0.02 0.06 0.10 0.14 0.18 0.19 0.20 0.19 0.18 0.15 0.14 0.14 0.12 0.12 0.14 0.16 0.19 0.21 0.24 0.30
0.02 0.02 0.02 0.03 0.03 0.03 0.05 0.15 0.10 0.10 0.09 0.06 0.02 0.01 0.01 0.01 0.01 0.01 0.02 0.02 0.02 0.03 0.03 0.04 0.04 0.03 0.03 0.02 0.02 0.01 0.01 0.03 0.06 0.11 0.14 0.16 0.16 0.15 0.15 0.14 0.13 0.10 0.10 0.13 0.18 0.20 0.21 0.24 0.27

GEFSSGP_prec_meanprecacc_060.txt.gz
Total_Precipitation_Accumulation
0.00 0.01 0.04 0.10 0.21 0.43 0.58 0.31 0.12 0.05 0.04 0.03 0.03 0.03 0.08 0.07 0.11 0.16 0.02 0.00 0.00 0.00 0.00 0.01 0.01 0.01 0.01 0.02 0.03 0.04 0.04 0.05 0.06 0.05 0.04 0.03 0.02 0.02 0.02 0.01 0.01 0.01 0.02 0.02 0.02 0.02 0.02 0.02 0.01
0.00 0.01 0.03 0.09 0.25 0.54 0.64 0.30 0.10 0.05 0.03 0.03 0.02 0.02 0.02 0.01 0.01 0.01 0.00 0.00 0.00 0.00 0.00 0.00 0.01 0.01 0.01 0.01 0.02 0.03 0.04 0.04 0.04 0.04 0.03 0.03 0.02 0.02 0.02 0.02 0.01 0.02 0.03 0.03 0.02 0.02 0.02 0.01 0.01
0.00 0.00 0.02 0.04 0.14 0.31 0.46 0.19 0.10 0.07 0.06 0.04 0.02 0.01 0.01 0.01 0.00 0.00 0.00 0.00 0.00 0.00 0.00 0.00 0.01 0.01 0.01 0.01 0.02 0.03 0.04 0.04 0.03 0.03 0.02 0.03 0.03 0.03 0.03 0.03 0.03 0.03 0.04 0.04 0.04 0.03 0.03 0.02 0.01
0.00 0.00 0.01 0.01 0.04 0.10 0.20 0.17 0.12 0.12 0.10 0.05 0.02 0.01 0.01 0.01 0.01 0.00 0.00 0.00 0.00 0.00 0.00 0.01 0.02 0.02 0.02 0.02 0.03 0.03 0.04 0.04 0.04 0.03 0.03 0.02 0.02 0.03 0.03 0.03 0.04 0.05 0.06 0.06 0.06 0.05 0.05 0.04 0.02
0.00 0.00 0.00 0.02 0.04 0.04 0.06 0.08 0.14 0.15 0.10 0.06 0.03 0.02 0.01 0.01 0.01 0.00 0.00 0.00 0.00 0.00 0.00 0.01 0.02 0.03 0.03 0.03 0.04 0.05 0.05 0.05 0.05 0.04 0.03 0.03 0.03 0.03 0.04 0.04 0.04 0.06 0.08 0.09 0.10 0.09 0.08 0.07 0.04
0.00 0.00 0.00 0.01 0.02 0.03 0.05 0.07 0.14 0.17 0.13 0.10 0.08 0.05 0.02 0.02 0.02 0.01 0.01 0.00 0.00 0.00 0.01 0.02 0.02 0.03 0.03 0.04 0.05 0.06 0.06 0.06 0.07 0.06 0.06 0.06 0.06 0.05 0.06 0.06 0.06 0.06 0.08 0.10 0.13 0.14 0.13 0.10 0.09
0.00 0.00 0.00 0.00 0.00 0.02 0.05 0.07 0.12 0.17 0.15 0.17 0.17 0.13 0.07 0.06 0.03 0.02 0.02 0.02 0.01 0.01 0.01 0.02 0.03 0.04 0.04 0.06 0.08 0.10 0.10 0.10 0.10 0.08 0.08 0.08 0.08 0.08 0.09 0.10 0.09 0.10 0.11 0.12 0.14 0.15 0.18 0.16 0.13
0.00 0.00 0.00 0.00 0.01 0.04 0.08 0.11 0.13 0.17 0.26 0.21 0.18 0.20 0.14 0.11 0.05 0.04 0.03 0.03 0.03 0.02 0.03 0.03 0.05 0.09 0.12 0.11 0.09 0.11 0.12 0.12 0.11 0.10 0.10 0.09 0.09 0.12 0.15 0.15 0.14 0.16 0.18 0.19 0.18 0.18 0.22 0.27 0.24
0.00 0.00 0.00 0.00 0.01 0.07 0.13 0.16 0.14 0.12 0.11 0.13 0.18 0.21 0.13 0.07 0.07 0.08 0.05 0.05 0.05 0.04 0.05 0.07 0.08 0.10 0.14 0.16 0.12 0.15 0.15 0.17 0.16 0.20 0.19 0.17 0.19 0.24 0.31 0.32 0.35 0.34 0.36 0.42 0.42 0.41 0.45 0.50 0.43
0.00 0.00 0.00 0.00 0.00 0.02 0.08 0.16 0.18 0.12 0.08 0.19 0.35 0.30 0.20 0.12 0.09 0.12 0.13 0.11 0.10 0.10 0.10 0.11 0.13 0.14 0.18 0.23 0.27 0.32 0.34 0.41 0.39 0.47 0.53 0.54 0.55 0.41 0.33 0.54 0.69 0.69 0.80 0.87 0.92 1.07 1.02 0.88 0.67
0.00 0.00 0.00 0.00 0.00 0.01 0.03 0.08 0.12 0.10 0.21 0.47 0.55 0.39 0.22 0.13 0.16 0.19 0.22 0.23 0.22 0.22 0.21 0.25 0.25 0.25 0.31 0.36 0.37 0.48 0.60 0.73 0.73 0.80 0.92 1.05 1.07 0.87 0.71 0.93 1.15 1.15 1.23 1.25 1.48 1.70 1.32 1.19 1.11
0.00 0.00 0.00 0.00 0.00 0.01 0.02 0.07 0.13 0.22 0.52 0.71 0.53 0.37 0.34 0.32 0.34 0.38 0.38 0.49 0.49 0.52 0.51 0.49 0.52 0.54 0.54 0.57 0.58 0.57 0.59 0.66 0.73 0.88 1.02 1.38 1.45 1.40 1.34 1.38 1.31 1.45 1.54 1.77 1.84 1.80 1.59 1.54 1.41
0.00 0.00 0.00 0.00 0.00 0.01 0.03 0.07 0.17 0.30 0.42 0.55 0.34 0.22 0.35 0.44 0.47 0.48 0.47 0.50 0.61 0.81 0.95 0.98 1.00 0.90 0.85 0.79 0.69 0.63 0.63 0.64 0.67 0.88 1.06 1.41 1.60 1.63 1.73 1.46 1.35 1.32 1.53 1.80 1.75 1.60 1.63 1.71 1.72
0.00 0.00 0.01 0.01 0.01 0.02 0.04 0.06 0.11 0.19 0.17 0.25 0.21 0.20 0.26 0.35 0.37 0.41 0.52 0.65 0.90 1.16 1.38 1.44 1.43 1.29 1.16 1.02 0.91 0.90 0.87 0.77 0.67 0.84 0.94 1.34 1.64 1.60 1.48 1.45 1.44 1.36 1.53 1.58 1.66 1.70 1.83 1.87 1.94
0.00 0.01 0.05 0.05 0.03 0.03 0.04 0.10 0.15 0.20 0.16 0.17 0.21 0.22 0.24 0.30 0.36 0.51 0.68 0.91 1.26 1.55 1.74 1.86 1.94 1.74 1.55 1.43 1.28 1.15 1.07 0.96 0.89 0.88 0.88 1.19 1.46 1.53 1.54 1.45 1.34 1.38 1.48 1.55 1.61 1.66 1.73 1.63 1.67
0.01 0.04 0.13 0.13 0.06 0.06 0.06 0.26 0.46 0.31 0.18 0.17 0.20 0.23 0.29 0.36 0.48 0.62 0.78 1.02 1.40 1.81 2.25 2.38 2.22 2.01 1.83 1.64 1.44 1.37 1.36 1.30 1.15 0.94 0.86 0.94 1.13 1.28 1.33 1.22 1.21 1.31 1.23 1.21 1.25 1.24 1.29 1.31 1.43
0.04 0.07 0.13 0.21 0.12 0.08 0.15 0.57 0.71 0.36 0.21 0.24 0.31 0.32 0.39 0.49 0.66 0.76 0.85 1.11 1.48 2.04 2.72 2.78 2.36 2.06 1.86 1.72 1.63 1.57 1.52 1.31 1.17 1.02 0.93 0.85 0.81 0.78 0.82 0.80 0.83 0.90 0.91 0.91 0.88 1.02 1.09 1.14 1.25
0.03 0.07 0.18 0.30 0.16 0.13 0.21 0.57 0.58 0.38 0.32 0.32 0.30 0.33 0.37 0.47 0.60 0.72 0.88 1.21 1.81 2.58 3.16 3.12 2.61 2.20 1.96 1.80 1.62 1.43 1.33 1.19 1.06 0.97 0.87 0.71 0.66 0.61 0.58 0.56 0.58 0.57 0.60 0.66 0.69 0.73 0.83 0.85 0.90
0.03 0.06 0.18 0.22 0.15 0.23 0.28 0.44 0.53 0.55 0.50 0.41 0.34 0.31 0.34 0.39 0.51 0.73 1.19 1.85 2.60 3.26 3.38 2.95 2.51 2.23 1.96 1.65 1.17 0.85 0.74 0.71 0.67 0.57 0.51 0.46 0.42 0.43 0.45 0.41 0.40 0.40 0.39 0.40 0.44 0.51 0.57 0.59 0.68
0.04 0.06 0.17 0.23 0.14 0.16 0.27 0.52 0.72 0.67 0.55 0.42 0.36 0.36 0.42 0.59 0.82 1.29 2.09 2.61 2.61 2.47 2.08 1.69 1.50 1.37 1.10 0.83 0.57 0.46 0.41 0.38 0.36 0.34 0.36 0.34 0.29 0.30 0.30 0.30 0.31 0.31 0.29 0.30 0.33 0.36 0.37 0.40 0.51
0.09 0.09 0.17 0.23 0.12 0.11 0.27 0.66 0.83 0.75 0.59 0.41 0.32 0.31 0.52 0.84 1.26 1.86 2.26 2.14 1.59 1.09 0.90 0.82 0.76 0.56 0.41 0.37 0.33 0.28 0.25 0.25 0.23 0.22 0.24 0.24 0.21 0.22 0.23 0.23 0.24 0.27 0.28 0.29 0.32 0.32 0.32 0.32 0.34
0.08 0.05 0.05 0.08 0.12 0.27 0.43 0.86 0.94 0.70 0.65 0.50 0.42 0.36 0.47 0.66 0.88 1.16 1.27 1.01 0.83 0.72 0.64 0.67 0.59 0.37 0.29 0.25 0.21 0.19 0.18 0.20 0.19 0.19 0.19 0.19 0.17 0.18 0.17 0.17 0.16 0.18 0.23 0.29 0.29 0.34 0.34 0.32 0.26
0.03 0.03 0.03 0.08 0.16 0.31 0.46 0.68 0.78 0.60 0.68 0.51 0.36 0.32 0.32 0.45 0.50 0.47 0.46 0.41 0.39 0.40 0.44 0.52 0.52 0.46 0.37 0.30 0.24 0.21 0.19 0.18 0.19 0.19 0.19 0.20 0.20 0.18 0.18 0.18 0.17 0.15 0.15 0.20 0.23 0.31 0.35 0.36 0.31
0.03 0.04 0.10 0.17 0.26 0.55 0.59 0.65 0.81 0.73 0.77 0.56 0.37 0.28 0.28 0.41 0.43 0.35 0.27 0.23 0.24 0.26 0.27 0.34 0.45 0.56 0.52 0.44 0.36 0.30 0.24 0.21 0.20 0.19 0.19 0.19 0.18 0.18 0.17 0.18 0.19 0.19 0.17 0.15 0.15 0.20 0.27 0.34 0.36
0.05 0.06 0.20 0.48 0.74 0.79 0.49 0.54 0.78 0.62 0.57 0.41 0.21 0.15 0.23 0.37 0.45 0.42 0.31 0.23 0.18 0.17 0.15 0.13 0.16 0.27 0.30 0.30 0.31 0.31 0.30 0.26 0.21 0.18 0.15 0.17 0.16 0.16 0.16 0.16 0.18 0.19 0.20 0.19 0.17 0.16 0.19 0.26 0.32
0.03 0.02 0.07 0.14 0.18 0.28 0.34 0.60 0.76 0.60 0.38 0.17 0.07 0.06 0.15 0.22 0.25 0.25 0.19 0.13 0.08 0.06 0.06 0.04 0.04 0.07 0.08 0.10 0.13 0.18 0.21 0.17 0.15 0.21 0.17 0.17 0.21 0.22 0.21 0.16 0.15 0.17 0.18 0.18 0.18 0.17 0.17 0.21 0.26
0.02 0.01 0.02 0.03 0.04 0.15 0.37 0.59 0.54 0.46 0.31 0.13 0.07 0.05 0.06 0.08 0.09 0.10 0.10 0.08 0.06 0.04 0.03 0.03 0.02 0.02 0.02 0.03 0.05 0.09 0.15 0.15 0.14 0.16 0.17 0.16 0.22 0.23 0.21 0.18 0.15 0.15 0.16 0.17 0.18 0.18 0.20 0.23 0.26
0.02 0.01 0.01 0.02 0.05 0.10 0.25 0.51 0.61 0.47 0.32 0.13 0.08 0.07 0.06 0.08 0.07 0.07 0.06 0.06 0.05 0.04 0.04 0.04 0.03 0.02 0.02 0.02 0.03 0.05 0.12 0.15 0.16 0.15 0.17 0.19 0.19 0.19 0.17 0.16 0.14 0.12 0.13 0.16 0.17 0.18 0.22 0.26 0.32
0.03 0.02 0.02 0.02 0.03 0.06 0.12 0.25 0.25 0.20 0.13 0.09 0.05 0.03 0.04 0.04 0.05 0.04 0.04 0.04 0.04 0.03 0.03 0.03 0.03 0.03 0.02 0.02 0.02 0.02 0.06 0.10 0.14 0.18 0.19 0.20 0.19 0.18 0.16 0.15 0.14 0.13 0.13 0.15 0.18 0.20 0.22 0.25 0.31
0.03 0.03 0.02 0.03 0.03 0.03 0.06 0.15 0.10 0.10 0.09 0.06 0.02 0.01 0.01 0.01 0.01 0.01 0.02 0.02 0.02 0.03 0.03 0.04 0.04 0.03 0.03 0.02 0.02 0.01 0.01 0.03 0.06 0.11 0.14 0.17 0.17 0.15 0.15 0.15 0.13 0.11 0.11 0.14 0.19 0.22 0.22 0.25 0.28

GEFSSGP_prec_meanprecacc_066.txt.gz
Total_Precipitation_Accumulation
0.00 0.01 0.05 0.12 0.26 0.53 0.74 0.52 0.38 0.25 0.26 0.19 0.13 0.10 0.13 0.13 0.16 0.20 0.05 0.01 0.00 0.00 0.00 0.01 0.02 0.02 0.02 0.02 0.03 0.04 0.05 0.06 0.06 0.06 0.04 0.03 0.03 0.02 0.02 0.01 0.01 0.01 0.02 0.02 0.02 0.02 0.02 0.02 0.01
0.00 0.01 0.05 0.12 0.32 0.73 0.88 0.50 0.24 0.24 0.29 0.32 0.19 0.09 0.06 0.03 0.02 0.01 0.01 0.01 0.00 0.00 0.00 0.00 0.01 0.02 0.01 0.02 0.03 0.04 0.05 0.05 0.05 0.04 0.03 0.03 0.02 0.02 0.02 0.02 0.01 0.02 0.03 0.03 0.02 0.02 0.02 0.01 0.01
0.00 0.01 0.05 0.08 0.24 0.52 0.69 0.42 0.29 0.21 0.27 0.40 0.30 0.09 0.04 0.02 0.01 0.01 0.00 0.00 0.00 0.00 0.00 0.01 0.01 0.01 0.01 0.02 0.03 0.03 0.04 0.04 0.04 0.03 0.03 0.03 0.03 0.03 0.03 0.03 0.03 0.03 0.04 0.04 0.04 0.03 0.03 0.02 0.01
0.00 0.03 0.05 0.06 0.10 0.17 0.31 0.37 0.39 0.35 0.42 0.42 0.27 0.12 0.07 0.03 0.02 0.01 0.01 0.01 0.00 0.00 0.00 0.01 0.02 0.02 0.02 0.02 0.03 0.04 0.05 0.05 0.05 0.04 0.03 0.03 0.03 0.03 0.03 0.03 0.04 0.05 0.06 0.06 0.06 0.05 0.05 0.04 0.02
0.00 0.02 0.04 0.06 0.10 0.10 0.16 0.23 0.31 0.44 0.54 0.54 0.35 0.16 0.08 0.04 0.03 0.03 0.02 0.01 0.01 0.00 0.01 0.01 0.02 0.03 0.03 0.03 0.04 0.05 0.05 0.06 0.05 0.05 0.04 0.03 0.03 0.03 0.04 0.04 0.04 0.06 0.08 0.09 0.10 0.09 0.09 0.07 0.04
0.00 0.02 0.02 0.03 0.04 0.07 0.12 0.19 0.33 0.50 0.51 0.55 0.53 0.37 0.18 0.09 0.07 0.06 0.06 0.03 0.01 0.01 0.01 0.02 0.03 0.03 0.03 0.04 0.05 0.06 0.06 0.07 0.07 0.06 0.07 0.06 0.06 0.06 0.06 0.06 0.06 0.07 0.08 0.10 0.13 0.14 0.13 0.10 0.09
0.00 0.01 0.01 0.01 0.01 0.04 0.13 0.25 0.30 0.42 0.47 0.65 0.64 0.46 0.22 0.17 0.10 0.10 0.12 0.10 0.04 0.02 0.02 0.03 0.03 0.04 0.05 0.07 0.09 0.10 0.11 0.11 0.10 0.09 0.08 0.08 0.08 0.08 0.10 0.11 0.10 0.10 0.11 0.12 0.14 0.16 0.18 0.16 0.13
0.00 0.00 0.00 0.00 0.01 0.05 0.12 0.20 0.29 0.42 0.52 0.55 0.60 0.53 0.30 0.25 0.19 0.21 0.15 0.12 0.10 0.06 0.05 0.05 0.06 0.10 0.13 0.12 0.10 0.12 0.13 0.13 0.12 0.11 0.10 0.10 0.11 0.14 0.18 0.18 0.17 0.19 0.22 0.21 0.19 0.19 0.23 0.27 0.25
0.00 0.00 0.00 0.00 0.01 0.08 0.16 0.21 0.26 0.29 0.34 0.48 0.64 0.68 0.47 0.30 0.29 0.33 0.20 0.18 0.16 0.15 0.17 0.20 0.19 0.16 0.18 0.20 0.16 0.17 0.18 0.19 0.19 0.24 0.22 0.20 0.21 0.26 0.36 0.37 0.40 0.39 0.42 0.47 0.46 0.44 0.48 0.52 0.45
0.00 0.00 0.00 0.00 0.00 0.03 0.10 0.19 0.24 0.33 0.48 0.87 1.06 0.85 0.56 0.39 0.33 0.35 0.29 0.25 0.26 0.28 0.30 0.32 0.30 0.29 0.33 0.37 0.35 0.38 0.39 0.46 0.44 0.52 0.58 0.57 0.58 0.44 0.36 0.58 0.73 0.73 0.85 0.92 0.97 1.13 1.08 0.93 0.71
0.00 0.00 0.00 0.00 0.00 0.01 0.04 0.11 0.22 0.39 0.72 1.19 1.26 0.88 0.66 0.48 0.46 0.41 0.41 0.37 0.44 0.42 0.39 0.38 0.36 0.39 0.46 0.47 0.49 0.59 0.69 0.80 0.80 0.85 0.95 1.08 1.09 0.89 0.73 0.95 1.18 1.18 1.26 1.29 1.53 1.76 1.38 1.24 1.16
0.00 0.00 0.00 0.00 0.00 0.01 0.03 0.10 0.27 0.52 0.89 1.15 0.98 0.71 0.67 0.70 0.62 0.59 0.57 0.67 0.68 0.64 0.62 0.58 0.58 0.63 0.64 0.68 0.68 0.65 0.66 0.71 0.78 0.92 1.04 1.39 1.46 1.41 1.35 1.39 1.32 1.47 1.56 1.80 1.87 1.84 1.65 1.60 1.49
0.00 0.00 0.00 0.00 0.00 0.02 0.05 0.12 0.30 0.59 0.78 0.81 0.60 0.46 0.59 0.73 0.71 0.71 0.72 0.71 0.76 0.94 1.06 1.05 1.03 0.94 0.89 0.83 0.73 0.67 0.66 0.66 0.68 0.89 1.06 1.41 1.61 1.64 1.74 1.46 1.36 1.33 1.54 1.81 1.77 1.62 1.66 1.74 1.77
0.00 0.00 0.01 0.01 0.01 0.03 0.07 0.13 0.29 0.45 0.55 0.54 0.46 0.43 0.46 0.58 0.61 0.66 0.80 0.92 1.08 1.29 1.44 1.48 1.46 1.32 1.19 1.05 0.94 0.93 0.88 0.78 0.68 0.85 0.94 1.34 1.64 1.60 1.48 1.45 1.44 1.37 1.54 1.59 1.67 1.71 1.84 1.87 1.95
0.00 0.01 0.05 0.05 0.04 0.05 0.06 0.17 0.35 0.53 0.61 0.50 0.53 0.50 0.52 0.61 0.68 0.81 0.94 1.22 1.49 1.68 1.81 1.91 1.98 1.77 1.58 1.44 1.29 1.16 1.07 0.97 0.89 0.88 0.88 1.19 1.46 1.53 1.54 1.45 1.34 1.38 1.48 1.55 1.62 1.66 1.74 1.64 1.69
0.02 0.05 0.14 0.14 0.08 0.08 0.09 0.35 0.65 0.64 0.60 0.56 0.56 0.66 0.72 0.81 0.93 0.94 1.04 1.28 1.64 1.95 2.33 2.43 2.26 2.04 1.85 1.65 1.46 1.38 1.37 1.31 1.15 0.94 0.86 0.94 1.13 1.28 1.33 1.22 1.21 1.31 1.23 1.21 1.25 1.24 1.29 1.32 1.44
0.05 0.08 0.14 0.23 0.14 0.10 0.19 0.66 0.96 0.71 0.52 0.56 0.66 0.71 0.88 0.97 1.17 1.15 1.10 1.28 1.63 2.16 2.83 2.84 2.40 2.09 1.88 1.73 1.63 1.57 1.53 1.31 1.17 1.02 0.93 0.85 0.81 0.78 0.82 0.80 0.83 0.90 0.91 0.91 0.88 1.02 1.09 1.14 1.25
0.04 0.09 0.21 0.33 0.20 0.18 0.27 0.63 0.66 0.56 0.65 0.60 0.59 0.64 0.76 0.78 0.95 1.02 1.11 1.35 1.91 2.66 3.24 3.17 2.64 2.22 1.98 1.81 1.63 1.43 1.33 1.19 1.06 0.97 0.87 0.71 0.66 0.61 0.58 0.56 0.58 0.57 0.60 0.66 0.69 0.73 0.83 0.85 0.90
0.04 0.08 0.21 0.25 0.18 0.26 0.33 0.52 0.60 0.67 0.78 0.76 0.60 0.54 0.62 0.68 0.78 0.97 1.40 2.02 2.69 3.31 3.43 2.99 2.53 2.24 1.97 1.66 1.17 0.85 0.74 0.72 0.67 0.57 0.51 0.46 0.42 0.43 0.45 0.41 0.40 0.40 0.39 0.40 0.44 0.51 0.57 0.59 0.68
0.05 0.07 0.19 0.25 0.17 0.20 0.32 0.60 0.84 0.78 0.71 0.66 0.66 0.54 0.60 0.81 1.03 1.48 2.25 2.73 2.71 2.55 2.12 1.71 1.51 1.38 1.10 0.83 0.58 0.46 0.41 0.38 0.36 0.34 0.36 0.34 0.29 0.30 0.30 0.30 0.31 0.31 0.29 0.30 0.33 0.36 0.37 0.40 0.51
0.10 0.10 0.18 0.24 0.15 0.15 0.33 0.74 0.94 0.88 0.70 0.57 0.54 0.46 0.64 0.96 1.39 1.98 2.36 2.23 1.68 1.15 0.93 0.83 0.77 0.56 0.42 0.37 0.33 0.28 0.25 0.25 0.23 0.22 0.24 0.24 0.21 0.22 0.23 0.23 0.24 0.27 0.28 0.29 0.32 0.32 0.33 0.32 0.34
0.09 0.06 0.06 0.09 0.15 0.31 0.48 0.93 1.02 0.81 0.75 0.59 0.53 0.49 0.58 0.79 0.99 1.26 1.36 1.07 0.87 0.74 0.65 0.67 0.60 0.38 0.30 0.25 0.21 0.19 0.18 0.20 0.20 0.19 0.19 0.19 0.17 0.18 0.17 0.17 0.16 0.18 0.23 0.29 0.29 0.34 0.34 0.32 0.26
0.04 0.03 0.04 0.10 0.21 0.36 0.51 0.74 0.83 0.63 0.74 0.55 0.41 0.38 0.39 0.53 0.57 0.54 0.51 0.44 0.41 0.41 0.44 0.52 0.52 0.47 0.37 0.30 0.24 0.21 0.19 0.18 0.19 0.19 0.19 0.20 0.20 0.18 0.18 0.18 0.17 0.15 0.15 0.20 0.23 0.31 0.35 0.36 0.31
0.03 0.05 0.12 0.21 0.30 0.63 0.64 0.70 0.84 0.74 0.78 0.58 0.38 0.30 0.33 0.44 0.46 0.39 0.30 0.24 0.25 0.26 0.27 0.34 0.45 0.56 0.52 0.45 0.36 0.30 0.24 0.21 0.20 0.19 0.19 0.19 0.18 0.18 0.17 0.18 0.19 0.19 0.17 0.15 0.15 0.20 0.27 0.34 0.36
0.05 0.07 0.23 0.53 0.80 0.87 0.53 0.59 0.81 0.63 0.57 0.41 0.22 0.15 0.23 0.38 0.47 0.43 0.32 0.23 0.19 0.17 0.15 0.13 0.16 0.27 0.31 0.30 0.31 0.31 0.30 0.26 0.21 0.18 0.15 0.17 0.16 0.16 0.16 0.16 0.18 0.19 0.20 0.19 0.17 0.16 0.19 0.26 0.32
0.04 0.03 0.09 0.17 0.24 0.37 0.45 0.69 0.80 0.61 0.39 0.17 0.07 0.06 0.15 0.23 0.25 0.25 0.19 0.13 0.09 0.06 0.06 0.04 0.04 0.07 0.08 0.10 0.13 0.18 0.21 0.17 0.15 0.21 0.17 0.17 0.21 0.22 0.21 0.16 0.15 0.17 0.18 0.18 0.18 0.17 0.17 0.21 0.26
0.03 0.02 0.03 0.05 0.08 0.23 0.48 0.69 0.58 0.47 0.32 0.14 0.07 0.05 0.06 0.08 0.09 0.10 0.10 0.08 0.06 0.04 0.03 0.03 0.02 0.02 0.02 0.03 0.06 0.09 0.15 0.15 0.14 0.16 0.17 0.16 0.22 0.23 0.21 0.18 0.15 0.15 0.16 0.17 0.18 0.18 0.20 0.23 0.26
0.03 0.02 0.02 0.03 0.08 0.15 0.30 0.58 0.65 0.48 0.33 0.14 0.08 0.07 0.06 0.08 0.07 0.07 0.06 0.06 0.05 0.04 0.04 0.04 0.03 0.03 0.02 0.02 0.03 0.05 0.12 0.15 0.16 0.15 0.17 0.19 0.19 0.19 0.17 0.16 0.14 0.12 0.13 0.16 0.17 0.18 0.23 0.26 0.32
0.04 0.03 0.03 0.03 0.05 0.08 0.17 0.30 0.26 0.21 0.13 0.09 0.05 0.03 0.04 0.04 0.05 0.04 0.04 0.04 0.04 0.03 0.03 0.03 0.03 0.03 0.03 0.02 0.02 0.02 0.06 0.10 0.14 0.18 0.19 0.20 0.19 0.18 0.16 0.15 0.14 0.13 0.13 0.15 0.18 0.20 0.22 0.25 0.31
0.05 0.06 0.05 0.05 0.05 0.05 0.08 0.17 0.11 0.11 0.10 0.06 0.02 0.01 0.01 0.01 0.01 0.01 0.02 0.02 0.02 0.03 0.03 0.04 0.04 0.04 0.03 0.02 0.02 0.01 0.01 0.03 0.06 0.11 0.14 0.17 0.17 0.15 0.15 0.15 0.13 0.11 0.11 0.14 0.19 0.22 0.22 0.25 0.29

GEFSSGP_prec_meanprecacc_072.txt.gz
Total_Precipitation_Accumulation
0.00 0.01 0.05 0.13 0.29 0.58 0.78 0.56 0.42 0.33 0.44 0.48 0.43 0.38 0.39 0.30 0.30 0.29 0.08 0.02 0.00 0.00 0.01 0.04 0.07 0.06 0.04 0.04 0.05 0.06 0.06 0.07 0.07 0.06 0.05 0.04 0.03 0.03 0.02 0.02 0.01 0.02 0.02 0.02 0.02 0.02 0.02 0.02 0.01
0.00 0.01 0.05 0.14 0.34 0.75 0.91 0.53 0.28 0.32 0.45 0.61 0.59 0.45 0.34 0.26 0.24 0.12 0.03 0.01 0.00 0.01 0.01 0.01 0.05 0.05 0.04 0.03 0.04 0.05 0.06 0.06 0.05 0.05 0.04 0.03 0.03 0.03 0.03 0.02 0.02 0.02 0.03 0.03 0.03 0.02 0.02 0.01 0.01
0.00 0.02 0.06 0.10 0.26 0.54 0.72 0.45 0.33 0.28 0.45 0.68 0.65 0.39 0.35 0.30 0.23 0.12 0.03 0.01 0.01 0.01 0.01 0.02 0.03 0.04 0.03 0.03 0.04 0.05 0.05 0.05 0.05 0.04 0.03 0.03 0.03 0.03 0.04 0.03 0.03 0.03 0.04 0.05 0.04 0.03 0.03 0.02 0.01
0.00 0.03 0.06 0.08 0.12 0.20 0.34 0.40 0.42 0.40 0.57 0.71 0.56 0.40 0.37 0.33 0.27 0.13 0.03 0.02 0.01 0.01 0.01 0.03 0.05 0.05 0.05 0.04 0.04 0.05 0.06 0.05 0.05 0.05 0.04 0.03 0.03 0.04 0.04 0.04 0.05 0.06 0.07 0.07 0.06 0.06 0.05 0.04 0.02
0.00 0.03 0.04 0.07 0.11 0.11 0.17 0.24 0.32 0.48 0.64 0.74 0.61 0.46 0.38 0.30 0.21 0.12 0.05 0.03 0.02 0.02 0.03 0.04 0.05 0.05 0.05 0.05 0.05 0.06 0.06 0.07 0.06 0.05 0.05 0.04 0.04 0.04 0.05 0.04 0.05 0.06 0.08 0.10 0.11 0.09 0.09 0.07 0.05
0.01 0.02 0.03 0.04 0.05 0.07 0.13 0.19 0.34 0.53 0.55 0.61 0.67 0.59 0.39 0.27 0.18 0.14 0.10 0.06 0.03 0.03 0.03 0.04 0.05 0.06 0.06 0.06 0.06 0.07 0.07 0.08 0.08 0.07 0.08 0.07 0.07 0.07 0.07 0.07 0.06 0.07 0.08 0.10 0.14 0.15 0.13 0.11 0.10
0.00 0.01 0.01 0.01 0.01 0.05 0.14 0.26 0.31 0.44 0.49 0.68 0.71 0.59 0.36 0.32 0.23 0.18 0.18 0.13 0.07 0.06 0.05 0.05 0.05 0.07 0.07 0.09 0.11 0.12 0.12 0.12 0.11 0.10 0.09 0.09 0.10 0.11 0.12 0.14 0.12 0.12 0.13 0.14 0.15 0.17 0.20 0.18 0.15
0.00 0.00 0.00 0.00 0.01 0.05 0.13 0.21 0.30 0.42 0.54 0.59 0.66 0.63 0.41 0.39 0.35 0.34 0.27 0.20 0.17 0.14 0.11 0.07 0.08 0.12 0.15 0.14 0.13 0.15 0.15 0.15 0.14 0.13 0.13 0.13 0.15 0.18 0.23 0.23 0.22 0.24 0.26 0.25 0.23 0.22 0.26 0.31 0.29
0.00 0.00 0.00 0.00 0.01 0.08 0.16 0.21 0.27 0.31 0.40 0.57 0.70 0.76 0.56 0.44 0.44 0.52 0.38 0.30 0.28 0.28 0.25 0.25 0.22 0.19 0.20 0.22 0.18 0.21 0.21 0.22 0.22 0.27 0.27 0.26 0.25 0.29 0.40 0.41 0.45 0.46 0.49 0.54 0.53 0.50 0.53 0.57 0.51
0.00 0.00 0.00 0.00 0.00 0.03 0.10 0.19 0.25 0.35 0.53 0.93 1.12 0.91 0.67 0.59 0.58 0.64 0.56 0.40 0.36 0.39 0.37 0.41 0.36 0.34 0.38 0.40 0.37 0.40 0.41 0.49 0.46 0.55 0.61 0.62 0.62 0.46 0.39 0.63 0.81 0.81 0.93 0.99 1.03 1.21 1.15 0.98 0.75
0.00 0.00 0.00 0.00 0.00 0.01 0.05 0.12 0.22 0.39 0.73 1.21 1.29 0.93 0.78 0.67 0.67 0.66 0.71 0.59 0.54 0.48 0.44 0.49 0.46 0.47 0.53 0.54 0.55 0.63 0.72 0.85 0.85 0.89 0.98 1.12 1.13 0.92 0.76 0.97 1.23 1.24 1.32 1.32 1.56 1.81 1.42 1.28 1.19
0.00 0.00 0.00 0.00 0.00 0.01 0.04 0.11 0.28 0.53 0.90 1.16 1.01 0.75 0.74 0.82 0.77 0.78 0.79 0.86 0.82 0.72 0.68 0.66 0.68 0.72 0.71 0.74 0.74 0.70 0.70 0.76 0.84 0.96 1.07 1.41 1.48 1.43 1.36 1.40 1.35 1.50 1.58 1.82 1.89 1.86 1.68 1.63 1.53
0.00 0.00 0.00 0.00 0.00 0.02 0.06 0.12 0.31 0.60 0.79 0.83 0.64 0.55 0.70 0.89 0.90 0.98 1.02 0.97 0.99 1.11 1.17 1.15 1.13 1.03 0.96 0.88 0.78 0.72 0.71 0.69 0.72 0.91 1.08 1.42 1.61 1.65 1.74 1.47 1.37 1.35 1.56 1.83 1.78 1.63 1.67 1.76 1.79
0.00 0.00 0.01 0.01 0.01 0.03 0.07 0.14 0.29 0.46 0.57 0.58 0.55 0.61 0.63 0.78 0.86 0.97 1.13 1.16 1.30 1.50 1.63 1.63 1.56 1.39 1.26 1.11 1.00 0.97 0.91 0.79 0.69 0.85 0.95 1.34 1.64 1.60 1.48 1.46 1.45 1.38 1.55 1.60 1.67 1.71 1.85 1.88 1.96
0.00 0.01 0.05 0.05 0.04 0.05 0.06 0.17 0.36 0.54 0.65 0.55 0.62 0.67 0.74 0.83 0.96 1.11 1.23 1.49 1.71 1.87 1.98 2.05 2.09 1.87 1.67 1.52 1.34 1.19 1.10 0.97 0.89 0.88 0.88 1.19 1.46 1.53 1.54 1.45 1.34 1.39 1.49 1.56 1.62 1.67 1.75 1.64 1.70
0.02 0.05 0.14 0.14 0.09 0.09 0.10 0.36 0.66 0.65 0.64 0.63 0.65 0.81 0.92 1.04 1.20 1.22 1.31 1.56 1.88 2.12 2.48 2.56 2.35 2.13 1.92 1.71 1.49 1.40 1.38 1.31 1.15 0.95 0.86 0.94 1.13 1.28 1.33 1.22 1.21 1.32 1.23 1.22 1.25 1.25 1.30 1.32 1.45
0.05 0.09 0.15 0.23 0.14 0.11 0.20 0.67 0.97 0.73 0.54 0.61 0.75 0.84 1.03 1.16 1.39 1.40 1.39 1.57 1.87 2.39 3.00 2.97 2.49 2.16 1.93 1.77 1.65 1.59 1.53 1.32 1.17 1.03 0.93 0.85 0.82 0.78 0.82 0.80 0.83 0.90 0.91 0.91 0.88 1.02 1.10 1.15 1.25
0.04 0.10 0.21 0.34 0.20 0.18 0.27 0.64 0.68 0.58 0.69 0.65 0.67 0.76 0.89 0.93 1.12 1.22 1.35 1.65 2.16 2.93 3.45 3.32 2.74 2.28 2.02 1.83 1.64 1.44 1.34 1.19 1.06 0.97 0.87 0.71 0.66 0.61 0.58 0.56 0.58 0.57 0.60 0.66 0.69 0.73 0.83 0.85 0.90
0.04 0.09 0.21 0.25 0.18 0.27 0.34 0.53 0.61 0.69 0.81 0.80 0.65 0.61 0.74 0.81 0.95 1.15 1.60 2.26 2.95 3.58 3.64 3.12 2.61 2.29 2.00 1.67 1.17 0.85 0.74 0.72 0.67 0.57 0.51 0.46 0.42 0.43 0.45 0.41 0.40 0.40 0.39 0.40 0.44 0.51 0.57 0.59 0.68
0.06 0.08 0.19 0.25 0.17 0.20 0.33 0.62 0.86 0.80 0.73 0.69 0.69 0.59 0.68 0.91 1.17 1.67 2.45 2.94 2.93 2.80 2.33 1.85 1.58 1.42 1.13 0.84 0.58 0.46 0.41 0.38 0.36 0.34 0.36 0.34 0.29 0.30 0.30 0.30 0.31 0.31 0.29 0.30 0.33 0.36 0.37 0.40 0.51
0.10 0.10 0.18 0.24 0.15 0.15 0.34 0.75 0.95 0.90 0.72 0.59 0.57 0.50 0.70 1.05 1.50 2.13 2.52 2.40 1.91 1.36 1.11 0.95 0.83 0.59 0.43 0.38 0.33 0.28 0.25 0.25 0.23 0.22 0.24 0.24 0.21 0.22 0.23 0.23 0.24 0.27 0.28 0.29 0.32 0.32 0.33 0.32 0.34
0.09 0.06 0.06 0.09 0.15 0.32 0.48 0.94 1.02 0.82 0.76 0.60 0.56 0.53 0.62 0.84 1.06 1.37 1.48 1.18 1.04 0.90 0.77 0.74 0.64 0.40 0.31 0.25 0.21 0.19 0.18 0.20 0.20 0.19 0.19 0.19 0.17 0.18 0.17 0.17 0.16 0.18 0.23 0.29 0.29 0.34 0.34 0.32 0.26
0.04 0.03 0.04 0.10 0.21 0.36 0.51 0.74 0.83 0.63 0.74 0.55 0.42 0.40 0.41 0.56 0.61 0.61 0.59 0.51 0.49 0.49 0.50 0.56 0.55 0.48 0.38 0.30 0.24 0.21 0.19 0.18 0.19 0.19 0.19 0.20 0.20 0.18 0.18 0.18 0.17 0.15 0.15 0.20 0.23 0.31 0.35 0.36 0.31
0.03 0.05 0.12 0.21 0.30 0.63 0.64 0.70 0.84 0.74 0.78 0.58 0.39 0.30 0.34 0.46 0.49 0.43 0.36 0.30 0.30 0.30 0.30 0.36 0.46 0.56 0.52 0.45 0.36 0.30 0.24 0.21 0.20 0.19 0.19 0.19 0.18 0.18 0.17 0.18 0.19 0.19 0.17 0.15 0.15 0.20 0.27 0.34 0.36
0.05 0.07 0.23 0.54 0.80 0.87 0.53 0.59 0.81 0.63 0.57 0.41 0.22 0.15 0.23 0.38 0.49 0.46 0.37 0.27 0.21 0.19 0.17 0.14 0.17 0.28 0.31 0.30 0.31 0.32 0.30 0.26 0.21 0.18 0.15 0.17 0.16 0.16 0.16 0.16 0.18 0.19 0.20 0.19 0.17 0.16 0.19 0.26 0.32
0.04 0.03 0.09 0.18 0.24 0.37 0.45 0.69 0.80 0.61 0.39 0.17 0.07 0.06 0.15 0.23 0.26 0.26 0.23 0.15 0.10 0.08 0.06 0.05 0.04 0.07 0.08 0.10 0.13 0.18 0.22 0.17 0.15 0.21 0.17 0.17 0.21 0.22 0.21 0.16 0.15 0.17 0.18 0.18 0.18 0.17 0.17 0.21 0.26
0.03 0.02 0.03 0.05 0.08 0.23 0.48 0.69 0.59 0.47 0.32 0.14 0.07 0.05 0.06 0.08 0.09 0.10 0.11 0.09 0.06 0.05 0.04 0.03 0.02 0.02 0.02 0.03 0.06 0.10 0.15 0.16 0.14 0.16 0.17 0.16 0.22 0.23 0.21 0.18 0.15 0.15 0.16 0.17 0.18 0.18 0.20 0.23 0.26
0.03 0.02 0.02 0.04 0.08 0.15 0.30 0.58 0.65 0.48 0.33 0.14 0.08 0.07 0.06 0.08 0.07 0.07 0.07 0.06 0.05 0.04 0.04 0.04 0.03 0.03 0.02 0.02 0.03 0.05 0.12 0.15 0.16 0.15 0.17 0.19 0.19 0.19 0.17 0.16 0.14 0.12 0.13 0.16 0.17 0.18 0.23 0.26 0.32
0.05 0.03 0.03 0.03 0.05 0.09 0.17 0.30 0.26 0.21 0.13 0.09 0.05 0.03 0.04 0.04 0.05 0.04 0.04 0.04 0.04 0.03 0.03 0.03 0.03 0.03 0.03 0.02 0.02 0.02 0.06 0.10 0.14 0.18 0.19 0.20 0.19 0.18 0.16 0.15 0.14 0.13 0.13 0.15 0.18 0.20 0.22 0.25 0.31
0.06 0.06 0.05 0.05 0.05 0.06 0.08 0.17 0.11 0.11 0.10 0.06 0.03 0.01 0.01 0.01 0.01 0.01 0.02 0.02 0.02 0.03 0.03 0.04 0.04 0.04 0.03 0.03 0.02 0.01 0.02 0.03 0.06 0.11 0.14 0.17 0.17 0.15 0.15 0.15 0.13 0.11 0.11 0.14 0.19 0.22 0.22 0.25 0.29

GEFSSGP_prec_meanprecacc_078.txt.gz
Total_Precipitation_Accumulation
0.00 0.01 0.05 0.13 0.30 0.58 0.79 0.56 0.42 0.33 0.45 0.48 0.44 0.41 0.43 0.35 0.36 0.35 0.10 0.02 0.01 0.01 0.01 0.04 0.09 0.09 0.08 0.07 0.07 0.07 0.07 0.07 0.07 0.06 0.05 0.04 0.03 0.03 0.02 0.02 0.02 0.02 0.02 0.03 0.02 0.02 0.02 0.02 0.02
0.00 0.01 0.05 0.14 0.35 0.75 0.91 0.53 0.29 0.32 0.45 0.61 0.60 0.46 0.36 0.29 0.28 0.19 0.05 0.01 0.01 0.01 0.02 0.02 0.07 0.08 0.07 0.06 0.07 0.07 0.07 0.07 0.06 0.05 0.04 0.03 0.03 0.03 0.03 0.02 0.02 0.03 0.03 0.04 0.03 0.03 0.02 0.02 0.01
0.00 0.02 0.07 0.11 0.27 0.54 0.72 0.45 0.33 0.28 0.45 0.68 0.65 0.40 0.37 0.33 0.28 0.18 0.05 0.01 0.02 0.02 0.02 0.03 0.05 0.06 0.06 0.06 0.07 0.06 0.06 0.06 0.05 0.05 0.04 0.04 0.04 0.04 0.04 0.04 0.04 0.04 0.05 0.05 0.05 0.04 0.03 0.02 0.02
0.01 0.03 0.06 0.08 0.12 0.20 0.34 0.40 0.42 0.40 0.57 0.71 0.56 0.41 0.38 0.35 0.31 0.16 0.04 0.02 0.03 0.03 0.03 0.05 0.07 0.08 0.08 0.07 0.06 0.07 0.07 0.07 0.06 0.05 0.04 0.04 0.04 0.04 0.05 0.05 0.06 0.06 0.08 0.08 0.07 0.06 0.06 0.05 0.03
0.00 0.03 0.05 0.07 0.11 0.11 0.17 0.24 0.32 0.48 0.64 0.74 0.62 0.48 0.40 0.31 0.22 0.13 0.05 0.03 0.02 0.03 0.04 0.06 0.09 0.09 0.08 0.08 0.08 0.09 0.08 0.08 0.07 0.06 0.05 0.05 0.05 0.05 0.05 0.05 0.05 0.07 0.09 0.11 0.12 0.10 0.10 0.08 0.05
0.01 0.02 0.03 0.04 0.05 0.07 0.13 0.19 0.34 0.53 0.55 0.61 0.67 0.61 0.42 0.29 0.20 0.15 0.11 0.07 0.04 0.04 0.04 0.06 0.09 0.11 0.10 0.10 0.10 0.10 0.09 0.09 0.09 0.08 0.08 0.08 0.07 0.07 0.08 0.08 0.07 0.08 0.09 0.12 0.15 0.16 0.15 0.13 0.11
0.00 0.01 0.01 0.01 0.01 0.05 0.14 0.26 0.31 0.44 0.50 0.69 0.72 0.62 0.40 0.35 0.25 0.19 0.19 0.15 0.09 0.07 0.06 0.07 0.07 0.10 0.11 0.13 0.15 0.15 0.14 0.13 0.13 0.11 0.10 0.10 0.11 0.12 0.14 0.15 0.13 0.13 0.15 0.15 0.17 0.18 0.22 0.20 0.17
0.00 0.00 0.00 0.00 0.01 0.05 0.13 0.21 0.30 0.42 0.54 0.59 0.66 0.67 0.47 0.42 0.38 0.37 0.30 0.23 0.21 0.18 0.15 0.10 0.10 0.15 0.17 0.16 0.16 0.18 0.18 0.17 0.16 0.16 0.16 0.16 0.17 0.20 0.25 0.25 0.24 0.27 0.30 0.28 0.26 0.24 0.29 0.34 0.32
0.00 0.00 0.00 0.00 0.01 0.08 0.16 0.21 0.27 0.31 0.40 0.57 0.70 0.78 0.61 0.47 0.47 0.55 0.43 0.35 0.32 0.32 0.29 0.28 0.24 0.22 0.23 0.24 0.21 0.24 0.24 0.25 0.25 0.31 0.32 0.30 0.29 0.34 0.44 0.45 0.50 0.52 0.56 0.60 0.58 0.54 0.57 0.61 0.54
0.00 0.00 0.00 0.00 0.00 0.03 0.10 0.19 0.25 0.35 0.53 0.93 1.13 0.92 0.70 0.63 0.62 0.67 0.60 0.44 0.38 0.41 0.40 0.45 0.40 0.37 0.41 0.44 0.43 0.47 0.46 0.53 0.50 0.61 0.67 0.69 0.70 0.54 0.44 0.67 0.87 0.88 0.99 1.04 1.09 1.28 1.20 1.04 0.81
0.00 0.00 0.00 0.00 0.00 0.01 0.05 0.12 0.22 0.39 0.73 1.21 1.30 0.96 0.81 0.73 0.73 0.71 0.76 0.65 0.58 0.50 0.45 0.51 0.49 0.51 0.58 0.60 0.62 0.70 0.79 0.92 0.91 0.96 1.06 1.21 1.21 0.97 0.79 1.01 1.27 1.28 1.36 1.38 1.63 1.87 1.48 1.34 1.25
0.00 0.00 0.00 0.00 0.00 0.01 0.04 0.11 0.28 0.53 0.91 1.17 1.02 0.78 0.81 0.89 0.84 0.86 0.90 0.97 0.88 0.76 0.71 0.70 0.71 0.76 0.77 0.82 0.82 0.78 0.79 0.85 0.92 1.04 1.13 1.47 1.52 1.46 1.39 1.44 1.39 1.54 1.64 1.87 1.93 1.92 1.74 1.70 1.60
0.00 0.00 0.00 0.00 0.00 0.02 0.06 0.13 0.31 0.60 0.80 0.84 0.67 0.61 0.80 0.99 0.99 1.08 1.12 1.08 1.06 1.16 1.22 1.19 1.18 1.09 1.04 0.99 0.88 0.81 0.80 0.78 0.77 0.95 1.11 1.44 1.63 1.67 1.76 1.50 1.41 1.39 1.59 1.85 1.80 1.67 1.72 1.83 1.85
0.00 0.00 0.01 0.01 0.01 0.03 0.07 0.14 0.30 0.46 0.58 0.59 0.59 0.70 0.76 0.92 0.99 1.09 1.23 1.27 1.40 1.59 1.71 1.70 1.63 1.46 1.35 1.21 1.11 1.07 0.99 0.85 0.72 0.87 0.96 1.36 1.65 1.61 1.49 1.48 1.48 1.41 1.58 1.62 1.69 1.73 1.88 1.92 2.02
0.00 0.01 0.05 0.05 0.04 0.05 0.06 0.17 0.36 0.54 0.65 0.57 0.66 0.75 0.87 1.00 1.14 1.31 1.41 1.62 1.84 2.00 2.10 2.16 2.20 1.98 1.78 1.64 1.47 1.29 1.18 1.01 0.91 0.89 0.89 1.20 1.47 1.53 1.55 1.46 1.35 1.41 1.51 1.58 1.65 1.69 1.76 1.66 1.72
0.02 0.05 0.14 0.14 0.09 0.09 0.10 0.36 0.66 0.66 0.65 0.64 0.70 0.92 1.09 1.24 1.43 1.44 1.56 1.73 2.01 2.26 2.63 2.70 2.47 2.25 2.04 1.82 1.62 1.51 1.46 1.35 1.16 0.95 0.87 0.94 1.13 1.28 1.33 1.23 1.22 1.32 1.24 1.23 1.27 1.26 1.31 1.33 1.45
0.05 0.09 0.15 0.23 0.14 0.11 0.20 0.67 0.97 0.73 0.56 0.63 0.78 0.95 1.19 1.38 1.63 1.57 1.58 1.76 2.05 2.57 3.18 3.15 2.64 2.31 2.07 1.90 1.77 1.68 1.59 1.35 1.19 1.03 0.94 0.86 0.82 0.78 0.83 0.80 0.83 0.91 0.91 0.91 0.89 1.03 1.11 1.16 1.26
0.04 0.10 0.21 0.34 0.20 0.18 0.27 0.64 0.68 0.59 0.70 0.67 0.70 0.81 0.99 1.06 1.26 1.37 1.47 1.78 2.34 3.14 3.64 3.49 2.88 2.42 2.14 1.93 1.72 1.50 1.37 1.21 1.06 0.97 0.87 0.71 0.66 0.61 0.58 0.57 0.58 0.57 0.60 0.66 0.70 0.73 0.84 0.86 0.91
0.04 0.09 0.21 0.25 0.18 0.27 0.34 0.53 0.62 0.69 0.82 0.82 0.67 0.65 0.82 0.91 1.05 1.27 1.71 2.36 3.10 3.80 3.86 3.29 2.76 2.43 2.11 1.75 1.23 0.90 0.77 0.72 0.68 0.57 0.51 0.46 0.42 0.43 0.45 0.41 0.40 0.40 0.39 0.40 0.44 0.51 0.57 0.59 0.68
0.06 0.08 0.19 0.25 0.17 0.20 0.34 0.62 0.86 0.80 0.74 0.70 0.70 0.61 0.72 0.98 1.28 1.77 2.55 3.04 3.04 3.00 2.55 2.01 1.72 1.54 1.23 0.91 0.63 0.50 0.43 0.39 0.36 0.34 0.36 0.34 0.29 0.30 0.30 0.30 0.31 0.31 0.29 0.30 0.33 0.36 0.37 0.40 0.51
0.10 0.10 0.18 0.24 0.15 0.15 0.34 0.75 0.95 0.90 0.72 0.59 0.58 0.50 0.71 1.07 1.56 2.20 2.59 2.48 2.01 1.50 1.26 1.08 0.95 0.68 0.51 0.43 0.37 0.31 0.26 0.25 0.23 0.22 0.25 0.24 0.21 0.22 0.23 0.23 0.24 0.27 0.28 0.29 0.32 0.32 0.33 0.32 0.34
0.09 0.06 0.06 0.09 0.15 0.32 0.48 0.94 1.02 0.82 0.76 0.60 0.56 0.53 0.62 0.85 1.08 1.40 1.52 1.25 1.12 1.02 0.91 0.86 0.75 0.46 0.36 0.29 0.24 0.21 0.19 0.20 0.20 0.19 0.19 0.19 0.17 0.18 0.17 0.17 0.16 0.18 0.23 0.29 0.29 0.34 0.34 0.32 0.26
0.04 0.03 0.04 0.10 0.21 0.36 0.51 0.74 0.83 0.63 0.74 0.56 0.42 0.40 0.42 0.56 0.63 0.63 0.63 0.57 0.56 0.57 0.60 0.63 0.61 0.53 0.41 0.33 0.26 0.23 0.20 0.18 0.19 0.19 0.19 0.20 0.20 0.18 0.18 0.18 0.17 0.15 0.15 0.20 0.23 0.31 0.35 0.36 0.31
0.03 0.05 0.12 0.21 0.30 0.63 0.64 0.70 0.84 0.74 0.78 0.58 0.39 0.30 0.34 0.46 0.50 0.46 0.39 0.32 0.33 0.36 0.34 0.39 0.50 0.59 0.54 0.46 0.37 0.31 0.24 0.22 0.20 0.19 0.19 0.19 0.18 0.18 0.17 0.18 0.19 0.19 0.17 0.15 0.15 0.20 0.27 0.34 0.36
0.05 0.07 0.23 0.54 0.80 0.87 0.53 0.59 0.81 0.63 0.57 0.41 0.22 0.15 0.23 0.38 0.49 0.47 0.38 0.28 0.23 0.22 0.19 0.16 0.18 0.29 0.32 0.31 0.32 0.32 0.30 0.26 0.21 0.18 0.16 0.17 0.16 0.16 0.16 0.16 0.18 0.19 0.20 0.19 0.17 0.16 0.19 0.26 0.32
0.04 0.03 0.09 0.18 0.24 0.37 0.45 0.69 0.80 0.61 0.39 0.17 0.07 0.06 0.15 0.23 0.26 0.27 0.24 0.16 0.11 0.09 0.08 0.06 0.06 0.08 0.09 0.10 0.14 0.18 0.22 0.17 0.15 0.21 0.17 0.18 0.21 0.22 0.21 0.16 0.15 0.17 0.18 0.18 0.18 0.17 0.17 0.21 0.26
0.03 0.02 0.03 0.05 0.08 0.23 0.48 0.69 0.59 0.47 0.32 0.14 0.07 0.05 0.06 0.08 0.09 0.11 0.12 0.09 0.07 0.06 0.05 0.04 0.03 0.03 0.03 0.03 0.06 0.10 0.15 0.16 0.14 0.17 0.17 0.16 0.22 0.23 0.21 0.18 0.15 0.15 0.16 0.17 0.18 0.18 0.20 0.23 0.26
0.03 0.02 0.02 0.04 0.08 0.15 0.30 0.58 0.65 0.48 0.33 0.14 0.08 0.07 0.06 0.08 0.07 0.07 0.07 0.06 0.05 0.05 0.05 0.05 0.04 0.03 0.02 0.02 0.03 0.05 0.12 0.15 0.16 0.15 0.17 0.19 0.19 0.19 0.17 0.16 0.14 0.12 0.13 0.16 0.17 0.18 0.23 0.26 0.32
0.05 0.03 0.03 0.03 0.05 0.09 0.18 0.30 0.26 0.21 0.13 0.09 0.05 0.03 0.04 0.04 0.05 0.04 0.04 0.04 0.04 0.03 0.03 0.03 0.03 0.03 0.03 0.02 0.02 0.02 0.06 0.10 0.14 0.18 0.19 0.20 0.19 0.18 0.16 0.15 0.14 0.13 0.13 0.15 0.18 0.20 0.22 0.25 0.31
0.06 0.06 0.05 0.05 0.05 0.06 0.08 0.17 0.11 0.11 0.10 0.06 0.03 0.01 0.01 0.01 0.01 0.01 0.02 0.02 0.02 0.03 0.03 0.04 0.04 0.04 0.03 0.03 0.02 0.02 0.02 0.03 0.07 0.11 0.15 0.17 0.17 0.15 0.15 0.15 0.13 0.11 0.11 0.14 0.19 0.22 0.22 0.25 0.29

GEFSSGP_prec_meanprecacc_084.txt.gz
Total_Precipitation_Accumulation
0.00 0.01 0.05 0.13 0.34 0.65 0.86 0.60 0.43 0.34 0.45 0.48 0.44 0.41 0.43 0.37 0.42 0.59 0.27 0.07 0.01 0.01 0.01 0.04 0.09 0.10 0.10 0.10 0.10 0.10 0.09 0.09 0.08 0.07 0.05 0.04 0.04 0.03 0.03 0.02 0.02 0.03 0.03 0.04 0.03 0.03 0.03 0.03 0.03
0.00 0.01 0.05 0.15 0.39 0.80 0.95 0.57 0.30 0.33 0.45 0.61 0.60 0.46 0.36 0.32 0.30 0.23 0.12 0.07 0.02 0.01 0.02 0.02 0.07 0.09 0.08 0.08 0.09 0.09 0.09 0.08 0.07 0.05 0.04 0.04 0.03 0.03 0.03 0.03 0.02 0.03 0.04 0.04 0.04 0.03 0.03 0.02 0.02
0.00 0.02 0.07 0.11 0.29 0.56 0.73 0.46 0.34 0.28 0.45 0.68 0.65 0.40 0.38 0.37 0.30 0.19 0.12 0.05 0.03 0.02 0.02 0.03 0.05 0.07 0.07 0.08 0.09 0.09 0.08 0.07 0.06 0.06 0.04 0.04 0.04 0.04 0.04 0.04 0.04 0.05 0.06 0.06 0.06 0.04 0.04 0.03 0.02
0.01 0.03 0.07 0.09 0.13 0.20 0.34 0.40 0.42 0.40 0.57 0.71 0.56 0.42 0.39 0.36 0.31 0.17 0.07 0.04 0.04 0.05 0.03 0.05 0.08 0.09 0.09 0.09 0.09 0.09 0.09 0.08 0.07 0.06 0.05 0.04 0.04 0.05 0.05 0.05 0.06 0.07 0.08 0.09 0.08 0.07 0.06 0.05 0.03
0.00 0.03 0.05 0.08 0.11 0.11 0.17 0.24 0.32 0.48 0.64 0.74 0.62 0.51 0.46 0.34 0.23 0.14 0.07 0.05 0.05 0.06 0.06 0.07 0.10 0.11 0.10 0.10 0.11 0.11 0.10 0.09 0.08 0.07 0.06 0.05 0.05 0.06 0.06 0.05 0.06 0.07 0.10 0.12 0.13 0.12 0.10 0.09 0.06
0.01 0.02 0.03 0.04 0.05 0.07 0.13 0.19 0.34 0.53 0.55 0.62 0.68 0.66 0.51 0.34 0.24 0.17 0.14 0.11 0.07 0.05 0.05 0.07 0.10 0.12 0.12 0.13 0.13 0.12 0.11 0.10 0.10 0.09 0.09 0.09 0.08 0.09 0.08 0.08 0.07 0.08 0.10 0.13 0.16 0.17 0.16 0.13 0.12
0.00 0.01 0.01 0.01 0.01 0.05 0.14 0.26 0.31 0.44 0.50 0.69 0.72 0.67 0.49 0.43 0.33 0.25 0.24 0.21 0.14 0.09 0.07 0.07 0.07 0.10 0.12 0.15 0.17 0.17 0.16 0.15 0.14 0.12 0.11 0.11 0.12 0.13 0.15 0.16 0.13 0.14 0.15 0.16 0.18 0.19 0.23 0.20 0.17
0.00 0.00 0.00 0.00 0.01 0.05 0.13 0.21 0.30 0.43 0.54 0.60 0.66 0.71 0.56 0.52 0.45 0.47 0.43 0.37 0.31 0.22 0.17 0.11 0.10 0.15 0.18 0.17 0.17 0.20 0.19 0.18 0.17 0.17 0.17 0.17 0.19 0.22 0.27 0.27 0.25 0.27 0.30 0.29 0.27 0.25 0.30 0.35 0.32
0.00 0.00 0.00 0.00 0.01 0.08 0.16 0.21 0.27 0.31 0.40 0.57 0.70 0.79 0.65 0.52 0.52 0.62 0.53 0.46 0.40 0.36 0.31 0.30 0.26 0.23 0.24 0.26 0.22 0.25 0.25 0.26 0.27 0.33 0.33 0.33 0.38 0.45 0.53 0.51 0.53 0.54 0.57 0.61 0.60 0.55 0.58 0.62 0.55
0.00 0.00 0.00 0.00 0.00 0.03 0.10 0.19 0.25 0.35 0.53 0.95 1.14 0.94 0.72 0.65 0.67 0.74 0.67 0.52 0.46 0.48 0.46 0.51 0.45 0.40 0.44 0.48 0.47 0.51 0.51 0.58 0.56 0.71 0.74 0.78 0.83 0.67 0.55 0.74 0.90 0.89 1.00 1.06 1.12 1.30 1.23 1.06 0.85
0.00 0.00 0.00 0.00 0.00 0.01 0.05 0.12 0.22 0.39 0.74 1.24 1.35 0.99 0.86 0.78 0.79 0.77 0.85 0.71 0.67 0.59 0.56 0.64 0.55 0.59 0.65 0.68 0.69 0.78 0.90 1.02 1.02 1.07 1.16 1.31 1.29 1.04 0.87 1.08 1.32 1.32 1.39 1.42 1.68 1.91 1.53 1.41 1.34
0.00 0.00 0.00 0.00 0.00 0.01 0.04 0.11 0.28 0.53 0.92 1.18 1.05 0.81 0.83 0.96 0.93 0.94 1.02 1.07 0.95 0.85 0.82 0.84 0.79 0.87 0.87 0.89 0.89 0.86 0.85 0.94 1.02 1.12 1.21 1.54 1.59 1.53 1.46 1.50 1.45 1.61 1.70 1.92 1.99 1.99 1.80 1.77 1.67
0.00 0.00 0.00 0.00 0.00 0.02 0.06 0.13 0.32 0.61 0.84 0.86 0.67 0.62 0.84 1.06 1.08 1.20 1.33 1.34 1.22 1.28 1.32 1.30 1.31 1.20 1.14 1.09 0.96 0.88 0.87 0.85 0.84 1.02 1.17 1.49 1.69 1.72 1.81 1.54 1.46 1.43 1.63 1.88 1.84 1.71 1.77 1.87 1.89
0.00 0.00 0.01 0.01 0.01 0.03 0.07 0.14 0.30 0.49 0.61 0.61 0.61 0.76 0.83 1.03 1.13 1.23 1.38 1.51 1.64 1.78 1.86 1.83 1.74 1.59 1.46 1.31 1.20 1.16 1.05 0.91 0.78 0.92 0.99 1.38 1.68 1.65 1.54 1.53 1.53 1.44 1.60 1.65 1.72 1.76 1.91 1.96 2.05
0.00 0.01 0.05 0.06 0.04 0.05 0.06 0.18 0.37 0.55 0.66 0.58 0.68 0.81 0.95 1.10 1.29 1.46 1.54 1.74 2.03 2.19 2.26 2.30 2.31 2.13 1.94 1.77 1.56 1.36 1.24 1.07 0.97 0.92 0.91 1.21 1.48 1.55 1.57 1.50 1.39 1.43 1.53 1.61 1.68 1.71 1.78 1.68 1.74
0.02 0.05 0.15 0.15 0.09 0.09 0.10 0.37 0.67 0.66 0.65 0.65 0.71 0.96 1.15 1.34 1.58 1.58 1.69 1.86 2.18 2.46 2.80 2.85 2.57 2.40 2.19 1.96 1.71 1.58 1.51 1.41 1.24 0.98 0.88 0.95 1.14 1.29 1.34 1.24 1.23 1.33 1.26 1.25 1.29 1.28 1.32 1.34 1.46
0.05 0.09 0.15 0.24 0.14 0.11 0.20 0.68 0.98 0.73 0.56 0.64 0.81 1.00 1.27 1.48 1.74 1.70 1.74 1.88 2.22 2.78 3.38 3.32 2.81 2.47 2.22 2.02 1.87 1.75 1.64 1.39 1.22 1.05 0.95 0.86 0.82 0.79 0.84 0.80 0.84 0.91 0.92 0.92 0.89 1.04 1.12 1.16 1.27
0.04 0.10 0.21 0.34 0.20 0.18 0.27 0.64 0.68 0.59 0.71 0.68 0.72 0.86 1.06 1.16 1.36 1.46 1.58 1.89 2.48 3.32 3.84 3.65 3.03 2.56 2.29 2.07 1.84 1.60 1.43 1.24 1.08 0.98 0.88 0.71 0.66 0.62 0.59 0.57 0.58 0.57 0.60 0.66 0.70 0.74 0.84 0.86 0.92
0.04 0.09 0.21 0.26 0.18 0.27 0.34 0.53 0.62 0.69 0.83 0.83 0.70 0.68 0.88 1.02 1.16 1.36 1.79 2.45 3.20 3.93 4.05 3.46 2.91 2.56 2.26 1.90 1.35 0.99 0.83 0.75 0.68 0.58 0.51 0.46 0.42 0.44 0.45 0.41 0.41 0.40 0.39 0.40 0.44 0.52 0.57 0.60 0.69
0.06 0.08 0.19 0.26 0.17 0.20 0.34 0.62 0.86 0.80 0.74 0.71 0.71 0.64 0.76 1.05 1.39 1.87 2.64 3.13 3.14 3.09 2.65 2.12 1.85 1.68 1.38 1.08 0.75 0.58 0.48 0.41 0.36 0.34 0.36 0.34 0.29 0.30 0.30 0.30 0.31 0.31 0.29 0.30 0.33 0.36 0.37 0.40 0.51
0.10 0.10 0.18 0.24 0.15 0.15 0.34 0.75 0.96 0.91 0.72 0.60 0.58 0.51 0.72 1.11 1.64 2.28 2.66 2.57 2.09 1.60 1.36 1.19 1.07 0.82 0.68 0.61 0.47 0.38 0.30 0.27 0.25 0.24 0.25 0.24 0.21 0.22 0.23 0.23 0.24 0.27 0.28 0.29 0.33 0.32 0.33 0.32 0.34
0.09 0.06 0.06 0.09 0.15 0.32 0.48 0.95 1.04 0.83 0.77 0.60 0.56 0.54 0.63 0.87 1.15 1.48 1.59 1.33 1.20 1.11 1.01 0.97 0.87 0.58 0.48 0.41 0.33 0.27 0.22 0.22 0.22 0.20 0.20 0.19 0.17 0.18 0.17 0.17 0.16 0.18 0.23 0.29 0.29 0.34 0.34 0.32 0.26
0.04 0.03 0.04 0.10 0.21 0.38 0.54 0.76 0.84 0.63 0.74 0.56 0.42 0.40 0.42 0.57 0.65 0.67 0.68 0.64 0.62 0.63 0.68 0.74 0.74 0.63 0.51 0.42 0.34 0.29 0.23 0.21 0.20 0.20 0.20 0.21 0.20 0.18 0.18 0.18 0.17 0.15 0.15 0.20 0.23 0.31 0.35 0.36 0.31
0.03 0.05 0.12 0.22 0.36 0.74 0.71 0.71 0.85 0.74 0.78 0.58 0.39 0.31 0.35 0.47 0.52 0.50 0.44 0.39 0.40 0.42 0.40 0.49 0.61 0.69 0.63 0.54 0.43 0.35 0.28 0.25 0.23 0.21 0.20 0.20 0.18 0.18 0.17 0.18 0.19 0.19 0.18 0.15 0.15 0.20 0.27 0.34 0.36
0.05 0.07 0.23 0.55 0.87 0.96 0.57 0.60 0.81 0.63 0.57 0.41 0.22 0.16 0.25 0.39 0.51 0.49 0.41 0.32 0.27 0.26 0.23 0.24 0.27 0.37 0.39 0.36 0.37 0.35 0.33 0.29 0.24 0.20 0.17 0.17 0.16 0.16 0.16 0.16 0.18 0.19 0.20 0.19 0.17 0.16 0.19 0.26 0.32
0.04 0.03 0.10 0.19 0.25 0.38 0.46 0.70 0.80 0.61 0.39 0.17 0.07 0.06 0.16 0.23 0.27 0.28 0.26 0.20 0.13 0.11 0.11 0.10 0.12 0.14 0.15 0.15 0.18 0.21 0.24 0.19 0.17 0.23 0.18 0.18 0.21 0.22 0.21 0.16 0.15 0.17 0.18 0.18 0.18 0.17 0.17 0.21 0.26
0.03 0.02 0.03 0.06 0.09 0.24 0.51 0.71 0.60 0.48 0.32 0.14 0.07 0.05 0.06 0.08 0.09 0.12 0.13 0.12 0.09 0.08 0.07 0.07 0.08 0.08 0.07 0.07 0.09 0.12 0.17 0.17 0.16 0.18 0.18 0.16 0.22 0.23 0.21 0.18 0.15 0.15 0.16 0.17 0.18 0.18 0.20 0.23 0.26
0.03 0.02 0.02 0.04 0.09 0.16 0.33 0.62 0.69 0.51 0.34 0.14 0.08 0.07 0.06 0.08 0.07 0.07 0.07 0.07 0.06 0.06 0.07 0.07 0.07 0.06 0.05 0.05 0.05 0.07 0.13 0.16 0.17 0.16 0.18 0.19 0.19 0.19 0.17 0.16 0.14 0.12 0.13 0.16 0.17 0.19 0.23 0.26 0.32
0.05 0.04 0.03 0.03 0.05 0.09 0.20 0.34 0.29 0.22 0.14 0.09 0.05 0.03 0.04 0.04 0.05 0.04 0.04 0.04 0.04 0.04 0.05 0.05 0.06 0.05 0.04 0.04 0.03 0.04 0.07 0.10 0.15 0.18 0.19 0.21 0.20 0.18 0.16 0.15 0.14 0.13 0.13 0.15 0.18 0.20 0.22 0.25 0.32
0.07 0.06 0.05 0.05 0.05 0.06 0.09 0.19 0.12 0.12 0.10 0.06 0.03 0.01 0.01 0.01 0.01 0.02 0.02 0.04 0.04 0.03 0.04 0.04 0.05 0.04 0.04 0.03 0.03 0.03 0.03 0.04 0.07 0.12 0.15 0.17 0.17 0.15 0.15 0.15 0.13 0.11 0.11 0.14 0.19 0.22 0.22 0.25 0.29

GEFSSGP_prec_meanprecacc_090.txt.gz
Total_Precipitation_Accumulation
0.00 0.01 0.08 0.20 0.47 0.85 1.01 0.68 0.51 0.48 0.50 0.51 0.45 0.42 0.45 0.41 0.49 0.74 0.53 0.34 0.13 0.03 0.02 0.05 0.10 0.10 0.10 0.10 0.10 0.10 0.09 0.09 0.09 0.08 0.06 0.05 0.04 0.04 0.03 0.03 0.02 0.03 0.04 0.04 0.04 0.04 0.04 0.04 0.03
0.01 0.02 0.10 0.24 0.57 0.96 1.02 0.59 0.34 0.42 0.49 0.62 0.61 0.47 0.38 0.37 0.38 0.30 0.27 0.39 0.11 0.03 0.02 0.02 0.07 0.09 0.09 0.08 0.10 0.10 0.09 0.09 0.07 0.06 0.05 0.04 0.04 0.04 0.04 0.03 0.03 0.04 0.04 0.05 0.04 0.03 0.03 0.03 0.03
0.01 0.05 0.12 0.21 0.45 0.64 0.75 0.46 0.35 0.30 0.47 0.70 0.67 0.44 0.40 0.45 0.36 0.24 0.23 0.32 0.13 0.06 0.03 0.03 0.06 0.07 0.07 0.09 0.10 0.09 0.09 0.08 0.07 0.06 0.05 0.04 0.04 0.05 0.05 0.05 0.05 0.05 0.06 0.07 0.06 0.04 0.04 0.03 0.03
0.01 0.08 0.13 0.19 0.19 0.21 0.34 0.40 0.42 0.41 0.59 0.72 0.58 0.47 0.44 0.45 0.39 0.25 0.22 0.33 0.16 0.09 0.04 0.05 0.08 0.09 0.09 0.09 0.09 0.10 0.10 0.09 0.08 0.06 0.05 0.04 0.04 0.05 0.06 0.06 0.07 0.08 0.09 0.09 0.08 0.07 0.07 0.06 0.04
0.01 0.06 0.11 0.13 0.13 0.12 0.17 0.24 0.32 0.48 0.65 0.76 0.65 0.59 0.58 0.43 0.35 0.28 0.19 0.31 0.20 0.12 0.07 0.07 0.10 0.11 0.11 0.10 0.11 0.11 0.10 0.10 0.08 0.07 0.06 0.06 0.06 0.06 0.07 0.06 0.07 0.08 0.10 0.12 0.14 0.12 0.11 0.09 0.06
0.01 0.04 0.06 0.05 0.05 0.07 0.13 0.19 0.34 0.53 0.55 0.63 0.73 0.76 0.64 0.45 0.39 0.32 0.27 0.34 0.26 0.14 0.06 0.07 0.11 0.12 0.12 0.13 0.14 0.13 0.12 0.11 0.10 0.09 0.09 0.10 0.09 0.10 0.09 0.08 0.08 0.09 0.10 0.13 0.16 0.18 0.16 0.13 0.12
0.00 0.01 0.01 0.01 0.02 0.05 0.14 0.26 0.31 0.44 0.50 0.70 0.75 0.73 0.64 0.59 0.50 0.40 0.42 0.57 0.48 0.29 0.12 0.08 0.08 0.11 0.12 0.15 0.18 0.18 0.17 0.15 0.14 0.12 0.12 0.12 0.13 0.14 0.16 0.16 0.14 0.14 0.16 0.16 0.18 0.20 0.23 0.20 0.17
0.00 0.00 0.00 0.00 0.01 0.05 0.13 0.21 0.30 0.43 0.55 0.60 0.68 0.76 0.67 0.63 0.57 0.61 0.69 0.87 0.85 0.60 0.30 0.14 0.11 0.15 0.18 0.17 0.18 0.20 0.20 0.19 0.18 0.18 0.17 0.19 0.22 0.25 0.30 0.29 0.26 0.28 0.30 0.29 0.27 0.26 0.30 0.35 0.33
0.00 0.00 0.00 0.00 0.01 0.08 0.16 0.22 0.27 0.31 0.40 0.58 0.76 0.85 0.73 0.62 0.61 0.71 0.82 0.93 0.90 0.66 0.49 0.36 0.29 0.24 0.25 0.26 0.23 0.26 0.27 0.28 0.28 0.34 0.35 0.35 0.40 0.48 0.56 0.55 0.55 0.55 0.57 0.62 0.61 0.57 0.60 0.64 0.56
0.00 0.00 0.00 0.00 0.00 0.03 0.10 0.20 0.25 0.36 0.53 0.98 1.24 1.08 0.86 0.76 0.77 0.85 0.88 0.81 0.80 0.75 0.67 0.68 0.53 0.45 0.47 0.49 0.48 0.52 0.52 0.58 0.57 0.72 0.77 0.80 0.86 0.71 0.60 0.79 0.93 0.91 1.01 1.08 1.14 1.33 1.25 1.08 0.86
0.00 0.00 0.00 0.00 0.00 0.01 0.05 0.12 0.23 0.39 0.75 1.27 1.48 1.15 0.99 0.93 0.90 0.90 1.01 0.96 0.99 0.92 0.82 0.92 0.76 0.72 0.76 0.74 0.72 0.80 0.91 1.02 1.03 1.08 1.19 1.34 1.32 1.07 0.90 1.11 1.35 1.35 1.41 1.43 1.70 1.93 1.55 1.43 1.36
0.00 0.00 0.00 0.00 0.00 0.01 0.04 0.11 0.28 0.53 0.92 1.20 1.10 0.89 0.89 1.07 1.05 1.06 1.18 1.29 1.28 1.23 1.21 1.12 1.03 1.06 1.11 1.02 0.97 0.91 0.87 0.96 1.03 1.13 1.22 1.56 1.61 1.55 1.49 1.52 1.46 1.62 1.72 1.93 2.00 2.00 1.82 1.79 1.70
0.00 0.00 0.00 0.00 0.00 0.02 0.06 0.13 0.32 0.61 0.84 0.88 0.74 0.76 0.94 1.16 1.20 1.36 1.51 1.57 1.53 1.68 1.85 1.73 1.60 1.39 1.28 1.24 1.06 0.95 0.91 0.87 0.85 1.03 1.18 1.51 1.71 1.75 1.83 1.55 1.47 1.44 1.64 1.89 1.85 1.73 1.78 1.88 1.90
0.00 0.00 0.01 0.01 0.02 0.04 0.07 0.14 0.30 0.49 0.61 0.63 0.67 0.85 0.98 1.19 1.29 1.46 1.69 1.91 2.04 2.21 2.38 2.27 2.07 1.81 1.59 1.42 1.28 1.22 1.09 0.93 0.79 0.93 1.01 1.40 1.69 1.66 1.54 1.53 1.53 1.45 1.60 1.65 1.73 1.77 1.92 1.96 2.06
0.00 0.01 0.06 0.07 0.05 0.06 0.07 0.18 0.37 0.56 0.67 0.60 0.73 0.88 1.09 1.31 1.53 1.72 1.84 2.23 2.51 2.70 2.79 2.75 2.63 2.34 2.07 1.86 1.63 1.41 1.26 1.08 0.98 0.93 0.93 1.23 1.49 1.55 1.57 1.50 1.39 1.43 1.53 1.61 1.68 1.71 1.78 1.68 1.74
0.02 0.05 0.15 0.16 0.10 0.10 0.11 0.37 0.67 0.66 0.65 0.68 0.78 1.03 1.28 1.50 1.83 1.85 1.95 2.25 2.52 2.86 3.21 3.23 2.86 2.57 2.33 2.07 1.79 1.62 1.54 1.43 1.25 0.99 0.90 0.97 1.16 1.31 1.35 1.24 1.23 1.33 1.26 1.25 1.30 1.28 1.32 1.34 1.47
0.05 0.09 0.15 0.24 0.15 0.12 0.22 0.69 0.98 0.74 0.56 0.67 0.86 1.06 1.40 1.63 1.95 1.94 1.98 2.10 2.44 3.05 3.66 3.59 3.13 2.68 2.36 2.13 1.95 1.81 1.67 1.42 1.24 1.07 0.97 0.87 0.82 0.79 0.84 0.81 0.84 0.91 0.92 0.92 0.90 1.05 1.12 1.16 1.27
0.04 0.10 0.22 0.34 0.21 0.19 0.29 0.65 0.68 0.60 0.72 0.70 0.75 0.92 1.18 1.28 1.50 1.66 1.84 2.16 2.75 3.58 4.11 3.94 3.33 2.82 2.44 2.17 1.93 1.67 1.48 1.27 1.10 1.01 0.93 0.72 0.67 0.62 0.59 0.57 0.58 0.57 0.61 0.67 0.71 0.74 0.84 0.87 0.92
0.04 0.09 0.22 0.26 0.19 0.28 0.35 0.54 0.63 0.71 0.85 0.85 0.73 0.75 1.00 1.14 1.31 1.56 2.04 2.73 3.56 4.20 4.26 3.73 3.16 2.78 2.36 1.98 1.43 1.07 0.88 0.78 0.71 0.59 0.52 0.47 0.42 0.44 0.46 0.41 0.41 0.40 0.39 0.41 0.45 0.52 0.57 0.60 0.69
0.06 0.08 0.19 0.26 0.18 0.21 0.34 0.64 0.89 0.84 0.77 0.73 0.73 0.67 0.81 1.14 1.53 2.03 2.88 3.40 3.41 3.29 2.80 2.31 2.03 1.80 1.45 1.12 0.80 0.63 0.52 0.43 0.38 0.35 0.36 0.34 0.30 0.30 0.30 0.30 0.31 0.31 0.30 0.30 0.33 0.36 0.37 0.40 0.51
0.10 0.10 0.18 0.25 0.15 0.16 0.35 0.78 1.01 0.97 0.75 0.62 0.60 0.53 0.74 1.15 1.70 2.39 2.85 2.82 2.30 1.79 1.51 1.32 1.23 0.94 0.75 0.65 0.52 0.43 0.34 0.29 0.27 0.26 0.26 0.24 0.21 0.22 0.23 0.23 0.24 0.27 0.28 0.29 0.33 0.32 0.33 0.32 0.34
0.09 0.06 0.06 0.09 0.15 0.33 0.50 0.99 1.10 0.88 0.79 0.62 0.58 0.55 0.64 0.89 1.18 1.53 1.69 1.47 1.36 1.28 1.18 1.12 1.03 0.72 0.56 0.47 0.39 0.31 0.26 0.24 0.23 0.21 0.21 0.19 0.17 0.18 0.17 0.17 0.16 0.18 0.23 0.29 0.29 0.34 0.34 0.32 0.26
0.04 0.03 0.04 0.11 0.22 0.41 0.59 0.82 0.90 0.68 0.77 0.57 0.43 0.42 0.44 0.59 0.66 0.69 0.73 0.72 0.72 0.74 0.82 0.88 0.89 0.76 0.58 0.48 0.42 0.34 0.27 0.24 0.21 0.21 0.21 0.21 0.20 0.18 0.18 0.18 0.17 0.15 0.16 0.20 0.23 0.31 0.35 0.36 0.31
0.03 0.05 0.12 0.23 0.39 0.85 0.80 0.79 0.94 0.81 0.80 0.59 0.40 0.32 0.36 0.48 0.53 0.51 0.46 0.45 0.49 0.53 0.51 0.58 0.73 0.81 0.71 0.61 0.51 0.43 0.33 0.28 0.24 0.22 0.21 0.20 0.18 0.18 0.17 0.18 0.19 0.19 0.18 0.15 0.15 0.20 0.27 0.34 0.36
0.05 0.07 0.24 0.56 0.92 1.06 0.65 0.72 0.94 0.69 0.59 0.43 0.23 0.17 0.28 0.45 0.54 0.51 0.43 0.35 0.33 0.36 0.35 0.33 0.36 0.47 0.49 0.44 0.43 0.44 0.40 0.32 0.25 0.21 0.17 0.18 0.16 0.16 0.16 0.17 0.18 0.19 0.20 0.19 0.17 0.16 0.19 0.26 0.32
0.05 0.03 0.10 0.20 0.28 0.43 0.54 0.85 0.96 0.66 0.41 0.19 0.09 0.07 0.20 0.30 0.31 0.30 0.27 0.21 0.15 0.14 0.17 0.18 0.19 0.21 0.25 0.24 0.24 0.26 0.28 0.22 0.18 0.23 0.18 0.18 0.21 0.22 0.21 0.16 0.15 0.17 0.18 0.18 0.18 0.17 0.17 0.21 0.26
0.05 0.03 0.04 0.07 0.11 0.28 0.58 0.82 0.71 0.53 0.34 0.16 0.08 0.06 0.07 0.09 0.11 0.12 0.14 0.13 0.11 0.10 0.10 0.11 0.13 0.15 0.16 0.17 0.15 0.15 0.19 0.19 0.17 0.18 0.18 0.16 0.22 0.23 0.21 0.18 0.15 0.15 0.16 0.17 0.18 0.18 0.20 0.23 0.26
0.05 0.04 0.04 0.04 0.10 0.19 0.40 0.72 0.78 0.57 0.37 0.16 0.10 0.08 0.07 0.08 0.08 0.08 0.08 0.08 0.07 0.08 0.09 0.12 0.14 0.13 0.12 0.11 0.09 0.09 0.15 0.18 0.17 0.16 0.18 0.19 0.19 0.19 0.18 0.17 0.14 0.12 0.14 0.16 0.17 0.19 0.23 0.26 0.32
0.07 0.06 0.05 0.05 0.07 0.12 0.26 0.40 0.34 0.27 0.19 0.12 0.08 0.05 0.05 0.05 0.05 0.05 0.05 0.05 0.05 0.05 0.07 0.09 0.10 0.10 0.09 0.06 0.05 0.06 0.09 0.11 0.15 0.18 0.20 0.21 0.20 0.18 0.16 0.16 0.15 0.13 0.13 0.15 0.18 0.20 0.22 0.25 0.32
0.08 0.09 0.08 0.07 0.07 0.08 0.13 0.25 0.18 0.15 0.14 0.10 0.06 0.04 0.02 0.02 0.02 0.02 0.03 0.05 0.05 0.05 0.06 0.08 0.09 0.07 0.06 0.05 0.04 0.03 0.03 0.05 0.08 0.12 0.15 0.18 0.17 0.16 0.16 0.16 0.14 0.11 0.11 0.15 0.19 0.22 0.23 0.25 0.29

GEFSSGP_prec_meanprecacc_096.txt.gz
Total_Precipitation_Accumulation
0.00 0.02 0.08 0.22 0.50 0.87 1.01 0.69 0.52 0.49 0.54 0.53 0.47 0.43 0.46 0.42 0.50 0.76 0.57 0.36 0.15 0.05 0.03 0.06 0.12 0.12 0.10 0.10 0.10 0.10 0.10 0.09 0.09 0.08 0.06 0.05 0.04 0.04 0.04 0.03 0.03 0.04 0.04 0.05 0.04 0.04 0.04 0.05 0.05
0.01 0.03 0.10 0.26 0.58 0.96 1.03 0.60 0.34 0.44 0.53 0.66 0.64 0.49 0.39 0.38 0.39 0.31 0.28 0.40 0.13 0.06 0.04 0.03 0.09 0.10 0.09 0.09 0.10 0.10 0.10 0.09 0.07 0.06 0.05 0.04 0.04 0.04 0.04 0.04 0.03 0.04 0.05 0.05 0.05 0.04 0.04 0.04 0.05
0.01 0.05 0.13 0.23 0.46 0.64 0.75 0.47 0.35 0.31 0.48 0.72 0.69 0.45 0.42 0.45 0.37 0.25 0.24 0.33 0.15 0.09 0.05 0.04 0.07 0.08 0.08 0.09 0.10 0.09 0.10 0.08 0.07 0.06 0.05 0.05 0.05 0.05 0.06 0.06 0.05 0.06 0.07 0.07 0.07 0.05 0.05 0.04 0.05
0.01 0.08 0.14 0.20 0.19 0.21 0.34 0.40 0.43 0.41 0.60 0.73 0.59 0.48 0.45 0.45 0.40 0.26 0.23 0.34 0.19 0.13 0.07 0.07 0.10 0.10 0.10 0.09 0.09 0.11 0.11 0.09 0.08 0.06 0.05 0.05 0.05 0.06 0.07 0.07 0.08 0.08 0.09 0.10 0.09 0.08 0.07 0.07 0.06
0.01 0.06 0.12 0.13 0.13 0.12 0.17 0.24 0.32 0.49 0.66 0.76 0.66 0.60 0.58 0.43 0.36 0.29 0.22 0.33 0.24 0.17 0.12 0.11 0.13 0.13 0.12 0.11 0.12 0.12 0.11 0.10 0.09 0.07 0.06 0.06 0.06 0.07 0.08 0.07 0.07 0.09 0.11 0.13 0.14 0.13 0.11 0.10 0.08
0.01 0.04 0.07 0.05 0.05 0.07 0.13 0.19 0.35 0.54 0.56 0.63 0.73 0.77 0.65 0.46 0.40 0.33 0.30 0.38 0.31 0.19 0.12 0.12 0.15 0.15 0.14 0.14 0.14 0.13 0.12 0.11 0.11 0.10 0.10 0.11 0.11 0.11 0.10 0.09 0.08 0.09 0.11 0.14 0.17 0.19 0.17 0.14 0.13
0.01 0.02 0.01 0.01 0.02 0.05 0.14 0.26 0.32 0.44 0.50 0.70 0.75 0.74 0.65 0.61 0.52 0.42 0.48 0.67 0.57 0.37 0.22 0.17 0.14 0.15 0.15 0.17 0.19 0.19 0.17 0.16 0.15 0.13 0.13 0.13 0.15 0.16 0.17 0.18 0.15 0.15 0.17 0.18 0.19 0.21 0.24 0.21 0.19
0.00 0.00 0.00 0.00 0.01 0.06 0.13 0.21 0.30 0.43 0.55 0.60 0.68 0.76 0.67 0.65 0.61 0.64 0.78 1.03 1.02 0.83 0.53 0.28 0.21 0.22 0.22 0.20 0.20 0.22 0.21 0.20 0.19 0.19 0.19 0.21 0.24 0.28 0.32 0.31 0.28 0.29 0.32 0.31 0.28 0.27 0.31 0.36 0.34
0.00 0.00 0.00 0.00 0.01 0.08 0.17 0.22 0.27 0.31 0.40 0.59 0.76 0.85 0.73 0.64 0.66 0.82 0.93 1.08 1.06 0.85 0.67 0.49 0.40 0.33 0.31 0.31 0.26 0.29 0.29 0.29 0.30 0.36 0.38 0.38 0.43 0.50 0.58 0.56 0.57 0.57 0.59 0.63 0.63 0.59 0.62 0.65 0.58
0.00 0.00 0.00 0.00 0.00 0.03 0.10 0.20 0.25 0.36 0.54 0.98 1.24 1.08 0.87 0.78 0.82 0.95 1.01 0.95 0.95 0.88 0.78 0.77 0.62 0.53 0.53 0.54 0.53 0.56 0.55 0.61 0.58 0.73 0.79 0.81 0.86 0.72 0.60 0.80 0.96 0.93 1.03 1.09 1.16 1.35 1.28 1.10 0.87
0.00 0.00 0.00 0.00 0.00 0.01 0.05 0.12 0.23 0.40 0.75 1.27 1.48 1.15 1.00 0.95 0.94 0.98 1.14 1.10 1.14 1.06 0.96 1.03 0.86 0.80 0.83 0.79 0.76 0.84 0.95 1.05 1.05 1.10 1.20 1.34 1.32 1.08 0.91 1.12 1.37 1.36 1.43 1.44 1.72 1.94 1.56 1.44 1.37
0.00 0.00 0.00 0.00 0.00 0.01 0.04 0.11 0.28 0.53 0.92 1.21 1.10 0.91 0.93 1.11 1.11 1.16 1.30 1.43 1.44 1.38 1.37 1.27 1.15 1.15 1.17 1.08 1.02 0.94 0.90 0.97 1.05 1.15 1.23 1.56 1.61 1.56 1.49 1.53 1.47 1.63 1.72 1.94 2.01 2.01 1.82 1.80 1.71
0.00 0.00 0.00 0.00 0.00 0.02 0.06 0.13 0.32 0.61 0.84 0.89 0.75 0.79 1.03 1.26 1.30 1.49 1.67 1.73 1.72 1.85 2.02 1.89 1.75 1.50 1.35 1.30 1.12 0.99 0.94 0.89 0.87 1.04 1.19 1.52 1.72 1.75 1.84 1.56 1.48 1.46 1.65 1.89 1.86 1.74 1.79 1.90 1.92
0.00 0.00 0.01 0.01 0.02 0.04 0.07 0.14 0.30 0.49 0.62 0.64 0.69 0.89 1.06 1.31 1.42 1.64 1.92 2.17 2.27 2.43 2.59 2.48 2.30 1.96 1.69 1.50 1.34 1.27 1.13 0.96 0.82 0.95 1.01 1.40 1.70 1.67 1.55 1.55 1.55 1.46 1.62 1.67 1.74 1.78 1.94 1.98 2.07
0.00 0.01 0.06 0.07 0.05 0.06 0.07 0.18 0.37 0.56 0.68 0.61 0.75 0.93 1.18 1.42 1.68 1.88 2.04 2.44 2.72 2.95 3.06 2.99 2.87 2.55 2.22 1.97 1.73 1.47 1.31 1.11 1.00 0.96 0.94 1.24 1.50 1.57 1.58 1.51 1.40 1.44 1.55 1.63 1.70 1.72 1.79 1.69 1.75
0.02 0.05 0.15 0.16 0.10 0.10 0.11 0.38 0.67 0.67 0.66 0.68 0.79 1.07 1.34 1.58 1.93 1.98 2.10 2.41 2.72 3.07 3.42 3.45 3.02 2.73 2.48 2.20 1.92 1.74 1.62 1.47 1.29 1.02 0.92 0.98 1.17 1.31 1.36 1.25 1.24 1.34 1.26 1.26 1.31 1.30 1.33 1.35 1.47
0.05 0.09 0.15 0.24 0.15 0.12 0.22 0.69 0.98 0.74 0.57 0.67 0.87 1.08 1.45 1.70 2.05 2.06 2.11 2.24 2.59 3.23 3.87 3.77 3.29 2.83 2.51 2.29 2.11 1.95 1.78 1.50 1.28 1.09 0.99 0.88 0.83 0.80 0.85 0.82 0.86 0.92 0.92 0.93 0.90 1.06 1.12 1.17 1.27
0.04 0.10 0.22 0.34 0.21 0.19 0.29 0.65 0.69 0.60 0.72 0.71 0.76 0.94 1.22 1.34 1.58 1.75 1.94 2.29 2.89 3.77 4.32 4.13 3.51 3.00 2.59 2.35 2.10 1.80 1.59 1.36 1.15 1.04 0.96 0.74 0.67 0.63 0.60 0.59 0.60 0.59 0.62 0.67 0.71 0.75 0.84 0.87 0.92
0.04 0.09 0.22 0.26 0.19 0.28 0.35 0.55 0.64 0.71 0.86 0.86 0.74 0.77 1.03 1.19 1.41 1.66 2.15 2.88 3.74 4.41 4.51 3.93 3.35 2.96 2.52 2.11 1.55 1.16 0.96 0.85 0.76 0.63 0.54 0.48 0.44 0.45 0.47 0.42 0.42 0.41 0.40 0.41 0.45 0.52 0.57 0.60 0.69
0.06 0.08 0.19 0.26 0.18 0.21 0.35 0.64 0.90 0.85 0.78 0.74 0.75 0.69 0.83 1.18 1.60 2.10 2.98 3.54 3.60 3.51 3.04 2.55 2.24 1.98 1.60 1.23 0.90 0.73 0.61 0.50 0.43 0.39 0.38 0.36 0.31 0.31 0.31 0.30 0.32 0.32 0.30 0.30 0.33 0.37 0.38 0.40 0.51
0.10 0.10 0.18 0.25 0.15 0.16 0.35 0.78 1.02 0.98 0.76 0.63 0.61 0.55 0.76 1.16 1.73 2.43 2.93 2.93 2.44 1.98 1.72 1.57 1.46 1.11 0.93 0.80 0.64 0.53 0.43 0.34 0.30 0.29 0.28 0.25 0.22 0.23 0.23 0.23 0.24 0.27 0.28 0.29 0.33 0.32 0.33 0.32 0.34
0.09 0.06 0.06 0.09 0.15 0.33 0.51 0.99 1.10 0.88 0.79 0.62 0.58 0.56 0.66 0.90 1.20 1.57 1.75 1.57 1.45 1.42 1.34 1.34 1.24 0.90 0.74 0.63 0.50 0.38 0.31 0.27 0.24 0.22 0.22 0.20 0.18 0.18 0.18 0.17 0.16 0.18 0.23 0.29 0.29 0.34 0.34 0.32 0.26
0.04 0.03 0.04 0.11 0.22 0.41 0.59 0.82 0.90 0.68 0.77 0.58 0.43 0.42 0.44 0.59 0.67 0.72 0.76 0.79 0.82 0.87 0.97 1.05 1.08 0.94 0.74 0.62 0.52 0.41 0.32 0.27 0.23 0.23 0.22 0.22 0.20 0.18 0.18 0.18 0.17 0.15 0.16 0.20 0.23 0.31 0.35 0.36 0.31
0.03 0.05 0.12 0.23 0.39 0.85 0.80 0.79 0.95 0.81 0.81 0.59 0.40 0.32 0.37 0.49 0.54 0.53 0.49 0.50 0.57 0.63 0.64 0.74 0.91 0.97 0.84 0.72 0.60 0.50 0.39 0.33 0.26 0.23 0.22 0.20 0.18 0.18 0.17 0.18 0.19 0.19 0.18 0.15 0.15 0.20 0.27 0.34 0.36
0.05 0.07 0.24 0.56 0.92 1.06 0.65 0.72 0.94 0.69 0.60 0.43 0.23 0.17 0.29 0.46 0.55 0.52 0.44 0.37 0.36 0.41 0.43 0.42 0.48 0.58 0.61 0.55 0.53 0.51 0.47 0.37 0.27 0.22 0.18 0.18 0.16 0.16 0.16 0.17 0.18 0.19 0.20 0.19 0.17 0.16 0.19 0.26 0.32
0.05 0.04 0.10 0.20 0.28 0.43 0.54 0.85 0.96 0.66 0.41 0.19 0.09 0.08 0.20 0.33 0.33 0.31 0.29 0.22 0.16 0.17 0.22 0.24 0.27 0.30 0.34 0.34 0.33 0.32 0.34 0.25 0.20 0.24 0.19 0.18 0.21 0.22 0.21 0.16 0.15 0.17 0.18 0.18 0.18 0.17 0.17 0.21 0.26
0.05 0.03 0.04 0.07 0.11 0.28 0.58 0.82 0.71 0.53 0.34 0.17 0.09 0.06 0.07 0.11 0.12 0.13 0.15 0.14 0.11 0.11 0.14 0.17 0.22 0.23 0.25 0.27 0.26 0.22 0.24 0.22 0.19 0.20 0.19 0.16 0.22 0.24 0.22 0.18 0.15 0.15 0.16 0.17 0.18 0.18 0.20 0.23 0.26
0.05 0.04 0.04 0.05 0.10 0.20 0.40 0.72 0.78 0.57 0.37 0.17 0.10 0.08 0.07 0.08 0.08 0.08 0.08 0.08 0.08 0.08 0.11 0.14 0.18 0.19 0.22 0.23 0.21 0.16 0.20 0.21 0.20 0.18 0.19 0.20 0.19 0.19 0.18 0.17 0.14 0.12 0.14 0.16 0.17 0.19 0.23 0.26 0.32
0.07 0.06 0.06 0.05 0.07 0.12 0.26 0.40 0.35 0.27 0.19 0.12 0.08 0.05 0.05 0.05 0.05 0.05 0.05 0.05 0.05 0.06 0.08 0.10 0.13 0.14 0.16 0.16 0.16 0.14 0.14 0.16 0.18 0.20 0.21 0.22 0.20 0.19 0.16 0.16 0.15 0.13 0.13 0.15 0.18 0.20 0.22 0.26 0.32
0.08 0.09 0.09 0.08 0.07 0.08 0.13 0.25 0.18 0.15 0.15 0.10 0.06 0.04 0.03 0.02 0.02 0.02 0.04 0.06 0.06 0.06 0.06 0.09 0.11 0.11 0.11 0.12 0.12 0.11 0.10 0.09 0.12 0.15 0.16 0.18 0.18 0.17 0.16 0.16 0.14 0.12 0.12 0.15 0.20 0.22 0.23 0.25 0.29

GEFSSGP_prec_meanprecacc_102.txt.gz
Total_Precipitation_Accumulation
0.00 0.02 0.08 0.22 0.50 0.87 1.02 0.69 0.52 0.49 0.54 0.53 0.47 0.43 0.46 0.42 0.51 0.78 0.58 0.36 0.15 0.05 0.03 0.08 0.14 0.12 0.11 0.11 0.10 0.10 0.10 0.09 0.09 0.08 0.06 0.05 0.05 0.04 0.04 0.04 0.04 0.04 0.05 0.06 0.05 0.05 0.05 0.06 0.06
0.01 0.03 0.10 0.26 0.58 0.96 1.03 0.60 0.34 0.44 0.53 0.66 0.64 0.49 0.39 0.38 0.39 0.31 0.28 0.40 0.13 0.06 0.05 0.05 0.11 0.12 0.10 0.09 0.10 0.10 0.10 0.09 0.08 0.06 0.05 0.05 0.04 0.05 0.05 0.05 0.04 0.05 0.06 0.06 0.05 0.05 0.05 0.05 0.06
0.01 0.05 0.13 0.23 0.46 0.64 0.75 0.47 0.35 0.31 0.48 0.72 0.69 0.45 0.42 0.45 0.37 0.25 0.24 0.33 0.15 0.09 0.06 0.06 0.10 0.10 0.09 0.09 0.10 0.10 0.10 0.08 0.07 0.06 0.05 0.05 0.05 0.06 0.07 0.07 0.06 0.06 0.08 0.08 0.08 0.06 0.06 0.05 0.07
0.01 0.08 0.14 0.20 0.19 0.21 0.34 0.40 0.43 0.41 0.60 0.73 0.59 0.48 0.45 0.45 0.40 0.26 0.23 0.34 0.19 0.14 0.08 0.09 0.12 0.12 0.11 0.10 0.10 0.11 0.11 0.10 0.08 0.07 0.06 0.05 0.06 0.07 0.08 0.08 0.09 0.09 0.10 0.11 0.10 0.08 0.08 0.08 0.09
0.01 0.06 0.12 0.13 0.13 0.12 0.17 0.24 0.32 0.49 0.66 0.76 0.66 0.60 0.59 0.43 0.36 0.29 0.22 0.33 0.24 0.19 0.15 0.15 0.18 0.16 0.13 0.12 0.12 0.12 0.11 0.11 0.09 0.08 0.07 0.07 0.07 0.08 0.09 0.08 0.08 0.10 0.13 0.14 0.15 0.14 0.13 0.12 0.12
0.01 0.04 0.07 0.05 0.05 0.07 0.13 0.19 0.35 0.54 0.56 0.63 0.73 0.77 0.65 0.46 0.40 0.33 0.31 0.40 0.32 0.22 0.17 0.21 0.21 0.19 0.16 0.15 0.16 0.15 0.13 0.12 0.11 0.10 0.11 0.11 0.12 0.12 0.11 0.10 0.09 0.10 0.12 0.15 0.18 0.20 0.18 0.17 0.17
0.01 0.02 0.01 0.01 0.02 0.05 0.14 0.26 0.32 0.44 0.50 0.70 0.75 0.74 0.65 0.61 0.52 0.42 0.49 0.72 0.62 0.43 0.28 0.25 0.22 0.21 0.19 0.21 0.22 0.21 0.18 0.17 0.16 0.14 0.14 0.15 0.16 0.17 0.18 0.19 0.17 0.16 0.18 0.19 0.20 0.22 0.27 0.26 0.24
0.00 0.00 0.00 0.00 0.01 0.06 0.13 0.21 0.30 0.43 0.55 0.61 0.68 0.76 0.67 0.65 0.61 0.65 0.79 1.08 1.09 0.89 0.59 0.34 0.28 0.29 0.29 0.26 0.26 0.26 0.22 0.21 0.21 0.20 0.20 0.22 0.26 0.30 0.34 0.32 0.30 0.31 0.33 0.32 0.30 0.29 0.33 0.40 0.39
0.00 0.00 0.00 0.00 0.01 0.08 0.17 0.22 0.27 0.31 0.40 0.59 0.76 0.85 0.73 0.64 0.66 0.83 0.95 1.12 1.13 0.93 0.74 0.56 0.47 0.40 0.38 0.39 0.33 0.35 0.32 0.31 0.31 0.38 0.40 0.42 0.47 0.53 0.60 0.57 0.58 0.58 0.60 0.64 0.64 0.60 0.64 0.67 0.60
0.00 0.00 0.00 0.00 0.00 0.03 0.10 0.20 0.25 0.36 0.54 0.98 1.25 1.09 0.87 0.78 0.83 0.96 1.03 0.98 1.03 0.96 0.86 0.87 0.71 0.61 0.61 0.61 0.61 0.65 0.62 0.66 0.62 0.77 0.83 0.86 0.91 0.75 0.62 0.82 0.97 0.94 1.04 1.10 1.19 1.37 1.29 1.11 0.88
0.00 0.00 0.00 0.00 0.00 0.01 0.05 0.12 0.23 0.40 0.75 1.27 1.48 1.16 1.00 0.95 0.96 1.00 1.18 1.16 1.22 1.16 1.05 1.12 0.96 0.89 0.92 0.89 0.85 0.92 1.02 1.11 1.10 1.15 1.24 1.39 1.36 1.10 0.93 1.15 1.40 1.40 1.45 1.47 1.75 1.96 1.58 1.45 1.41
0.00 0.00 0.00 0.00 0.00 0.01 0.04 0.11 0.28 0.53 0.92 1.21 1.10 0.91 0.94 1.11 1.13 1.19 1.35 1.53 1.54 1.51 1.50 1.39 1.26 1.25 1.27 1.19 1.11 1.01 0.97 1.03 1.10 1.19 1.26 1.60 1.65 1.59 1.52 1.56 1.50 1.67 1.75 1.97 2.03 2.03 1.85 1.82 1.73
0.00 0.00 0.00 0.00 0.00 0.02 0.06 0.13 0.32 0.62 0.84 0.89 0.75 0.79 1.04 1.27 1.33 1.56 1.77 1.87 1.86 1.98 2.15 2.03 1.88 1.62 1.45 1.42 1.22 1.07 1.01 0.95 0.92 1.08 1.23 1.55 1.76 1.79 1.87 1.60 1.51 1.48 1.67 1.92 1.88 1.76 1.82 1.93 1.95
0.00 0.00 0.01 0.01 0.02 0.04 0.07 0.14 0.30 0.49 0.62 0.64 0.69 0.90 1.07 1.36 1.47 1.71 2.05 2.32 2.45 2.57 2.73 2.62 2.45 2.12 1.82 1.60 1.43 1.34 1.20 1.03 0.87 1.00 1.06 1.44 1.74 1.72 1.60 1.59 1.58 1.49 1.64 1.70 1.77 1.81 1.97 2.02 2.13
0.00 0.01 0.06 0.07 0.05 0.06 0.07 0.18 0.37 0.56 0.68 0.61 0.75 0.94 1.21 1.49 1.73 1.98 2.17 2.54 2.85 3.10 3.21 3.12 3.02 2.76 2.43 2.12 1.85 1.55 1.38 1.17 1.07 1.02 0.99 1.28 1.55 1.62 1.63 1.55 1.43 1.47 1.57 1.67 1.72 1.75 1.83 1.74 1.79
0.02 0.05 0.15 0.16 0.10 0.10 0.11 0.38 0.67 0.67 0.66 0.69 0.80 1.08 1.36 1.63 1.98 2.07 2.23 2.51 2.85 3.27 3.61 3.60 3.13 2.88 2.66 2.37 2.06 1.84 1.71 1.56 1.37 1.08 0.98 1.03 1.22 1.36 1.41 1.29 1.28 1.38 1.29 1.30 1.35 1.34 1.36 1.39 1.51
0.05 0.09 0.15 0.24 0.15 0.12 0.22 0.69 0.98 0.74 0.57 0.67 0.87 1.09 1.46 1.74 2.08 2.10 2.17 2.33 2.73 3.41 4.06 3.94 3.42 2.94 2.63 2.45 2.26 2.08 1.90 1.61 1.37 1.16 1.05 0.93 0.87 0.84 0.90 0.87 0.90 0.95 0.96 0.96 0.93 1.08 1.15 1.21 1.31
0.04 0.10 0.22 0.34 0.21 0.19 0.29 0.65 0.69 0.60 0.72 0.71 0.76 0.94 1.23 1.37 1.61 1.80 2.00 2.37 3.00 3.89 4.48 4.29 3.64 3.11 2.72 2.48 2.24 1.94 1.69 1.46 1.23 1.11 1.02 0.81 0.73 0.67 0.65 0.63 0.64 0.61 0.65 0.71 0.75 0.78 0.87 0.89 0.94
0.04 0.09 0.22 0.26 0.19 0.28 0.35 0.55 0.64 0.72 0.86 0.86 0.74 0.77 1.04 1.22 1.44 1.70 2.21 2.95 3.83 4.52 4.61 4.06 3.48 3.08 2.64 2.22 1.67 1.27 1.04 0.93 0.84 0.70 0.60 0.54 0.49 0.49 0.51 0.46 0.45 0.44 0.43 0.44 0.47 0.54 0.59 0.61 0.70
0.06 0.08 0.19 0.26 0.18 0.21 0.35 0.65 0.90 0.85 0.78 0.74 0.76 0.69 0.84 1.20 1.61 2.12 3.03 3.59 3.66 3.59 3.13 2.66 2.36 2.09 1.72 1.34 1.03 0.85 0.71 0.59 0.51 0.46 0.44 0.40 0.35 0.34 0.33 0.33 0.35 0.34 0.32 0.33 0.35 0.39 0.39 0.41 0.52
0.10 0.10 0.18 0.25 0.15 0.16 0.35 0.78 1.02 0.98 0.76 0.63 0.61 0.55 0.76 1.17 1.74 2.45 2.96 2.97 2.48 2.04 1.80 1.66 1.57 1.23 1.04 0.90 0.76 0.66 0.53 0.41 0.36 0.35 0.34 0.29 0.24 0.24 0.25 0.25 0.26 0.29 0.30 0.31 0.34 0.34 0.34 0.33 0.34
0.09 0.06 0.06 0.09 0.15 0.33 0.51 0.99 1.10 0.88 0.79 0.62 0.58 0.56 0.66 0.90 1.21 1.58 1.77 1.60 1.50 1.46 1.42 1.45 1.36 1.02 0.85 0.72 0.60 0.48 0.39 0.33 0.31 0.28 0.27 0.24 0.20 0.19 0.18 0.18 0.17 0.19 0.24 0.30 0.30 0.34 0.34 0.32 0.26
0.04 0.03 0.04 0.11 0.22 0.41 0.59 0.82 0.90 0.68 0.77 0.58 0.43 0.42 0.44 0.59 0.68 0.73 0.78 0.83 0.88 0.93 1.05 1.17 1.20 1.04 0.82 0.70 0.61 0.52 0.41 0.35 0.31 0.29 0.27 0.26 0.23 0.19 0.19 0.19 0.17 0.16 0.16 0.21 0.23 0.31 0.35 0.36 0.31
0.03 0.05 0.12 0.23 0.39 0.85 0.80 0.79 0.95 0.81 0.81 0.59 0.40 0.32 0.37 0.49 0.55 0.54 0.50 0.54 0.63 0.70 0.76 0.87 1.02 1.06 0.92 0.79 0.68 0.60 0.49 0.42 0.34 0.30 0.27 0.24 0.20 0.19 0.18 0.19 0.19 0.19 0.18 0.15 0.16 0.20 0.27 0.34 0.37
0.05 0.07 0.24 0.56 0.92 1.06 0.65 0.72 0.94 0.69 0.60 0.43 0.23 0.17 0.29 0.46 0.55 0.53 0.45 0.39 0.39 0.46 0.52 0.52 0.58 0.67 0.69 0.63 0.60 0.59 0.55 0.45 0.35 0.28 0.22 0.21 0.18 0.17 0.16 0.17 0.18 0.19 0.20 0.19 0.17 0.16 0.19 0.26 0.32
0.05 0.04 0.10 0.20 0.28 0.43 0.54 0.85 0.96 0.66 0.41 0.19 0.09 0.08 0.21 0.33 0.34 0.32 0.29 0.24 0.18 0.20 0.28 0.31 0.34 0.38 0.41 0.42 0.41 0.40 0.42 0.32 0.26 0.29 0.22 0.20 0.22 0.23 0.22 0.17 0.16 0.17 0.18 0.19 0.19 0.17 0.17 0.21 0.26
0.05 0.03 0.04 0.07 0.11 0.28 0.58 0.82 0.71 0.53 0.34 0.17 0.09 0.06 0.07 0.11 0.12 0.14 0.16 0.15 0.13 0.13 0.17 0.22 0.29 0.32 0.32 0.35 0.34 0.29 0.31 0.29 0.26 0.24 0.21 0.18 0.24 0.25 0.23 0.19 0.16 0.15 0.17 0.18 0.19 0.19 0.21 0.23 0.26
0.05 0.04 0.04 0.05 0.10 0.20 0.40 0.72 0.78 0.57 0.37 0.17 0.10 0.08 0.07 0.08 0.08 0.09 0.09 0.09 0.09 0.09 0.13 0.19 0.27 0.31 0.31 0.30 0.29 0.24 0.28 0.29 0.27 0.22 0.22 0.22 0.21 0.21 0.19 0.18 0.14 0.13 0.14 0.16 0.18 0.19 0.23 0.27 0.32
0.07 0.06 0.06 0.05 0.07 0.12 0.26 0.41 0.35 0.27 0.19 0.12 0.08 0.05 0.05 0.05 0.05 0.05 0.05 0.06 0.06 0.07 0.09 0.12 0.18 0.22 0.24 0.25 0.25 0.22 0.22 0.23 0.24 0.24 0.24 0.24 0.22 0.20 0.18 0.17 0.15 0.14 0.14 0.16 0.19 0.21 0.22 0.26 0.32
0.08 0.09 0.09 0.08 0.07 0.08 0.13 0.25 0.18 0.15 0.15 0.10 0.06 0.04 0.03 0.02 0.02 0.03 0.04 0.06 0.06 0.06 0.07 0.10 0.13 0.14 0.17 0.19 0.18 0.17 0.18 0.17 0.18 0.19 0.20 0.21 0.20 0.18 0.17 0.17 0.15 0.13 0.13 0.17 0.21 0.23 0.24 0.26 0.30

GEFSSGP_prec_meanprecacc_108.txt.gz
Total_Precipitation_Accumulation
0.00 0.02 0.08 0.23 0.62 1.01 1.05 0.69 0.52 0.49 0.54 0.53 0.47 0.43 0.46 0.42 0.53 0.91 0.63 0.36 0.15 0.05 0.03 0.08 0.14 0.13 0.11 0.11 0.11 0.11 0.10 0.10 0.10 0.09 0.07 0.06 0.05 0.05 0.05 0.05 0.05 0.05 0.06 0.06 0.06 0.06 0.07 0.09 0.08
0.01 0.03 0.11 0.28 0.69 1.02 1.04 0.60 0.34 0.44 0.53 0.66 0.64 0.49 0.39 0.39 0.39 0.32 0.28 0.40 0.13 0.07 0.05 0.05 0.11 0.12 0.10 0.09 0.10 0.11 0.10 0.10 0.08 0.07 0.06 0.05 0.06 0.06 0.06 0.06 0.05 0.06 0.07 0.07 0.07 0.06 0.07 0.07 0.08
0.01 0.05 0.13 0.26 0.49 0.65 0.76 0.47 0.35 0.31 0.48 0.72 0.69 0.45 0.42 0.46 0.37 0.25 0.24 0.33 0.15 0.10 0.06 0.06 0.11 0.10 0.09 0.10 0.10 0.10 0.10 0.09 0.08 0.07 0.06 0.06 0.07 0.08 0.08 0.08 0.08 0.08 0.09 0.10 0.10 0.08 0.07 0.07 0.09
0.01 0.09 0.17 0.22 0.19 0.21 0.34 0.40 0.43 0.41 0.60 0.73 0.60 0.49 0.46 0.46 0.40 0.26 0.23 0.34 0.20 0.16 0.09 0.09 0.13 0.13 0.11 0.10 0.10 0.11 0.12 0.10 0.09 0.08 0.07 0.07 0.08 0.09 0.09 0.09 0.10 0.11 0.11 0.12 0.12 0.10 0.09 0.10 0.12
0.01 0.07 0.17 0.15 0.13 0.12 0.17 0.24 0.32 0.49 0.66 0.76 0.66 0.61 0.60 0.44 0.36 0.29 0.22 0.33 0.25 0.21 0.18 0.17 0.18 0.17 0.13 0.12 0.13 0.13 0.12 0.12 0.10 0.08 0.08 0.09 0.09 0.10 0.10 0.09 0.09 0.11 0.14 0.16 0.18 0.16 0.14 0.14 0.14
0.01 0.05 0.08 0.06 0.05 0.07 0.13 0.19 0.35 0.54 0.56 0.63 0.73 0.77 0.66 0.47 0.40 0.33 0.31 0.40 0.33 0.24 0.21 0.24 0.23 0.22 0.18 0.16 0.17 0.15 0.14 0.13 0.12 0.11 0.12 0.13 0.14 0.14 0.13 0.11 0.11 0.11 0.13 0.16 0.21 0.22 0.19 0.18 0.19
0.01 0.02 0.02 0.02 0.02 0.05 0.14 0.26 0.32 0.44 0.51 0.71 0.75 0.75 0.67 0.63 0.52 0.42 0.49 0.72 0.65 0.46 0.31 0.27 0.24 0.24 0.22 0.23 0.24 0.22 0.20 0.17 0.17 0.14 0.15 0.16 0.18 0.18 0.19 0.21 0.18 0.18 0.20 0.21 0.23 0.24 0.29 0.27 0.25
0.00 0.01 0.01 0.01 0.01 0.06 0.13 0.21 0.30 0.43 0.55 0.61 0.69 0.78 0.73 0.67 0.61 0.65 0.80 1.10 1.13 0.94 0.65 0.38 0.31 0.33 0.31 0.27 0.28 0.28 0.24 0.23 0.22 0.22 0.21 0.23 0.27 0.31 0.35 0.34 0.31 0.32 0.35 0.34 0.31 0.30 0.34 0.42 0.40
0.00 0.00 0.01 0.00 0.01 0.08 0.17 0.22 0.27 0.31 0.40 0.60 0.79 0.92 0.78 0.64 0.66 0.83 0.97 1.17 1.23 1.04 0.85 0.64 0.54 0.44 0.41 0.41 0.34 0.36 0.34 0.33 0.33 0.40 0.41 0.43 0.52 0.57 0.64 0.60 0.60 0.59 0.61 0.65 0.64 0.60 0.64 0.68 0.61
0.00 0.00 0.00 0.00 0.00 0.03 0.10 0.20 0.25 0.36 0.54 1.00 1.27 1.15 0.90 0.78 0.84 0.99 1.08 1.05 1.13 1.09 0.98 0.99 0.83 0.70 0.67 0.66 0.66 0.70 0.67 0.69 0.67 0.82 0.85 0.93 1.02 0.86 0.68 0.84 0.99 0.95 1.05 1.11 1.19 1.38 1.29 1.12 0.90
0.00 0.00 0.00 0.00 0.00 0.01 0.05 0.12 0.23 0.40 0.75 1.28 1.49 1.18 1.01 0.96 0.98 1.05 1.25 1.24 1.33 1.29 1.18 1.22 1.06 0.99 1.03 1.03 0.99 1.03 1.12 1.19 1.21 1.25 1.32 1.51 1.45 1.18 0.99 1.19 1.43 1.42 1.47 1.51 1.77 1.98 1.59 1.49 1.45
0.00 0.00 0.00 0.00 0.00 0.01 0.04 0.11 0.28 0.54 0.93 1.21 1.10 0.91 0.94 1.12 1.15 1.24 1.42 1.63 1.67 1.66 1.64 1.50 1.37 1.42 1.44 1.34 1.31 1.18 1.09 1.14 1.22 1.32 1.37 1.70 1.77 1.69 1.60 1.64 1.56 1.72 1.82 2.04 2.09 2.08 1.89 1.86 1.76
0.00 0.00 0.00 0.00 0.00 0.02 0.06 0.13 0.32 0.63 0.84 0.89 0.75 0.79 1.05 1.29 1.37 1.61 1.85 1.97 1.98 2.13 2.29 2.16 2.01 1.78 1.63 1.59 1.39 1.23 1.14 1.06 1.03 1.20 1.36 1.65 1.85 1.88 1.95 1.66 1.57 1.54 1.72 1.97 1.93 1.81 1.87 1.97 1.98
0.00 0.00 0.01 0.01 0.02 0.04 0.07 0.14 0.32 0.52 0.62 0.64 0.69 0.90 1.09 1.40 1.51 1.82 2.21 2.44 2.59 2.75 2.89 2.78 2.61 2.30 2.00 1.76 1.60 1.53 1.30 1.12 0.97 1.09 1.14 1.52 1.83 1.80 1.67 1.65 1.63 1.55 1.69 1.75 1.81 1.85 2.02 2.06 2.15
0.00 0.01 0.06 0.07 0.05 0.06 0.07 0.19 0.39 0.58 0.68 0.61 0.75 0.94 1.23 1.52 1.77 2.06 2.28 2.65 3.04 3.32 3.38 3.29 3.18 2.94 2.62 2.31 2.02 1.71 1.49 1.24 1.17 1.11 1.06 1.35 1.63 1.70 1.69 1.61 1.48 1.52 1.63 1.72 1.77 1.79 1.86 1.76 1.81
0.02 0.05 0.15 0.16 0.10 0.10 0.11 0.38 0.68 0.67 0.66 0.69 0.80 1.09 1.38 1.64 2.02 2.15 2.32 2.63 3.02 3.48 3.81 3.81 3.30 3.05 2.85 2.57 2.22 1.97 1.81 1.64 1.48 1.18 1.05 1.10 1.29 1.42 1.47 1.34 1.32 1.41 1.33 1.35 1.40 1.37 1.39 1.42 1.54
0.05 0.09 0.16 0.24 0.15 0.12 0.22 0.69 0.98 0.74 0.57 0.68 0.88 1.10 1.48 1.75 2.12 2.16 2.23 2.44 2.89 3.60 4.31 4.24 3.69 3.19 2.82 2.62 2.41 2.22 2.02 1.71 1.46 1.25 1.12 0.99 0.92 0.89 0.95 0.92 0.94 0.98 0.99 0.99 0.95 1.11 1.18 1.24 1.34
0.05 0.10 0.22 0.34 0.21 0.19 0.29 0.66 0.69 0.60 0.72 0.71 0.76 0.95 1.24 1.38 1.67 1.85 2.05 2.45 3.14 4.06 4.68 4.58 3.97 3.39 2.95 2.66 2.41 2.12 1.84 1.57 1.32 1.21 1.11 0.87 0.78 0.70 0.69 0.67 0.67 0.64 0.68 0.74 0.78 0.82 0.91 0.92 0.96
0.04 0.09 0.22 0.26 0.19 0.28 0.35 0.55 0.64 0.72 0.86 0.86 0.74 0.77 1.05 1.23 1.46 1.73 2.25 3.00 3.93 4.66 4.77 4.25 3.73 3.33 2.84 2.40 1.82 1.42 1.18 1.04 0.92 0.78 0.66 0.58 0.53 0.53 0.55 0.49 0.48 0.47 0.48 0.48 0.51 0.58 0.63 0.63 0.71
0.06 0.08 0.19 0.26 0.18 0.21 0.35 0.65 0.90 0.86 0.78 0.74 0.76 0.69 0.85 1.21 1.63 2.15 3.06 3.64 3.75 3.71 3.27 2.80 2.53 2.29 1.89 1.49 1.18 0.99 0.84 0.68 0.57 0.51 0.49 0.44 0.38 0.37 0.35 0.35 0.36 0.37 0.36 0.37 0.40 0.44 0.45 0.45 0.53
0.10 0.10 0.18 0.25 0.15 0.16 0.35 0.78 1.02 0.99 0.77 0.64 0.62 0.55 0.77 1.18 1.76 2.48 2.99 3.02 2.58 2.17 1.94 1.80 1.72 1.40 1.22 1.08 0.93 0.80 0.66 0.51 0.44 0.41 0.39 0.32 0.27 0.26 0.26 0.26 0.27 0.32 0.32 0.34 0.38 0.38 0.38 0.37 0.37
0.09 0.06 0.06 0.09 0.15 0.33 0.51 1.00 1.11 0.90 0.81 0.64 0.59 0.56 0.66 0.90 1.22 1.60 1.80 1.63 1.56 1.57 1.55 1.60 1.50 1.19 1.02 0.88 0.72 0.57 0.47 0.41 0.36 0.33 0.32 0.28 0.23 0.21 0.19 0.18 0.19 0.21 0.26 0.33 0.32 0.37 0.37 0.35 0.29
0.04 0.03 0.04 0.11 0.22 0.41 0.60 0.83 0.91 0.70 0.80 0.60 0.44 0.43 0.45 0.59 0.68 0.74 0.79 0.85 0.93 1.00 1.16 1.32 1.36 1.23 1.00 0.86 0.75 0.65 0.50 0.45 0.39 0.36 0.34 0.32 0.26 0.22 0.20 0.20 0.19 0.18 0.19 0.23 0.25 0.33 0.37 0.38 0.32
0.03 0.05 0.12 0.23 0.39 0.89 0.84 0.80 0.97 0.84 0.83 0.60 0.40 0.32 0.37 0.49 0.55 0.55 0.52 0.58 0.68 0.77 0.86 1.01 1.19 1.24 1.10 0.94 0.82 0.72 0.61 0.54 0.46 0.40 0.36 0.31 0.24 0.22 0.20 0.21 0.21 0.21 0.20 0.18 0.17 0.21 0.29 0.36 0.38
0.05 0.07 0.24 0.57 0.97 1.13 0.69 0.74 0.95 0.70 0.60 0.43 0.23 0.17 0.29 0.46 0.56 0.55 0.48 0.42 0.43 0.51 0.60 0.63 0.72 0.85 0.86 0.77 0.72 0.70 0.67 0.54 0.44 0.36 0.29 0.27 0.22 0.20 0.19 0.20 0.20 0.21 0.22 0.21 0.19 0.17 0.21 0.27 0.33
0.05 0.04 0.11 0.21 0.32 0.50 0.62 0.92 1.00 0.68 0.41 0.19 0.09 0.08 0.21 0.33 0.34 0.35 0.32 0.26 0.21 0.25 0.36 0.40 0.47 0.54 0.60 0.57 0.53 0.51 0.51 0.41 0.35 0.38 0.28 0.25 0.26 0.26 0.24 0.19 0.18 0.19 0.20 0.20 0.20 0.18 0.19 0.23 0.27
0.05 0.03 0.04 0.07 0.11 0.30 0.61 0.86 0.74 0.55 0.35 0.17 0.09 0.06 0.07 0.11 0.12 0.16 0.19 0.17 0.15 0.17 0.22 0.30 0.40 0.45 0.49 0.50 0.45 0.38 0.38 0.36 0.35 0.34 0.28 0.22 0.27 0.28 0.25 0.20 0.17 0.17 0.18 0.19 0.20 0.20 0.22 0.25 0.28
0.05 0.04 0.04 0.05 0.11 0.21 0.44 0.77 0.85 0.62 0.38 0.17 0.11 0.08 0.07 0.08 0.09 0.10 0.11 0.11 0.10 0.12 0.17 0.25 0.34 0.40 0.43 0.45 0.41 0.33 0.37 0.36 0.35 0.31 0.30 0.28 0.26 0.26 0.23 0.20 0.16 0.16 0.17 0.18 0.20 0.21 0.25 0.28 0.34
0.07 0.06 0.06 0.05 0.07 0.12 0.29 0.48 0.42 0.31 0.22 0.13 0.08 0.05 0.05 0.05 0.05 0.05 0.05 0.07 0.08 0.08 0.11 0.16 0.22 0.27 0.31 0.34 0.35 0.32 0.32 0.31 0.33 0.33 0.30 0.31 0.29 0.28 0.23 0.20 0.19 0.17 0.17 0.19 0.23 0.23 0.24 0.27 0.33
0.08 0.09 0.09 0.08 0.07 0.08 0.13 0.28 0.23 0.20 0.19 0.11 0.07 0.04 0.03 0.02 0.02 0.03 0.04 0.06 0.07 0.08 0.09 0.12 0.16 0.17 0.23 0.26 0.25 0.26 0.28 0.27 0.28 0.27 0.26 0.27 0.27 0.25 0.23 0.21 0.19 0.16 0.16 0.21 0.25 0.25 0.25 0.28 0.32

GEFSSGP_prec_meanprecacc_114.txt.gz
Total_Precipitation_Accumulation
0.00 0.04 0.17 0.36 0.78 1.12 1.11 0.70 0.52 0.49 0.55 0.53 0.47 0.43 0.47 0.43 0.55 0.97 0.67 0.38 0.16 0.06 0.04 0.08 0.15 0.13 0.11 0.11 0.11 0.11 0.11 0.10 0.10 0.09 0.07 0.06 0.05 0.05 0.05 0.05 0.05 0.06 0.07 0.07 0.07 0.07 0.08 0.10 0.10
0.02 0.07 0.23 0.62 0.95 1.11 1.07 0.61 0.35 0.44 0.53 0.66 0.64 0.50 0.40 0.41 0.41 0.33 0.29 0.42 0.15 0.08 0.05 0.05 0.11 0.12 0.10 0.09 0.11 0.11 0.11 0.10 0.09 0.07 0.06 0.06 0.06 0.07 0.07 0.06 0.06 0.07 0.08 0.08 0.08 0.07 0.08 0.08 0.09
0.03 0.12 0.26 0.53 0.65 0.71 0.77 0.47 0.35 0.31 0.49 0.72 0.69 0.46 0.45 0.48 0.39 0.26 0.25 0.34 0.17 0.11 0.06 0.06 0.11 0.10 0.09 0.10 0.11 0.11 0.11 0.09 0.08 0.08 0.07 0.06 0.07 0.08 0.09 0.09 0.09 0.08 0.10 0.10 0.10 0.09 0.08 0.08 0.10
0.05 0.16 0.33 0.37 0.26 0.23 0.35 0.40 0.43 0.41 0.60 0.74 0.60 0.50 0.49 0.47 0.41 0.27 0.24 0.35 0.21 0.17 0.09 0.09 0.13 0.13 0.11 0.10 0.10 0.12 0.12 0.11 0.10 0.09 0.08 0.08 0.08 0.09 0.10 0.10 0.11 0.11 0.12 0.12 0.12 0.11 0.10 0.11 0.13
0.04 0.17 0.33 0.25 0.16 0.14 0.18 0.24 0.33 0.49 0.66 0.77 0.66 0.62 0.64 0.46 0.38 0.31 0.24 0.35 0.26 0.21 0.18 0.17 0.19 0.17 0.14 0.13 0.13 0.13 0.12 0.12 0.10 0.09 0.09 0.09 0.10 0.11 0.11 0.10 0.10 0.11 0.14 0.17 0.19 0.17 0.15 0.15 0.15
0.03 0.12 0.21 0.14 0.07 0.08 0.14 0.20 0.35 0.54 0.56 0.64 0.74 0.80 0.72 0.51 0.43 0.36 0.34 0.42 0.34 0.24 0.21 0.25 0.24 0.22 0.18 0.16 0.17 0.16 0.14 0.13 0.13 0.11 0.12 0.14 0.14 0.15 0.13 0.12 0.11 0.12 0.14 0.17 0.21 0.22 0.20 0.19 0.21
0.02 0.05 0.08 0.06 0.03 0.06 0.14 0.26 0.32 0.45 0.51 0.71 0.76 0.79 0.77 0.70 0.56 0.45 0.55 0.77 0.67 0.47 0.32 0.28 0.25 0.25 0.22 0.23 0.24 0.23 0.20 0.18 0.17 0.15 0.15 0.17 0.19 0.19 0.20 0.22 0.19 0.18 0.20 0.22 0.24 0.25 0.30 0.28 0.27
0.00 0.02 0.03 0.03 0.02 0.06 0.13 0.21 0.30 0.43 0.55 0.62 0.70 0.81 0.82 0.75 0.65 0.68 0.84 1.16 1.19 0.98 0.69 0.40 0.32 0.34 0.32 0.28 0.28 0.28 0.25 0.23 0.22 0.22 0.22 0.24 0.28 0.32 0.36 0.34 0.32 0.33 0.36 0.35 0.33 0.31 0.35 0.42 0.42
0.00 0.02 0.02 0.02 0.01 0.08 0.17 0.22 0.27 0.31 0.41 0.62 0.80 0.95 0.86 0.68 0.70 0.87 1.04 1.25 1.31 1.13 0.93 0.71 0.58 0.46 0.42 0.42 0.35 0.37 0.35 0.34 0.34 0.41 0.42 0.44 0.53 0.58 0.65 0.60 0.60 0.59 0.62 0.66 0.65 0.61 0.65 0.69 0.62
0.00 0.01 0.01 0.00 0.00 0.03 0.10 0.20 0.25 0.36 0.56 1.02 1.29 1.17 0.94 0.80 0.88 1.07 1.19 1.18 1.24 1.23 1.10 1.07 0.92 0.76 0.70 0.67 0.67 0.72 0.68 0.71 0.69 0.84 0.86 0.95 1.04 0.88 0.70 0.86 1.00 0.96 1.06 1.12 1.20 1.39 1.30 1.13 0.92
0.00 0.00 0.00 0.00 0.00 0.02 0.05 0.12 0.23 0.40 0.77 1.30 1.53 1.23 1.06 1.00 1.02 1.14 1.40 1.42 1.48 1.48 1.33 1.35 1.20 1.08 1.08 1.06 1.01 1.05 1.12 1.20 1.23 1.27 1.33 1.53 1.48 1.21 1.01 1.20 1.44 1.43 1.48 1.51 1.78 1.99 1.61 1.52 1.49
0.00 0.00 0.00 0.00 0.01 0.01 0.04 0.11 0.28 0.54 0.94 1.23 1.15 0.97 0.99 1.15 1.19 1.31 1.55 1.80 1.87 1.96 1.83 1.62 1.49 1.56 1.53 1.39 1.33 1.19 1.10 1.16 1.25 1.35 1.40 1.74 1.81 1.73 1.63 1.66 1.57 1.74 1.83 2.05 2.10 2.10 1.93 1.91 1.82
0.00 0.00 0.00 0.00 0.01 0.03 0.06 0.13 0.32 0.64 0.86 0.92 0.79 0.81 1.08 1.32 1.41 1.74 2.09 2.13 2.12 2.36 2.48 2.27 2.15 2.00 1.77 1.68 1.43 1.26 1.16 1.08 1.05 1.24 1.40 1.69 1.88 1.92 2.00 1.70 1.60 1.56 1.74 1.98 1.95 1.83 1.91 2.02 2.03
0.00 0.00 0.01 0.01 0.02 0.04 0.07 0.14 0.33 0.56 0.65 0.66 0.71 0.92 1.12 1.46 1.57 1.97 2.48 2.58 2.71 2.89 3.06 2.96 2.83 2.52 2.17 1.91 1.70 1.59 1.35 1.15 1.01 1.14 1.20 1.56 1.87 1.83 1.70 1.68 1.66 1.57 1.71 1.76 1.82 1.87 2.05 2.11 2.19
0.00 0.01 0.06 0.07 0.05 0.06 0.07 0.19 0.40 0.60 0.70 0.63 0.77 0.96 1.29 1.63 1.84 2.14 2.40 2.76 3.16 3.48 3.53 3.45 3.40 3.12 2.84 2.54 2.18 1.83 1.60 1.33 1.25 1.17 1.12 1.41 1.68 1.73 1.71 1.63 1.50 1.54 1.64 1.74 1.78 1.80 1.89 1.79 1.84
0.02 0.05 0.15 0.16 0.10 0.10 0.11 0.38 0.69 0.68 0.68 0.71 0.82 1.11 1.42 1.68 2.06 2.22 2.43 2.73 3.15 3.65 3.96 3.95 3.44 3.20 3.06 2.81 2.41 2.11 1.94 1.79 1.62 1.26 1.12 1.18 1.36 1.46 1.49 1.35 1.34 1.44 1.34 1.36 1.41 1.39 1.41 1.44 1.57
0.05 0.09 0.16 0.25 0.16 0.13 0.23 0.70 0.99 0.76 0.60 0.70 0.91 1.13 1.50 1.77 2.16 2.23 2.32 2.52 3.00 3.78 4.52 4.45 3.89 3.39 3.04 2.83 2.59 2.38 2.16 1.86 1.60 1.34 1.20 1.06 1.00 0.93 0.97 0.93 0.96 1.00 1.00 1.01 0.97 1.13 1.19 1.25 1.35
0.05 0.10 0.22 0.35 0.22 0.20 0.30 0.66 0.70 0.63 0.77 0.75 0.81 1.00 1.29 1.41 1.70 1.90 2.12 2.53 3.25 4.25 4.93 4.82 4.21 3.61 3.19 2.89 2.59 2.30 2.00 1.75 1.42 1.30 1.16 0.92 0.86 0.74 0.71 0.68 0.69 0.66 0.69 0.75 0.79 0.84 0.91 0.93 0.97
0.04 0.09 0.22 0.26 0.20 0.28 0.36 0.56 0.65 0.76 0.93 0.93 0.79 0.83 1.10 1.27 1.51 1.80 2.31 3.07 4.03 4.81 5.01 4.48 3.94 3.54 3.02 2.55 1.95 1.54 1.33 1.20 1.00 0.83 0.70 0.62 0.57 0.56 0.58 0.51 0.50 0.48 0.49 0.49 0.52 0.59 0.64 0.65 0.72
0.06 0.08 0.19 0.26 0.18 0.21 0.35 0.65 0.94 0.91 0.83 0.80 0.80 0.73 0.89 1.26 1.68 2.22 3.13 3.73 3.87 3.87 3.47 3.01 2.70 2.46 2.04 1.60 1.27 1.08 0.98 0.81 0.65 0.57 0.54 0.47 0.42 0.41 0.39 0.38 0.38 0.37 0.37 0.39 0.42 0.46 0.46 0.46 0.55
0.10 0.10 0.18 0.25 0.15 0.16 0.36 0.79 1.06 1.07 0.83 0.68 0.65 0.59 0.83 1.26 1.81 2.54 3.07 3.10 2.67 2.31 2.09 1.95 1.87 1.53 1.35 1.21 1.04 0.90 0.82 0.66 0.55 0.50 0.43 0.35 0.30 0.29 0.29 0.28 0.28 0.32 0.34 0.37 0.40 0.39 0.39 0.38 0.39
0.09 0.06 0.06 0.09 0.15 0.33 0.52 1.02 1.16 0.95 0.87 0.69 0.65 0.61 0.73 1.01 1.28 1.67 1.88 1.70 1.61 1.64 1.67 1.74 1.64 1.30 1.13 0.99 0.83 0.66 0.57 0.49 0.43 0.39 0.36 0.32 0.26 0.23 0.21 0.20 0.20 0.21 0.27 0.35 0.33 0.37 0.37 0.35 0.29
0.04 0.03 0.04 0.11 0.22 0.41 0.60 0.84 0.94 0.73 0.85 0.67 0.51 0.49 0.52 0.66 0.73 0.79 0.86 0.90 0.97 1.04 1.24 1.43 1.49 1.35 1.11 0.96 0.84 0.74 0.59 0.52 0.47 0.44 0.42 0.38 0.31 0.26 0.23 0.22 0.20 0.18 0.19 0.24 0.26 0.34 0.38 0.38 0.32
0.03 0.05 0.12 0.23 0.39 0.89 0.84 0.81 1.00 0.89 0.88 0.65 0.46 0.37 0.42 0.54 0.60 0.60 0.57 0.61 0.71 0.81 0.93 1.10 1.29 1.36 1.22 1.05 0.93 0.82 0.70 0.62 0.54 0.48 0.44 0.39 0.34 0.30 0.24 0.23 0.22 0.21 0.20 0.19 0.18 0.23 0.30 0.37 0.38
0.05 0.07 0.24 0.57 0.98 1.13 0.70 0.77 1.03 0.76 0.66 0.49 0.28 0.23 0.34 0.51 0.61 0.61 0.54 0.45 0.46 0.55 0.65 0.68 0.80 0.94 0.96 0.89 0.82 0.79 0.75 0.62 0.49 0.41 0.35 0.35 0.31 0.28 0.24 0.22 0.22 0.22 0.23 0.22 0.20 0.19 0.22 0.29 0.34
0.05 0.04 0.11 0.21 0.32 0.51 0.65 1.03 1.15 0.79 0.51 0.27 0.15 0.16 0.27 0.37 0.38 0.40 0.35 0.28 0.23 0.27 0.39 0.44 0.53 0.62 0.71 0.70 0.65 0.61 0.59 0.47 0.40 0.44 0.34 0.31 0.34 0.34 0.30 0.23 0.20 0.20 0.20 0.21 0.21 0.19 0.21 0.24 0.28
0.05 0.03 0.04 0.07 0.11 0.31 0.64 0.93 0.87 0.67 0.46 0.28 0.17 0.14 0.13 0.14 0.15 0.19 0.22 0.21 0.18 0.19 0.25 0.34 0.44 0.53 0.58 0.61 0.59 0.49 0.45 0.42 0.40 0.39 0.34 0.29 0.35 0.35 0.32 0.26 0.21 0.20 0.20 0.21 0.22 0.21 0.23 0.25 0.28
0.05 0.04 0.04 0.05 0.11 0.22 0.48 0.85 0.99 0.79 0.53 0.29 0.21 0.15 0.13 0.13 0.12 0.12 0.13 0.15 0.13 0.14 0.19 0.29 0.39 0.49 0.51 0.54 0.52 0.44 0.46 0.42 0.40 0.37 0.36 0.35 0.32 0.31 0.29 0.25 0.22 0.21 0.21 0.22 0.23 0.23 0.26 0.29 0.34
0.07 0.06 0.06 0.05 0.07 0.13 0.31 0.52 0.47 0.39 0.31 0.23 0.20 0.13 0.11 0.10 0.08 0.07 0.07 0.10 0.11 0.12 0.14 0.20 0.28 0.36 0.40 0.42 0.43 0.42 0.40 0.37 0.38 0.39 0.37 0.36 0.34 0.33 0.29 0.27 0.24 0.23 0.22 0.24 0.27 0.26 0.25 0.28 0.34
0.08 0.09 0.09 0.08 0.07 0.09 0.15 0.32 0.26 0.25 0.24 0.19 0.16 0.11 0.09 0.07 0.06 0.05 0.05 0.07 0.10 0.12 0.13 0.16 0.20 0.22 0.28 0.31 0.32 0.35 0.36 0.34 0.34 0.34 0.33 0.34 0.33 0.33 0.31 0.30 0.26 0.21 0.19 0.25 0.29 0.29 0.27 0.29 0.33

GEFSSGP_prec_meanprecacc_120.txt.gz
Total_Precipitation_Accumulation
0.01 0.04 0.17 0.36 0.78 1.13 1.12 0.70 0.52 0.50 0.55 0.53 0.47 0.44 0.47 0.43 0.55 0.97 0.67 0.38 0.16 0.06 0.04 0.09 0.16 0.14 0.12 0.12 0.11 0.12 0.11 0.10 0.10 0.09 0.07 0.06 0.06 0.06 0.06 0.05 0.06 0.07 0.09 0.09 0.08 0.09 0.09 0.11 0.11
0.02 0.07 0.24 0.63 0.96 1.11 1.07 0.61 0.35 0.44 0.53 0.66 0.64 0.50 0.40 0.41 0.41 0.33 0.29 0.42 0.15 0.08 0.06 0.05 0.13 0.13 0.11 0.10 0.11 0.11 0.11 0.10 0.09 0.07 0.06 0.06 0.07 0.08 0.08 0.07 0.07 0.08 0.09 0.09 0.09 0.08 0.09 0.09 0.11
0.03 0.12 0.26 0.53 0.66 0.72 0.77 0.47 0.35 0.31 0.49 0.72 0.69 0.46 0.46 0.48 0.39 0.26 0.25 0.34 0.17 0.12 0.07 0.07 0.12 0.12 0.10 0.10 0.11 0.11 0.11 0.09 0.09 0.08 0.07 0.07 0.08 0.10 0.11 0.10 0.10 0.10 0.11 0.12 0.11 0.09 0.09 0.10 0.12
0.05 0.16 0.34 0.38 0.27 0.23 0.35 0.41 0.43 0.42 0.61 0.74 0.60 0.50 0.49 0.47 0.41 0.27 0.24 0.35 0.22 0.18 0.11 0.10 0.14 0.14 0.12 0.11 0.11 0.12 0.12 0.11 0.10 0.09 0.08 0.08 0.09 0.11 0.11 0.11 0.13 0.13 0.14 0.14 0.13 0.12 0.12 0.14 0.16
0.04 0.17 0.34 0.26 0.16 0.14 0.18 0.25 0.33 0.49 0.67 0.77 0.66 0.63 0.64 0.46 0.38 0.31 0.24 0.35 0.28 0.22 0.19 0.18 0.20 0.19 0.15 0.13 0.13 0.14 0.13 0.12 0.11 0.09 0.09 0.10 0.11 0.12 0.12 0.11 0.11 0.12 0.16 0.18 0.20 0.19 0.17 0.18 0.20
0.04 0.12 0.22 0.14 0.07 0.09 0.15 0.20 0.35 0.54 0.56 0.64 0.74 0.81 0.72 0.51 0.44 0.36 0.34 0.42 0.35 0.25 0.22 0.27 0.26 0.23 0.19 0.18 0.18 0.16 0.15 0.14 0.13 0.12 0.13 0.14 0.15 0.15 0.14 0.12 0.12 0.13 0.15 0.18 0.23 0.25 0.24 0.23 0.26
0.02 0.05 0.08 0.06 0.03 0.06 0.15 0.27 0.32 0.45 0.51 0.72 0.77 0.79 0.78 0.70 0.57 0.46 0.56 0.78 0.68 0.49 0.36 0.31 0.26 0.26 0.24 0.24 0.25 0.24 0.21 0.19 0.18 0.16 0.16 0.17 0.20 0.20 0.21 0.23 0.21 0.19 0.22 0.23 0.26 0.27 0.33 0.32 0.32
0.01 0.02 0.04 0.03 0.02 0.06 0.14 0.22 0.31 0.43 0.55 0.62 0.70 0.82 0.83 0.76 0.65 0.68 0.85 1.17 1.20 1.01 0.75 0.46 0.36 0.36 0.33 0.29 0.30 0.30 0.26 0.24 0.24 0.23 0.22 0.25 0.29 0.33 0.37 0.36 0.34 0.34 0.37 0.37 0.35 0.33 0.37 0.45 0.45
0.00 0.02 0.02 0.02 0.01 0.08 0.17 0.22 0.27 0.32 0.41 0.63 0.81 0.96 0.87 0.69 0.71 0.89 1.06 1.28 1.35 1.17 1.00 0.79 0.65 0.51 0.45 0.43 0.37 0.39 0.37 0.35 0.35 0.43 0.44 0.46 0.54 0.59 0.66 0.61 0.62 0.61 0.63 0.68 0.67 0.63 0.67 0.71 0.65
0.00 0.01 0.01 0.00 0.00 0.03 0.10 0.20 0.25 0.36 0.56 1.02 1.29 1.17 0.94 0.82 0.91 1.12 1.25 1.23 1.29 1.27 1.15 1.13 0.98 0.81 0.75 0.71 0.69 0.73 0.70 0.72 0.70 0.85 0.88 0.96 1.05 0.88 0.70 0.87 1.03 0.98 1.08 1.15 1.22 1.41 1.32 1.15 0.94
0.00 0.00 0.00 0.00 0.00 0.02 0.05 0.12 0.23 0.41 0.77 1.30 1.53 1.24 1.07 1.02 1.07 1.18 1.45 1.51 1.57 1.52 1.36 1.40 1.26 1.13 1.13 1.10 1.05 1.07 1.13 1.21 1.23 1.28 1.35 1.54 1.49 1.22 1.02 1.20 1.46 1.44 1.49 1.53 1.79 2.00 1.62 1.53 1.50
0.00 0.00 0.00 0.00 0.01 0.01 0.04 0.11 0.29 0.55 0.94 1.23 1.15 0.97 1.00 1.17 1.25 1.39 1.64 1.93 1.98 2.03 1.89 1.68 1.56 1.65 1.61 1.46 1.38 1.23 1.12 1.16 1.25 1.35 1.41 1.74 1.81 1.73 1.63 1.66 1.58 1.74 1.83 2.05 2.10 2.10 1.93 1.92 1.84
0.00 0.00 0.00 0.00 0.01 0.03 0.06 0.13 0.33 0.65 0.86 0.92 0.80 0.82 1.08 1.34 1.42 1.78 2.19 2.30 2.26 2.46 2.58 2.38 2.26 2.13 1.90 1.80 1.51 1.30 1.18 1.09 1.06 1.24 1.41 1.70 1.88 1.92 2.00 1.70 1.61 1.57 1.74 1.98 1.95 1.84 1.92 2.03 2.05
0.00 0.00 0.01 0.01 0.02 0.04 0.07 0.14 0.33 0.56 0.65 0.66 0.72 0.93 1.13 1.46 1.58 1.99 2.53 2.66 2.79 2.97 3.15 3.07 2.95 2.66 2.32 2.03 1.78 1.65 1.39 1.18 1.03 1.16 1.21 1.58 1.88 1.84 1.70 1.69 1.67 1.58 1.72 1.77 1.83 1.87 2.07 2.13 2.21
0.00 0.01 0.06 0.07 0.05 0.06 0.07 0.19 0.40 0.60 0.70 0.64 0.78 0.97 1.31 1.64 1.85 2.17 2.45 2.83 3.22 3.54 3.60 3.54 3.51 3.25 3.02 2.72 2.29 1.91 1.66 1.37 1.29 1.20 1.14 1.45 1.70 1.74 1.73 1.65 1.51 1.54 1.65 1.75 1.78 1.81 1.90 1.81 1.87
0.02 0.05 0.15 0.16 0.10 0.10 0.11 0.39 0.69 0.68 0.69 0.71 0.83 1.13 1.44 1.71 2.09 2.26 2.52 2.85 3.23 3.72 4.05 4.08 3.58 3.40 3.26 3.02 2.61 2.22 2.03 1.88 1.69 1.32 1.18 1.22 1.40 1.49 1.52 1.37 1.35 1.44 1.35 1.37 1.42 1.39 1.42 1.45 1.59
0.05 0.09 0.16 0.25 0.16 0.13 0.24 0.70 1.00 0.76 0.61 0.71 0.92 1.15 1.53 1.80 2.20 2.32 2.46 2.65 3.10 3.90 4.66 4.62 4.07 3.60 3.26 3.05 2.85 2.58 2.29 1.96 1.68 1.42 1.26 1.12 1.05 0.97 1.01 0.96 0.97 1.02 1.02 1.02 0.98 1.14 1.20 1.26 1.36
0.05 0.10 0.22 0.35 0.22 0.20 0.30 0.67 0.70 0.63 0.79 0.77 0.82 1.02 1.32 1.43 1.74 2.00 2.26 2.67 3.39 4.42 5.11 5.03 4.42 3.85 3.42 3.13 2.83 2.52 2.15 1.85 1.50 1.37 1.21 0.97 0.91 0.80 0.76 0.71 0.72 0.68 0.70 0.77 0.81 0.86 0.93 0.94 0.99
0.04 0.09 0.22 0.26 0.20 0.28 0.36 0.56 0.66 0.76 0.94 0.94 0.80 0.83 1.12 1.30 1.55 1.89 2.43 3.21 4.22 5.03 5.24 4.69 4.14 3.72 3.25 2.79 2.16 1.69 1.45 1.31 1.10 0.92 0.77 0.67 0.61 0.61 0.63 0.55 0.53 0.50 0.50 0.52 0.54 0.61 0.66 0.66 0.74
0.06 0.08 0.19 0.26 0.18 0.21 0.35 0.65 0.94 0.91 0.83 0.81 0.81 0.74 0.92 1.29 1.72 2.29 3.25 3.87 4.08 4.11 3.75 3.29 2.95 2.69 2.25 1.78 1.44 1.23 1.11 0.95 0.78 0.66 0.60 0.52 0.46 0.45 0.43 0.42 0.40 0.39 0.40 0.43 0.45 0.47 0.48 0.48 0.56
0.10 0.10 0.18 0.25 0.15 0.16 0.36 0.79 1.06 1.07 0.83 0.69 0.66 0.60 0.85 1.29 1.85 2.60 3.16 3.22 2.87 2.47 2.24 2.15 2.11 1.77 1.57 1.40 1.23 1.10 1.02 0.84 0.69 0.59 0.48 0.40 0.34 0.33 0.33 0.32 0.31 0.34 0.37 0.39 0.41 0.40 0.40 0.39 0.40
0.09 0.06 0.06 0.09 0.15 0.33 0.52 1.02 1.16 0.95 0.87 0.71 0.66 0.63 0.75 1.03 1.32 1.74 1.96 1.79 1.72 1.74 1.76 1.86 1.83 1.52 1.35 1.21 1.00 0.80 0.70 0.61 0.52 0.46 0.42 0.39 0.32 0.28 0.25 0.25 0.23 0.23 0.29 0.36 0.34 0.39 0.39 0.36 0.30
0.04 0.03 0.04 0.11 0.22 0.41 0.60 0.84 0.94 0.73 0.86 0.68 0.52 0.49 0.53 0.70 0.78 0.86 0.94 0.96 1.04 1.13 1.33 1.56 1.64 1.55 1.34 1.17 1.01 0.88 0.72 0.64 0.58 0.55 0.51 0.46 0.38 0.32 0.28 0.27 0.24 0.21 0.21 0.25 0.28 0.36 0.40 0.40 0.34
0.03 0.05 0.12 0.23 0.39 0.89 0.84 0.81 1.00 0.89 0.88 0.66 0.47 0.38 0.43 0.56 0.63 0.65 0.63 0.67 0.79 0.90 1.03 1.23 1.41 1.51 1.44 1.27 1.09 0.96 0.83 0.73 0.64 0.59 0.55 0.48 0.41 0.37 0.31 0.28 0.27 0.24 0.22 0.20 0.20 0.26 0.33 0.39 0.40
0.05 0.07 0.24 0.57 0.98 1.13 0.70 0.77 1.03 0.76 0.66 0.49 0.28 0.23 0.34 0.52 0.64 0.65 0.57 0.50 0.51 0.60 0.72 0.78 0.90 1.08 1.14 1.08 0.97 0.91 0.85 0.69 0.56 0.48 0.43 0.43 0.38 0.34 0.29 0.26 0.25 0.24 0.25 0.23 0.22 0.22 0.25 0.31 0.37
0.05 0.04 0.11 0.21 0.32 0.51 0.65 1.03 1.15 0.79 0.51 0.27 0.15 0.17 0.27 0.38 0.40 0.42 0.38 0.31 0.25 0.30 0.42 0.50 0.61 0.73 0.86 0.84 0.78 0.72 0.67 0.52 0.44 0.48 0.38 0.37 0.40 0.39 0.36 0.28 0.24 0.23 0.23 0.23 0.23 0.22 0.23 0.26 0.31
0.05 0.03 0.04 0.07 0.11 0.31 0.64 0.93 0.87 0.67 0.47 0.28 0.18 0.14 0.13 0.15 0.16 0.20 0.24 0.23 0.19 0.20 0.27 0.37 0.49 0.60 0.69 0.73 0.70 0.59 0.53 0.48 0.45 0.43 0.39 0.34 0.41 0.42 0.39 0.32 0.25 0.23 0.24 0.23 0.23 0.23 0.25 0.27 0.29
0.05 0.04 0.04 0.05 0.11 0.22 0.48 0.85 0.99 0.79 0.53 0.29 0.21 0.16 0.14 0.14 0.13 0.13 0.14 0.17 0.15 0.16 0.20 0.31 0.43 0.55 0.60 0.63 0.61 0.51 0.53 0.49 0.46 0.42 0.41 0.39 0.38 0.37 0.35 0.30 0.25 0.25 0.26 0.26 0.26 0.26 0.28 0.30 0.36
0.07 0.06 0.06 0.05 0.07 0.13 0.32 0.52 0.47 0.39 0.31 0.23 0.20 0.14 0.12 0.10 0.09 0.08 0.09 0.12 0.13 0.14 0.16 0.23 0.31 0.41 0.46 0.49 0.49 0.47 0.47 0.46 0.46 0.45 0.42 0.41 0.40 0.40 0.35 0.32 0.29 0.26 0.25 0.28 0.31 0.29 0.28 0.30 0.36
0.09 0.09 0.09 0.08 0.07 0.09 0.15 0.32 0.26 0.25 0.24 0.19 0.16 0.12 0.09 0.08 0.07 0.06 0.08 0.10 0.13 0.15 0.16 0.18 0.23 0.26 0.31 0.36 0.37 0.40 0.43 0.42 0.41 0.40 0.39 0.40 0.38 0.38 0.37 0.34 0.29 0.24 0.22 0.28 0.33 0.33 0.31 0.32 0.35

GEFSSGP_prec_meanprecacc_126.txt.gz
Total_Precipitation_Accumulation
0.01 0.04 0.18 0.36 0.79 1.13 1.12 0.70 0.52 0.50 0.55 0.53 0.47 0.44 0.47 0.43 0.55 0.98 0.67 0.38 0.16 0.06 0.04 0.10 0.17 0.15 0.13 0.12 0.12 0.12 0.12 0.11 0.11 0.10 0.08 0.07 0.06 0.06 0.06 0.07 0.07 0.09 0.11 0.10 0.10 0.11 0.12 0.14 0.14
0.02 0.08 0.24 0.63 0.96 1.11 1.07 0.61 0.35 0.44 0.53 0.66 0.64 0.50 0.40 0.41 0.41 0.33 0.30 0.42 0.15 0.08 0.06 0.06 0.13 0.14 0.11 0.10 0.11 0.12 0.11 0.11 0.10 0.08 0.07 0.06 0.07 0.08 0.08 0.08 0.08 0.10 0.12 0.11 0.10 0.09 0.11 0.11 0.13
0.03 0.12 0.26 0.53 0.66 0.72 0.77 0.47 0.35 0.31 0.49 0.72 0.69 0.46 0.46 0.48 0.39 0.26 0.25 0.34 0.17 0.12 0.07 0.07 0.12 0.12 0.11 0.11 0.11 0.11 0.11 0.10 0.09 0.08 0.07 0.07 0.08 0.11 0.12 0.12 0.12 0.12 0.14 0.14 0.13 0.11 0.11 0.11 0.14
0.05 0.16 0.34 0.38 0.27 0.23 0.35 0.41 0.43 0.42 0.61 0.74 0.60 0.50 0.49 0.47 0.41 0.27 0.24 0.35 0.22 0.19 0.12 0.11 0.15 0.15 0.13 0.12 0.11 0.12 0.13 0.11 0.11 0.09 0.09 0.09 0.10 0.12 0.12 0.13 0.15 0.15 0.16 0.15 0.15 0.14 0.14 0.16 0.18
0.04 0.17 0.34 0.26 0.16 0.14 0.18 0.25 0.33 0.49 0.67 0.77 0.66 0.63 0.64 0.46 0.38 0.31 0.24 0.35 0.28 0.23 0.20 0.20 0.22 0.20 0.16 0.14 0.14 0.14 0.13 0.13 0.11 0.10 0.10 0.11 0.12 0.13 0.13 0.13 0.14 0.14 0.18 0.20 0.21 0.20 0.19 0.22 0.25
0.04 0.12 0.22 0.14 0.07 0.09 0.15 0.20 0.35 0.54 0.56 0.64 0.74 0.81 0.73 0.51 0.44 0.37 0.35 0.42 0.35 0.25 0.24 0.30 0.29 0.25 0.20 0.19 0.19 0.17 0.16 0.14 0.14 0.13 0.14 0.15 0.17 0.16 0.15 0.15 0.14 0.15 0.17 0.20 0.24 0.26 0.26 0.27 0.32
0.02 0.05 0.08 0.06 0.03 0.06 0.15 0.27 0.32 0.45 0.51 0.72 0.77 0.79 0.78 0.71 0.57 0.46 0.56 0.78 0.68 0.50 0.39 0.38 0.33 0.29 0.25 0.26 0.27 0.25 0.23 0.20 0.19 0.17 0.17 0.18 0.22 0.21 0.22 0.26 0.23 0.21 0.24 0.26 0.28 0.29 0.36 0.37 0.38
0.01 0.02 0.04 0.03 0.02 0.06 0.14 0.22 0.31 0.43 0.55 0.62 0.71 0.82 0.83 0.76 0.65 0.68 0.86 1.18 1.22 1.05 0.80 0.54 0.46 0.45 0.37 0.31 0.32 0.32 0.28 0.25 0.25 0.25 0.24 0.26 0.31 0.35 0.39 0.39 0.36 0.35 0.38 0.39 0.38 0.36 0.41 0.49 0.50
0.00 0.02 0.02 0.02 0.01 0.08 0.17 0.22 0.27 0.32 0.41 0.63 0.81 0.96 0.87 0.69 0.71 0.90 1.07 1.30 1.40 1.24 1.06 0.85 0.77 0.64 0.54 0.48 0.40 0.43 0.40 0.38 0.38 0.46 0.47 0.49 0.58 0.62 0.68 0.62 0.63 0.61 0.65 0.70 0.71 0.69 0.73 0.76 0.72
0.00 0.01 0.01 0.00 0.00 0.03 0.10 0.20 0.26 0.36 0.56 1.02 1.29 1.17 0.94 0.82 0.91 1.13 1.27 1.25 1.32 1.32 1.20 1.18 1.04 0.91 0.85 0.77 0.76 0.80 0.74 0.76 0.74 0.90 0.92 1.00 1.09 0.92 0.71 0.88 1.04 1.00 1.10 1.18 1.26 1.44 1.35 1.19 1.00
0.00 0.00 0.00 0.00 0.00 0.02 0.05 0.13 0.23 0.41 0.78 1.30 1.53 1.24 1.07 1.02 1.07 1.19 1.47 1.55 1.62 1.60 1.44 1.46 1.31 1.19 1.21 1.19 1.14 1.15 1.20 1.26 1.28 1.32 1.39 1.58 1.51 1.25 1.04 1.23 1.49 1.48 1.52 1.56 1.81 2.01 1.63 1.56 1.57
0.00 0.00 0.00 0.00 0.01 0.01 0.04 0.11 0.29 0.55 0.95 1.23 1.15 0.97 1.01 1.17 1.25 1.40 1.66 1.97 2.02 2.09 1.98 1.75 1.63 1.73 1.70 1.54 1.46 1.31 1.19 1.20 1.28 1.39 1.45 1.77 1.83 1.75 1.66 1.69 1.61 1.77 1.88 2.09 2.11 2.12 1.96 1.95 1.88
0.00 0.00 0.00 0.00 0.01 0.03 0.06 0.13 0.33 0.65 0.86 0.92 0.80 0.82 1.09 1.34 1.42 1.79 2.23 2.36 2.29 2.49 2.63 2.45 2.36 2.24 1.99 1.88 1.57 1.36 1.24 1.13 1.09 1.28 1.44 1.72 1.90 1.94 2.02 1.73 1.64 1.59 1.77 2.01 1.98 1.86 1.94 2.08 2.11
0.00 0.00 0.01 0.01 0.02 0.04 0.07 0.14 0.33 0.56 0.65 0.66 0.72 0.93 1.13 1.46 1.58 2.01 2.58 2.71 2.83 3.01 3.19 3.13 3.05 2.76 2.40 2.10 1.84 1.70 1.43 1.22 1.07 1.20 1.25 1.61 1.90 1.86 1.73 1.71 1.70 1.61 1.74 1.80 1.85 1.89 2.09 2.18 2.28
0.00 0.01 0.06 0.07 0.05 0.06 0.07 0.19 0.40 0.60 0.70 0.64 0.78 0.97 1.31 1.65 1.85 2.18 2.47 2.85 3.26 3.58 3.64 3.57 3.57 3.33 3.10 2.82 2.41 1.99 1.72 1.42 1.34 1.25 1.19 1.49 1.74 1.78 1.76 1.67 1.55 1.58 1.67 1.77 1.81 1.84 1.95 1.86 1.93
0.02 0.05 0.15 0.16 0.10 0.10 0.11 0.39 0.69 0.68 0.69 0.71 0.83 1.13 1.44 1.71 2.09 2.27 2.54 2.88 3.26 3.76 4.10 4.13 3.63 3.47 3.36 3.19 2.81 2.40 2.15 1.97 1.76 1.40 1.26 1.29 1.46 1.55 1.56 1.42 1.39 1.48 1.39 1.40 1.46 1.44 1.47 1.52 1.65
0.05 0.09 0.16 0.25 0.16 0.13 0.24 0.70 1.00 0.76 0.61 0.71 0.93 1.15 1.53 1.80 2.21 2.33 2.47 2.68 3.13 3.95 4.75 4.70 4.15 3.68 3.36 3.18 3.05 2.81 2.47 2.09 1.77 1.50 1.35 1.21 1.13 1.04 1.06 1.01 1.03 1.07 1.06 1.06 1.01 1.18 1.24 1.31 1.43
0.05 0.10 0.22 0.35 0.22 0.20 0.30 0.67 0.70 0.63 0.79 0.77 0.82 1.02 1.32 1.44 1.75 2.02 2.28 2.70 3.44 4.51 5.25 5.15 4.51 3.93 3.51 3.21 2.94 2.68 2.31 1.98 1.59 1.46 1.32 1.07 0.99 0.87 0.82 0.77 0.78 0.74 0.76 0.82 0.86 0.92 0.98 1.00 1.04
0.04 0.09 0.22 0.26 0.20 0.28 0.36 0.56 0.66 0.76 0.94 0.94 0.80 0.83 1.12 1.31 1.57 1.92 2.48 3.27 4.28 5.10 5.34 4.82 4.26 3.79 3.32 2.85 2.23 1.78 1.56 1.39 1.17 0.99 0.84 0.74 0.69 0.69 0.71 0.61 0.59 0.55 0.55 0.58 0.60 0.67 0.71 0.71 0.77
0.06 0.08 0.19 0.26 0.18 0.21 0.35 0.65 0.94 0.91 0.83 0.81 0.81 0.74 0.92 1.30 1.73 2.33 3.30 3.92 4.12 4.16 3.84 3.43 3.08 2.78 2.33 1.88 1.53 1.33 1.20 1.01 0.85 0.72 0.66 0.58 0.52 0.51 0.49 0.48 0.45 0.44 0.45 0.50 0.51 0.52 0.52 0.52 0.59
0.10 0.10 0.18 0.25 0.15 0.16 0.36 0.79 1.06 1.07 0.83 0.69 0.66 0.60 0.86 1.29 1.86 2.62 3.18 3.25 2.91 2.50 2.28 2.25 2.22 1.87 1.69 1.53 1.33 1.23 1.14 0.94 0.77 0.65 0.54 0.45 0.38 0.37 0.38 0.37 0.37 0.41 0.41 0.45 0.48 0.45 0.44 0.43 0.43
0.09 0.06 0.06 0.09 0.15 0.33 0.52 1.02 1.16 0.95 0.87 0.71 0.66 0.64 0.75 1.04 1.33 1.75 1.98 1.81 1.74 1.77 1.79 1.92 1.93 1.65 1.54 1.37 1.09 0.88 0.78 0.69 0.58 0.52 0.49 0.46 0.38 0.33 0.30 0.30 0.29 0.29 0.33 0.41 0.39 0.42 0.43 0.41 0.34
0.04 0.03 0.04 0.11 0.22 0.41 0.60 0.84 0.94 0.73 0.86 0.68 0.52 0.49 0.54 0.70 0.79 0.87 0.96 0.97 1.06 1.15 1.36 1.61 1.71 1.64 1.47 1.27 1.12 0.98 0.79 0.71 0.67 0.64 0.61 0.55 0.46 0.37 0.32 0.32 0.29 0.25 0.24 0.27 0.30 0.39 0.44 0.44 0.38
0.03 0.05 0.12 0.23 0.39 0.89 0.84 0.81 1.00 0.89 0.88 0.66 0.47 0.38 0.43 0.57 0.64 0.66 0.64 0.68 0.81 0.93 1.06 1.26 1.44 1.57 1.52 1.35 1.17 1.07 0.92 0.81 0.73 0.68 0.64 0.56 0.47 0.42 0.36 0.34 0.32 0.29 0.25 0.22 0.23 0.30 0.38 0.43 0.44
0.05 0.07 0.24 0.57 0.98 1.13 0.70 0.77 1.03 0.76 0.66 0.49 0.28 0.23 0.34 0.53 0.64 0.67 0.59 0.51 0.52 0.63 0.75 0.80 0.92 1.12 1.21 1.18 1.05 0.99 0.95 0.79 0.63 0.57 0.53 0.51 0.44 0.39 0.33 0.30 0.30 0.28 0.27 0.26 0.25 0.26 0.30 0.35 0.41
0.05 0.04 0.11 0.21 0.32 0.51 0.65 1.03 1.15 0.79 0.51 0.27 0.15 0.17 0.27 0.38 0.40 0.43 0.39 0.32 0.26 0.31 0.45 0.53 0.65 0.78 0.94 0.95 0.88 0.79 0.76 0.62 0.53 0.57 0.46 0.44 0.45 0.44 0.41 0.33 0.28 0.27 0.26 0.25 0.27 0.25 0.26 0.30 0.34
0.05 0.03 0.04 0.07 0.11 0.31 0.64 0.93 0.87 0.67 0.47 0.28 0.18 0.14 0.13 0.15 0.16 0.20 0.25 0.24 0.20 0.21 0.29 0.39 0.53 0.65 0.78 0.85 0.81 0.67 0.61 0.56 0.53 0.52 0.46 0.41 0.47 0.47 0.45 0.39 0.32 0.29 0.29 0.28 0.28 0.26 0.27 0.29 0.32
0.05 0.04 0.04 0.05 0.11 0.22 0.48 0.85 0.99 0.79 0.53 0.29 0.21 0.16 0.14 0.14 0.13 0.13 0.15 0.18 0.16 0.16 0.21 0.33 0.46 0.58 0.66 0.71 0.68 0.57 0.60 0.55 0.55 0.52 0.49 0.45 0.43 0.43 0.42 0.37 0.32 0.33 0.33 0.31 0.32 0.30 0.32 0.34 0.39
0.07 0.06 0.06 0.05 0.07 0.13 0.32 0.52 0.47 0.39 0.31 0.23 0.20 0.14 0.12 0.11 0.09 0.08 0.09 0.13 0.14 0.15 0.18 0.24 0.33 0.44 0.49 0.53 0.53 0.51 0.51 0.50 0.51 0.52 0.49 0.46 0.45 0.45 0.41 0.38 0.35 0.34 0.33 0.34 0.37 0.35 0.34 0.35 0.41
0.09 0.09 0.09 0.08 0.07 0.09 0.15 0.32 0.26 0.25 0.24 0.19 0.16 0.12 0.10 0.08 0.07 0.06 0.08 0.10 0.13 0.16 0.16 0.19 0.25 0.29 0.34 0.39 0.41 0.44 0.47 0.47 0.45 0.45 0.46 0.47 0.45 0.45 0.44 0.41 0.36 0.31 0.29 0.35 0.41 0.40 0.37 0.38 0.40

GEFSSGP_prec_meanprecacc_132.txt.gz
Total_Precipitation_Accumulation
0.01 0.04 0.18 0.37 0.88 1.22 1.13 0.71 0.52 0.50 0.55 0.53 0.47 0.44 0.47 0.44 0.57 1.04 0.68 0.38 0.16 0.06 0.04 0.10 0.17 0.15 0.13 0.13 0.13 0.13 0.13 0.13 0.13 0.12 0.09 0.08 0.07 0.08 0.08 0.08 0.10 0.12 0.13 0.13 0.15 0.13 0.14 0.16 0.15
0.02 0.08 0.24 0.67 1.09 1.16 1.08 0.61 0.35 0.44 0.53 0.66 0.64 0.50 0.40 0.41 0.41 0.33 0.30 0.42 0.15 0.08 0.06 0.06 0.13 0.14 0.12 0.11 0.12 0.13 0.13 0.12 0.11 0.09 0.08 0.08 0.08 0.10 0.11 0.10 0.11 0.13 0.13 0.14 0.13 0.12 0.13 0.13 0.14
0.03 0.12 0.27 0.60 0.73 0.73 0.78 0.47 0.35 0.31 0.49 0.72 0.70 0.47 0.46 0.48 0.39 0.26 0.25 0.34 0.17 0.12 0.07 0.07 0.12 0.12 0.11 0.12 0.12 0.12 0.12 0.11 0.10 0.10 0.09 0.09 0.11 0.14 0.15 0.14 0.15 0.14 0.16 0.16 0.15 0.13 0.13 0.13 0.16
0.05 0.17 0.35 0.40 0.28 0.24 0.36 0.41 0.43 0.42 0.61 0.74 0.61 0.51 0.49 0.47 0.41 0.27 0.24 0.35 0.22 0.19 0.12 0.11 0.15 0.15 0.14 0.13 0.12 0.13 0.13 0.12 0.12 0.11 0.10 0.11 0.13 0.15 0.15 0.16 0.18 0.18 0.18 0.18 0.17 0.16 0.15 0.19 0.21
0.04 0.17 0.37 0.28 0.17 0.14 0.18 0.25 0.33 0.50 0.68 0.78 0.67 0.63 0.65 0.46 0.38 0.31 0.24 0.35 0.29 0.24 0.22 0.20 0.22 0.20 0.16 0.15 0.15 0.15 0.14 0.14 0.13 0.11 0.12 0.13 0.15 0.16 0.16 0.16 0.17 0.17 0.20 0.21 0.23 0.22 0.21 0.25 0.28
0.04 0.14 0.26 0.16 0.08 0.09 0.15 0.20 0.35 0.55 0.59 0.64 0.75 0.82 0.76 0.52 0.44 0.37 0.35 0.42 0.40 0.34 0.27 0.33 0.31 0.26 0.21 0.19 0.19 0.18 0.17 0.16 0.15 0.14 0.16 0.18 0.19 0.19 0.18 0.20 0.18 0.18 0.19 0.22 0.26 0.28 0.27 0.29 0.34
0.02 0.08 0.10 0.07 0.04 0.06 0.15 0.27 0.32 0.45 0.53 0.73 0.77 0.80 0.85 0.72 0.57 0.46 0.56 0.79 0.71 0.57 0.44 0.43 0.38 0.32 0.27 0.27 0.28 0.27 0.24 0.22 0.21 0.19 0.19 0.20 0.23 0.23 0.24 0.31 0.27 0.24 0.26 0.27 0.29 0.31 0.40 0.39 0.39
0.01 0.03 0.04 0.04 0.02 0.06 0.14 0.22 0.31 0.43 0.57 0.63 0.71 0.85 0.87 0.77 0.65 0.68 0.86 1.19 1.27 1.14 0.84 0.56 0.49 0.48 0.41 0.34 0.35 0.35 0.29 0.27 0.27 0.27 0.26 0.28 0.32 0.36 0.41 0.42 0.40 0.39 0.42 0.42 0.41 0.39 0.44 0.51 0.51
0.00 0.02 0.03 0.02 0.02 0.08 0.17 0.22 0.27 0.32 0.42 0.64 0.81 0.97 0.88 0.69 0.71 0.90 1.08 1.33 1.45 1.32 1.10 0.88 0.79 0.67 0.59 0.52 0.42 0.46 0.42 0.40 0.40 0.49 0.48 0.53 0.64 0.66 0.71 0.65 0.66 0.65 0.68 0.74 0.76 0.72 0.76 0.79 0.75
0.00 0.02 0.03 0.02 0.01 0.03 0.10 0.20 0.26 0.36 0.60 1.08 1.32 1.18 0.95 0.82 0.91 1.14 1.29 1.27 1.34 1.35 1.24 1.23 1.08 0.95 0.90 0.82 0.80 0.85 0.79 0.78 0.78 0.94 0.96 1.11 1.22 1.03 0.78 0.90 1.06 1.02 1.13 1.21 1.31 1.48 1.37 1.24 1.05
0.00 0.01 0.01 0.01 0.01 0.02 0.05 0.13 0.23 0.41 0.81 1.35 1.56 1.25 1.08 1.02 1.08 1.21 1.51 1.58 1.65 1.64 1.47 1.50 1.37 1.24 1.25 1.27 1.22 1.23 1.29 1.33 1.37 1.40 1.47 1.70 1.62 1.31 1.10 1.26 1.51 1.51 1.55 1.60 1.84 2.04 1.67 1.63 1.65
0.00 0.00 0.00 0.00 0.01 0.01 0.04 0.11 0.29 0.55 0.95 1.24 1.16 1.00 1.01 1.17 1.27 1.42 1.68 1.99 2.05 2.13 2.02 1.79 1.69 1.78 1.75 1.60 1.55 1.40 1.27 1.28 1.36 1.47 1.52 1.84 1.92 1.83 1.74 1.76 1.66 1.83 1.96 2.20 2.20 2.21 2.05 2.04 1.92
0.00 0.00 0.00 0.00 0.01 0.03 0.06 0.13 0.33 0.65 0.86 0.92 0.80 0.83 1.09 1.35 1.44 1.81 2.25 2.38 2.32 2.51 2.66 2.48 2.41 2.30 2.06 1.96 1.65 1.43 1.33 1.20 1.15 1.34 1.50 1.77 1.96 2.01 2.09 1.81 1.71 1.66 1.83 2.08 2.06 1.93 2.02 2.16 2.17
0.00 0.00 0.01 0.01 0.02 0.04 0.07 0.14 0.33 0.56 0.65 0.66 0.72 0.93 1.13 1.48 1.60 2.02 2.60 2.75 2.87 3.05 3.22 3.16 3.09 2.82 2.46 2.16 1.91 1.77 1.51 1.31 1.14 1.26 1.30 1.65 1.96 1.93 1.80 1.79 1.78 1.68 1.81 1.86 1.90 1.94 2.15 2.25 2.35
0.00 0.01 0.06 0.07 0.05 0.06 0.07 0.19 0.40 0.60 0.70 0.64 0.78 0.97 1.31 1.65 1.86 2.20 2.50 2.88 3.29 3.64 3.68 3.61 3.61 3.38 3.16 2.89 2.46 2.05 1.79 1.49 1.42 1.33 1.26 1.55 1.81 1.86 1.82 1.74 1.61 1.64 1.73 1.82 1.85 1.89 2.01 1.92 1.99
0.02 0.05 0.15 0.16 0.10 0.10 0.11 0.39 0.69 0.69 0.69 0.71 0.83 1.13 1.44 1.72 2.10 2.30 2.56 2.89 3.28 3.79 4.13 4.16 3.67 3.53 3.44 3.27 2.89 2.46 2.22 2.05 1.87 1.50 1.34 1.37 1.54 1.62 1.62 1.47 1.44 1.52 1.42 1.44 1.51 1.48 1.53 1.59 1.72
0.05 0.09 0.16 0.25 0.16 0.13 0.24 0.71 1.00 0.76 0.61 0.72 0.95 1.17 1.53 1.81 2.22 2.34 2.48 2.69 3.15 3.99 4.80 4.75 4.21 3.76 3.44 3.29 3.16 2.91 2.58 2.18 1.86 1.58 1.42 1.28 1.20 1.09 1.11 1.07 1.10 1.12 1.10 1.10 1.04 1.22 1.29 1.40 1.50
0.05 0.10 0.22 0.35 0.22 0.20 0.30 0.67 0.70 0.63 0.79 0.77 0.83 1.04 1.33 1.44 1.75 2.02 2.28 2.71 3.45 4.54 5.31 5.21 4.57 4.01 3.60 3.33 3.05 2.82 2.45 2.10 1.68 1.53 1.39 1.13 1.05 0.92 0.87 0.84 0.84 0.78 0.81 0.88 0.92 1.00 1.04 1.06 1.09
0.04 0.09 0.22 0.26 0.20 0.28 0.36 0.56 0.66 0.77 0.94 0.94 0.80 0.84 1.12 1.31 1.57 1.92 2.48 3.28 4.29 5.14 5.40 4.87 4.31 3.86 3.41 2.95 2.33 1.88 1.67 1.50 1.26 1.04 0.89 0.80 0.75 0.75 0.77 0.68 0.66 0.60 0.60 0.63 0.64 0.71 0.76 0.76 0.80
0.06 0.08 0.19 0.26 0.18 0.21 0.35 0.65 0.94 0.91 0.83 0.81 0.81 0.74 0.92 1.30 1.74 2.34 3.31 3.93 4.14 4.19 3.87 3.47 3.12 2.84 2.40 1.97 1.65 1.44 1.31 1.11 0.92 0.78 0.74 0.62 0.56 0.56 0.54 0.55 0.52 0.50 0.52 0.54 0.56 0.57 0.58 0.58 0.62
0.10 0.10 0.18 0.25 0.15 0.16 0.36 0.80 1.06 1.07 0.83 0.69 0.66 0.61 0.86 1.30 1.86 2.63 3.20 3.27 2.93 2.52 2.30 2.28 2.26 1.92 1.77 1.64 1.46 1.37 1.28 1.07 0.87 0.73 0.63 0.51 0.42 0.40 0.41 0.42 0.43 0.46 0.46 0.50 0.52 0.49 0.49 0.49 0.47
0.09 0.06 0.06 0.09 0.15 0.33 0.52 1.02 1.17 0.95 0.88 0.71 0.67 0.64 0.75 1.04 1.33 1.76 2.00 1.83 1.76 1.79 1.82 1.96 1.99 1.71 1.61 1.47 1.19 0.98 0.87 0.79 0.68 0.60 0.57 0.54 0.44 0.37 0.34 0.34 0.33 0.33 0.37 0.47 0.42 0.45 0.47 0.46 0.39
0.04 0.03 0.04 0.11 0.22 0.41 0.60 0.84 0.95 0.74 0.86 0.68 0.52 0.50 0.54 0.71 0.79 0.88 0.97 0.99 1.08 1.16 1.38 1.64 1.79 1.72 1.53 1.35 1.22 1.09 0.91 0.84 0.78 0.74 0.71 0.65 0.55 0.45 0.37 0.37 0.34 0.30 0.29 0.34 0.35 0.45 0.48 0.47 0.41
0.03 0.05 0.12 0.23 0.39 0.89 0.84 0.81 1.00 0.90 0.88 0.66 0.47 0.38 0.44 0.58 0.65 0.67 0.65 0.71 0.83 0.95 1.10 1.32 1.53 1.64 1.60 1.43 1.27 1.17 1.05 0.95 0.85 0.79 0.75 0.65 0.56 0.51 0.43 0.40 0.38 0.33 0.29 0.29 0.29 0.36 0.42 0.47 0.48
0.05 0.07 0.24 0.57 0.98 1.13 0.70 0.78 1.03 0.76 0.66 0.49 0.28 0.23 0.34 0.53 0.65 0.67 0.60 0.52 0.53 0.65 0.79 0.85 1.00 1.20 1.29 1.26 1.15 1.08 1.08 0.94 0.75 0.69 0.64 0.61 0.51 0.45 0.41 0.39 0.38 0.33 0.32 0.31 0.31 0.32 0.36 0.42 0.46
0.05 0.04 0.11 0.22 0.32 0.51 0.65 1.03 1.15 0.79 0.51 0.27 0.15 0.17 0.27 0.38 0.40 0.44 0.40 0.32 0.26 0.32 0.49 0.59 0.74 0.89 1.05 1.04 0.97 0.89 0.89 0.76 0.64 0.69 0.57 0.52 0.50 0.48 0.47 0.42 0.36 0.34 0.33 0.31 0.34 0.31 0.31 0.34 0.38
0.05 0.03 0.04 0.07 0.12 0.31 0.65 0.93 0.87 0.67 0.47 0.28 0.18 0.14 0.13 0.15 0.17 0.22 0.27 0.25 0.20 0.22 0.32 0.45 0.62 0.76 0.89 0.97 0.92 0.77 0.72 0.67 0.64 0.64 0.58 0.49 0.55 0.53 0.54 0.47 0.39 0.38 0.39 0.39 0.38 0.33 0.32 0.34 0.36
0.05 0.04 0.04 0.05 0.11 0.23 0.48 0.85 0.99 0.80 0.54 0.29 0.21 0.16 0.14 0.14 0.13 0.14 0.17 0.19 0.16 0.17 0.23 0.36 0.51 0.67 0.77 0.84 0.81 0.68 0.72 0.66 0.66 0.65 0.61 0.57 0.53 0.52 0.54 0.48 0.40 0.40 0.40 0.41 0.42 0.37 0.39 0.41 0.44
0.07 0.06 0.06 0.05 0.07 0.13 0.32 0.53 0.49 0.41 0.31 0.23 0.20 0.14 0.12 0.11 0.10 0.11 0.11 0.14 0.14 0.16 0.19 0.25 0.35 0.48 0.57 0.62 0.63 0.62 0.64 0.63 0.63 0.64 0.62 0.59 0.56 0.58 0.54 0.50 0.45 0.41 0.39 0.41 0.46 0.46 0.43 0.43 0.47
0.09 0.09 0.09 0.08 0.07 0.09 0.15 0.32 0.28 0.28 0.25 0.20 0.18 0.13 0.10 0.08 0.08 0.08 0.09 0.11 0.14 0.17 0.18 0.21 0.26 0.31 0.38 0.43 0.46 0.50 0.56 0.58 0.55 0.54 0.58 0.62 0.58 0.55 0.55 0.52 0.47 0.39 0.36 0.42 0.47 0.49 0.45 0.45 0.48

GEFSSGP_prec_meanprecacc_138.txt.gz
Total_Precipitation_Accumulation
0.02 0.06 0.20 0.41 0.95 1.31 1.16 0.71 0.52 0.50 0.55 0.54 0.48 0.44 0.47 0.44 0.58 1.07 0.70 0.39 0.17 0.06 0.04 0.10 0.17 0.15 0.13 0.13 0.14 0.14 0.14 0.14 0.14 0.13 0.10 0.09 0.08 0.08 0.09 0.09 0.11 0.13 0.14 0.16 0.19 0.15 0.15 0.17 0.18
0.03 0.11 0.29 0.80 1.24 1.23 1.09 0.61 0.35 0.44 0.53 0.66 0.65 0.51 0.41 0.41 0.41 0.34 0.31 0.44 0.16 0.08 0.06 0.06 0.13 0.14 0.12 0.11 0.13 0.14 0.13 0.12 0.12 0.11 0.09 0.09 0.09 0.11 0.12 0.12 0.12 0.14 0.15 0.16 0.16 0.14 0.15 0.15 0.18
0.05 0.15 0.35 0.78 0.88 0.81 0.80 0.48 0.36 0.32 0.49 0.73 0.70 0.47 0.46 0.48 0.39 0.27 0.26 0.36 0.18 0.13 0.07 0.07 0.13 0.13 0.12 0.13 0.13 0.13 0.13 0.12 0.11 0.11 0.10 0.10 0.12 0.15 0.16 0.16 0.16 0.16 0.18 0.19 0.17 0.15 0.15 0.15 0.19
0.07 0.20 0.44 0.52 0.36 0.28 0.37 0.42 0.44 0.43 0.63 0.76 0.62 0.52 0.50 0.48 0.42 0.29 0.26 0.37 0.23 0.19 0.12 0.11 0.15 0.16 0.14 0.14 0.12 0.14 0.14 0.13 0.13 0.12 0.12 0.13 0.15 0.17 0.16 0.17 0.19 0.20 0.20 0.19 0.18 0.17 0.17 0.21 0.25
0.06 0.22 0.48 0.37 0.22 0.17 0.20 0.25 0.34 0.51 0.70 0.82 0.69 0.66 0.68 0.47 0.39 0.33 0.26 0.38 0.36 0.28 0.23 0.21 0.22 0.21 0.17 0.15 0.15 0.16 0.16 0.15 0.14 0.12 0.13 0.15 0.17 0.17 0.17 0.17 0.18 0.19 0.22 0.22 0.23 0.24 0.23 0.27 0.31
0.06 0.18 0.33 0.21 0.11 0.11 0.16 0.21 0.36 0.55 0.60 0.68 0.78 0.85 0.80 0.54 0.45 0.39 0.37 0.46 0.49 0.41 0.29 0.34 0.32 0.27 0.22 0.20 0.20 0.19 0.18 0.17 0.17 0.16 0.17 0.19 0.22 0.21 0.20 0.21 0.20 0.19 0.20 0.22 0.26 0.29 0.29 0.31 0.36
0.05 0.10 0.14 0.12 0.07 0.08 0.17 0.28 0.33 0.46 0.55 0.75 0.80 0.83 0.87 0.74 0.59 0.49 0.60 0.84 0.82 0.64 0.46 0.45 0.39 0.32 0.28 0.28 0.29 0.28 0.25 0.23 0.22 0.20 0.20 0.21 0.26 0.26 0.26 0.32 0.29 0.26 0.28 0.28 0.30 0.32 0.41 0.41 0.41
0.03 0.08 0.12 0.10 0.05 0.08 0.16 0.23 0.33 0.45 0.58 0.65 0.76 0.88 0.89 0.78 0.67 0.71 0.89 1.23 1.35 1.20 0.87 0.58 0.50 0.49 0.41 0.35 0.36 0.36 0.30 0.28 0.28 0.28 0.27 0.29 0.34 0.37 0.42 0.43 0.43 0.41 0.43 0.43 0.42 0.40 0.46 0.53 0.53
0.01 0.06 0.10 0.08 0.06 0.10 0.18 0.23 0.29 0.33 0.43 0.65 0.85 1.01 0.90 0.71 0.73 0.92 1.11 1.37 1.54 1.36 1.13 0.90 0.80 0.67 0.59 0.53 0.43 0.47 0.43 0.41 0.41 0.50 0.50 0.55 0.65 0.67 0.73 0.66 0.68 0.67 0.69 0.75 0.77 0.73 0.77 0.80 0.76
0.01 0.03 0.04 0.03 0.03 0.04 0.11 0.20 0.26 0.37 0.62 1.11 1.36 1.23 0.97 0.83 0.92 1.16 1.31 1.30 1.37 1.38 1.27 1.25 1.09 0.96 0.90 0.82 0.80 0.85 0.80 0.80 0.80 0.95 0.97 1.12 1.23 1.05 0.80 0.92 1.08 1.04 1.14 1.22 1.32 1.50 1.38 1.25 1.07
0.00 0.01 0.02 0.02 0.02 0.02 0.05 0.13 0.23 0.41 0.83 1.37 1.60 1.29 1.10 1.04 1.10 1.24 1.54 1.61 1.69 1.68 1.50 1.54 1.40 1.25 1.26 1.27 1.23 1.25 1.31 1.36 1.41 1.43 1.49 1.71 1.65 1.34 1.13 1.27 1.53 1.52 1.57 1.61 1.85 2.06 1.69 1.66 1.68
0.00 0.00 0.00 0.00 0.01 0.01 0.04 0.11 0.29 0.56 0.96 1.25 1.18 1.03 1.03 1.20 1.30 1.45 1.73 2.04 2.10 2.18 2.05 1.82 1.73 1.83 1.78 1.62 1.57 1.43 1.31 1.31 1.39 1.50 1.55 1.86 1.94 1.86 1.77 1.77 1.67 1.83 1.96 2.21 2.21 2.22 2.10 2.10 1.96
0.00 0.00 0.00 0.00 0.01 0.03 0.06 0.13 0.33 0.65 0.87 0.94 0.81 0.85 1.11 1.37 1.48 1.86 2.33 2.46 2.38 2.57 2.70 2.51 2.45 2.35 2.12 2.03 1.68 1.46 1.37 1.24 1.18 1.37 1.54 1.80 1.98 2.04 2.12 1.83 1.73 1.68 1.84 2.09 2.08 1.95 2.06 2.20 2.20
0.00 0.00 0.01 0.01 0.02 0.04 0.07 0.14 0.33 0.57 0.67 0.68 0.76 0.98 1.16 1.51 1.67 2.16 2.74 2.83 2.94 3.15 3.30 3.20 3.14 2.86 2.52 2.22 1.95 1.81 1.56 1.38 1.20 1.29 1.33 1.69 1.99 1.96 1.83 1.82 1.81 1.71 1.82 1.88 1.92 1.97 2.17 2.27 2.37
0.00 0.01 0.06 0.07 0.05 0.06 0.07 0.19 0.40 0.60 0.71 0.67 0.85 1.01 1.34 1.71 1.94 2.31 2.59 2.94 3.35 3.72 3.76 3.67 3.64 3.43 3.21 2.94 2.52 2.12 1.89 1.60 1.51 1.41 1.31 1.58 1.84 1.89 1.84 1.77 1.64 1.67 1.75 1.84 1.88 1.92 2.04 1.95 2.02
0.02 0.05 0.16 0.16 0.10 0.10 0.11 0.39 0.69 0.69 0.69 0.73 0.90 1.23 1.50 1.76 2.15 2.36 2.66 2.96 3.33 3.84 4.19 4.22 3.70 3.58 3.49 3.34 2.97 2.55 2.35 2.16 1.95 1.59 1.40 1.41 1.56 1.64 1.64 1.50 1.47 1.56 1.45 1.46 1.54 1.51 1.57 1.62 1.75
0.05 0.09 0.16 0.25 0.16 0.13 0.24 0.71 1.00 0.76 0.61 0.73 1.01 1.34 1.71 1.89 2.28 2.40 2.54 2.75 3.19 4.02 4.84 4.81 4.26 3.80 3.51 3.37 3.25 3.02 2.71 2.32 1.99 1.69 1.50 1.33 1.24 1.11 1.13 1.09 1.13 1.16 1.15 1.14 1.07 1.26 1.32 1.42 1.53
0.05 0.10 0.22 0.35 0.22 0.20 0.30 0.67 0.70 0.63 0.79 0.78 0.87 1.10 1.42 1.53 1.80 2.07 2.33 2.76 3.49 4.58 5.36 5.28 4.65 4.07 3.68 3.41 3.16 2.94 2.57 2.25 1.89 1.70 1.48 1.19 1.09 0.94 0.88 0.86 0.87 0.82 0.86 0.92 0.95 1.03 1.06 1.08 1.13
0.04 0.09 0.22 0.26 0.20 0.28 0.36 0.56 0.66 0.77 0.95 0.94 0.81 0.85 1.14 1.35 1.61 1.96 2.52 3.31 4.33 5.18 5.45 4.93 4.37 3.92 3.47 3.02 2.41 1.95 1.75 1.61 1.43 1.22 0.97 0.84 0.78 0.79 0.80 0.70 0.68 0.63 0.65 0.66 0.66 0.73 0.77 0.78 0.83
0.06 0.08 0.19 0.26 0.18 0.21 0.35 0.66 0.94 0.91 0.84 0.81 0.83 0.79 0.94 1.32 1.77 2.37 3.34 3.97 4.19 4.24 3.92 3.52 3.19 2.91 2.48 2.06 1.74 1.51 1.38 1.19 1.02 0.91 0.82 0.66 0.60 0.60 0.57 0.58 0.54 0.53 0.56 0.58 0.58 0.59 0.59 0.60 0.64
0.10 0.10 0.18 0.25 0.15 0.16 0.36 0.80 1.06 1.07 0.84 0.70 0.67 0.62 0.87 1.31 1.88 2.67 3.23 3.31 3.00 2.58 2.36 2.33 2.32 1.97 1.82 1.74 1.60 1.49 1.40 1.18 0.96 0.82 0.72 0.57 0.46 0.45 0.46 0.46 0.47 0.50 0.49 0.52 0.55 0.51 0.51 0.51 0.50
0.09 0.06 0.06 0.09 0.15 0.33 0.52 1.02 1.17 0.96 0.89 0.73 0.68 0.65 0.77 1.06 1.37 1.82 2.05 1.90 1.86 1.87 1.89 2.04 2.07 1.76 1.67 1.56 1.29 1.08 0.96 0.87 0.74 0.66 0.65 0.64 0.51 0.42 0.39 0.39 0.38 0.38 0.41 0.50 0.45 0.47 0.49 0.49 0.42
0.04 0.03 0.04 0.11 0.22 0.41 0.60 0.84 0.95 0.74 0.87 0.69 0.55 0.55 0.57 0.75 0.83 0.93 1.03 1.05 1.15 1.24 1.44 1.72 1.88 1.81 1.62 1.43 1.28 1.16 0.98 0.93 0.88 0.83 0.81 0.74 0.64 0.51 0.43 0.44 0.40 0.36 0.33 0.36 0.38 0.48 0.50 0.49 0.42
0.03 0.05 0.12 0.23 0.39 0.89 0.84 0.81 1.01 0.91 0.89 0.67 0.49 0.43 0.47 0.62 0.68 0.71 0.70 0.77 0.88 0.99 1.15 1.38 1.61 1.73 1.68 1.50 1.33 1.22 1.11 1.03 0.93 0.88 0.84 0.72 0.63 0.58 0.50 0.47 0.45 0.40 0.34 0.32 0.31 0.38 0.44 0.50 0.50
0.05 0.07 0.24 0.57 0.98 1.13 0.70 0.78 1.04 0.77 0.67 0.50 0.30 0.26 0.38 0.57 0.68 0.70 0.64 0.56 0.56 0.68 0.83 0.91 1.06 1.28 1.38 1.35 1.21 1.14 1.15 1.00 0.82 0.75 0.70 0.67 0.58 0.50 0.45 0.43 0.43 0.38 0.36 0.36 0.35 0.35 0.39 0.44 0.49
0.05 0.04 0.11 0.22 0.33 0.51 0.66 1.04 1.16 0.81 0.54 0.30 0.18 0.21 0.33 0.46 0.47 0.47 0.43 0.36 0.31 0.37 0.54 0.66 0.83 1.00 1.18 1.17 1.06 0.96 0.97 0.86 0.74 0.77 0.64 0.59 0.56 0.53 0.51 0.46 0.40 0.37 0.38 0.37 0.41 0.37 0.34 0.36 0.40
0.05 0.03 0.04 0.07 0.12 0.31 0.66 0.95 0.90 0.69 0.48 0.30 0.21 0.18 0.18 0.22 0.25 0.30 0.32 0.30 0.26 0.28 0.38 0.52 0.71 0.87 1.03 1.12 1.07 0.94 0.89 0.81 0.75 0.74 0.68 0.57 0.62 0.60 0.63 0.53 0.43 0.44 0.46 0.47 0.47 0.41 0.39 0.39 0.39
0.05 0.04 0.04 0.05 0.11 0.23 0.49 0.87 1.03 0.85 0.57 0.33 0.26 0.21 0.19 0.22 0.21 0.23 0.23 0.25 0.22 0.22 0.28 0.40 0.56 0.75 0.86 0.96 0.94 0.85 0.94 0.85 0.80 0.76 0.71 0.65 0.60 0.59 0.63 0.57 0.47 0.48 0.49 0.50 0.52 0.46 0.48 0.50 0.51
0.07 0.06 0.06 0.05 0.08 0.14 0.33 0.54 0.50 0.44 0.35 0.28 0.29 0.25 0.17 0.17 0.14 0.15 0.17 0.20 0.20 0.19 0.21 0.26 0.37 0.52 0.64 0.69 0.72 0.73 0.80 0.80 0.79 0.78 0.74 0.69 0.64 0.65 0.62 0.58 0.53 0.50 0.49 0.51 0.54 0.55 0.54 0.53 0.57
0.09 0.09 0.09 0.08 0.08 0.09 0.16 0.33 0.29 0.30 0.29 0.25 0.30 0.24 0.16 0.14 0.11 0.11 0.13 0.17 0.18 0.19 0.19 0.22 0.27 0.34 0.45 0.48 0.51 0.55 0.64 0.68 0.67 0.65 0.69 0.73 0.68 0.65 0.64 0.62 0.57 0.49 0.47 0.53 0.57 0.58 0.58 0.59 0.59

GEFSSGP_prec_meanprecacc_144.txt.gz
Total_Precipitation_Accumulation
0.02 0.06 0.21 0.41 0.96 1.31 1.17 0.72 0.53 0.50 0.55 0.54 0.48 0.44 0.48 0.44 0.58 1.07 0.70 0.39 0.17 0.06 0.04 0.11 0.19 0.16 0.14 0.13 0.14 0.14 0.14 0.14 0.14 0.13 0.10 0.09 0.09 0.09 0.10 0.11 0.13 0.15 0.16 0.18 0.21 0.18 0.19 0.22 0.23
0.03 0.11 0.30 0.80 1.25 1.24 1.11 0.62 0.35 0.44 0.53 0.66 0.65 0.51 0.41 0.42 0.41 0.34 0.31 0.44 0.16 0.09 0.06 0.06 0.15 0.16 0.13 0.12 0.13 0.14 0.14 0.12 0.12 0.11 0.10 0.09 0.10 0.12 0.14 0.14 0.14 0.17 0.18 0.19 0.20 0.17 0.19 0.19 0.25
0.05 0.16 0.36 0.79 0.89 0.82 0.82 0.49 0.37 0.32 0.50 0.73 0.70 0.47 0.46 0.49 0.40 0.27 0.27 0.36 0.19 0.14 0.08 0.08 0.15 0.14 0.13 0.13 0.13 0.13 0.13 0.12 0.11 0.12 0.11 0.11 0.13 0.17 0.19 0.18 0.18 0.18 0.20 0.22 0.21 0.19 0.19 0.20 0.25
0.07 0.21 0.45 0.53 0.37 0.29 0.39 0.43 0.45 0.44 0.63 0.76 0.62 0.52 0.50 0.48 0.43 0.30 0.26 0.37 0.24 0.21 0.14 0.13 0.18 0.17 0.15 0.14 0.13 0.14 0.15 0.13 0.13 0.13 0.13 0.14 0.17 0.19 0.19 0.19 0.22 0.22 0.23 0.23 0.22 0.21 0.21 0.25 0.31
0.06 0.23 0.49 0.38 0.23 0.18 0.21 0.26 0.35 0.51 0.70 0.82 0.69 0.66 0.68 0.47 0.40 0.33 0.26 0.38 0.37 0.29 0.24 0.23 0.25 0.23 0.18 0.16 0.16 0.17 0.16 0.16 0.14 0.13 0.14 0.17 0.19 0.19 0.19 0.20 0.21 0.21 0.25 0.26 0.27 0.27 0.27 0.32 0.38
0.06 0.18 0.34 0.22 0.13 0.13 0.17 0.22 0.37 0.56 0.60 0.69 0.78 0.85 0.80 0.54 0.46 0.39 0.37 0.47 0.49 0.41 0.30 0.35 0.34 0.30 0.24 0.21 0.21 0.21 0.20 0.18 0.17 0.17 0.18 0.21 0.23 0.23 0.22 0.23 0.22 0.20 0.22 0.25 0.30 0.33 0.33 0.36 0.41
0.05 0.11 0.15 0.13 0.08 0.11 0.18 0.29 0.34 0.47 0.55 0.76 0.80 0.83 0.87 0.75 0.60 0.49 0.60 0.84 0.82 0.64 0.46 0.46 0.41 0.36 0.31 0.30 0.31 0.30 0.27 0.24 0.23 0.22 0.22 0.22 0.27 0.27 0.28 0.34 0.31 0.28 0.30 0.31 0.34 0.37 0.46 0.45 0.46
0.03 0.09 0.12 0.10 0.05 0.09 0.16 0.24 0.34 0.48 0.59 0.66 0.76 0.88 0.90 0.78 0.68 0.71 0.90 1.24 1.36 1.21 0.88 0.59 0.53 0.53 0.45 0.37 0.38 0.38 0.32 0.29 0.29 0.29 0.29 0.31 0.36 0.39 0.44 0.45 0.45 0.44 0.46 0.45 0.45 0.44 0.49 0.56 0.58
0.01 0.06 0.10 0.08 0.06 0.10 0.18 0.23 0.29 0.35 0.44 0.66 0.86 1.01 0.90 0.71 0.73 0.92 1.12 1.38 1.54 1.37 1.14 0.92 0.84 0.71 0.62 0.55 0.45 0.49 0.45 0.42 0.43 0.52 0.53 0.57 0.66 0.68 0.74 0.67 0.69 0.69 0.71 0.77 0.80 0.77 0.79 0.83 0.81
0.01 0.04 0.04 0.03 0.04 0.04 0.11 0.20 0.26 0.37 0.62 1.11 1.36 1.23 0.97 0.83 0.93 1.17 1.33 1.31 1.37 1.39 1.28 1.27 1.11 0.98 0.92 0.84 0.82 0.87 0.81 0.82 0.81 0.96 0.98 1.12 1.24 1.06 0.80 0.93 1.10 1.05 1.16 1.25 1.35 1.54 1.42 1.26 1.09
0.00 0.01 0.02 0.02 0.02 0.02 0.05 0.13 0.23 0.42 0.83 1.37 1.60 1.29 1.10 1.04 1.12 1.26 1.56 1.63 1.69 1.68 1.51 1.55 1.42 1.27 1.28 1.30 1.25 1.27 1.33 1.38 1.42 1.43 1.49 1.72 1.65 1.34 1.13 1.28 1.54 1.54 1.58 1.62 1.87 2.08 1.70 1.68 1.70
0.00 0.00 0.00 0.00 0.01 0.01 0.04 0.11 0.29 0.56 0.96 1.25 1.18 1.03 1.03 1.20 1.32 1.49 1.77 2.07 2.12 2.19 2.06 1.83 1.75 1.85 1.81 1.65 1.60 1.46 1.33 1.32 1.40 1.50 1.55 1.86 1.94 1.86 1.77 1.78 1.67 1.84 1.97 2.21 2.22 2.23 2.12 2.12 1.99
0.00 0.00 0.00 0.00 0.01 0.03 0.06 0.13 0.33 0.66 0.87 0.94 0.82 0.85 1.11 1.37 1.53 1.93 2.36 2.49 2.41 2.59 2.72 2.54 2.47 2.38 2.14 2.06 1.71 1.49 1.38 1.24 1.19 1.37 1.54 1.80 1.98 2.04 2.12 1.84 1.73 1.68 1.84 2.09 2.09 1.97 2.08 2.22 2.23
0.00 0.00 0.01 0.01 0.02 0.04 0.07 0.14 0.33 0.57 0.67 0.68 0.76 0.98 1.17 1.54 1.74 2.24 2.79 2.87 2.97 3.18 3.32 3.23 3.17 2.90 2.56 2.27 1.98 1.84 1.57 1.39 1.22 1.31 1.34 1.70 2.00 1.97 1.84 1.82 1.81 1.72 1.82 1.88 1.93 1.99 2.19 2.30 2.40
0.00 0.01 0.06 0.07 0.05 0.06 0.07 0.19 0.40 0.60 0.71 0.67 0.85 1.01 1.35 1.76 2.01 2.35 2.61 2.98 3.38 3.74 3.79 3.71 3.68 3.47 3.26 2.98 2.55 2.14 1.92 1.62 1.54 1.44 1.34 1.60 1.86 1.91 1.87 1.78 1.64 1.68 1.76 1.85 1.89 1.95 2.06 1.98 2.06
0.02 0.05 0.16 0.16 0.10 0.10 0.11 0.39 0.69 0.69 0.69 0.74 0.90 1.24 1.50 1.78 2.17 2.38 2.70 3.00 3.38 3.89 4.24 4.27 3.74 3.62 3.53 3.39 3.03 2.60 2.43 2.23 2.01 1.64 1.43 1.44 1.59 1.66 1.67 1.53 1.48 1.57 1.47 1.48 1.56 1.53 1.59 1.65 1.79
0.05 0.09 0.16 0.25 0.16 0.13 0.24 0.71 1.00 0.76 0.61 0.73 1.01 1.35 1.71 1.90 2.30 2.43 2.61 2.84 3.27 4.10 4.91 4.88 4.32 3.88 3.57 3.44 3.34 3.10 2.81 2.41 2.05 1.75 1.56 1.37 1.28 1.15 1.18 1.14 1.17 1.20 1.17 1.17 1.10 1.29 1.35 1.45 1.56
0.05 0.10 0.22 0.35 0.22 0.20 0.30 0.67 0.70 0.63 0.79 0.78 0.87 1.11 1.43 1.55 1.82 2.08 2.37 2.84 3.59 4.67 5.46 5.38 4.73 4.18 3.79 3.51 3.26 3.06 2.72 2.38 1.99 1.77 1.56 1.26 1.15 1.00 0.94 0.91 0.91 0.86 0.89 0.95 0.98 1.07 1.09 1.11 1.18
0.04 0.09 0.22 0.26 0.20 0.28 0.36 0.56 0.66 0.77 0.95 0.95 0.82 0.86 1.15 1.36 1.63 1.99 2.56 3.40 4.43 5.30 5.58 5.04 4.46 4.04 3.60 3.13 2.51 2.09 1.91 1.77 1.55 1.34 1.07 0.91 0.84 0.85 0.85 0.75 0.73 0.67 0.68 0.70 0.70 0.78 0.81 0.80 0.86
0.06 0.08 0.19 0.26 0.18 0.21 0.35 0.66 0.94 0.91 0.84 0.82 0.84 0.80 0.96 1.34 1.79 2.42 3.40 4.04 4.29 4.38 4.07 3.68 3.32 3.05 2.61 2.17 1.84 1.62 1.51 1.33 1.13 1.03 0.93 0.74 0.65 0.65 0.62 0.63 0.59 0.57 0.60 0.63 0.63 0.63 0.63 0.63 0.68
0.10 0.10 0.18 0.25 0.15 0.16 0.36 0.80 1.06 1.07 0.85 0.72 0.69 0.63 0.89 1.34 1.92 2.71 3.27 3.39 3.12 2.78 2.61 2.56 2.52 2.17 1.99 1.88 1.74 1.65 1.55 1.34 1.09 0.91 0.79 0.63 0.51 0.49 0.50 0.50 0.51 0.54 0.54 0.57 0.58 0.53 0.53 0.54 0.53
0.09 0.06 0.06 0.09 0.15 0.33 0.52 1.02 1.17 0.96 0.90 0.74 0.70 0.67 0.80 1.10 1.40 1.85 2.10 1.99 2.07 2.18 2.15 2.23 2.26 1.97 1.87 1.76 1.44 1.20 1.06 0.97 0.82 0.73 0.72 0.71 0.56 0.46 0.44 0.42 0.41 0.43 0.45 0.54 0.48 0.49 0.51 0.52 0.45
0.04 0.03 0.04 0.11 0.22 0.41 0.60 0.84 0.95 0.75 0.88 0.70 0.57 0.58 0.60 0.78 0.86 0.96 1.09 1.21 1.36 1.47 1.61 1.86 2.03 1.98 1.79 1.59 1.43 1.28 1.08 1.02 0.98 0.92 0.88 0.81 0.71 0.58 0.49 0.49 0.44 0.40 0.38 0.40 0.41 0.51 0.53 0.51 0.45
0.03 0.05 0.12 0.23 0.39 0.89 0.84 0.81 1.01 0.91 0.89 0.67 0.50 0.44 0.49 0.65 0.71 0.75 0.79 0.89 1.00 1.12 1.25 1.50 1.75 1.86 1.79 1.63 1.46 1.33 1.21 1.13 1.03 0.97 0.92 0.79 0.71 0.66 0.56 0.52 0.50 0.44 0.39 0.35 0.35 0.44 0.49 0.54 0.53
0.05 0.07 0.24 0.57 0.98 1.13 0.70 0.78 1.04 0.77 0.67 0.50 0.30 0.27 0.40 0.59 0.72 0.75 0.70 0.64 0.66 0.79 0.94 1.02 1.17 1.39 1.49 1.46 1.36 1.27 1.28 1.13 0.93 0.84 0.77 0.75 0.65 0.56 0.51 0.49 0.47 0.41 0.39 0.40 0.40 0.40 0.42 0.47 0.51
0.05 0.04 0.11 0.22 0.33 0.51 0.66 1.04 1.16 0.81 0.54 0.30 0.18 0.22 0.35 0.48 0.50 0.51 0.50 0.44 0.40 0.50 0.70 0.77 0.92 1.08 1.27 1.27 1.18 1.10 1.12 1.02 0.88 0.88 0.74 0.67 0.64 0.59 0.59 0.53 0.45 0.42 0.43 0.42 0.46 0.40 0.37 0.40 0.43
0.05 0.03 0.04 0.07 0.12 0.31 0.66 0.95 0.90 0.69 0.49 0.30 0.22 0.20 0.20 0.24 0.30 0.36 0.38 0.38 0.35 0.38 0.53 0.63 0.78 0.94 1.12 1.23 1.19 1.07 1.04 0.98 0.92 0.88 0.80 0.67 0.70 0.68 0.71 0.61 0.50 0.50 0.52 0.52 0.52 0.45 0.43 0.43 0.42
0.05 0.04 0.04 0.05 0.11 0.23 0.49 0.87 1.03 0.85 0.57 0.33 0.27 0.22 0.21 0.24 0.23 0.29 0.33 0.33 0.31 0.29 0.33 0.45 0.61 0.81 0.94 1.05 1.03 0.93 1.06 1.01 0.97 0.90 0.82 0.73 0.69 0.69 0.73 0.66 0.55 0.55 0.55 0.56 0.57 0.51 0.53 0.54 0.54
0.07 0.06 0.06 0.05 0.08 0.14 0.33 0.54 0.50 0.44 0.35 0.29 0.30 0.27 0.19 0.19 0.16 0.17 0.21 0.25 0.26 0.24 0.25 0.30 0.41 0.56 0.67 0.75 0.82 0.79 0.86 0.88 0.86 0.87 0.86 0.81 0.76 0.75 0.71 0.67 0.62 0.57 0.55 0.58 0.61 0.60 0.60 0.57 0.60
0.09 0.09 0.09 0.08 0.08 0.09 0.16 0.33 0.29 0.30 0.29 0.25 0.31 0.26 0.19 0.17 0.13 0.14 0.17 0.21 0.24 0.24 0.23 0.26 0.31 0.37 0.47 0.52 0.61 0.65 0.69 0.74 0.73 0.73 0.81 0.86 0.81 0.76 0.74 0.71 0.65 0.56 0.53 0.60 0.65 0.65 0.65 0.65 0.65

GEFSSGP_prec_meanprecacc_150.txt.gz
Total_Precipitation_Accumulation
0.02 0.06 0.21 0.41 0.96 1.31 1.17 0.72 0.53 0.50 0.55 0.54 0.48 0.44 0.48 0.45 0.58 1.08 0.70 0.39 0.17 0.06 0.04 0.11 0.20 0.17 0.15 0.14 0.15 0.15 0.14 0.14 0.14 0.14 0.11 0.11 0.11 0.11 0.12 0.14 0.16 0.19 0.19 0.22 0.25 0.22 0.22 0.26 0.28
0.03 0.11 0.30 0.80 1.25 1.24 1.11 0.62 0.35 0.44 0.53 0.66 0.65 0.51 0.41 0.42 0.41 0.34 0.31 0.44 0.16 0.09 0.06 0.07 0.16 0.16 0.13 0.12 0.14 0.14 0.14 0.13 0.12 0.13 0.11 0.11 0.12 0.15 0.17 0.18 0.18 0.19 0.21 0.22 0.23 0.21 0.22 0.23 0.30
0.05 0.16 0.36 0.79 0.89 0.82 0.82 0.49 0.37 0.32 0.50 0.73 0.70 0.47 0.46 0.49 0.40 0.28 0.27 0.36 0.20 0.15 0.08 0.09 0.16 0.15 0.13 0.14 0.14 0.13 0.14 0.12 0.12 0.12 0.12 0.13 0.16 0.20 0.23 0.22 0.22 0.22 0.25 0.27 0.27 0.23 0.23 0.24 0.29
0.07 0.21 0.45 0.53 0.37 0.29 0.39 0.43 0.45 0.44 0.63 0.76 0.62 0.52 0.50 0.48 0.43 0.30 0.26 0.37 0.24 0.21 0.14 0.14 0.20 0.19 0.16 0.15 0.13 0.15 0.16 0.14 0.14 0.13 0.14 0.16 0.19 0.24 0.25 0.24 0.26 0.27 0.28 0.27 0.26 0.27 0.27 0.30 0.34
0.06 0.23 0.49 0.38 0.23 0.18 0.21 0.26 0.35 0.51 0.70 0.82 0.69 0.66 0.68 0.48 0.40 0.33 0.27 0.39 0.37 0.29 0.24 0.23 0.27 0.26 0.21 0.17 0.17 0.18 0.18 0.17 0.16 0.14 0.15 0.19 0.22 0.23 0.24 0.24 0.25 0.25 0.29 0.31 0.32 0.34 0.34 0.38 0.43
0.06 0.18 0.34 0.22 0.13 0.13 0.17 0.22 0.37 0.56 0.60 0.69 0.78 0.85 0.80 0.54 0.46 0.39 0.38 0.47 0.49 0.41 0.30 0.36 0.36 0.34 0.28 0.23 0.23 0.24 0.21 0.20 0.19 0.18 0.20 0.23 0.26 0.26 0.26 0.28 0.25 0.23 0.25 0.29 0.35 0.41 0.41 0.42 0.47
0.05 0.11 0.15 0.13 0.09 0.11 0.18 0.29 0.34 0.47 0.55 0.76 0.80 0.83 0.88 0.75 0.60 0.49 0.62 0.85 0.82 0.64 0.47 0.47 0.44 0.39 0.35 0.35 0.34 0.33 0.30 0.27 0.25 0.24 0.24 0.25 0.29 0.31 0.32 0.39 0.34 0.30 0.33 0.34 0.41 0.46 0.54 0.50 0.50
0.03 0.09 0.12 0.10 0.05 0.09 0.16 0.24 0.34 0.48 0.59 0.66 0.76 0.88 0.90 0.78 0.68 0.72 0.92 1.26 1.38 1.24 0.90 0.62 0.56 0.57 0.48 0.42 0.42 0.43 0.36 0.32 0.32 0.32 0.32 0.35 0.39 0.44 0.47 0.48 0.48 0.46 0.49 0.50 0.53 0.53 0.54 0.60 0.63
0.01 0.06 0.10 0.08 0.06 0.10 0.18 0.23 0.29 0.35 0.44 0.66 0.86 1.01 0.90 0.71 0.73 0.93 1.13 1.40 1.57 1.40 1.18 0.95 0.86 0.74 0.66 0.59 0.50 0.55 0.48 0.45 0.46 0.55 0.56 0.61 0.72 0.73 0.77 0.69 0.72 0.72 0.74 0.82 0.86 0.83 0.83 0.87 0.85
0.01 0.04 0.04 0.04 0.04 0.04 0.11 0.20 0.26 0.37 0.62 1.11 1.36 1.23 0.97 0.83 0.93 1.18 1.34 1.32 1.39 1.40 1.30 1.29 1.13 0.99 0.94 0.87 0.88 0.94 0.86 0.86 0.85 1.00 1.01 1.16 1.29 1.12 0.83 0.96 1.15 1.09 1.20 1.30 1.41 1.60 1.46 1.29 1.12
0.00 0.01 0.02 0.02 0.02 0.02 0.05 0.13 0.23 0.42 0.83 1.37 1.60 1.29 1.10 1.05 1.13 1.27 1.57 1.63 1.71 1.69 1.52 1.56 1.43 1.28 1.30 1.33 1.30 1.33 1.39 1.44 1.47 1.47 1.52 1.75 1.67 1.36 1.15 1.32 1.60 1.59 1.62 1.66 1.90 2.10 1.72 1.70 1.73
0.00 0.00 0.00 0.00 0.01 0.01 0.04 0.11 0.29 0.56 0.96 1.25 1.18 1.03 1.03 1.21 1.33 1.51 1.79 2.08 2.14 2.20 2.07 1.84 1.76 1.87 1.83 1.69 1.64 1.50 1.36 1.35 1.43 1.53 1.56 1.87 1.96 1.88 1.79 1.82 1.72 1.88 2.02 2.26 2.25 2.27 2.15 2.14 1.99
0.00 0.00 0.00 0.00 0.01 0.03 0.06 0.13 0.33 0.66 0.87 0.94 0.82 0.85 1.11 1.38 1.55 1.98 2.41 2.50 2.43 2.62 2.75 2.56 2.49 2.41 2.17 2.09 1.74 1.51 1.40 1.25 1.21 1.40 1.55 1.81 1.99 2.06 2.14 1.87 1.78 1.71 1.87 2.12 2.12 2.00 2.11 2.24 2.25
0.00 0.00 0.01 0.01 0.02 0.04 0.07 0.14 0.33 0.57 0.67 0.68 0.76 0.98 1.18 1.56 1.79 2.30 2.82 2.87 2.98 3.21 3.35 3.24 3.19 2.93 2.59 2.29 2.01 1.86 1.60 1.42 1.25 1.34 1.36 1.71 2.02 1.99 1.86 1.84 1.85 1.76 1.87 1.92 1.96 2.02 2.22 2.34 2.45
0.00 0.01 0.06 0.07 0.05 0.06 0.07 0.19 0.41 0.60 0.71 0.67 0.85 1.01 1.37 1.80 2.06 2.38 2.62 2.99 3.40 3.77 3.82 3.73 3.70 3.50 3.30 3.02 2.59 2.17 1.95 1.65 1.57 1.47 1.36 1.62 1.87 1.94 1.90 1.82 1.68 1.72 1.80 1.89 1.94 2.00 2.12 2.03 2.11
0.02 0.05 0.16 0.16 0.10 0.10 0.11 0.39 0.70 0.69 0.69 0.74 0.90 1.24 1.51 1.79 2.18 2.40 2.71 3.02 3.41 3.92 4.28 4.29 3.76 3.66 3.58 3.43 3.07 2.63 2.45 2.26 2.04 1.67 1.46 1.46 1.60 1.69 1.71 1.57 1.54 1.63 1.52 1.54 1.63 1.59 1.66 1.72 1.86
0.05 0.09 0.16 0.25 0.16 0.13 0.24 0.71 1.00 0.76 0.61 0.73 1.02 1.35 1.72 1.91 2.31 2.44 2.63 2.88 3.32 4.17 5.00 4.96 4.36 3.93 3.62 3.48 3.38 3.15 2.86 2.46 2.11 1.79 1.60 1.41 1.32 1.19 1.23 1.20 1.25 1.27 1.24 1.24 1.15 1.35 1.42 1.53 1.63
0.05 0.10 0.22 0.35 0.22 0.20 0.30 0.67 0.70 0.63 0.79 0.78 0.87 1.11 1.44 1.55 1.83 2.09 2.38 2.90 3.68 4.80 5.58 5.45 4.77 4.23 3.83 3.56 3.31 3.12 2.77 2.44 2.06 1.84 1.63 1.33 1.21 1.04 0.98 0.96 0.98 0.92 0.97 1.04 1.08 1.16 1.18 1.18 1.26
0.04 0.09 0.22 0.26 0.20 0.28 0.36 0.56 0.66 0.77 0.95 0.95 0.82 0.86 1.16 1.37 1.63 1.99 2.57 3.44 4.51 5.39 5.66 5.11 4.53 4.11 3.66 3.18 2.57 2.15 1.97 1.84 1.66 1.44 1.15 0.99 0.89 0.89 0.89 0.79 0.78 0.74 0.76 0.79 0.80 0.87 0.89 0.88 0.95
0.06 0.08 0.19 0.26 0.18 0.21 0.35 0.66 0.94 0.91 0.84 0.82 0.84 0.81 0.96 1.35 1.80 2.42 3.41 4.06 4.33 4.44 4.16 3.78 3.45 3.19 2.72 2.25 1.91 1.69 1.59 1.43 1.24 1.14 1.02 0.82 0.72 0.70 0.66 0.67 0.64 0.63 0.68 0.72 0.71 0.71 0.72 0.71 0.76
0.10 0.10 0.18 0.25 0.15 0.16 0.36 0.80 1.06 1.07 0.85 0.72 0.69 0.64 0.89 1.34 1.92 2.72 3.29 3.41 3.15 2.84 2.73 2.65 2.62 2.31 2.13 2.00 1.84 1.73 1.64 1.43 1.18 1.00 0.87 0.71 0.60 0.55 0.54 0.55 0.57 0.60 0.59 0.64 0.67 0.61 0.64 0.65 0.62
0.09 0.06 0.06 0.09 0.15 0.33 0.52 1.02 1.17 0.96 0.90 0.74 0.70 0.67 0.80 1.10 1.41 1.86 2.12 2.02 2.10 2.23 2.25 2.30 2.33 2.04 1.99 1.88 1.52 1.31 1.18 1.06 0.90 0.81 0.80 0.81 0.66 0.53 0.48 0.49 0.47 0.49 0.50 0.61 0.55 0.55 0.59 0.62 0.54
0.04 0.03 0.04 0.11 0.22 0.41 0.60 0.84 0.95 0.75 0.88 0.70 0.57 0.58 0.60 0.79 0.86 0.97 1.10 1.23 1.39 1.50 1.66 1.91 2.09 2.03 1.87 1.66 1.48 1.37 1.17 1.12 1.07 1.01 0.97 0.92 0.81 0.66 0.54 0.54 0.50 0.46 0.43 0.48 0.49 0.58 0.60 0.58 0.53
0.03 0.05 0.12 0.23 0.39 0.89 0.84 0.81 1.01 0.91 0.89 0.67 0.50 0.44 0.49 0.65 0.72 0.76 0.79 0.91 1.02 1.13 1.27 1.53 1.79 1.90 1.85 1.68 1.52 1.40 1.31 1.23 1.14 1.06 1.01 0.89 0.81 0.76 0.65 0.59 0.56 0.50 0.44 0.41 0.44 0.53 0.56 0.61 0.61
0.05 0.07 0.24 0.57 0.98 1.13 0.70 0.78 1.04 0.77 0.67 0.50 0.30 0.27 0.40 0.59 0.72 0.76 0.71 0.65 0.68 0.81 0.97 1.06 1.22 1.44 1.54 1.51 1.42 1.34 1.37 1.23 1.02 0.92 0.87 0.86 0.76 0.67 0.60 0.55 0.53 0.47 0.45 0.47 0.50 0.49 0.49 0.53 0.59
0.05 0.04 0.11 0.22 0.33 0.51 0.66 1.04 1.16 0.81 0.54 0.30 0.18 0.22 0.35 0.49 0.51 0.54 0.54 0.47 0.44 0.54 0.75 0.84 0.99 1.14 1.31 1.30 1.22 1.16 1.19 1.10 0.96 0.96 0.81 0.76 0.73 0.67 0.67 0.63 0.53 0.50 0.51 0.49 0.54 0.48 0.45 0.48 0.50
0.05 0.03 0.04 0.07 0.12 0.31 0.66 0.95 0.90 0.69 0.49 0.30 0.22 0.20 0.20 0.24 0.30 0.38 0.42 0.42 0.39 0.42 0.60 0.71 0.84 1.00 1.17 1.26 1.23 1.12 1.11 1.05 1.00 0.96 0.88 0.75 0.79 0.77 0.80 0.70 0.59 0.59 0.61 0.61 0.62 0.54 0.52 0.52 0.50
0.05 0.04 0.04 0.05 0.11 0.23 0.49 0.87 1.03 0.85 0.57 0.33 0.27 0.22 0.22 0.24 0.24 0.29 0.35 0.35 0.34 0.32 0.38 0.50 0.66 0.85 0.97 1.10 1.07 0.98 1.10 1.07 1.06 1.02 0.92 0.82 0.78 0.76 0.79 0.72 0.64 0.64 0.63 0.65 0.69 0.61 0.62 0.62 0.61
0.07 0.06 0.06 0.05 0.08 0.14 0.33 0.54 0.50 0.44 0.35 0.29 0.30 0.27 0.19 0.19 0.16 0.17 0.22 0.26 0.27 0.26 0.27 0.32 0.44 0.60 0.71 0.78 0.85 0.82 0.90 0.93 0.92 0.95 0.94 0.90 0.83 0.81 0.76 0.73 0.70 0.67 0.66 0.69 0.73 0.73 0.71 0.67 0.70
0.09 0.09 0.09 0.08 0.08 0.09 0.16 0.33 0.29 0.30 0.29 0.25 0.31 0.26 0.19 0.17 0.14 0.14 0.17 0.22 0.25 0.25 0.24 0.27 0.33 0.39 0.49 0.54 0.63 0.68 0.72 0.77 0.76 0.77 0.85 0.90 0.86 0.82 0.80 0.78 0.74 0.65 0.63 0.72 0.77 0.76 0.76 0.76 0.74

GEFSSGP_prec_meanprecacc_156.txt.gz
Total_Precipitation_Accumulation
0.02 0.06 0.21 0.41 0.97 1.32 1.17 0.72 0.53 0.50 0.55 0.54 0.48 0.44 0.48 0.45 0.63 1.12 0.71 0.39 0.17 0.06 0.04 0.12 0.21 0.18 0.16 0.16 0.17 0.17 0.17 0.17 0.18 0.17 0.15 0.15 0.14 0.14 0.15 0.17 0.19 0.22 0.24 0.26 0.28 0.26 0.25 0.30 0.32
0.04 0.11 0.30 0.82 1.27 1.25 1.11 0.62 0.35 0.44 0.53 0.66 0.65 0.51 0.41 0.42 0.41 0.34 0.31 0.45 0.16 0.09 0.06 0.07 0.16 0.17 0.14 0.14 0.15 0.16 0.16 0.15 0.15 0.15 0.15 0.15 0.16 0.20 0.21 0.23 0.22 0.23 0.25 0.26 0.25 0.24 0.25 0.26 0.32
0.05 0.16 0.36 0.81 0.90 0.82 0.82 0.49 0.37 0.33 0.50 0.73 0.70 0.47 0.46 0.49 0.40 0.28 0.28 0.36 0.20 0.15 0.08 0.09 0.16 0.16 0.14 0.14 0.15 0.16 0.17 0.15 0.14 0.15 0.16 0.17 0.21 0.26 0.28 0.27 0.26 0.26 0.30 0.32 0.30 0.26 0.26 0.25 0.30
0.07 0.21 0.45 0.53 0.37 0.29 0.39 0.43 0.45 0.44 0.63 0.76 0.62 0.52 0.50 0.48 0.44 0.31 0.26 0.37 0.24 0.21 0.14 0.14 0.20 0.19 0.16 0.16 0.14 0.17 0.18 0.16 0.16 0.16 0.17 0.21 0.25 0.30 0.29 0.28 0.31 0.32 0.32 0.30 0.30 0.31 0.30 0.31 0.36
0.07 0.24 0.50 0.39 0.23 0.18 0.21 0.26 0.35 0.51 0.70 0.82 0.69 0.66 0.68 0.48 0.40 0.35 0.28 0.39 0.37 0.29 0.25 0.23 0.28 0.27 0.22 0.19 0.20 0.21 0.21 0.19 0.18 0.17 0.18 0.23 0.26 0.28 0.27 0.28 0.30 0.28 0.32 0.34 0.36 0.38 0.38 0.40 0.45
0.07 0.19 0.35 0.23 0.14 0.13 0.17 0.22 0.37 0.56 0.61 0.69 0.78 0.85 0.80 0.55 0.47 0.41 0.39 0.48 0.49 0.41 0.31 0.36 0.37 0.35 0.30 0.26 0.27 0.27 0.25 0.24 0.22 0.21 0.24 0.26 0.29 0.29 0.30 0.33 0.30 0.26 0.27 0.32 0.38 0.45 0.45 0.44 0.49
0.06 0.12 0.15 0.13 0.09 0.11 0.18 0.29 0.34 0.47 0.55 0.76 0.80 0.84 0.88 0.76 0.61 0.51 0.63 0.86 0.83 0.65 0.47 0.48 0.44 0.39 0.37 0.37 0.37 0.37 0.35 0.32 0.29 0.28 0.29 0.30 0.33 0.33 0.35 0.43 0.39 0.33 0.35 0.38 0.45 0.51 0.57 0.52 0.52
0.03 0.09 0.12 0.11 0.06 0.10 0.17 0.24 0.34 0.48 0.59 0.66 0.76 0.88 0.90 0.79 0.68 0.73 0.94 1.27 1.39 1.24 0.91 0.62 0.56 0.57 0.49 0.42 0.44 0.46 0.40 0.36 0.35 0.35 0.35 0.39 0.43 0.47 0.49 0.50 0.51 0.48 0.52 0.53 0.57 0.57 0.56 0.61 0.65
0.01 0.07 0.11 0.08 0.06 0.10 0.18 0.23 0.29 0.35 0.44 0.66 0.86 1.01 0.90 0.71 0.74 0.94 1.14 1.41 1.58 1.41 1.19 0.96 0.87 0.75 0.67 0.60 0.51 0.58 0.52 0.49 0.50 0.59 0.59 0.69 0.87 0.84 0.83 0.72 0.74 0.74 0.78 0.86 0.90 0.86 0.86 0.89 0.87
0.01 0.04 0.05 0.04 0.04 0.04 0.11 0.20 0.26 0.38 0.64 1.12 1.36 1.23 0.97 0.84 0.94 1.19 1.35 1.33 1.40 1.41 1.31 1.31 1.14 1.01 0.96 0.89 0.92 1.01 0.94 0.92 0.94 1.09 1.11 1.34 1.50 1.32 0.95 1.00 1.17 1.12 1.23 1.33 1.45 1.64 1.48 1.33 1.14
0.00 0.02 0.02 0.02 0.02 0.02 0.05 0.13 0.23 0.42 0.86 1.39 1.60 1.29 1.10 1.06 1.15 1.30 1.59 1.66 1.72 1.70 1.53 1.58 1.45 1.31 1.33 1.39 1.37 1.41 1.50 1.56 1.61 1.61 1.66 1.92 1.79 1.44 1.24 1.37 1.63 1.63 1.66 1.71 1.93 2.13 1.76 1.75 1.77
0.00 0.00 0.00 0.00 0.01 0.01 0.04 0.11 0.29 0.56 0.97 1.26 1.18 1.03 1.03 1.23 1.38 1.55 1.82 2.11 2.16 2.21 2.08 1.86 1.78 1.89 1.86 1.74 1.70 1.57 1.43 1.42 1.54 1.65 1.65 1.99 2.12 1.99 1.89 1.92 1.81 1.95 2.10 2.35 2.30 2.32 2.20 2.18 2.03
0.00 0.00 0.00 0.00 0.01 0.03 0.06 0.14 0.33 0.66 0.87 0.94 0.82 0.85 1.12 1.39 1.60 2.04 2.45 2.53 2.46 2.63 2.76 2.58 2.51 2.44 2.20 2.14 1.78 1.55 1.46 1.33 1.27 1.47 1.62 1.86 2.09 2.16 2.23 1.96 1.87 1.79 1.93 2.17 2.17 2.03 2.15 2.28 2.27
0.00 0.00 0.01 0.01 0.02 0.04 0.09 0.19 0.34 0.57 0.67 0.68 0.76 0.99 1.19 1.57 1.83 2.36 2.85 2.90 3.00 3.22 3.36 3.26 3.22 2.96 2.62 2.32 2.05 1.92 1.65 1.48 1.29 1.37 1.39 1.75 2.07 2.06 1.93 1.90 1.92 1.84 1.94 1.99 2.00 2.05 2.25 2.37 2.48
0.00 0.01 0.06 0.07 0.05 0.07 0.10 0.27 0.41 0.61 0.71 0.67 0.85 1.02 1.38 1.82 2.07 2.40 2.65 3.02 3.41 3.79 3.83 3.74 3.72 3.53 3.34 3.06 2.62 2.21 1.98 1.68 1.60 1.51 1.40 1.66 1.91 1.99 1.96 1.88 1.73 1.76 1.85 1.96 1.99 2.03 2.16 2.07 2.14
0.02 0.05 0.16 0.16 0.10 0.10 0.12 0.44 0.71 0.69 0.69 0.74 0.90 1.24 1.51 1.80 2.19 2.41 2.73 3.05 3.43 3.93 4.29 4.31 3.79 3.70 3.62 3.47 3.10 2.67 2.49 2.29 2.07 1.70 1.50 1.50 1.66 1.74 1.78 1.63 1.59 1.68 1.56 1.59 1.68 1.63 1.69 1.75 1.88
0.05 0.10 0.16 0.25 0.16 0.13 0.24 0.72 1.03 0.77 0.62 0.73 1.02 1.35 1.72 1.91 2.31 2.44 2.64 2.89 3.33 4.18 5.01 4.97 4.39 3.97 3.67 3.52 3.42 3.23 2.93 2.50 2.13 1.84 1.64 1.46 1.36 1.22 1.28 1.26 1.32 1.32 1.28 1.28 1.19 1.39 1.47 1.58 1.67
0.05 0.10 0.22 0.35 0.22 0.20 0.30 0.67 0.71 0.63 0.79 0.78 0.87 1.11 1.44 1.55 1.83 2.09 2.39 2.91 3.68 4.81 5.59 5.47 4.79 4.25 3.86 3.59 3.36 3.20 2.84 2.49 2.10 1.89 1.69 1.39 1.27 1.08 1.03 1.01 1.03 0.98 1.03 1.11 1.16 1.25 1.25 1.24 1.31
0.04 0.09 0.22 0.26 0.20 0.28 0.36 0.56 0.66 0.77 0.95 0.95 0.82 0.86 1.16 1.37 1.63 2.00 2.57 3.45 4.52 5.40 5.68 5.14 4.56 4.14 3.69 3.22 2.61 2.20 2.04 1.92 1.71 1.49 1.21 1.05 0.95 0.95 0.96 0.86 0.86 0.79 0.82 0.85 0.85 0.94 0.97 0.95 1.01
0.06 0.08 0.19 0.26 0.18 0.21 0.35 0.66 0.94 0.91 0.84 0.82 0.84 0.81 0.96 1.35 1.80 2.43 3.42 4.07 4.34 4.45 4.18 3.81 3.48 3.24 2.76 2.29 1.96 1.75 1.67 1.51 1.32 1.20 1.10 0.88 0.77 0.75 0.73 0.76 0.72 0.69 0.76 0.79 0.79 0.80 0.82 0.81 0.83
0.10 0.10 0.18 0.25 0.15 0.16 0.36 0.80 1.06 1.07 0.85 0.72 0.69 0.64 0.89 1.34 1.92 2.72 3.29 3.43 3.17 2.85 2.75 2.67 2.66 2.37 2.20 2.07 1.91 1.81 1.73 1.53 1.27 1.07 0.95 0.77 0.67 0.62 0.60 0.61 0.63 0.67 0.65 0.73 0.77 0.70 0.76 0.78 0.72
0.09 0.06 0.06 0.09 0.15 0.33 0.52 1.02 1.17 0.96 0.90 0.74 0.70 0.67 0.80 1.10 1.41 1.86 2.13 2.03 2.13 2.25 2.26 2.33 2.37 2.09 2.05 1.95 1.59 1.39 1.26 1.16 0.99 0.89 0.88 0.90 0.75 0.61 0.53 0.53 0.52 0.55 0.55 0.69 0.61 0.64 0.70 0.74 0.64
0.04 0.03 0.04 0.11 0.22 0.41 0.60 0.84 0.95 0.75 0.88 0.71 0.57 0.58 0.60 0.79 0.86 0.97 1.10 1.24 1.42 1.51 1.67 1.95 2.14 2.08 1.93 1.74 1.57 1.46 1.27 1.22 1.17 1.11 1.07 1.00 0.89 0.72 0.61 0.61 0.56 0.52 0.49 0.56 0.56 0.70 0.70 0.69 0.64
0.03 0.05 0.12 0.23 0.39 0.89 0.84 0.81 1.01 0.91 0.89 0.67 0.50 0.44 0.49 0.65 0.72 0.76 0.79 0.91 1.04 1.14 1.29 1.56 1.83 1.95 1.90 1.74 1.58 1.47 1.39 1.32 1.23 1.17 1.11 0.98 0.89 0.84 0.74 0.69 0.66 0.58 0.53 0.53 0.53 0.64 0.67 0.72 0.73
0.05 0.07 0.24 0.57 0.98 1.14 0.70 0.78 1.04 0.77 0.67 0.50 0.30 0.27 0.40 0.59 0.72 0.77 0.72 0.65 0.68 0.83 0.99 1.09 1.26 1.48 1.59 1.56 1.47 1.39 1.43 1.30 1.11 1.00 0.96 0.94 0.83 0.75 0.69 0.66 0.64 0.55 0.55 0.59 0.63 0.62 0.63 0.66 0.71
0.05 0.04 0.11 0.22 0.33 0.51 0.66 1.04 1.16 0.81 0.54 0.30 0.18 0.22 0.35 0.49 0.51 0.55 0.54 0.48 0.45 0.56 0.76 0.87 1.04 1.20 1.37 1.35 1.28 1.22 1.27 1.22 1.09 1.05 0.89 0.84 0.81 0.74 0.74 0.73 0.64 0.61 0.62 0.59 0.68 0.59 0.55 0.60 0.60
0.05 0.03 0.04 0.07 0.12 0.31 0.66 0.95 0.90 0.69 0.49 0.30 0.22 0.20 0.20 0.24 0.31 0.41 0.43 0.43 0.40 0.44 0.63 0.74 0.88 1.06 1.24 1.32 1.30 1.21 1.22 1.20 1.14 1.07 0.96 0.83 0.87 0.84 0.89 0.81 0.70 0.73 0.75 0.75 0.78 0.66 0.63 0.65 0.60
0.05 0.04 0.04 0.05 0.11 0.23 0.49 0.87 1.03 0.85 0.57 0.33 0.27 0.23 0.22 0.25 0.24 0.32 0.38 0.37 0.36 0.35 0.43 0.56 0.72 0.91 1.03 1.17 1.18 1.08 1.23 1.20 1.17 1.11 1.00 0.89 0.85 0.84 0.88 0.83 0.75 0.75 0.76 0.79 0.84 0.75 0.75 0.76 0.73
0.07 0.06 0.06 0.05 0.08 0.14 0.33 0.55 0.51 0.45 0.35 0.29 0.31 0.27 0.19 0.20 0.17 0.19 0.24 0.29 0.29 0.28 0.32 0.41 0.52 0.64 0.76 0.85 0.94 0.93 0.98 0.98 0.97 1.01 1.01 0.97 0.92 0.89 0.83 0.81 0.81 0.77 0.78 0.83 0.89 0.86 0.84 0.78 0.81
0.09 0.09 0.09 0.08 0.08 0.09 0.16 0.34 0.29 0.30 0.29 0.25 0.31 0.28 0.20 0.19 0.19 0.18 0.18 0.23 0.25 0.26 0.25 0.30 0.36 0.41 0.52 0.59 0.69 0.74 0.78 0.83 0.83 0.85 0.93 0.99 0.94 0.89 0.88 0.86 0.81 0.72 0.74 0.86 0.91 0.87 0.87 0.86 0.84

GEFSSGP_prec_meanprecacc_162.txt.gz
Total_Precipitation_Accumulation
0.04 0.08 0.22 0.42 0.99 1.34 1.18 0.72 0.53 0.50 0.55 0.55 0.48 0.45 0.48 0.47 0.65 1.14 0.74 0.40 0.18 0.06 0.04 0.12 0.22 0.19 0.17 0.17 0.17 0.18 0.17 0.18 0.19 0.19 0.16 0.15 0.14 0.14 0.16 0.19 0.22 0.24 0.26 0.28 0.30 0.27 0.27 0.31 0.34
0.06 0.13 0.32 0.83 1.29 1.26 1.11 0.62 0.36 0.44 0.53 0.66 0.65 0.51 0.41 0.42 0.41 0.36 0.35 0.46 0.17 0.09 0.06 0.07 0.17 0.18 0.15 0.14 0.16 0.17 0.17 0.16 0.16 0.17 0.17 0.17 0.18 0.21 0.23 0.24 0.24 0.26 0.28 0.27 0.26 0.25 0.27 0.28 0.35
0.09 0.21 0.39 0.84 0.92 0.83 0.83 0.50 0.37 0.33 0.50 0.73 0.70 0.47 0.46 0.49 0.40 0.30 0.30 0.37 0.20 0.15 0.08 0.09 0.17 0.16 0.14 0.14 0.15 0.16 0.17 0.16 0.15 0.16 0.18 0.19 0.22 0.28 0.30 0.29 0.28 0.29 0.33 0.34 0.31 0.28 0.28 0.28 0.33
0.12 0.27 0.49 0.56 0.39 0.30 0.39 0.44 0.45 0.44 0.63 0.76 0.62 0.52 0.50 0.49 0.44 0.32 0.28 0.37 0.24 0.21 0.14 0.14 0.21 0.19 0.17 0.16 0.15 0.18 0.19 0.17 0.17 0.17 0.18 0.23 0.27 0.32 0.31 0.30 0.34 0.36 0.36 0.33 0.32 0.34 0.33 0.35 0.40
0.11 0.27 0.53 0.42 0.25 0.19 0.21 0.27 0.35 0.52 0.70 0.82 0.69 0.66 0.68 0.49 0.41 0.36 0.28 0.39 0.37 0.29 0.25 0.23 0.28 0.27 0.23 0.19 0.20 0.21 0.21 0.20 0.18 0.18 0.19 0.25 0.28 0.30 0.30 0.31 0.34 0.32 0.35 0.36 0.37 0.41 0.41 0.45 0.49
0.09 0.21 0.38 0.27 0.16 0.14 0.19 0.24 0.37 0.57 0.61 0.69 0.78 0.85 0.81 0.57 0.50 0.44 0.40 0.48 0.49 0.41 0.31 0.36 0.37 0.35 0.30 0.26 0.27 0.27 0.26 0.24 0.23 0.22 0.25 0.28 0.31 0.32 0.33 0.36 0.33 0.28 0.29 0.33 0.40 0.48 0.48 0.48 0.54
0.10 0.16 0.18 0.16 0.11 0.12 0.20 0.30 0.34 0.47 0.56 0.76 0.81 0.84 0.89 0.77 0.63 0.53 0.65 0.86 0.83 0.65 0.47 0.48 0.44 0.39 0.37 0.37 0.38 0.37 0.35 0.32 0.31 0.29 0.31 0.31 0.35 0.36 0.37 0.46 0.40 0.34 0.36 0.39 0.47 0.54 0.60 0.56 0.56
0.06 0.12 0.15 0.13 0.08 0.11 0.18 0.24 0.34 0.48 0.60 0.67 0.78 0.89 0.91 0.79 0.69 0.74 0.94 1.28 1.39 1.24 0.91 0.62 0.56 0.57 0.49 0.43 0.45 0.47 0.40 0.37 0.37 0.37 0.38 0.41 0.45 0.49 0.52 0.52 0.53 0.49 0.53 0.54 0.59 0.60 0.60 0.64 0.67
0.03 0.09 0.13 0.10 0.09 0.12 0.19 0.24 0.30 0.35 0.46 0.67 0.86 1.01 0.91 0.71 0.74 0.94 1.15 1.42 1.59 1.41 1.19 0.96 0.87 0.75 0.67 0.60 0.52 0.59 0.54 0.51 0.51 0.60 0.62 0.72 0.89 0.86 0.85 0.74 0.77 0.76 0.80 0.88 0.92 0.89 0.89 0.91 0.89
0.01 0.05 0.06 0.04 0.04 0.05 0.11 0.21 0.27 0.39 0.66 1.12 1.37 1.23 0.98 0.84 0.94 1.20 1.36 1.35 1.41 1.41 1.31 1.32 1.15 1.04 0.97 0.90 0.93 1.02 0.95 0.94 0.95 1.11 1.13 1.38 1.54 1.35 0.98 1.02 1.19 1.15 1.26 1.36 1.48 1.66 1.51 1.35 1.17
0.00 0.02 0.03 0.02 0.02 0.02 0.05 0.13 0.25 0.43 0.86 1.40 1.60 1.29 1.10 1.07 1.17 1.31 1.60 1.68 1.74 1.71 1.54 1.59 1.47 1.35 1.37 1.41 1.38 1.42 1.52 1.58 1.63 1.64 1.69 1.95 1.83 1.46 1.25 1.39 1.65 1.65 1.67 1.72 1.95 2.16 1.82 1.80 1.83
0.00 0.00 0.00 0.00 0.01 0.02 0.04 0.12 0.30 0.57 0.97 1.26 1.18 1.03 1.03 1.24 1.41 1.58 1.83 2.13 2.20 2.24 2.10 1.87 1.79 1.93 1.91 1.78 1.71 1.58 1.45 1.44 1.55 1.67 1.68 2.03 2.17 2.03 1.91 1.94 1.82 1.96 2.11 2.37 2.32 2.35 2.25 2.24 2.11
0.00 0.00 0.00 0.01 0.01 0.03 0.06 0.15 0.34 0.66 0.88 0.94 0.82 0.85 1.12 1.40 1.64 2.09 2.48 2.55 2.51 2.69 2.79 2.60 2.53 2.46 2.25 2.18 1.81 1.57 1.49 1.36 1.30 1.51 1.67 1.91 2.19 2.22 2.25 1.98 1.89 1.81 1.95 2.20 2.19 2.06 2.19 2.32 2.31
0.00 0.00 0.01 0.02 0.02 0.04 0.09 0.19 0.34 0.57 0.67 0.69 0.76 0.99 1.19 1.59 1.88 2.39 2.88 2.92 3.01 3.24 3.38 3.28 3.25 3.02 2.68 2.36 2.07 1.95 1.68 1.54 1.35 1.42 1.43 1.79 2.11 2.09 1.95 1.92 1.95 1.88 1.98 2.03 2.02 2.07 2.27 2.40 2.51
0.00 0.01 0.06 0.07 0.05 0.07 0.10 0.28 0.42 0.61 0.72 0.68 0.85 1.02 1.40 1.84 2.10 2.42 2.66 3.03 3.43 3.80 3.85 3.76 3.75 3.58 3.40 3.10 2.66 2.25 2.03 1.73 1.66 1.55 1.44 1.68 1.94 2.02 2.00 1.91 1.76 1.80 1.89 1.99 2.02 2.06 2.18 2.10 2.17
0.02 0.05 0.16 0.17 0.11 0.10 0.12 0.45 0.71 0.69 0.70 0.74 0.91 1.24 1.52 1.81 2.20 2.42 2.74 3.06 3.44 3.94 4.31 4.33 3.81 3.73 3.66 3.50 3.14 2.71 2.55 2.35 2.12 1.75 1.54 1.52 1.69 1.77 1.81 1.66 1.62 1.71 1.58 1.61 1.70 1.66 1.73 1.80 1.94
0.05 0.10 0.16 0.25 0.16 0.13 0.24 0.72 1.04 0.78 0.62 0.73 1.02 1.35 1.72 1.92 2.32 2.45 2.65 2.90 3.35 4.19 5.03 4.99 4.41 4.00 3.69 3.55 3.47 3.33 3.05 2.58 2.20 1.90 1.69 1.50 1.41 1.27 1.31 1.29 1.35 1.36 1.31 1.30 1.21 1.42 1.51 1.62 1.72
0.05 0.10 0.23 0.35 0.22 0.20 0.30 0.67 0.71 0.63 0.79 0.79 0.87 1.11 1.44 1.56 1.84 2.10 2.40 2.92 3.69 4.82 5.60 5.49 4.80 4.28 3.89 3.63 3.41 3.33 2.94 2.59 2.18 1.95 1.75 1.45 1.33 1.13 1.07 1.04 1.07 1.02 1.07 1.15 1.19 1.29 1.29 1.28 1.35
0.04 0.09 0.22 0.26 0.20 0.28 0.36 0.56 0.66 0.77 0.95 0.95 0.82 0.87 1.17 1.38 1.64 2.01 2.58 3.46 4.53 5.41 5.69 5.15 4.58 4.17 3.72 3.26 2.64 2.26 2.13 2.01 1.80 1.57 1.28 1.12 1.02 1.01 1.01 0.90 0.91 0.85 0.87 0.89 0.89 0.97 1.01 0.99 1.06
0.06 0.08 0.19 0.26 0.18 0.21 0.35 0.66 0.94 0.92 0.84 0.82 0.85 0.82 0.98 1.36 1.81 2.44 3.43 4.08 4.35 4.47 4.20 3.83 3.50 3.26 2.79 2.33 2.00 1.79 1.74 1.59 1.40 1.29 1.17 0.94 0.84 0.83 0.78 0.80 0.77 0.73 0.82 0.84 0.82 0.83 0.85 0.84 0.87
0.10 0.10 0.18 0.25 0.15 0.16 0.36 0.80 1.07 1.08 0.85 0.73 0.71 0.67 0.92 1.37 1.95 2.74 3.31 3.44 3.18 2.87 2.77 2.69 2.68 2.40 2.24 2.11 1.95 1.84 1.79 1.60 1.33 1.15 1.02 0.83 0.72 0.68 0.66 0.67 0.68 0.71 0.69 0.76 0.79 0.72 0.78 0.82 0.76
0.09 0.06 0.06 0.09 0.15 0.33 0.52 1.03 1.18 0.97 0.91 0.75 0.72 0.70 0.83 1.14 1.47 1.89 2.14 2.04 2.15 2.26 2.28 2.36 2.41 2.12 2.09 1.99 1.63 1.43 1.32 1.20 1.03 0.94 0.94 0.96 0.80 0.66 0.57 0.56 0.56 0.59 0.59 0.72 0.64 0.66 0.73 0.77 0.68
0.04 0.03 0.04 0.11 0.22 0.41 0.60 0.85 0.96 0.76 0.89 0.72 0.59 0.61 0.63 0.81 0.89 0.99 1.12 1.25 1.43 1.53 1.69 1.97 2.17 2.12 1.96 1.78 1.61 1.50 1.33 1.27 1.23 1.18 1.14 1.06 0.95 0.78 0.66 0.65 0.60 0.57 0.55 0.60 0.59 0.74 0.75 0.73 0.67
0.03 0.05 0.12 0.23 0.40 0.89 0.84 0.82 1.02 0.92 0.90 0.69 0.51 0.46 0.53 0.67 0.75 0.78 0.81 0.92 1.06 1.16 1.31 1.58 1.87 2.00 1.94 1.78 1.63 1.54 1.47 1.39 1.30 1.25 1.20 1.05 0.96 0.90 0.81 0.77 0.73 0.64 0.59 0.57 0.56 0.68 0.73 0.79 0.78
0.05 0.07 0.24 0.58 0.98 1.14 0.71 0.78 1.04 0.79 0.68 0.51 0.30 0.27 0.41 0.60 0.73 0.78 0.73 0.67 0.71 0.86 1.02 1.13 1.29 1.53 1.64 1.61 1.53 1.48 1.54 1.41 1.21 1.10 1.04 1.00 0.88 0.80 0.75 0.73 0.70 0.60 0.59 0.65 0.70 0.70 0.70 0.73 0.78
0.05 0.04 0.11 0.22 0.33 0.51 0.66 1.05 1.18 0.83 0.55 0.30 0.19 0.22 0.36 0.51 0.53 0.58 0.57 0.50 0.47 0.58 0.79 0.91 1.08 1.24 1.43 1.41 1.35 1.31 1.36 1.30 1.18 1.14 0.96 0.88 0.85 0.80 0.80 0.78 0.70 0.66 0.68 0.68 0.79 0.68 0.64 0.68 0.69
0.05 0.03 0.04 0.07 0.12 0.32 0.66 0.96 0.91 0.72 0.50 0.31 0.22 0.22 0.22 0.27 0.35 0.46 0.49 0.47 0.43 0.46 0.65 0.77 0.93 1.12 1.31 1.40 1.37 1.27 1.28 1.30 1.24 1.14 1.01 0.88 0.93 0.90 0.95 0.86 0.75 0.78 0.81 0.82 0.86 0.74 0.71 0.74 0.68
0.05 0.04 0.04 0.05 0.11 0.23 0.50 0.87 1.05 0.86 0.58 0.34 0.30 0.28 0.28 0.30 0.30 0.42 0.50 0.44 0.39 0.38 0.46 0.59 0.76 0.97 1.11 1.26 1.25 1.13 1.26 1.25 1.21 1.14 1.03 0.93 0.89 0.88 0.93 0.88 0.79 0.79 0.80 0.84 0.89 0.79 0.80 0.82 0.80
0.07 0.06 0.06 0.05 0.08 0.14 0.33 0.55 0.51 0.45 0.36 0.31 0.34 0.32 0.26 0.30 0.28 0.37 0.42 0.42 0.40 0.34 0.36 0.44 0.58 0.74 0.84 0.93 1.00 0.98 1.04 1.02 1.01 1.04 1.03 1.00 0.97 0.93 0.87 0.86 0.86 0.81 0.83 0.88 0.94 0.91 0.89 0.84 0.87
0.09 0.09 0.09 0.08 0.08 0.09 0.16 0.34 0.29 0.30 0.30 0.29 0.37 0.38 0.31 0.30 0.38 0.34 0.29 0.35 0.42 0.34 0.29 0.33 0.42 0.55 0.63 0.68 0.73 0.77 0.83 0.89 0.88 0.88 0.96 1.03 0.99 0.94 0.93 0.91 0.86 0.76 0.77 0.90 0.95 0.93 0.93 0.91 0.88

GEFSSGP_prec_meanprecacc_168.txt.gz
Total_Precipitation_Accumulation
0.04 0.08 0.22 0.42 0.99 1.34 1.18 0.73 0.53 0.50 0.56 0.55 0.49 0.46 0.49 0.47 0.65 1.15 0.74 0.41 0.19 0.07 0.05 0.14 0.25 0.21 0.18 0.17 0.18 0.19 0.18 0.19 0.20 0.20 0.17 0.17 0.16 0.16 0.17 0.21 0.25 0.28 0.30 0.31 0.33 0.31 0.30 0.34 0.37
0.07 0.14 0.32 0.84 1.29 1.26 1.11 0.63 0.36 0.44 0.53 0.67 0.65 0.51 0.42 0.42 0.41 0.36 0.35 0.47 0.18 0.09 0.06 0.07 0.18 0.19 0.15 0.15 0.17 0.18 0.18 0.17 0.17 0.17 0.18 0.18 0.19 0.22 0.25 0.27 0.27 0.30 0.30 0.29 0.28 0.27 0.29 0.30 0.38
0.10 0.22 0.40 0.84 0.92 0.83 0.83 0.50 0.37 0.33 0.50 0.73 0.70 0.47 0.46 0.49 0.40 0.31 0.31 0.37 0.21 0.16 0.09 0.10 0.17 0.17 0.15 0.16 0.16 0.17 0.18 0.17 0.16 0.17 0.19 0.21 0.25 0.30 0.32 0.31 0.30 0.33 0.37 0.36 0.34 0.30 0.31 0.31 0.37
0.12 0.28 0.50 0.57 0.39 0.31 0.39 0.44 0.45 0.44 0.63 0.76 0.62 0.52 0.50 0.49 0.44 0.32 0.28 0.37 0.25 0.22 0.15 0.15 0.21 0.20 0.17 0.16 0.15 0.18 0.20 0.18 0.18 0.18 0.20 0.25 0.29 0.34 0.34 0.33 0.36 0.39 0.40 0.37 0.36 0.39 0.38 0.40 0.47
0.11 0.27 0.53 0.42 0.25 0.19 0.22 0.27 0.35 0.52 0.70 0.82 0.69 0.66 0.68 0.51 0.42 0.36 0.28 0.39 0.37 0.29 0.25 0.24 0.29 0.28 0.23 0.20 0.21 0.22 0.22 0.20 0.19 0.19 0.21 0.27 0.31 0.32 0.32 0.33 0.36 0.34 0.37 0.39 0.42 0.47 0.47 0.52 0.56
0.10 0.21 0.39 0.27 0.16 0.14 0.19 0.24 0.38 0.57 0.61 0.69 0.79 0.85 0.81 0.59 0.52 0.44 0.40 0.49 0.50 0.41 0.31 0.37 0.38 0.36 0.30 0.27 0.28 0.28 0.27 0.25 0.24 0.23 0.26 0.29 0.33 0.34 0.34 0.37 0.35 0.30 0.31 0.35 0.42 0.53 0.52 0.53 0.59
0.10 0.16 0.19 0.16 0.11 0.12 0.20 0.30 0.35 0.47 0.56 0.77 0.81 0.84 0.89 0.79 0.66 0.55 0.65 0.87 0.83 0.65 0.47 0.48 0.45 0.40 0.38 0.39 0.39 0.39 0.37 0.34 0.32 0.31 0.32 0.33 0.37 0.37 0.39 0.48 0.42 0.37 0.39 0.41 0.51 0.57 0.65 0.60 0.62
0.06 0.12 0.15 0.13 0.08 0.11 0.18 0.25 0.35 0.48 0.60 0.68 0.78 0.90 0.91 0.80 0.70 0.75 0.95 1.29 1.41 1.25 0.92 0.62 0.57 0.58 0.51 0.44 0.47 0.49 0.42 0.39 0.38 0.38 0.39 0.42 0.48 0.50 0.53 0.54 0.56 0.52 0.56 0.57 0.63 0.64 0.64 0.68 0.72
0.03 0.09 0.13 0.10 0.10 0.12 0.19 0.24 0.30 0.35 0.46 0.68 0.87 1.02 0.91 0.72 0.74 0.94 1.15 1.43 1.60 1.42 1.20 0.98 0.88 0.76 0.68 0.61 0.53 0.61 0.56 0.53 0.53 0.62 0.64 0.73 0.89 0.86 0.86 0.75 0.79 0.79 0.83 0.91 0.97 0.94 0.92 0.94 0.93
0.01 0.05 0.06 0.04 0.05 0.05 0.11 0.21 0.27 0.39 0.66 1.13 1.37 1.23 0.98 0.85 0.95 1.20 1.37 1.35 1.41 1.42 1.32 1.32 1.16 1.05 0.99 0.90 0.94 1.03 0.97 0.95 0.97 1.12 1.14 1.38 1.54 1.35 0.98 1.03 1.22 1.18 1.29 1.40 1.53 1.71 1.54 1.37 1.19
0.00 0.02 0.03 0.02 0.02 0.02 0.06 0.13 0.25 0.43 0.86 1.40 1.60 1.29 1.10 1.07 1.17 1.31 1.61 1.68 1.75 1.72 1.54 1.60 1.48 1.37 1.39 1.43 1.39 1.43 1.53 1.59 1.63 1.65 1.69 1.95 1.83 1.47 1.25 1.40 1.68 1.67 1.69 1.74 1.98 2.18 1.83 1.82 1.85
0.00 0.00 0.00 0.01 0.01 0.02 0.04 0.12 0.31 0.57 0.97 1.26 1.18 1.03 1.04 1.24 1.42 1.59 1.84 2.13 2.22 2.26 2.11 1.88 1.81 1.94 1.92 1.80 1.73 1.59 1.46 1.45 1.56 1.67 1.68 2.03 2.17 2.03 1.91 1.94 1.82 1.97 2.11 2.37 2.33 2.36 2.27 2.26 2.12
0.00 0.00 0.00 0.01 0.01 0.03 0.06 0.15 0.34 0.66 0.88 0.94 0.82 0.86 1.12 1.40 1.66 2.10 2.49 2.56 2.52 2.71 2.82 2.62 2.56 2.49 2.27 2.20 1.82 1.59 1.51 1.38 1.31 1.51 1.67 1.91 2.19 2.22 2.25 1.98 1.89 1.82 1.96 2.20 2.20 2.07 2.21 2.34 2.33
0.00 0.00 0.01 0.02 0.02 0.04 0.09 0.19 0.34 0.57 0.67 0.69 0.76 0.99 1.20 1.60 1.90 2.40 2.88 2.93 3.02 3.27 3.42 3.32 3.29 3.06 2.71 2.38 2.09 1.96 1.70 1.57 1.37 1.42 1.44 1.79 2.11 2.09 1.95 1.93 1.96 1.90 2.00 2.03 2.03 2.10 2.30 2.42 2.53
0.00 0.01 0.06 0.07 0.05 0.07 0.10 0.28 0.42 0.61 0.72 0.68 0.85 1.03 1.41 1.86 2.11 2.42 2.67 3.04 3.44 3.82 3.87 3.81 3.80 3.65 3.50 3.14 2.69 2.28 2.05 1.77 1.69 1.57 1.45 1.70 1.95 2.04 2.01 1.93 1.78 1.82 1.91 2.00 2.03 2.08 2.22 2.13 2.21
0.02 0.05 0.16 0.17 0.11 0.10 0.12 0.45 0.71 0.69 0.70 0.74 0.91 1.24 1.52 1.81 2.21 2.43 2.75 3.08 3.47 3.97 4.33 4.37 3.86 3.80 3.77 3.58 3.22 2.80 2.63 2.44 2.20 1.81 1.59 1.58 1.75 1.81 1.84 1.68 1.63 1.72 1.60 1.62 1.71 1.66 1.75 1.83 1.98
0.05 0.10 0.16 0.25 0.16 0.13 0.24 0.72 1.04 0.78 0.62 0.73 1.02 1.35 1.73 1.92 2.33 2.47 2.66 2.93 3.37 4.22 5.06 5.03 4.46 4.05 3.75 3.61 3.52 3.38 3.11 2.68 2.30 1.99 1.78 1.57 1.49 1.35 1.36 1.32 1.38 1.39 1.34 1.33 1.24 1.44 1.52 1.64 1.75
0.05 0.10 0.23 0.35 0.22 0.20 0.30 0.67 0.71 0.63 0.79 0.79 0.88 1.12 1.45 1.56 1.85 2.12 2.41 2.93 3.72 4.85 5.64 5.51 4.83 4.31 3.96 3.74 3.50 3.42 3.03 2.69 2.29 2.06 1.85 1.52 1.40 1.21 1.13 1.09 1.12 1.07 1.11 1.19 1.24 1.33 1.32 1.31 1.39
0.04 0.09 0.22 0.26 0.20 0.28 0.36 0.56 0.66 0.77 0.95 0.95 0.83 0.87 1.17 1.39 1.65 2.02 2.60 3.48 4.55 5.43 5.71 5.16 4.60 4.22 3.78 3.33 2.73 2.34 2.21 2.09 1.87 1.63 1.35 1.19 1.09 1.11 1.10 0.97 0.96 0.88 0.90 0.93 0.95 1.03 1.04 1.02 1.10
0.06 0.08 0.19 0.26 0.18 0.21 0.35 0.66 0.94 0.92 0.84 0.82 0.85 0.83 0.99 1.37 1.82 2.45 3.45 4.11 4.38 4.49 4.21 3.85 3.53 3.32 2.86 2.39 2.06 1.85 1.80 1.65 1.47 1.36 1.25 1.00 0.90 0.91 0.85 0.86 0.82 0.77 0.86 0.89 0.88 0.88 0.89 0.88 0.91
0.10 0.10 0.18 0.25 0.15 0.16 0.36 0.80 1.07 1.08 0.86 0.73 0.73 0.69 0.93 1.38 1.96 2.76 3.33 3.47 3.21 2.89 2.79 2.71 2.72 2.45 2.29 2.17 2.01 1.90 1.85 1.65 1.38 1.22 1.12 0.92 0.81 0.79 0.74 0.72 0.74 0.77 0.74 0.81 0.84 0.76 0.81 0.85 0.80
0.09 0.06 0.06 0.09 0.15 0.33 0.52 1.03 1.18 0.98 0.92 0.76 0.74 0.72 0.85 1.16 1.49 1.92 2.16 2.07 2.19 2.31 2.31 2.40 2.45 2.17 2.14 2.04 1.68 1.49 1.38 1.25 1.08 1.00 1.03 1.07 0.91 0.79 0.69 0.64 0.62 0.66 0.66 0.79 0.70 0.70 0.76 0.80 0.71
0.04 0.03 0.04 0.11 0.22 0.41 0.60 0.85 0.96 0.76 0.90 0.73 0.61 0.63 0.65 0.83 0.92 1.02 1.14 1.28 1.49 1.59 1.74 2.03 2.22 2.15 1.99 1.81 1.66 1.56 1.39 1.33 1.29 1.24 1.21 1.16 1.07 0.90 0.77 0.73 0.66 0.65 0.64 0.69 0.69 0.82 0.79 0.76 0.70
0.03 0.05 0.12 0.23 0.40 0.89 0.84 0.82 1.02 0.92 0.91 0.69 0.52 0.47 0.55 0.70 0.78 0.81 0.85 0.98 1.14 1.26 1.40 1.65 1.94 2.05 1.98 1.81 1.66 1.58 1.51 1.44 1.35 1.30 1.26 1.12 1.04 0.98 0.88 0.85 0.81 0.75 0.70 0.67 0.65 0.76 0.81 0.84 0.82
0.05 0.07 0.24 0.58 0.98 1.14 0.71 0.78 1.05 0.79 0.68 0.51 0.31 0.29 0.43 0.64 0.77 0.83 0.79 0.75 0.82 0.97 1.13 1.21 1.37 1.60 1.70 1.65 1.58 1.53 1.58 1.44 1.24 1.14 1.09 1.05 0.93 0.85 0.80 0.79 0.76 0.67 0.68 0.74 0.79 0.79 0.78 0.81 0.84
0.05 0.04 0.11 0.22 0.33 0.51 0.66 1.05 1.18 0.84 0.56 0.31 0.20 0.24 0.39 0.55 0.59 0.65 0.67 0.62 0.59 0.69 0.87 0.98 1.15 1.30 1.48 1.47 1.41 1.36 1.40 1.32 1.21 1.18 0.99 0.91 0.88 0.83 0.85 0.82 0.74 0.71 0.73 0.73 0.84 0.73 0.69 0.74 0.75
0.05 0.03 0.04 0.07 0.12 0.32 0.66 0.96 0.92 0.73 0.51 0.32 0.23 0.23 0.25 0.33 0.40 0.50 0.58 0.62 0.62 0.62 0.73 0.84 1.02 1.18 1.35 1.45 1.44 1.33 1.32 1.33 1.29 1.18 1.04 0.91 0.95 0.93 0.99 0.91 0.80 0.80 0.85 0.86 0.90 0.77 0.74 0.78 0.73
0.05 0.04 0.04 0.05 0.11 0.23 0.50 0.87 1.05 0.87 0.58 0.35 0.30 0.29 0.34 0.36 0.32 0.44 0.56 0.58 0.52 0.45 0.52 0.66 0.82 1.02 1.15 1.31 1.32 1.20 1.33 1.30 1.27 1.18 1.05 0.94 0.91 0.90 0.96 0.92 0.83 0.83 0.84 0.88 0.93 0.83 0.84 0.85 0.83
0.07 0.06 0.06 0.05 0.08 0.14 0.33 0.55 0.51 0.45 0.36 0.31 0.34 0.32 0.28 0.31 0.29 0.38 0.45 0.47 0.43 0.38 0.40 0.48 0.63 0.79 0.88 0.97 1.08 1.07 1.12 1.08 1.06 1.07 1.05 1.02 0.98 0.94 0.89 0.89 0.90 0.86 0.87 0.93 0.97 0.94 0.92 0.87 0.90
0.09 0.09 0.09 0.08 0.08 0.09 0.16 0.34 0.29 0.30 0.30 0.29 0.37 0.39 0.31 0.30 0.39 0.35 0.31 0.38 0.45 0.38 0.33 0.37 0.49 0.62 0.68 0.75 0.79 0.83 0.90 0.94 0.92 0.91 0.99 1.06 1.01 0.96 0.96 0.96 0.90 0.80 0.82 0.96 0.99 0.96 0.95 0.94 0.90

GEFSSGP_prec_meanprecacc_174.txt.gz
Total_Precipitation_Accumulation
0.04 0.09 0.22 0.42 0.99 1.34 1.18 0.73 0.53 0.50 0.56 0.55 0.49 0.46 0.50 0.48 0.66 1.15 0.74 0.41 0.20 0.09 0.10 0.19 0.31 0.25 0.21 0.20 0.21 0.22 0.21 0.22 0.23 0.23 0.20 0.20 0.20 0.20 0.22 0.26 0.31 0.34 0.36 0.38 0.40 0.37 0.36 0.39 0.42
0.07 0.14 0.32 0.84 1.29 1.26 1.11 0.63 0.36 0.44 0.53 0.67 0.66 0.52 0.42 0.42 0.41 0.36 0.35 0.48 0.19 0.11 0.10 0.11 0.21 0.22 0.18 0.17 0.19 0.21 0.20 0.19 0.19 0.19 0.21 0.23 0.23 0.26 0.29 0.33 0.33 0.36 0.37 0.36 0.35 0.34 0.35 0.38 0.46
0.10 0.22 0.40 0.84 0.92 0.83 0.83 0.50 0.37 0.33 0.50 0.73 0.71 0.47 0.46 0.49 0.40 0.31 0.31 0.38 0.22 0.17 0.11 0.12 0.21 0.20 0.18 0.19 0.19 0.19 0.21 0.19 0.18 0.19 0.22 0.25 0.29 0.34 0.37 0.37 0.37 0.40 0.43 0.42 0.39 0.35 0.36 0.38 0.44
0.12 0.28 0.50 0.57 0.39 0.31 0.39 0.44 0.45 0.44 0.63 0.76 0.62 0.52 0.50 0.49 0.44 0.32 0.28 0.37 0.25 0.23 0.16 0.17 0.24 0.23 0.20 0.20 0.18 0.20 0.23 0.21 0.21 0.21 0.23 0.30 0.35 0.41 0.41 0.40 0.43 0.45 0.45 0.42 0.40 0.43 0.43 0.46 0.53
0.11 0.27 0.53 0.42 0.25 0.19 0.22 0.27 0.35 0.52 0.70 0.82 0.69 0.66 0.68 0.52 0.43 0.36 0.28 0.40 0.38 0.30 0.27 0.27 0.32 0.31 0.26 0.23 0.24 0.25 0.26 0.23 0.22 0.22 0.25 0.33 0.38 0.39 0.37 0.39 0.42 0.39 0.42 0.44 0.48 0.53 0.53 0.58 0.62
0.10 0.21 0.39 0.27 0.16 0.14 0.19 0.24 0.38 0.57 0.61 0.69 0.79 0.85 0.81 0.60 0.52 0.44 0.40 0.50 0.52 0.42 0.32 0.40 0.42 0.41 0.35 0.32 0.32 0.34 0.33 0.29 0.27 0.27 0.30 0.35 0.40 0.39 0.40 0.42 0.39 0.35 0.36 0.41 0.49 0.59 0.61 0.62 0.65
0.10 0.16 0.19 0.16 0.11 0.12 0.20 0.30 0.35 0.47 0.56 0.77 0.81 0.84 0.89 0.79 0.66 0.55 0.65 0.87 0.84 0.66 0.48 0.50 0.49 0.45 0.43 0.44 0.44 0.44 0.41 0.38 0.36 0.35 0.38 0.39 0.44 0.42 0.43 0.53 0.46 0.40 0.42 0.45 0.56 0.63 0.73 0.67 0.67
0.06 0.12 0.15 0.13 0.08 0.11 0.18 0.25 0.35 0.48 0.60 0.68 0.78 0.90 0.91 0.80 0.70 0.75 0.95 1.29 1.41 1.27 0.94 0.64 0.59 0.61 0.55 0.49 0.52 0.53 0.45 0.42 0.43 0.42 0.44 0.49 0.53 0.54 0.55 0.58 0.59 0.55 0.59 0.60 0.68 0.70 0.70 0.73 0.77
0.03 0.09 0.13 0.10 0.10 0.12 0.19 0.24 0.30 0.35 0.46 0.68 0.87 1.02 0.91 0.72 0.74 0.95 1.16 1.43 1.60 1.43 1.22 1.00 0.89 0.77 0.70 0.64 0.56 0.66 0.59 0.56 0.58 0.67 0.68 0.78 0.96 0.89 0.88 0.77 0.82 0.82 0.86 0.95 1.03 1.00 0.98 0.98 0.98
0.01 0.05 0.06 0.04 0.05 0.05 0.11 0.21 0.27 0.39 0.66 1.13 1.37 1.23 0.98 0.85 0.95 1.20 1.37 1.35 1.42 1.42 1.33 1.35 1.18 1.07 1.00 0.93 0.99 1.10 1.02 0.99 1.02 1.18 1.18 1.41 1.57 1.38 0.99 1.06 1.26 1.22 1.32 1.44 1.58 1.76 1.58 1.40 1.22
0.00 0.02 0.03 0.02 0.02 0.02 0.06 0.13 0.25 0.43 0.86 1.40 1.60 1.30 1.10 1.07 1.17 1.31 1.61 1.68 1.75 1.73 1.56 1.61 1.50 1.40 1.41 1.47 1.44 1.48 1.58 1.63 1.68 1.68 1.72 1.98 1.84 1.48 1.27 1.44 1.72 1.71 1.73 1.79 2.03 2.21 1.85 1.83 1.88
0.00 0.00 0.00 0.01 0.01 0.02 0.04 0.12 0.31 0.57 0.97 1.26 1.18 1.04 1.04 1.25 1.42 1.59 1.84 2.14 2.22 2.27 2.13 1.89 1.82 1.96 1.95 1.84 1.77 1.62 1.48 1.47 1.58 1.70 1.70 2.05 2.19 2.05 1.93 1.97 1.86 2.01 2.16 2.42 2.37 2.40 2.28 2.27 2.14
0.00 0.00 0.00 0.01 0.01 0.03 0.06 0.15 0.34 0.66 0.88 0.94 0.82 0.86 1.13 1.41 1.66 2.10 2.49 2.57 2.53 2.72 2.85 2.64 2.57 2.50 2.29 2.24 1.86 1.61 1.54 1.40 1.33 1.53 1.69 1.92 2.20 2.24 2.27 2.00 1.91 1.84 1.99 2.23 2.23 2.10 2.23 2.36 2.34
0.00 0.00 0.01 0.02 0.02 0.04 0.09 0.19 0.34 0.57 0.67 0.69 0.76 1.00 1.21 1.60 1.90 2.41 2.89 2.94 3.03 3.28 3.44 3.33 3.30 3.07 2.74 2.41 2.14 2.00 1.73 1.60 1.40 1.44 1.45 1.81 2.13 2.12 1.97 1.95 1.99 1.92 2.02 2.06 2.06 2.12 2.32 2.45 2.54
0.00 0.01 0.06 0.07 0.05 0.07 0.10 0.28 0.42 0.61 0.72 0.68 0.85 1.03 1.41 1.86 2.11 2.43 2.68 3.05 3.46 3.83 3.89 3.82 3.82 3.66 3.53 3.18 2.75 2.32 2.07 1.80 1.73 1.62 1.49 1.73 1.98 2.07 2.04 1.96 1.82 1.85 1.94 2.04 2.07 2.12 2.25 2.17 2.24
0.02 0.05 0.16 0.17 0.11 0.10 0.12 0.45 0.71 0.70 0.70 0.74 0.91 1.24 1.52 1.81 2.21 2.44 2.76 3.09 3.49 3.99 4.36 4.41 3.88 3.81 3.78 3.61 3.28 2.85 2.67 2.49 2.26 1.88 1.65 1.63 1.79 1.85 1.89 1.73 1.68 1.76 1.63 1.67 1.76 1.72 1.80 1.89 2.04
0.05 0.10 0.16 0.25 0.16 0.13 0.24 0.72 1.04 0.78 0.62 0.73 1.02 1.35 1.73 1.92 2.33 2.47 2.67 2.94 3.39 4.25 5.10 5.06 4.48 4.07 3.77 3.65 3.60 3.46 3.19 2.77 2.38 2.06 1.85 1.66 1.57 1.40 1.41 1.38 1.44 1.43 1.39 1.38 1.27 1.49 1.59 1.72 1.83
0.05 0.10 0.23 0.35 0.22 0.20 0.30 0.67 0.71 0.63 0.79 0.79 0.88 1.12 1.45 1.56 1.85 2.12 2.42 2.95 3.75 4.89 5.67 5.55 4.87 4.36 3.99 3.78 3.58 3.50 3.12 2.79 2.40 2.16 1.94 1.63 1.53 1.30 1.21 1.15 1.20 1.13 1.17 1.27 1.31 1.42 1.42 1.41 1.49
0.04 0.09 0.22 0.26 0.20 0.28 0.36 0.56 0.66 0.77 0.95 0.95 0.83 0.87 1.18 1.39 1.65 2.02 2.60 3.49 4.56 5.46 5.74 5.21 4.65 4.28 3.83 3.38 2.81 2.42 2.32 2.20 1.97 1.72 1.43 1.26 1.17 1.22 1.22 1.06 1.06 0.97 0.99 1.03 1.03 1.12 1.14 1.13 1.20
0.06 0.08 0.19 0.26 0.18 0.21 0.35 0.66 0.94 0.92 0.84 0.82 0.85 0.83 0.99 1.38 1.82 2.46 3.46 4.12 4.39 4.50 4.26 3.89 3.58 3.37 2.91 2.47 2.19 1.94 1.90 1.74 1.57 1.47 1.36 1.08 0.98 1.00 0.93 0.96 0.92 0.88 0.97 0.99 0.97 0.97 0.97 0.96 1.01
0.10 0.10 0.18 0.25 0.15 0.16 0.36 0.80 1.07 1.08 0.86 0.73 0.73 0.70 0.94 1.39 1.97 2.77 3.34 3.48 3.22 2.90 2.81 2.74 2.77 2.51 2.36 2.25 2.12 2.00 1.94 1.73 1.48 1.34 1.21 1.00 0.87 0.86 0.82 0.80 0.84 0.88 0.82 0.90 0.94 0.85 0.89 0.94 0.89
0.09 0.06 0.06 0.09 0.15 0.33 0.52 1.03 1.18 0.98 0.92 0.76 0.74 0.72 0.85 1.16 1.49 1.92 2.18 2.08 2.21 2.34 2.33 2.42 2.50 2.24 2.21 2.13 1.78 1.60 1.49 1.34 1.21 1.15 1.13 1.19 1.00 0.86 0.77 0.72 0.70 0.74 0.73 0.88 0.78 0.78 0.84 0.89 0.80
0.04 0.03 0.04 0.11 0.22 0.41 0.60 0.85 0.96 0.76 0.90 0.73 0.61 0.63 0.65 0.84 0.92 1.03 1.16 1.30 1.51 1.62 1.78 2.05 2.26 2.20 2.04 1.86 1.71 1.65 1.48 1.41 1.40 1.42 1.34 1.29 1.19 1.00 0.85 0.83 0.75 0.74 0.72 0.77 0.76 0.92 0.88 0.83 0.78
0.03 0.05 0.12 0.23 0.40 0.89 0.84 0.82 1.02 0.92 0.91 0.69 0.52 0.47 0.55 0.70 0.79 0.82 0.86 0.99 1.16 1.30 1.45 1.69 1.98 2.09 2.01 1.85 1.71 1.63 1.58 1.51 1.42 1.39 1.33 1.19 1.11 1.06 0.96 0.92 0.89 0.82 0.76 0.75 0.73 0.85 0.89 0.92 0.91
0.05 0.07 0.24 0.58 0.98 1.14 0.71 0.78 1.05 0.79 0.68 0.51 0.31 0.29 0.43 0.64 0.77 0.83 0.79 0.75 0.83 0.99 1.14 1.23 1.39 1.62 1.73 1.69 1.64 1.57 1.63 1.50 1.30 1.20 1.13 1.10 0.98 0.90 0.87 0.85 0.83 0.73 0.74 0.80 0.87 0.87 0.87 0.91 0.94
0.05 0.04 0.11 0.22 0.33 0.51 0.66 1.05 1.18 0.84 0.56 0.31 0.20 0.24 0.39 0.55 0.59 0.65 0.67 0.62 0.60 0.69 0.88 0.99 1.16 1.33 1.51 1.50 1.45 1.40 1.44 1.36 1.25 1.23 1.03 0.94 0.92 0.87 0.89 0.88 0.80 0.76 0.79 0.78 0.90 0.80 0.76 0.81 0.82
0.05 0.03 0.04 0.07 0.12 0.32 0.66 0.96 0.92 0.73 0.51 0.32 0.23 0.23 0.25 0.33 0.40 0.51 0.58 0.62 0.62 0.62 0.73 0.84 1.03 1.20 1.37 1.47 1.47 1.38 1.37 1.38 1.32 1.23 1.08 0.94 0.99 0.96 1.02 0.95 0.84 0.85 0.90 0.92 0.96 0.83 0.80 0.85 0.80
0.05 0.04 0.04 0.05 0.11 0.23 0.50 0.87 1.05 0.87 0.58 0.35 0.30 0.29 0.34 0.36 0.32 0.44 0.56 0.59 0.53 0.46 0.52 0.67 0.83 1.03 1.17 1.33 1.35 1.25 1.39 1.36 1.32 1.24 1.11 0.99 0.95 0.93 1.00 0.96 0.88 0.87 0.89 0.93 0.97 0.88 0.90 0.91 0.89
0.07 0.06 0.06 0.05 0.08 0.14 0.33 0.55 0.51 0.45 0.36 0.31 0.34 0.32 0.28 0.31 0.29 0.39 0.45 0.49 0.45 0.38 0.40 0.48 0.64 0.80 0.90 1.00 1.11 1.11 1.17 1.15 1.11 1.12 1.12 1.06 1.01 0.97 0.92 0.94 0.94 0.89 0.91 0.97 1.01 0.98 0.97 0.91 0.95
0.09 0.09 0.09 0.08 0.08 0.09 0.16 0.34 0.29 0.30 0.30 0.29 0.37 0.39 0.32 0.30 0.39 0.35 0.32 0.40 0.46 0.38 0.33 0.39 0.51 0.64 0.71 0.78 0.82 0.88 0.95 0.99 0.95 0.94 1.03 1.09 1.04 0.98 0.99 1.00 0.94 0.84 0.86 1.01 1.05 1.00 1.00 0.98 0.95

GEFSSGP_prec_meanprecacc_180.txt.gz
Total_Precipitation_Accumulation
0.04 0.09 0.22 0.42 1.00 1.34 1.18 0.73 0.53 0.50 0.56 0.55 0.49 0.46 0.50 0.50 0.69 1.19 0.78 0.43 0.20 0.11 0.12 0.20 0.34 0.29 0.24 0.24 0.25 0.26 0.24 0.25 0.26 0.26 0.24 0.24 0.25 0.26 0.27 0.33 0.40 0.43 0.42 0.44 0.45 0.42 0.41 0.44 0.47
0.07 0.14 0.32 0.84 1.29 1.26 1.11 0.63 0.36 0.44 0.53 0.67 0.66 0.52 0.42 0.42 0.42 0.38 0.38 0.50 0.21 0.13 0.12 0.13 0.25 0.25 0.20 0.20 0.23 0.24 0.23 0.23 0.22 0.24 0.25 0.27 0.29 0.32 0.35 0.41 0.42 0.43 0.44 0.44 0.42 0.38 0.39 0.41 0.52
0.10 0.22 0.40 0.84 0.92 0.83 0.83 0.50 0.37 0.33 0.50 0.73 0.71 0.47 0.46 0.49 0.40 0.32 0.33 0.39 0.24 0.20 0.13 0.14 0.24 0.24 0.21 0.21 0.23 0.23 0.25 0.24 0.22 0.24 0.26 0.30 0.35 0.40 0.43 0.42 0.42 0.46 0.49 0.49 0.46 0.41 0.40 0.41 0.49
0.12 0.28 0.50 0.57 0.39 0.31 0.39 0.44 0.45 0.44 0.63 0.76 0.62 0.52 0.50 0.49 0.44 0.32 0.29 0.38 0.26 0.25 0.18 0.18 0.26 0.25 0.23 0.23 0.22 0.24 0.27 0.26 0.25 0.26 0.29 0.36 0.42 0.46 0.46 0.45 0.48 0.50 0.51 0.47 0.45 0.48 0.47 0.49 0.57
0.11 0.27 0.53 0.42 0.25 0.19 0.22 0.27 0.35 0.52 0.70 0.82 0.69 0.66 0.69 0.52 0.43 0.36 0.28 0.40 0.38 0.31 0.28 0.27 0.34 0.33 0.29 0.27 0.28 0.29 0.30 0.29 0.27 0.27 0.28 0.38 0.46 0.46 0.44 0.44 0.46 0.44 0.46 0.48 0.52 0.57 0.57 0.63 0.67
0.10 0.22 0.39 0.27 0.17 0.14 0.19 0.24 0.38 0.57 0.61 0.69 0.79 0.85 0.82 0.60 0.53 0.44 0.41 0.50 0.52 0.43 0.32 0.40 0.43 0.43 0.38 0.36 0.37 0.39 0.38 0.33 0.30 0.30 0.33 0.40 0.47 0.45 0.45 0.46 0.43 0.39 0.39 0.45 0.54 0.63 0.65 0.67 0.70
0.10 0.16 0.19 0.16 0.11 0.13 0.20 0.31 0.35 0.47 0.56 0.77 0.81 0.84 0.89 0.80 0.67 0.55 0.65 0.87 0.84 0.67 0.49 0.50 0.50 0.46 0.44 0.46 0.46 0.47 0.45 0.42 0.40 0.38 0.41 0.44 0.49 0.45 0.46 0.56 0.49 0.44 0.45 0.49 0.61 0.66 0.77 0.71 0.69
0.06 0.12 0.15 0.13 0.08 0.11 0.18 0.25 0.35 0.48 0.60 0.68 0.78 0.90 0.91 0.80 0.71 0.76 0.96 1.29 1.41 1.27 0.94 0.65 0.60 0.64 0.57 0.50 0.54 0.56 0.47 0.44 0.47 0.46 0.48 0.53 0.57 0.57 0.59 0.60 0.62 0.57 0.61 0.64 0.74 0.73 0.73 0.76 0.79
0.03 0.09 0.14 0.11 0.10 0.12 0.19 0.24 0.30 0.36 0.47 0.68 0.87 1.02 0.91 0.72 0.74 0.95 1.16 1.43 1.61 1.44 1.23 1.03 0.92 0.80 0.74 0.67 0.58 0.70 0.61 0.58 0.63 0.74 0.73 0.87 1.05 0.95 0.93 0.80 0.84 0.84 0.88 0.99 1.09 1.04 0.99 1.00 1.00
0.01 0.05 0.06 0.04 0.05 0.05 0.11 0.21 0.28 0.41 0.72 1.14 1.37 1.25 0.99 0.85 0.95 1.20 1.37 1.36 1.42 1.44 1.35 1.38 1.22 1.11 1.08 0.97 1.05 1.22 1.12 1.08 1.15 1.31 1.29 1.57 1.70 1.49 1.05 1.08 1.29 1.24 1.35 1.49 1.64 1.81 1.61 1.42 1.23
0.00 0.02 0.03 0.02 0.02 0.03 0.06 0.13 0.25 0.44 0.95 1.43 1.62 1.32 1.12 1.07 1.17 1.32 1.62 1.70 1.77 1.74 1.58 1.64 1.53 1.43 1.46 1.54 1.52 1.59 1.69 1.75 1.84 1.83 1.84 2.09 1.91 1.54 1.32 1.48 1.75 1.75 1.79 1.85 2.09 2.27 1.90 1.86 1.90
0.00 0.00 0.00 0.01 0.01 0.02 0.04 0.12 0.32 0.58 0.98 1.27 1.20 1.06 1.05 1.25 1.43 1.59 1.85 2.16 2.26 2.28 2.15 1.91 1.85 1.99 1.99 1.90 1.84 1.69 1.52 1.52 1.68 1.79 1.77 2.12 2.28 2.13 2.01 2.06 1.93 2.08 2.24 2.50 2.42 2.46 2.32 2.29 2.14
0.00 0.00 0.00 0.01 0.01 0.03 0.07 0.15 0.35 0.67 0.88 0.94 0.83 0.88 1.14 1.41 1.66 2.10 2.50 2.57 2.55 2.74 2.87 2.65 2.59 2.53 2.32 2.29 1.94 1.66 1.57 1.45 1.38 1.58 1.74 1.97 2.26 2.30 2.33 2.07 1.99 1.89 2.03 2.27 2.28 2.13 2.25 2.37 2.35
0.00 0.00 0.01 0.02 0.02 0.05 0.14 0.21 0.35 0.58 0.67 0.69 0.76 1.00 1.21 1.61 1.90 2.41 2.89 2.95 3.04 3.29 3.46 3.34 3.31 3.09 2.76 2.45 2.20 2.06 1.76 1.65 1.43 1.47 1.48 1.85 2.19 2.19 2.05 2.03 2.06 1.96 2.06 2.09 2.11 2.17 2.35 2.46 2.55
0.00 0.01 0.06 0.07 0.05 0.07 0.14 0.34 0.43 0.62 0.72 0.68 0.86 1.03 1.41 1.86 2.11 2.43 2.68 3.06 3.47 3.84 3.90 3.83 3.82 3.68 3.55 3.21 2.78 2.36 2.11 1.84 1.77 1.66 1.53 1.76 2.02 2.13 2.11 2.04 1.88 1.90 1.97 2.06 2.11 2.17 2.28 2.20 2.26
0.02 0.06 0.16 0.17 0.11 0.10 0.15 0.50 0.73 0.70 0.70 0.74 0.91 1.24 1.52 1.81 2.21 2.44 2.76 3.10 3.50 4.00 4.37 4.42 3.90 3.83 3.81 3.64 3.31 2.89 2.72 2.54 2.31 1.93 1.72 1.68 1.84 1.88 1.94 1.79 1.75 1.83 1.68 1.71 1.81 1.76 1.83 1.93 2.07
0.05 0.10 0.16 0.25 0.16 0.13 0.24 0.73 1.05 0.78 0.62 0.74 1.02 1.35 1.73 1.92 2.33 2.47 2.67 2.95 3.40 4.26 5.12 5.09 4.51 4.10 3.80 3.69 3.66 3.51 3.25 2.82 2.43 2.13 1.93 1.74 1.62 1.43 1.45 1.43 1.51 1.49 1.44 1.43 1.31 1.55 1.64 1.79 1.89
0.05 0.10 0.23 0.35 0.22 0.20 0.30 0.67 0.71 0.64 0.80 0.79 0.88 1.12 1.45 1.56 1.85 2.12 2.42 2.95 3.75 4.90 5.68 5.57 4.90 4.41 4.04 3.83 3.65 3.56 3.19 2.85 2.46 2.23 2.02 1.71 1.61 1.35 1.26 1.21 1.27 1.20 1.25 1.34 1.38 1.51 1.49 1.47 1.55
0.04 0.09 0.22 0.26 0.20 0.28 0.36 0.57 0.66 0.77 0.95 0.95 0.83 0.87 1.18 1.39 1.65 2.03 2.61 3.49 4.57 5.47 5.76 5.23 4.69 4.33 3.88 3.45 2.89 2.50 2.40 2.28 2.04 1.78 1.48 1.32 1.22 1.27 1.28 1.12 1.16 1.06 1.09 1.12 1.11 1.20 1.23 1.21 1.27
0.06 0.08 0.19 0.26 0.18 0.21 0.36 0.67 0.95 0.92 0.85 0.82 0.85 0.84 0.99 1.38 1.82 2.46 3.47 4.12 4.39 4.52 4.28 3.93 3.65 3.42 2.96 2.54 2.27 2.03 1.97 1.80 1.63 1.53 1.44 1.15 1.02 1.04 0.99 1.05 1.02 0.98 1.09 1.11 1.08 1.09 1.09 1.06 1.10
0.10 0.10 0.18 0.25 0.15 0.16 0.37 0.84 1.11 1.10 0.87 0.74 0.73 0.70 0.94 1.39 1.97 2.77 3.35 3.48 3.22 2.92 2.82 2.77 2.81 2.56 2.41 2.31 2.20 2.08 2.02 1.80 1.56 1.41 1.30 1.06 0.92 0.91 0.89 0.87 0.93 1.00 0.96 1.05 1.08 0.97 1.01 1.05 1.01
0.09 0.06 0.06 0.09 0.15 0.33 0.52 1.07 1.25 1.02 0.96 0.79 0.76 0.74 0.85 1.16 1.49 1.93 2.18 2.08 2.21 2.34 2.34 2.44 2.53 2.28 2.25 2.17 1.85 1.72 1.60 1.45 1.30 1.23 1.22 1.26 1.06 0.92 0.86 0.80 0.80 0.86 0.83 1.01 0.89 0.92 0.99 1.03 0.92
0.04 0.03 0.04 0.11 0.22 0.42 0.61 0.87 1.02 0.82 0.97 0.78 0.65 0.65 0.65 0.84 0.92 1.03 1.16 1.30 1.51 1.62 1.78 2.07 2.30 2.25 2.08 1.90 1.77 1.75 1.61 1.52 1.49 1.51 1.46 1.40 1.27 1.06 0.92 0.90 0.84 0.84 0.80 0.87 0.85 1.04 1.02 0.96 0.89
0.03 0.05 0.12 0.23 0.40 0.89 0.85 0.83 1.05 0.96 0.99 0.75 0.55 0.48 0.55 0.70 0.79 0.82 0.86 0.99 1.17 1.30 1.45 1.70 2.00 2.13 2.05 1.88 1.75 1.70 1.68 1.61 1.52 1.50 1.44 1.28 1.18 1.11 1.01 0.98 0.97 0.89 0.84 0.83 0.81 0.94 0.99 1.03 1.03
0.05 0.07 0.24 0.58 0.98 1.14 0.71 0.78 1.05 0.80 0.71 0.55 0.34 0.30 0.43 0.64 0.77 0.83 0.80 0.76 0.83 0.99 1.15 1.23 1.40 1.65 1.76 1.72 1.67 1.63 1.70 1.57 1.39 1.30 1.21 1.16 1.01 0.93 0.92 0.90 0.90 0.80 0.81 0.88 0.95 0.94 0.95 0.99 1.03
0.05 0.04 0.11 0.22 0.33 0.52 0.67 1.05 1.18 0.84 0.56 0.31 0.20 0.24 0.39 0.55 0.59 0.66 0.67 0.62 0.60 0.69 0.88 0.99 1.17 1.34 1.53 1.53 1.49 1.45 1.49 1.42 1.32 1.31 1.09 0.99 0.95 0.90 0.91 0.91 0.84 0.81 0.84 0.85 1.00 0.88 0.83 0.88 0.90
0.05 0.03 0.04 0.07 0.12 0.32 0.67 0.96 0.92 0.73 0.51 0.32 0.23 0.23 0.25 0.33 0.40 0.51 0.59 0.63 0.62 0.62 0.74 0.85 1.05 1.22 1.39 1.50 1.51 1.42 1.42 1.42 1.39 1.32 1.14 0.99 1.04 0.99 1.05 1.00 0.90 0.90 0.96 0.99 1.04 0.91 0.87 0.94 0.88
0.05 0.04 0.04 0.05 0.11 0.24 0.51 0.88 1.05 0.88 0.59 0.35 0.30 0.29 0.34 0.36 0.32 0.44 0.56 0.59 0.53 0.46 0.53 0.68 0.84 1.06 1.20 1.36 1.39 1.29 1.44 1.41 1.39 1.31 1.19 1.05 1.01 0.99 1.08 1.05 0.95 0.93 0.96 1.00 1.05 0.95 0.97 0.99 0.97
0.07 0.06 0.06 0.05 0.08 0.14 0.35 0.57 0.52 0.47 0.38 0.32 0.35 0.32 0.28 0.32 0.30 0.39 0.45 0.49 0.45 0.38 0.40 0.49 0.66 0.83 0.93 1.03 1.15 1.15 1.22 1.19 1.18 1.20 1.19 1.13 1.09 1.05 1.03 1.03 1.01 0.97 1.00 1.06 1.10 1.05 1.04 0.99 1.02
0.09 0.09 0.09 0.08 0.08 0.09 0.17 0.35 0.29 0.31 0.32 0.30 0.39 0.40 0.32 0.31 0.39 0.35 0.32 0.40 0.49 0.39 0.33 0.39 0.52 0.66 0.74 0.81 0.85 0.91 0.99 1.03 1.00 0.99 1.08 1.15 1.10 1.03 1.05 1.06 1.00 0.90 0.95 1.08 1.12 1.06 1.08 1.07 1.02

GEFSSGP_prec_meanprecacc_186.txt.gz
Total_Precipitation_Accumulation
0.05 0.09 0.24 0.44 1.02 1.36 1.18 0.73 0.53 0.50 0.56 0.56 0.49 0.46 0.50 0.51 0.70 1.22 0.84 0.46 0.21 0.11 0.12 0.21 0.35 0.30 0.26 0.25 0.26 0.28 0.26 0.26 0.28 0.29 0.26 0.27 0.29 0.29 0.30 0.36 0.44 0.48 0.47 0.48 0.51 0.47 0.45 0.48 0.52
0.08 0.15 0.33 0.85 1.31 1.26 1.12 0.63 0.36 0.44 0.53 0.67 0.66 0.52 0.42 0.42 0.42 0.40 0.42 0.52 0.22 0.13 0.12 0.13 0.25 0.26 0.21 0.21 0.24 0.26 0.25 0.24 0.24 0.26 0.28 0.30 0.32 0.35 0.38 0.44 0.46 0.49 0.48 0.47 0.45 0.43 0.43 0.45 0.56
0.11 0.22 0.41 0.86 0.93 0.83 0.84 0.50 0.37 0.33 0.50 0.73 0.71 0.48 0.46 0.49 0.41 0.34 0.36 0.40 0.25 0.20 0.13 0.14 0.25 0.24 0.22 0.22 0.24 0.24 0.27 0.25 0.23 0.25 0.28 0.33 0.38 0.43 0.45 0.46 0.47 0.51 0.54 0.53 0.50 0.44 0.44 0.44 0.52
0.13 0.28 0.51 0.58 0.40 0.31 0.40 0.44 0.46 0.45 0.63 0.76 0.62 0.52 0.51 0.50 0.44 0.33 0.31 0.39 0.26 0.25 0.18 0.18 0.26 0.25 0.23 0.23 0.22 0.25 0.27 0.27 0.26 0.27 0.30 0.38 0.44 0.49 0.49 0.48 0.52 0.55 0.56 0.53 0.49 0.52 0.49 0.51 0.59
0.11 0.28 0.54 0.43 0.26 0.19 0.22 0.27 0.35 0.52 0.70 0.82 0.69 0.66 0.69 0.53 0.44 0.36 0.30 0.41 0.38 0.31 0.28 0.28 0.34 0.33 0.29 0.28 0.29 0.30 0.31 0.30 0.28 0.27 0.29 0.39 0.47 0.49 0.47 0.47 0.50 0.47 0.49 0.52 0.56 0.61 0.60 0.65 0.70
0.11 0.23 0.41 0.29 0.17 0.14 0.19 0.24 0.38 0.57 0.61 0.69 0.79 0.85 0.83 0.61 0.53 0.45 0.42 0.52 0.53 0.43 0.33 0.41 0.44 0.43 0.39 0.37 0.38 0.40 0.39 0.34 0.31 0.31 0.34 0.41 0.48 0.47 0.47 0.49 0.46 0.41 0.40 0.46 0.56 0.65 0.68 0.69 0.73
0.11 0.18 0.22 0.18 0.12 0.13 0.20 0.31 0.35 0.48 0.56 0.77 0.81 0.85 0.90 0.81 0.68 0.56 0.68 0.89 0.85 0.67 0.49 0.51 0.51 0.47 0.45 0.47 0.48 0.48 0.46 0.43 0.41 0.39 0.43 0.45 0.50 0.46 0.48 0.58 0.52 0.45 0.46 0.50 0.62 0.68 0.79 0.73 0.72
0.07 0.13 0.17 0.15 0.08 0.12 0.18 0.25 0.36 0.49 0.61 0.69 0.79 0.91 0.92 0.81 0.71 0.77 0.97 1.32 1.43 1.28 0.96 0.66 0.61 0.65 0.58 0.51 0.55 0.57 0.49 0.46 0.48 0.48 0.50 0.55 0.59 0.58 0.59 0.62 0.64 0.58 0.62 0.65 0.76 0.76 0.76 0.78 0.82
0.04 0.10 0.14 0.11 0.10 0.13 0.19 0.25 0.32 0.38 0.47 0.69 0.88 1.02 0.92 0.72 0.74 0.95 1.17 1.46 1.63 1.45 1.26 1.06 0.95 0.83 0.77 0.71 0.60 0.72 0.63 0.60 0.65 0.77 0.76 0.91 1.07 0.96 0.94 0.81 0.85 0.85 0.89 1.01 1.12 1.06 1.03 1.03 1.03
0.02 0.05 0.07 0.05 0.05 0.05 0.12 0.22 0.28 0.42 0.73 1.16 1.39 1.26 1.00 0.85 0.95 1.20 1.38 1.38 1.45 1.46 1.39 1.42 1.25 1.14 1.13 1.03 1.07 1.24 1.13 1.09 1.17 1.33 1.34 1.61 1.74 1.51 1.08 1.10 1.31 1.27 1.38 1.52 1.68 1.84 1.64 1.44 1.25
0.00 0.03 0.03 0.02 0.02 0.03 0.06 0.15 0.26 0.45 0.95 1.44 1.64 1.35 1.13 1.08 1.18 1.32 1.63 1.72 1.79 1.76 1.60 1.66 1.54 1.45 1.50 1.59 1.54 1.61 1.71 1.76 1.85 1.88 1.93 2.13 1.95 1.58 1.36 1.51 1.79 1.79 1.82 1.88 2.12 2.31 1.92 1.88 1.91
0.00 0.00 0.00 0.01 0.01 0.02 0.05 0.14 0.34 0.59 0.99 1.28 1.21 1.07 1.06 1.25 1.43 1.60 1.86 2.17 2.27 2.29 2.16 1.92 1.86 2.03 2.03 1.93 1.86 1.71 1.55 1.55 1.70 1.81 1.80 2.16 2.32 2.19 2.12 2.16 2.00 2.13 2.28 2.55 2.47 2.49 2.35 2.32 2.18
0.00 0.00 0.00 0.01 0.01 0.04 0.08 0.17 0.37 0.68 0.89 0.95 0.84 0.88 1.14 1.41 1.67 2.11 2.51 2.59 2.55 2.75 2.87 2.66 2.59 2.54 2.34 2.31 1.96 1.70 1.61 1.50 1.41 1.61 1.78 2.01 2.31 2.36 2.39 2.14 2.04 1.94 2.09 2.32 2.32 2.15 2.27 2.41 2.40
0.00 0.00 0.01 0.02 0.02 0.05 0.14 0.23 0.37 0.60 0.69 0.70 0.77 1.00 1.21 1.61 1.90 2.41 2.90 2.96 3.05 3.29 3.46 3.35 3.31 3.10 2.78 2.47 2.22 2.11 1.86 1.76 1.49 1.53 1.53 1.88 2.22 2.22 2.07 2.08 2.11 2.01 2.14 2.15 2.13 2.19 2.39 2.52 2.60
0.00 0.02 0.07 0.07 0.06 0.07 0.15 0.36 0.46 0.65 0.74 0.69 0.86 1.04 1.41 1.86 2.11 2.43 2.69 3.07 3.48 3.85 3.90 3.83 3.83 3.69 3.56 3.22 2.80 2.40 2.19 1.95 1.85 1.72 1.58 1.81 2.07 2.16 2.14 2.07 1.93 1.94 2.02 2.11 2.15 2.21 2.33 2.26 2.31
0.02 0.06 0.17 0.17 0.11 0.11 0.15 0.51 0.76 0.74 0.72 0.76 0.92 1.26 1.53 1.82 2.22 2.44 2.76 3.11 3.51 4.00 4.38 4.42 3.91 3.85 3.82 3.66 3.34 2.93 2.79 2.62 2.38 1.99 1.78 1.73 1.89 1.92 1.97 1.82 1.78 1.87 1.72 1.76 1.87 1.81 1.90 1.99 2.13
0.05 0.10 0.18 0.26 0.16 0.13 0.25 0.74 1.08 0.82 0.66 0.80 1.07 1.38 1.74 1.94 2.35 2.48 2.68 2.95 3.40 4.26 5.13 5.11 4.53 4.12 3.81 3.71 3.69 3.55 3.32 2.89 2.49 2.18 1.99 1.80 1.68 1.50 1.52 1.47 1.54 1.52 1.46 1.47 1.35 1.60 1.70 1.85 1.95
0.05 0.11 0.23 0.35 0.22 0.20 0.31 0.69 0.75 0.67 0.86 0.88 0.92 1.14 1.47 1.58 1.87 2.14 2.43 2.96 3.75 4.90 5.70 5.59 4.94 4.43 4.06 3.86 3.67 3.58 3.24 2.90 2.49 2.26 2.06 1.77 1.67 1.42 1.32 1.25 1.31 1.24 1.29 1.38 1.42 1.56 1.56 1.52 1.60
0.05 0.09 0.22 0.27 0.20 0.29 0.37 0.59 0.69 0.80 1.00 1.00 0.87 0.92 1.22 1.42 1.68 2.06 2.63 3.50 4.57 5.48 5.77 5.25 4.72 4.36 3.92 3.48 2.92 2.53 2.44 2.32 2.07 1.80 1.51 1.36 1.27 1.31 1.32 1.16 1.22 1.12 1.14 1.17 1.17 1.24 1.27 1.23 1.31
0.06 0.08 0.20 0.26 0.18 0.21 0.36 0.69 0.98 0.97 0.90 0.87 0.93 0.94 1.05 1.42 1.86 2.52 3.50 4.13 4.39 4.53 4.29 3.95 3.68 3.45 2.99 2.58 2.31 2.06 2.00 1.83 1.66 1.56 1.48 1.19 1.07 1.08 1.02 1.10 1.08 1.03 1.13 1.16 1.14 1.14 1.13 1.09 1.14
0.10 0.11 0.18 0.25 0.16 0.16 0.37 0.85 1.13 1.13 0.90 0.78 0.84 0.83 1.02 1.45 2.03 2.82 3.37 3.50 3.23 2.93 2.83 2.78 2.83 2.58 2.43 2.35 2.23 2.12 2.06 1.83 1.59 1.46 1.37 1.12 0.97 0.96 0.95 0.92 0.97 1.04 1.00 1.11 1.13 1.04 1.05 1.09 1.06
0.09 0.07 0.06 0.09 0.15 0.33 0.52 1.08 1.26 1.03 0.98 0.83 0.84 0.86 0.92 1.20 1.54 1.96 2.20 2.09 2.21 2.35 2.36 2.46 2.55 2.30 2.27 2.20 1.88 1.76 1.64 1.50 1.34 1.27 1.26 1.30 1.11 0.97 0.90 0.84 0.84 0.90 0.89 1.06 0.92 0.96 1.03 1.08 0.98
0.04 0.03 0.04 0.11 0.22 0.42 0.61 0.87 1.03 0.84 1.02 0.83 0.70 0.69 0.68 0.86 0.94 1.04 1.17 1.31 1.52 1.63 1.79 2.09 2.33 2.28 2.11 1.93 1.81 1.80 1.66 1.59 1.54 1.55 1.49 1.44 1.33 1.12 0.97 0.94 0.87 0.87 0.84 0.90 0.89 1.09 1.07 1.00 0.94
0.03 0.05 0.12 0.23 0.40 0.89 0.85 0.83 1.06 0.98 1.05 0.80 0.60 0.51 0.57 0.71 0.80 0.83 0.88 1.01 1.18 1.31 1.47 1.71 2.02 2.15 2.07 1.91 1.79 1.74 1.73 1.66 1.56 1.54 1.47 1.32 1.24 1.18 1.06 1.02 1.00 0.92 0.88 0.86 0.85 0.99 1.04 1.06 1.06
0.05 0.07 0.24 0.58 0.98 1.15 0.72 0.79 1.05 0.81 0.73 0.57 0.36 0.31 0.45 0.66 0.80 0.87 0.82 0.80 0.86 1.01 1.16 1.24 1.41 1.66 1.78 1.75 1.70 1.66 1.73 1.60 1.41 1.33 1.24 1.18 1.04 0.96 0.95 0.94 0.95 0.84 0.86 0.94 1.02 1.01 1.00 1.04 1.07
0.05 0.04 0.11 0.22 0.33 0.52 0.69 1.07 1.19 0.85 0.57 0.33 0.23 0.27 0.42 0.59 0.63 0.69 0.69 0.65 0.63 0.71 0.89 1.00 1.18 1.35 1.54 1.54 1.51 1.48 1.52 1.45 1.35 1.34 1.12 1.02 0.98 0.93 0.95 0.96 0.89 0.84 0.88 0.90 1.06 0.94 0.91 0.95 0.96
0.05 0.03 0.04 0.07 0.12 0.32 0.69 0.99 0.94 0.74 0.55 0.37 0.28 0.30 0.32 0.39 0.43 0.53 0.60 0.67 0.65 0.64 0.74 0.86 1.05 1.23 1.40 1.51 1.53 1.45 1.44 1.44 1.41 1.34 1.17 1.02 1.08 1.03 1.09 1.04 0.96 0.95 1.00 1.03 1.10 0.98 0.95 1.02 0.95
0.05 0.04 0.04 0.05 0.11 0.24 0.52 0.90 1.09 0.91 0.68 0.49 0.39 0.37 0.41 0.40 0.35 0.47 0.59 0.63 0.55 0.48 0.54 0.69 0.85 1.07 1.22 1.38 1.41 1.31 1.46 1.44 1.42 1.35 1.22 1.09 1.04 1.03 1.11 1.09 1.00 0.98 1.01 1.05 1.11 1.01 1.03 1.05 1.03
0.07 0.06 0.06 0.05 0.08 0.14 0.36 0.58 0.56 0.51 0.44 0.40 0.46 0.43 0.33 0.35 0.32 0.40 0.49 0.52 0.48 0.40 0.42 0.50 0.67 0.84 0.95 1.06 1.17 1.17 1.24 1.23 1.23 1.25 1.23 1.17 1.12 1.09 1.08 1.07 1.05 1.01 1.04 1.09 1.14 1.10 1.10 1.07 1.11
0.09 0.09 0.09 0.08 0.08 0.09 0.18 0.36 0.31 0.34 0.35 0.35 0.47 0.51 0.42 0.38 0.42 0.37 0.34 0.43 0.53 0.48 0.37 0.43 0.57 0.69 0.76 0.84 0.88 0.93 1.01 1.06 1.04 1.05 1.12 1.19 1.13 1.05 1.08 1.09 1.04 0.94 0.99 1.12 1.16 1.11 1.14 1.15 1.12

GEFSSGP_prec_meanprecacc_192.txt.gz
Total_Precipitation_Accumulation
0.05 0.10 0.24 0.44 1.03 1.36 1.18 0.73 0.53 0.50 0.56 0.57 0.50 0.47 0.51 0.52 0.71 1.22 0.85 0.47 0.23 0.13 0.16 0.26 0.39 0.32 0.28 0.27 0.28 0.30 0.28 0.28 0.31 0.32 0.30 0.31 0.33 0.34 0.35 0.42 0.53 0.57 0.55 0.57 0.59 0.54 0.50 0.55 0.59
0.09 0.16 0.34 0.86 1.31 1.26 1.12 0.63 0.36 0.44 0.53 0.67 0.66 0.52 0.43 0.43 0.42 0.40 0.42 0.53 0.23 0.14 0.14 0.15 0.28 0.28 0.22 0.22 0.26 0.27 0.26 0.25 0.26 0.29 0.31 0.34 0.36 0.39 0.42 0.49 0.54 0.59 0.59 0.58 0.53 0.48 0.49 0.51 0.62
0.11 0.23 0.41 0.86 0.93 0.84 0.84 0.50 0.37 0.33 0.50 0.73 0.71 0.48 0.46 0.49 0.41 0.34 0.36 0.41 0.26 0.21 0.15 0.16 0.27 0.26 0.23 0.23 0.25 0.26 0.28 0.27 0.25 0.27 0.31 0.37 0.43 0.47 0.49 0.50 0.52 0.60 0.63 0.61 0.55 0.49 0.50 0.51 0.58
0.13 0.28 0.51 0.58 0.40 0.31 0.40 0.44 0.46 0.45 0.63 0.76 0.62 0.52 0.52 0.51 0.44 0.33 0.31 0.39 0.26 0.25 0.18 0.19 0.28 0.26 0.24 0.24 0.23 0.26 0.29 0.29 0.28 0.29 0.32 0.42 0.49 0.52 0.52 0.51 0.55 0.61 0.62 0.57 0.54 0.56 0.54 0.55 0.64
0.11 0.28 0.55 0.43 0.26 0.20 0.22 0.27 0.36 0.52 0.70 0.82 0.69 0.66 0.70 0.54 0.44 0.36 0.30 0.41 0.39 0.32 0.29 0.28 0.35 0.34 0.30 0.29 0.30 0.32 0.33 0.33 0.30 0.29 0.32 0.44 0.52 0.52 0.52 0.51 0.53 0.51 0.54 0.57 0.60 0.66 0.65 0.69 0.74
0.11 0.23 0.41 0.29 0.17 0.15 0.19 0.24 0.38 0.58 0.61 0.69 0.79 0.86 0.83 0.63 0.54 0.45 0.42 0.52 0.54 0.45 0.34 0.42 0.45 0.45 0.41 0.39 0.40 0.42 0.42 0.37 0.33 0.33 0.37 0.45 0.51 0.50 0.51 0.52 0.50 0.45 0.44 0.50 0.60 0.70 0.72 0.74 0.77
0.11 0.18 0.22 0.18 0.12 0.13 0.20 0.31 0.36 0.49 0.56 0.77 0.82 0.85 0.91 0.83 0.70 0.57 0.68 0.90 0.87 0.69 0.51 0.52 0.51 0.48 0.47 0.49 0.50 0.51 0.48 0.45 0.43 0.42 0.45 0.47 0.52 0.48 0.50 0.61 0.56 0.48 0.48 0.52 0.65 0.71 0.82 0.77 0.76
0.07 0.13 0.17 0.15 0.09 0.12 0.19 0.26 0.36 0.50 0.61 0.69 0.79 0.91 0.92 0.82 0.73 0.78 0.98 1.34 1.47 1.31 0.98 0.67 0.62 0.66 0.59 0.52 0.57 0.60 0.51 0.48 0.50 0.51 0.53 0.58 0.61 0.61 0.62 0.65 0.68 0.61 0.64 0.67 0.78 0.79 0.79 0.82 0.86
0.04 0.10 0.14 0.11 0.10 0.13 0.20 0.25 0.32 0.38 0.48 0.70 0.88 1.02 0.92 0.73 0.75 0.96 1.17 1.47 1.65 1.47 1.27 1.08 0.96 0.84 0.79 0.72 0.61 0.73 0.64 0.61 0.67 0.79 0.81 0.95 1.08 0.96 0.94 0.83 0.89 0.88 0.93 1.05 1.18 1.12 1.08 1.07 1.08
0.02 0.05 0.07 0.05 0.05 0.05 0.12 0.22 0.29 0.43 0.74 1.17 1.40 1.26 1.01 0.85 0.95 1.21 1.38 1.38 1.46 1.48 1.40 1.44 1.26 1.15 1.14 1.04 1.08 1.25 1.14 1.10 1.19 1.35 1.36 1.62 1.74 1.52 1.08 1.13 1.35 1.32 1.46 1.61 1.78 1.93 1.70 1.47 1.27
0.00 0.03 0.03 0.02 0.02 0.03 0.06 0.15 0.27 0.45 0.96 1.45 1.65 1.35 1.13 1.08 1.18 1.33 1.63 1.72 1.79 1.77 1.60 1.67 1.56 1.46 1.51 1.59 1.55 1.61 1.71 1.76 1.86 1.88 1.94 2.13 1.95 1.59 1.37 1.52 1.81 1.83 1.88 1.92 2.16 2.34 1.94 1.89 1.92
0.00 0.00 0.00 0.01 0.01 0.02 0.05 0.14 0.34 0.59 0.99 1.28 1.21 1.07 1.06 1.25 1.44 1.61 1.87 2.17 2.27 2.30 2.16 1.93 1.87 2.04 2.05 1.94 1.86 1.71 1.55 1.55 1.70 1.82 1.81 2.17 2.33 2.19 2.12 2.16 2.00 2.14 2.30 2.57 2.48 2.50 2.36 2.33 2.19
0.00 0.00 0.00 0.01 0.01 0.04 0.08 0.17 0.37 0.68 0.89 0.95 0.84 0.88 1.14 1.41 1.67 2.11 2.51 2.59 2.56 2.76 2.88 2.68 2.60 2.55 2.36 2.33 1.97 1.71 1.62 1.50 1.41 1.62 1.80 2.03 2.32 2.37 2.40 2.15 2.05 1.95 2.11 2.34 2.34 2.17 2.29 2.44 2.42
0.00 0.00 0.01 0.02 0.02 0.05 0.14 0.23 0.37 0.60 0.69 0.70 0.77 1.01 1.21 1.61 1.90 2.41 2.90 2.97 3.06 3.30 3.46 3.36 3.32 3.11 2.79 2.49 2.24 2.12 1.86 1.77 1.49 1.54 1.56 1.91 2.24 2.24 2.09 2.12 2.13 2.02 2.15 2.16 2.15 2.22 2.42 2.54 2.62
0.00 0.02 0.07 0.08 0.06 0.07 0.15 0.36 0.46 0.65 0.74 0.69 0.87 1.04 1.42 1.87 2.11 2.43 2.69 3.08 3.49 3.85 3.91 3.84 3.83 3.70 3.58 3.24 2.82 2.41 2.20 1.97 1.88 1.76 1.62 1.85 2.11 2.19 2.16 2.10 1.97 1.97 2.04 2.13 2.17 2.24 2.37 2.29 2.33
0.02 0.06 0.17 0.17 0.11 0.11 0.15 0.51 0.76 0.74 0.72 0.76 0.93 1.26 1.54 1.83 2.23 2.45 2.78 3.12 3.52 4.01 4.39 4.44 3.92 3.87 3.85 3.69 3.37 2.96 2.83 2.66 2.43 2.05 1.82 1.77 1.94 1.96 2.02 1.85 1.82 1.90 1.77 1.80 1.90 1.85 1.94 2.03 2.16
0.05 0.10 0.18 0.26 0.16 0.13 0.25 0.74 1.08 0.82 0.66 0.81 1.07 1.38 1.74 1.94 2.35 2.49 2.69 2.97 3.42 4.28 5.16 5.14 4.56 4.14 3.83 3.74 3.72 3.58 3.37 2.97 2.55 2.23 2.03 1.85 1.73 1.56 1.58 1.52 1.59 1.57 1.53 1.55 1.39 1.64 1.75 1.89 1.98
0.05 0.11 0.23 0.35 0.22 0.20 0.31 0.69 0.75 0.67 0.86 0.88 0.92 1.15 1.48 1.59 1.87 2.15 2.45 2.99 3.79 4.96 5.73 5.61 4.96 4.46 4.09 3.89 3.70 3.61 3.28 2.97 2.54 2.30 2.10 1.82 1.71 1.47 1.39 1.33 1.38 1.29 1.35 1.46 1.50 1.61 1.60 1.55 1.63
0.05 0.09 0.22 0.27 0.20 0.29 0.37 0.59 0.69 0.80 1.00 1.01 0.87 0.92 1.23 1.42 1.69 2.08 2.68 3.55 4.63 5.53 5.80 5.27 4.74 4.38 3.94 3.50 2.94 2.55 2.46 2.35 2.09 1.82 1.53 1.39 1.31 1.35 1.37 1.22 1.29 1.18 1.20 1.22 1.24 1.30 1.31 1.27 1.34
0.06 0.08 0.20 0.26 0.18 0.21 0.36 0.69 0.99 0.97 0.90 0.87 0.94 0.94 1.05 1.42 1.87 2.57 3.59 4.18 4.43 4.55 4.31 3.96 3.69 3.46 3.01 2.60 2.33 2.08 2.03 1.85 1.68 1.58 1.50 1.22 1.11 1.13 1.08 1.17 1.15 1.10 1.18 1.21 1.19 1.19 1.18 1.12 1.17
0.10 0.11 0.18 0.25 0.16 0.17 0.37 0.85 1.13 1.13 0.90 0.78 0.84 0.84 1.03 1.46 2.05 2.85 3.39 3.52 3.25 2.94 2.84 2.78 2.83 2.58 2.44 2.37 2.26 2.14 2.08 1.85 1.60 1.48 1.40 1.17 1.01 1.01 1.01 1.01 1.04 1.12 1.07 1.15 1.17 1.08 1.10 1.13 1.09
0.09 0.07 0.06 0.09 0.15 0.33 0.52 1.08 1.26 1.03 0.99 0.83 0.84 0.86 0.92 1.21 1.57 1.98 2.22 2.11 2.23 2.37 2.38 2.48 2.56 2.31 2.28 2.21 1.91 1.79 1.67 1.53 1.37 1.31 1.31 1.36 1.15 1.01 0.96 0.93 0.92 0.97 0.95 1.10 0.96 0.99 1.07 1.12 1.01
0.04 0.03 0.04 0.11 0.22 0.42 0.61 0.87 1.03 0.84 1.02 0.83 0.70 0.70 0.69 0.86 0.95 1.06 1.20 1.34 1.54 1.65 1.82 2.11 2.35 2.29 2.12 1.94 1.83 1.83 1.69 1.62 1.58 1.60 1.54 1.48 1.37 1.17 1.03 1.02 0.95 0.93 0.89 0.94 0.94 1.14 1.11 1.05 0.98
0.03 0.05 0.12 0.23 0.40 0.89 0.85 0.83 1.06 0.98 1.05 0.80 0.60 0.51 0.58 0.72 0.82 0.86 0.91 1.03 1.20 1.32 1.49 1.73 2.03 2.16 2.08 1.92 1.81 1.77 1.76 1.70 1.61 1.58 1.51 1.35 1.29 1.24 1.11 1.07 1.05 0.96 0.92 0.90 0.89 1.04 1.09 1.12 1.11
0.05 0.07 0.24 0.58 0.98 1.15 0.72 0.79 1.05 0.81 0.73 0.57 0.36 0.31 0.48 0.69 0.84 0.91 0.85 0.82 0.88 1.02 1.17 1.27 1.43 1.68 1.80 1.77 1.71 1.69 1.77 1.65 1.46 1.36 1.27 1.22 1.07 1.00 1.00 0.99 0.99 0.88 0.89 0.98 1.07 1.07 1.06 1.09 1.10
0.05 0.04 0.11 0.22 0.33 0.52 0.69 1.07 1.19 0.85 0.57 0.33 0.23 0.29 0.47 0.64 0.69 0.73 0.72 0.67 0.64 0.71 0.90 1.02 1.20 1.37 1.56 1.56 1.53 1.50 1.55 1.48 1.37 1.35 1.14 1.05 1.01 0.97 0.99 0.99 0.94 0.91 0.92 0.93 1.10 1.01 0.96 1.00 1.00
0.05 0.03 0.04 0.07 0.12 0.32 0.69 0.99 0.94 0.75 0.55 0.38 0.29 0.32 0.42 0.46 0.46 0.54 0.61 0.68 0.66 0.65 0.75 0.87 1.07 1.24 1.42 1.52 1.55 1.47 1.46 1.46 1.44 1.37 1.19 1.04 1.11 1.06 1.12 1.07 1.00 0.99 1.04 1.09 1.16 1.06 1.04 1.09 0.99
0.05 0.04 0.04 0.05 0.11 0.24 0.52 0.90 1.09 0.92 0.68 0.49 0.40 0.38 0.44 0.43 0.36 0.48 0.60 0.63 0.56 0.49 0.56 0.70 0.86 1.09 1.23 1.39 1.43 1.33 1.48 1.46 1.45 1.38 1.25 1.11 1.08 1.08 1.15 1.13 1.05 1.06 1.09 1.14 1.21 1.11 1.13 1.14 1.09
0.07 0.06 0.06 0.05 0.08 0.14 0.36 0.58 0.56 0.51 0.44 0.41 0.46 0.44 0.34 0.35 0.32 0.41 0.50 0.53 0.49 0.42 0.44 0.52 0.69 0.87 0.97 1.08 1.18 1.19 1.26 1.25 1.25 1.29 1.27 1.22 1.17 1.14 1.13 1.12 1.10 1.07 1.10 1.16 1.21 1.17 1.17 1.13 1.16
0.09 0.09 0.09 0.08 0.08 0.09 0.18 0.36 0.31 0.34 0.35 0.36 0.47 0.52 0.43 0.40 0.44 0.40 0.36 0.45 0.55 0.49 0.40 0.46 0.61 0.73 0.80 0.87 0.90 0.95 1.03 1.08 1.07 1.08 1.16 1.23 1.16 1.08 1.12 1.14 1.08 0.98 1.04 1.18 1.21 1.17 1.18 1.20 1.17

GEFSSGP_prec_meanprecacc_198.txt.gz
Total_Precipitation_Accumulation
0.05 0.10 0.24 0.44 1.03 1.36 1.18 0.73 0.54 0.50 0.57 0.57 0.50 0.47 0.52 0.54 0.72 1.26 0.89 0.49 0.25 0.16 0.20 0.31 0.46 0.40 0.37 0.38 0.39 0.41 0.39 0.39 0.40 0.41 0.39 0.40 0.42 0.43 0.45 0.53 0.62 0.66 0.66 0.69 0.70 0.63 0.60 0.63 0.67
0.09 0.16 0.34 0.86 1.31 1.26 1.12 0.63 0.36 0.45 0.54 0.67 0.66 0.52 0.43 0.44 0.42 0.41 0.44 0.55 0.24 0.16 0.17 0.19 0.34 0.34 0.30 0.30 0.33 0.35 0.35 0.34 0.36 0.38 0.40 0.44 0.47 0.50 0.52 0.61 0.66 0.71 0.72 0.72 0.65 0.59 0.58 0.59 0.70
0.11 0.23 0.41 0.86 0.93 0.84 0.84 0.51 0.37 0.33 0.50 0.73 0.71 0.48 0.47 0.50 0.41 0.34 0.36 0.41 0.27 0.22 0.17 0.20 0.33 0.31 0.28 0.28 0.31 0.33 0.36 0.34 0.34 0.37 0.40 0.46 0.52 0.58 0.64 0.70 0.76 0.81 0.80 0.74 0.66 0.59 0.59 0.58 0.64
0.13 0.28 0.51 0.58 0.40 0.31 0.40 0.44 0.46 0.45 0.63 0.76 0.62 0.52 0.52 0.52 0.44 0.33 0.31 0.39 0.27 0.26 0.20 0.23 0.34 0.31 0.29 0.28 0.28 0.31 0.35 0.35 0.36 0.39 0.41 0.49 0.55 0.60 0.67 0.70 0.72 0.78 0.78 0.69 0.64 0.65 0.61 0.62 0.70
0.11 0.28 0.55 0.43 0.26 0.20 0.22 0.28 0.36 0.52 0.70 0.82 0.69 0.66 0.71 0.55 0.44 0.36 0.30 0.41 0.39 0.33 0.31 0.32 0.40 0.39 0.35 0.34 0.35 0.36 0.37 0.36 0.34 0.36 0.39 0.52 0.59 0.59 0.61 0.62 0.64 0.63 0.65 0.67 0.69 0.75 0.73 0.77 0.81
0.11 0.23 0.41 0.29 0.17 0.15 0.19 0.25 0.39 0.58 0.61 0.69 0.79 0.86 0.84 0.63 0.54 0.46 0.42 0.53 0.55 0.47 0.37 0.45 0.49 0.51 0.47 0.43 0.44 0.45 0.44 0.39 0.37 0.41 0.45 0.52 0.58 0.57 0.58 0.60 0.60 0.54 0.52 0.58 0.68 0.77 0.81 0.82 0.83
0.11 0.18 0.22 0.18 0.12 0.14 0.21 0.31 0.36 0.49 0.57 0.77 0.82 0.85 0.91 0.83 0.70 0.57 0.68 0.90 0.88 0.71 0.54 0.55 0.54 0.51 0.52 0.54 0.54 0.54 0.51 0.48 0.47 0.49 0.51 0.52 0.57 0.54 0.57 0.70 0.66 0.56 0.55 0.60 0.72 0.76 0.87 0.82 0.80
0.07 0.13 0.17 0.15 0.09 0.12 0.19 0.26 0.36 0.50 0.62 0.69 0.79 0.91 0.93 0.82 0.73 0.78 0.98 1.34 1.48 1.32 0.99 0.69 0.64 0.68 0.62 0.58 0.63 0.65 0.53 0.50 0.54 0.55 0.59 0.62 0.65 0.65 0.67 0.72 0.79 0.69 0.70 0.73 0.84 0.84 0.82 0.85 0.89
0.04 0.10 0.14 0.11 0.10 0.13 0.20 0.25 0.32 0.38 0.48 0.70 0.88 1.02 0.92 0.73 0.75 0.96 1.18 1.47 1.66 1.48 1.28 1.09 0.98 0.86 0.81 0.76 0.65 0.78 0.68 0.64 0.70 0.83 0.85 1.00 1.13 1.01 0.99 0.88 0.99 0.95 0.99 1.11 1.24 1.18 1.12 1.11 1.12
0.02 0.06 0.07 0.05 0.05 0.06 0.12 0.22 0.29 0.43 0.74 1.17 1.40 1.26 1.01 0.86 0.95 1.21 1.38 1.38 1.46 1.48 1.40 1.44 1.27 1.15 1.15 1.06 1.12 1.32 1.19 1.14 1.23 1.39 1.39 1.66 1.79 1.57 1.12 1.17 1.44 1.43 1.54 1.67 1.83 1.96 1.72 1.49 1.29
0.00 0.03 0.03 0.02 0.02 0.03 0.06 0.15 0.27 0.45 0.96 1.45 1.65 1.35 1.13 1.08 1.18 1.33 1.63 1.72 1.79 1.77 1.61 1.67 1.57 1.47 1.52 1.62 1.58 1.66 1.75 1.79 1.89 1.92 1.96 2.17 1.99 1.61 1.40 1.57 1.87 1.91 1.94 1.96 2.20 2.36 1.96 1.89 1.94
0.00 0.00 0.00 0.01 0.01 0.02 0.05 0.14 0.34 0.59 0.99 1.28 1.21 1.07 1.06 1.25 1.44 1.62 1.87 2.18 2.27 2.30 2.17 1.95 1.89 2.05 2.05 1.96 1.90 1.74 1.57 1.56 1.73 1.86 1.84 2.21 2.39 2.24 2.17 2.23 2.07 2.20 2.35 2.62 2.53 2.54 2.39 2.35 2.21
0.00 0.00 0.00 0.01 0.01 0.04 0.08 0.17 0.37 0.68 0.89 0.95 0.84 0.88 1.14 1.41 1.67 2.12 2.52 2.60 2.57 2.76 2.89 2.69 2.61 2.56 2.36 2.34 1.99 1.72 1.63 1.52 1.44 1.65 1.84 2.06 2.37 2.43 2.46 2.22 2.12 2.00 2.14 2.38 2.39 2.21 2.33 2.48 2.46
0.00 0.00 0.01 0.02 0.02 0.05 0.14 0.23 0.37 0.60 0.69 0.70 0.77 1.01 1.21 1.61 1.91 2.42 2.91 2.98 3.07 3.31 3.47 3.37 3.33 3.11 2.81 2.51 2.27 2.15 1.89 1.81 1.53 1.59 1.61 1.94 2.28 2.30 2.18 2.19 2.21 2.08 2.19 2.20 2.21 2.28 2.47 2.60 2.67
0.00 0.02 0.07 0.08 0.06 0.07 0.15 0.36 0.46 0.65 0.74 0.69 0.87 1.04 1.42 1.87 2.12 2.44 2.70 3.09 3.50 3.86 3.92 3.85 3.85 3.71 3.61 3.26 2.84 2.43 2.23 2.00 1.91 1.82 1.68 1.89 2.16 2.26 2.24 2.17 2.04 2.04 2.10 2.20 2.25 2.31 2.45 2.34 2.37
0.02 0.06 0.17 0.17 0.11 0.11 0.15 0.51 0.76 0.74 0.72 0.76 0.93 1.26 1.54 1.83 2.23 2.45 2.78 3.12 3.53 4.03 4.40 4.44 3.93 3.88 3.88 3.72 3.40 2.99 2.87 2.71 2.47 2.10 1.89 1.83 2.00 2.04 2.09 1.92 1.89 1.97 1.83 1.87 2.00 1.96 2.04 2.11 2.22
0.05 0.10 0.18 0.26 0.16 0.13 0.25 0.74 1.08 0.82 0.66 0.81 1.07 1.38 1.74 1.94 2.35 2.49 2.69 2.97 3.42 4.29 5.18 5.15 4.57 4.15 3.85 3.76 3.75 3.63 3.42 3.03 2.60 2.29 2.11 1.92 1.77 1.60 1.65 1.59 1.67 1.65 1.60 1.62 1.46 1.73 1.86 1.98 2.05
0.05 0.11 0.23 0.36 0.22 0.20 0.31 0.69 0.75 0.67 0.86 0.88 0.92 1.15 1.48 1.59 1.87 2.15 2.45 2.99 3.79 4.97 5.74 5.62 4.97 4.48 4.11 3.92 3.73 3.64 3.31 3.01 2.59 2.36 2.17 1.87 1.76 1.50 1.45 1.41 1.47 1.38 1.43 1.56 1.61 1.73 1.70 1.65 1.72
0.05 0.09 0.22 0.27 0.20 0.29 0.37 0.59 0.69 0.80 1.00 1.01 0.87 0.92 1.23 1.42 1.69 2.08 2.68 3.56 4.64 5.53 5.80 5.28 4.76 4.40 3.96 3.52 2.96 2.58 2.50 2.38 2.11 1.85 1.57 1.45 1.35 1.39 1.44 1.28 1.37 1.27 1.29 1.31 1.34 1.40 1.40 1.35 1.43
0.06 0.08 0.20 0.26 0.18 0.21 0.36 0.69 0.99 0.97 0.90 0.87 0.94 0.94 1.05 1.42 1.87 2.57 3.59 4.19 4.43 4.55 4.32 3.97 3.70 3.47 3.02 2.62 2.37 2.12 2.06 1.88 1.70 1.60 1.54 1.27 1.17 1.20 1.15 1.24 1.22 1.18 1.28 1.31 1.29 1.30 1.27 1.20 1.25
0.10 0.11 0.18 0.25 0.16 0.17 0.37 0.85 1.13 1.13 0.90 0.78 0.84 0.84 1.03 1.46 2.05 2.85 3.40 3.53 3.26 2.95 2.85 2.79 2.84 2.59 2.45 2.38 2.28 2.16 2.11 1.88 1.62 1.51 1.45 1.22 1.05 1.05 1.08 1.08 1.10 1.19 1.16 1.26 1.28 1.18 1.20 1.23 1.19
0.09 0.07 0.06 0.09 0.15 0.33 0.52 1.08 1.26 1.03 0.99 0.83 0.84 0.86 0.92 1.21 1.57 1.99 2.22 2.12 2.24 2.38 2.38 2.48 2.57 2.31 2.28 2.22 1.93 1.82 1.70 1.56 1.39 1.34 1.35 1.41 1.19 1.05 1.00 0.99 0.98 1.05 1.04 1.22 1.06 1.08 1.20 1.26 1.14
0.04 0.03 0.04 0.11 0.22 0.42 0.61 0.87 1.03 0.84 1.02 0.83 0.70 0.70 0.69 0.86 0.95 1.07 1.20 1.34 1.55 1.66 1.83 2.12 2.36 2.30 2.12 1.95 1.86 1.87 1.72 1.65 1.61 1.63 1.56 1.52 1.41 1.20 1.06 1.06 1.02 1.04 0.99 1.04 1.03 1.23 1.21 1.14 1.08
0.03 0.05 0.12 0.23 0.40 0.89 0.85 0.83 1.06 0.98 1.05 0.80 0.60 0.51 0.58 0.72 0.82 0.86 0.91 1.03 1.20 1.33 1.50 1.75 2.05 2.17 2.09 1.93 1.82 1.80 1.80 1.73 1.64 1.61 1.56 1.40 1.33 1.27 1.14 1.10 1.08 1.02 0.99 0.98 0.98 1.14 1.17 1.20 1.19
0.05 0.07 0.24 0.58 0.98 1.15 0.72 0.79 1.05 0.81 0.73 0.57 0.36 0.31 0.48 0.69 0.84 0.91 0.86 0.82 0.88 1.03 1.19 1.28 1.44 1.69 1.82 1.78 1.72 1.70 1.79 1.68 1.49 1.40 1.30 1.25 1.11 1.03 1.03 1.02 1.03 0.93 0.97 1.05 1.14 1.15 1.14 1.18 1.18
0.05 0.04 0.11 0.22 0.33 0.52 0.69 1.07 1.19 0.85 0.57 0.33 0.23 0.29 0.47 0.64 0.69 0.73 0.72 0.68 0.65 0.72 0.91 1.03 1.21 1.38 1.57 1.57 1.54 1.52 1.56 1.50 1.40 1.37 1.16 1.09 1.05 1.00 1.02 1.03 0.98 0.96 0.99 0.99 1.17 1.09 1.05 1.08 1.08
0.05 0.03 0.04 0.07 0.12 0.32 0.69 0.99 0.94 0.75 0.55 0.38 0.29 0.32 0.42 0.46 0.46 0.54 0.62 0.68 0.66 0.65 0.76 0.87 1.07 1.25 1.42 1.53 1.56 1.48 1.47 1.48 1.45 1.39 1.21 1.06 1.14 1.08 1.15 1.11 1.06 1.05 1.10 1.14 1.22 1.12 1.12 1.17 1.06
0.05 0.04 0.04 0.05 0.11 0.24 0.52 0.90 1.09 0.92 0.68 0.49 0.40 0.38 0.44 0.43 0.37 0.48 0.61 0.64 0.57 0.49 0.57 0.71 0.87 1.09 1.24 1.40 1.43 1.34 1.49 1.47 1.46 1.40 1.27 1.14 1.12 1.12 1.19 1.17 1.12 1.13 1.14 1.20 1.26 1.17 1.20 1.19 1.13
0.07 0.06 0.06 0.05 0.08 0.14 0.36 0.58 0.56 0.51 0.44 0.41 0.46 0.44 0.34 0.35 0.33 0.41 0.50 0.54 0.49 0.42 0.45 0.53 0.70 0.88 0.97 1.08 1.19 1.19 1.26 1.26 1.27 1.31 1.30 1.25 1.23 1.19 1.18 1.17 1.16 1.13 1.16 1.21 1.26 1.21 1.20 1.15 1.18
0.09 0.09 0.09 0.08 0.08 0.09 0.18 0.36 0.31 0.34 0.35 0.36 0.47 0.52 0.43 0.40 0.45 0.41 0.37 0.45 0.55 0.50 0.40 0.47 0.62 0.74 0.80 0.87 0.90 0.96 1.04 1.09 1.09 1.10 1.18 1.26 1.21 1.14 1.18 1.20 1.14 1.04 1.09 1.23 1.26 1.21 1.22 1.22 1.19

GEFSSGP_prec_meanprecacc_204.txt.gz
Total_Precipitation_Accumulation
0.05 0.10 0.25 0.45 1.05 1.38 1.18 0.73 0.54 0.50 0.57 0.57 0.50 0.48 0.54 0.60 0.79 1.34 0.96 0.51 0.26 0.18 0.24 0.39 0.58 0.52 0.49 0.48 0.50 0.54 0.53 0.52 0.50 0.50 0.48 0.51 0.54 0.53 0.53 0.61 0.72 0.77 0.78 0.82 0.83 0.75 0.72 0.72 0.73
0.09 0.16 0.34 0.87 1.33 1.27 1.12 0.63 0.36 0.45 0.54 0.67 0.66 0.53 0.44 0.45 0.43 0.44 0.47 0.56 0.24 0.16 0.19 0.24 0.42 0.45 0.43 0.45 0.46 0.47 0.46 0.45 0.46 0.46 0.47 0.52 0.57 0.61 0.61 0.71 0.80 0.84 0.85 0.86 0.78 0.72 0.70 0.67 0.76
0.11 0.23 0.42 0.87 0.94 0.84 0.84 0.51 0.37 0.33 0.50 0.73 0.71 0.48 0.47 0.50 0.41 0.35 0.37 0.42 0.27 0.22 0.18 0.22 0.38 0.39 0.39 0.39 0.40 0.42 0.45 0.41 0.41 0.45 0.48 0.54 0.63 0.73 0.78 0.83 0.89 0.93 0.93 0.86 0.77 0.70 0.67 0.66 0.70
0.13 0.29 0.51 0.58 0.41 0.32 0.40 0.44 0.46 0.45 0.63 0.76 0.62 0.52 0.53 0.52 0.44 0.34 0.31 0.40 0.27 0.26 0.21 0.25 0.37 0.35 0.34 0.34 0.34 0.37 0.42 0.42 0.43 0.46 0.48 0.57 0.64 0.74 0.82 0.83 0.84 0.91 0.89 0.78 0.72 0.73 0.68 0.69 0.76
0.12 0.28 0.55 0.44 0.26 0.20 0.22 0.28 0.36 0.52 0.70 0.82 0.69 0.66 0.72 0.56 0.44 0.36 0.30 0.42 0.40 0.33 0.31 0.33 0.41 0.41 0.38 0.37 0.38 0.39 0.41 0.41 0.41 0.43 0.46 0.58 0.64 0.67 0.72 0.75 0.76 0.74 0.74 0.74 0.75 0.80 0.79 0.82 0.85
0.12 0.23 0.41 0.29 0.18 0.15 0.20 0.25 0.39 0.58 0.61 0.69 0.79 0.86 0.86 0.64 0.54 0.46 0.43 0.53 0.56 0.48 0.37 0.45 0.50 0.53 0.50 0.45 0.46 0.47 0.47 0.43 0.42 0.46 0.49 0.57 0.63 0.64 0.66 0.70 0.69 0.63 0.60 0.65 0.73 0.83 0.87 0.86 0.85
0.15 0.19 0.22 0.18 0.12 0.14 0.22 0.32 0.36 0.49 0.57 0.77 0.82 0.85 0.92 0.84 0.70 0.57 0.68 0.90 0.88 0.72 0.55 0.57 0.56 0.53 0.54 0.57 0.57 0.55 0.53 0.51 0.50 0.52 0.55 0.57 0.61 0.59 0.62 0.77 0.73 0.63 0.61 0.66 0.76 0.80 0.93 0.86 0.83
0.08 0.14 0.17 0.15 0.09 0.13 0.19 0.26 0.37 0.50 0.62 0.69 0.79 0.91 0.93 0.82 0.73 0.78 0.99 1.35 1.48 1.32 1.00 0.71 0.65 0.70 0.65 0.61 0.65 0.66 0.55 0.53 0.56 0.59 0.63 0.68 0.71 0.71 0.73 0.78 0.85 0.74 0.74 0.77 0.88 0.86 0.85 0.88 0.92
0.04 0.11 0.15 0.12 0.10 0.13 0.20 0.25 0.32 0.38 0.48 0.70 0.88 1.02 0.92 0.73 0.75 0.96 1.18 1.49 1.67 1.48 1.29 1.11 0.99 0.88 0.85 0.79 0.66 0.80 0.70 0.67 0.74 0.87 0.89 1.07 1.23 1.09 1.06 0.93 1.05 1.00 1.02 1.14 1.27 1.21 1.15 1.13 1.14
0.02 0.06 0.07 0.05 0.05 0.06 0.12 0.22 0.29 0.43 0.74 1.17 1.40 1.26 1.01 0.86 0.96 1.21 1.39 1.40 1.47 1.49 1.42 1.47 1.29 1.17 1.18 1.08 1.17 1.41 1.27 1.22 1.33 1.47 1.47 1.77 1.91 1.69 1.20 1.22 1.49 1.48 1.57 1.70 1.85 1.98 1.74 1.51 1.32
0.01 0.03 0.03 0.02 0.02 0.03 0.06 0.15 0.27 0.45 0.96 1.45 1.65 1.35 1.13 1.08 1.19 1.33 1.64 1.73 1.81 1.78 1.62 1.69 1.60 1.50 1.56 1.67 1.63 1.73 1.84 1.90 2.01 2.02 2.08 2.28 2.06 1.68 1.47 1.64 1.93 1.96 1.97 2.00 2.22 2.38 1.99 1.96 2.02
0.00 0.00 0.00 0.01 0.01 0.02 0.05 0.14 0.34 0.59 0.99 1.28 1.21 1.07 1.06 1.25 1.44 1.62 1.88 2.18 2.28 2.32 2.19 1.97 1.91 2.09 2.08 1.99 1.93 1.77 1.60 1.62 1.82 1.96 1.93 2.29 2.49 2.35 2.29 2.33 2.15 2.27 2.43 2.72 2.63 2.62 2.43 2.41 2.25
0.00 0.00 0.00 0.01 0.01 0.04 0.08 0.17 0.37 0.68 0.89 0.95 0.84 0.88 1.14 1.42 1.67 2.12 2.52 2.61 2.58 2.77 2.91 2.71 2.63 2.58 2.39 2.38 2.03 1.75 1.66 1.56 1.49 1.71 1.89 2.12 2.44 2.53 2.57 2.30 2.19 2.04 2.20 2.44 2.47 2.26 2.37 2.51 2.48
0.00 0.00 0.01 0.02 0.02 0.05 0.15 0.23 0.37 0.60 0.69 0.70 0.77 1.01 1.21 1.61 1.91 2.43 2.91 2.98 3.07 3.32 3.48 3.38 3.34 3.13 2.82 2.54 2.31 2.18 1.91 1.84 1.57 1.63 1.64 1.98 2.35 2.39 2.25 2.27 2.29 2.14 2.24 2.25 2.25 2.31 2.51 2.63 2.69
0.00 0.02 0.07 0.08 0.06 0.08 0.16 0.37 0.46 0.65 0.74 0.69 0.87 1.04 1.42 1.87 2.12 2.44 2.70 3.09 3.50 3.87 3.92 3.85 3.86 3.72 3.64 3.29 2.86 2.47 2.30 2.03 1.94 1.87 1.70 1.93 2.21 2.35 2.33 2.27 2.13 2.12 2.17 2.26 2.30 2.36 2.50 2.39 2.41
0.02 0.06 0.19 0.17 0.11 0.11 0.16 0.53 0.77 0.74 0.72 0.76 0.93 1.26 1.54 1.83 2.23 2.45 2.78 3.13 3.53 4.03 4.40 4.45 3.95 3.89 3.90 3.77 3.45 3.02 2.91 2.74 2.51 2.15 1.93 1.87 2.04 2.10 2.19 2.04 2.01 2.07 1.91 1.94 2.08 2.04 2.12 2.18 2.28
0.06 0.11 0.18 0.26 0.16 0.13 0.25 0.74 1.08 0.82 0.66 0.81 1.07 1.38 1.74 1.95 2.37 2.50 2.69 2.97 3.42 4.29 5.18 5.16 4.59 4.18 3.89 3.81 3.80 3.66 3.46 3.07 2.64 2.34 2.15 1.97 1.82 1.65 1.73 1.68 1.76 1.73 1.68 1.71 1.56 1.85 1.97 2.08 2.14
0.06 0.11 0.23 0.36 0.22 0.20 0.31 0.69 0.75 0.67 0.86 0.88 0.92 1.15 1.48 1.59 1.88 2.15 2.45 2.99 3.79 4.97 5.74 5.64 4.99 4.52 4.18 3.97 3.77 3.69 3.36 3.04 2.61 2.39 2.21 1.92 1.82 1.54 1.51 1.47 1.53 1.45 1.52 1.66 1.71 1.86 1.84 1.77 1.82
0.05 0.10 0.22 0.27 0.20 0.29 0.37 0.59 0.69 0.80 1.00 1.01 0.87 0.92 1.23 1.42 1.69 2.08 2.68 3.56 4.64 5.54 5.81 5.30 4.78 4.43 4.01 3.59 3.01 2.64 2.57 2.44 2.15 1.89 1.62 1.50 1.40 1.45 1.50 1.34 1.45 1.35 1.38 1.40 1.43 1.51 1.52 1.47 1.55
0.06 0.09 0.20 0.26 0.18 0.21 0.36 0.69 0.99 0.97 0.90 0.87 0.94 0.94 1.05 1.42 1.87 2.57 3.59 4.19 4.44 4.56 4.33 3.98 3.72 3.50 3.04 2.66 2.42 2.17 2.12 1.93 1.73 1.64 1.59 1.33 1.22 1.26 1.21 1.31 1.30 1.25 1.37 1.40 1.39 1.41 1.39 1.30 1.35
0.10 0.11 0.18 0.25 0.16 0.17 0.37 0.85 1.13 1.13 0.91 0.78 0.84 0.84 1.03 1.46 2.05 2.85 3.41 3.53 3.26 2.95 2.85 2.80 2.86 2.61 2.48 2.42 2.31 2.19 2.15 1.92 1.66 1.55 1.50 1.27 1.09 1.10 1.13 1.15 1.16 1.24 1.22 1.36 1.39 1.28 1.30 1.34 1.29
0.09 0.07 0.06 0.09 0.15 0.33 0.53 1.08 1.26 1.05 1.02 0.84 0.84 0.86 0.92 1.21 1.57 1.99 2.23 2.12 2.24 2.38 2.38 2.49 2.59 2.34 2.31 2.25 1.96 1.86 1.74 1.61 1.45 1.40 1.40 1.45 1.22 1.07 1.02 1.02 1.02 1.11 1.11 1.31 1.14 1.18 1.31 1.36 1.24
0.04 0.03 0.04 0.11 0.22 0.42 0.61 0.87 1.03 0.87 1.06 0.84 0.70 0.70 0.69 0.86 0.95 1.07 1.20 1.35 1.56 1.67 1.84 2.13 2.37 2.31 2.15 1.99 1.90 1.92 1.78 1.71 1.68 1.69 1.63 1.58 1.45 1.22 1.07 1.08 1.07 1.10 1.05 1.10 1.09 1.31 1.28 1.23 1.18
0.03 0.05 0.12 0.23 0.40 0.89 0.85 0.83 1.06 1.00 1.07 0.82 0.62 0.53 0.58 0.72 0.82 0.86 0.91 1.04 1.21 1.34 1.51 1.76 2.06 2.19 2.11 1.95 1.85 1.84 1.86 1.80 1.70 1.68 1.63 1.46 1.37 1.30 1.16 1.12 1.12 1.08 1.04 1.03 1.02 1.19 1.22 1.26 1.28
0.05 0.07 0.24 0.58 0.98 1.15 0.73 0.79 1.05 0.82 0.74 0.59 0.38 0.34 0.48 0.69 0.84 0.91 0.86 0.83 0.89 1.04 1.20 1.29 1.45 1.71 1.83 1.80 1.75 1.73 1.83 1.73 1.55 1.45 1.36 1.30 1.14 1.06 1.07 1.06 1.07 0.98 1.01 1.10 1.19 1.20 1.19 1.23 1.25
0.05 0.04 0.11 0.22 0.34 0.53 0.71 1.08 1.19 0.85 0.57 0.34 0.24 0.30 0.48 0.64 0.69 0.73 0.73 0.68 0.66 0.74 0.91 1.04 1.22 1.39 1.59 1.60 1.57 1.55 1.60 1.55 1.44 1.42 1.21 1.13 1.08 1.02 1.05 1.08 1.03 1.00 1.04 1.04 1.23 1.13 1.09 1.13 1.12
0.05 0.03 0.04 0.07 0.12 0.33 0.70 1.00 0.94 0.75 0.55 0.38 0.29 0.32 0.42 0.46 0.46 0.55 0.62 0.68 0.67 0.65 0.76 0.88 1.09 1.27 1.44 1.56 1.59 1.52 1.51 1.51 1.49 1.43 1.26 1.10 1.18 1.11 1.17 1.16 1.12 1.11 1.16 1.23 1.30 1.19 1.18 1.22 1.11
0.05 0.04 0.04 0.05 0.11 0.24 0.53 0.93 1.09 0.92 0.69 0.49 0.40 0.38 0.44 0.43 0.37 0.48 0.61 0.64 0.57 0.49 0.57 0.72 0.89 1.11 1.26 1.43 1.46 1.36 1.52 1.50 1.50 1.44 1.33 1.18 1.17 1.15 1.23 1.23 1.18 1.21 1.22 1.28 1.34 1.24 1.26 1.25 1.18
0.07 0.06 0.06 0.05 0.08 0.14 0.36 0.60 0.56 0.53 0.45 0.41 0.46 0.44 0.34 0.35 0.33 0.42 0.50 0.54 0.49 0.42 0.46 0.54 0.71 0.90 1.00 1.11 1.22 1.22 1.29 1.28 1.30 1.35 1.34 1.30 1.27 1.24 1.23 1.23 1.21 1.18 1.21 1.26 1.32 1.26 1.25 1.22 1.23
0.09 0.09 0.09 0.08 0.08 0.09 0.18 0.36 0.31 0.34 0.36 0.36 0.47 0.54 0.46 0.41 0.45 0.41 0.38 0.45 0.55 0.50 0.41 0.48 0.63 0.75 0.82 0.90 0.93 0.99 1.07 1.11 1.11 1.12 1.21 1.29 1.25 1.18 1.23 1.25 1.19 1.09 1.14 1.27 1.30 1.24 1.26 1.28 1.23

GEFSSGP_prec_meanprecacc_210.txt.gz
Total_Precipitation_Accumulation
0.06 0.11 0.28 0.54 1.12 1.41 1.19 0.74 0.54 0.51 0.57 0.58 0.51 0.48 0.55 0.62 0.82 1.41 1.04 0.57 0.31 0.23 0.31 0.48 0.68 0.63 0.61 0.62 0.63 0.64 0.60 0.59 0.57 0.57 0.56 0.62 0.66 0.63 0.61 0.69 0.79 0.83 0.84 0.89 0.92 0.84 0.82 0.83 0.85
0.10 0.18 0.38 0.92 1.39 1.28 1.13 0.63 0.36 0.45 0.54 0.67 0.67 0.53 0.44 0.46 0.43 0.47 0.54 0.61 0.28 0.20 0.23 0.30 0.51 0.53 0.51 0.52 0.53 0.53 0.51 0.49 0.51 0.52 0.54 0.60 0.65 0.68 0.69 0.78 0.87 0.91 0.93 0.96 0.90 0.82 0.80 0.80 0.89
0.13 0.25 0.45 0.91 0.96 0.85 0.85 0.51 0.38 0.33 0.50 0.73 0.71 0.48 0.47 0.51 0.42 0.38 0.41 0.46 0.30 0.25 0.20 0.26 0.43 0.44 0.44 0.43 0.45 0.46 0.49 0.45 0.46 0.51 0.53 0.60 0.68 0.78 0.84 0.91 0.98 1.03 1.04 0.98 0.91 0.83 0.79 0.78 0.82
0.15 0.31 0.54 0.61 0.41 0.32 0.40 0.45 0.47 0.45 0.63 0.76 0.62 0.52 0.53 0.53 0.45 0.36 0.34 0.42 0.28 0.28 0.23 0.27 0.40 0.38 0.37 0.38 0.38 0.41 0.45 0.45 0.47 0.52 0.53 0.61 0.68 0.77 0.88 0.91 0.95 1.05 1.03 0.92 0.86 0.88 0.81 0.79 0.83
0.14 0.30 0.57 0.45 0.27 0.20 0.22 0.28 0.36 0.53 0.70 0.82 0.69 0.66 0.73 0.57 0.45 0.38 0.34 0.45 0.41 0.34 0.32 0.34 0.43 0.42 0.40 0.39 0.41 0.42 0.43 0.44 0.44 0.47 0.49 0.61 0.67 0.72 0.82 0.88 0.89 0.87 0.88 0.87 0.87 0.92 0.90 0.90 0.90
0.13 0.25 0.43 0.30 0.18 0.16 0.20 0.25 0.39 0.58 0.61 0.69 0.79 0.86 0.87 0.65 0.55 0.47 0.45 0.56 0.58 0.48 0.38 0.46 0.50 0.53 0.51 0.47 0.47 0.49 0.49 0.45 0.44 0.49 0.52 0.61 0.69 0.75 0.83 0.88 0.82 0.72 0.68 0.74 0.82 0.91 0.94 0.91 0.88
0.16 0.20 0.23 0.18 0.13 0.15 0.22 0.32 0.36 0.49 0.57 0.77 0.82 0.85 0.93 0.87 0.72 0.59 0.71 0.94 0.90 0.74 0.56 0.57 0.56 0.53 0.55 0.58 0.58 0.57 0.56 0.54 0.52 0.54 0.57 0.61 0.69 0.70 0.77 0.90 0.83 0.70 0.67 0.71 0.82 0.86 0.97 0.89 0.85
0.10 0.16 0.18 0.15 0.09 0.13 0.19 0.26 0.37 0.50 0.62 0.69 0.79 0.91 0.93 0.84 0.74 0.79 1.01 1.38 1.50 1.34 1.02 0.72 0.66 0.71 0.66 0.61 0.66 0.67 0.56 0.55 0.58 0.61 0.65 0.71 0.79 0.82 0.84 0.87 0.93 0.80 0.80 0.81 0.91 0.90 0.88 0.91 0.94
0.05 0.12 0.16 0.12 0.10 0.13 0.20 0.25 0.32 0.38 0.48 0.70 0.88 1.02 0.92 0.73 0.76 0.98 1.20 1.52 1.70 1.52 1.33 1.13 1.01 0.90 0.86 0.79 0.67 0.82 0.72 0.69 0.76 0.90 0.93 1.09 1.26 1.13 1.12 1.01 1.11 1.05 1.06 1.17 1.30 1.24 1.17 1.15 1.15
0.03 0.07 0.08 0.06 0.05 0.06 0.12 0.22 0.29 0.43 0.74 1.17 1.40 1.26 1.01 0.86 0.97 1.23 1.40 1.41 1.49 1.52 1.48 1.51 1.32 1.19 1.20 1.09 1.18 1.43 1.29 1.23 1.35 1.49 1.48 1.79 1.93 1.71 1.24 1.27 1.55 1.54 1.62 1.73 1.88 2.01 1.77 1.53 1.33
0.01 0.04 0.04 0.03 0.03 0.03 0.07 0.15 0.27 0.45 0.96 1.45 1.65 1.35 1.14 1.09 1.19 1.34 1.65 1.75 1.83 1.81 1.64 1.72 1.64 1.53 1.58 1.69 1.67 1.78 1.87 1.92 2.03 2.05 2.11 2.31 2.10 1.72 1.51 1.66 1.97 2.00 2.01 2.04 2.26 2.41 2.02 2.01 2.05
0.01 0.00 0.01 0.01 0.02 0.02 0.05 0.15 0.35 0.59 0.99 1.28 1.21 1.07 1.06 1.26 1.45 1.62 1.89 2.19 2.29 2.32 2.20 1.98 1.93 2.11 2.11 2.02 1.96 1.80 1.63 1.64 1.84 1.98 1.96 2.32 2.52 2.39 2.33 2.36 2.19 2.30 2.48 2.78 2.68 2.67 2.48 2.47 2.31
0.00 0.00 0.01 0.01 0.01 0.04 0.08 0.17 0.37 0.69 0.90 0.96 0.84 0.88 1.14 1.42 1.68 2.12 2.53 2.61 2.58 2.78 2.92 2.72 2.64 2.59 2.41 2.41 2.07 1.78 1.70 1.59 1.52 1.74 1.91 2.14 2.47 2.56 2.60 2.33 2.22 2.08 2.26 2.49 2.52 2.31 2.43 2.57 2.54
0.00 0.01 0.01 0.02 0.03 0.06 0.15 0.24 0.37 0.61 0.69 0.70 0.77 1.01 1.22 1.61 1.91 2.43 2.92 2.98 3.07 3.32 3.49 3.39 3.35 3.14 2.83 2.57 2.38 2.23 1.96 1.88 1.59 1.65 1.66 2.00 2.37 2.41 2.28 2.29 2.31 2.17 2.28 2.30 2.30 2.35 2.55 2.69 2.75
0.00 0.02 0.08 0.08 0.06 0.08 0.17 0.39 0.47 0.65 0.74 0.69 0.87 1.04 1.42 1.87 2.12 2.45 2.70 3.09 3.50 3.87 3.92 3.86 3.86 3.73 3.64 3.31 2.91 2.52 2.35 2.07 1.97 1.89 1.71 1.94 2.24 2.37 2.35 2.29 2.15 2.15 2.21 2.31 2.37 2.41 2.54 2.43 2.47
0.02 0.07 0.19 0.18 0.12 0.11 0.17 0.55 0.78 0.74 0.72 0.76 0.93 1.27 1.54 1.84 2.24 2.46 2.78 3.13 3.53 4.03 4.40 4.45 3.96 3.90 3.91 3.78 3.47 3.06 2.94 2.77 2.55 2.18 1.95 1.89 2.07 2.13 2.23 2.07 2.04 2.11 1.97 1.99 2.14 2.09 2.15 2.22 2.33
0.06 0.12 0.19 0.27 0.17 0.14 0.25 0.76 1.09 0.82 0.67 0.81 1.07 1.40 1.75 1.98 2.39 2.51 2.70 2.98 3.43 4.29 5.18 5.16 4.61 4.20 3.90 3.83 3.83 3.69 3.48 3.09 2.66 2.36 2.17 1.99 1.85 1.69 1.76 1.73 1.81 1.80 1.76 1.79 1.63 1.92 2.02 2.13 2.17
0.07 0.12 0.24 0.36 0.22 0.21 0.32 0.71 0.77 0.68 0.86 0.88 0.92 1.15 1.49 1.61 1.90 2.17 2.46 2.99 3.80 4.97 5.75 5.64 5.00 4.52 4.19 3.99 3.79 3.71 3.39 3.06 2.62 2.41 2.23 1.95 1.86 1.59 1.55 1.52 1.60 1.54 1.59 1.72 1.78 1.92 1.90 1.85 1.87
0.05 0.11 0.23 0.27 0.20 0.29 0.38 0.60 0.70 0.82 1.02 1.02 0.88 0.93 1.23 1.43 1.71 2.17 2.72 3.56 4.64 5.54 5.82 5.30 4.79 4.44 4.01 3.59 3.02 2.65 2.58 2.46 2.17 1.90 1.64 1.52 1.44 1.50 1.55 1.39 1.51 1.41 1.44 1.45 1.48 1.58 1.58 1.54 1.62
0.07 0.10 0.21 0.27 0.18 0.22 0.38 0.71 1.02 1.00 0.93 0.89 0.95 0.95 1.05 1.43 1.88 2.59 3.62 4.21 4.44 4.57 4.33 3.99 3.72 3.50 3.04 2.67 2.43 2.18 2.14 1.94 1.75 1.65 1.61 1.35 1.25 1.29 1.24 1.35 1.33 1.29 1.42 1.44 1.42 1.47 1.46 1.37 1.40
0.11 0.12 0.20 0.25 0.16 0.17 0.38 0.89 1.18 1.17 0.95 0.81 0.86 0.85 1.04 1.47 2.06 2.86 3.42 3.55 3.27 2.95 2.85 2.80 2.86 2.62 2.48 2.43 2.32 2.21 2.17 1.94 1.68 1.56 1.51 1.29 1.11 1.12 1.16 1.17 1.18 1.27 1.25 1.38 1.42 1.31 1.35 1.39 1.34
0.09 0.08 0.07 0.10 0.16 0.35 0.54 1.11 1.31 1.09 1.06 0.89 0.88 0.89 0.94 1.22 1.57 1.99 2.23 2.12 2.24 2.38 2.39 2.50 2.59 2.34 2.32 2.26 1.97 1.87 1.75 1.63 1.47 1.41 1.41 1.48 1.24 1.08 1.04 1.04 1.04 1.12 1.13 1.33 1.17 1.20 1.35 1.41 1.28
0.04 0.04 0.05 0.11 0.23 0.43 0.63 0.89 1.06 0.90 1.09 0.88 0.74 0.73 0.72 0.88 0.96 1.07 1.20 1.35 1.57 1.68 1.84 2.14 2.38 2.32 2.16 1.99 1.92 1.95 1.80 1.74 1.71 1.72 1.66 1.61 1.48 1.25 1.09 1.11 1.09 1.12 1.07 1.13 1.11 1.34 1.32 1.26 1.21
0.04 0.06 0.13 0.23 0.40 0.90 0.86 0.84 1.09 1.03 1.09 0.85 0.66 0.58 0.63 0.75 0.83 0.86 0.92 1.05 1.22 1.35 1.52 1.77 2.07 2.20 2.13 1.97 1.87 1.88 1.90 1.83 1.74 1.72 1.68 1.50 1.40 1.32 1.18 1.15 1.14 1.10 1.07 1.05 1.04 1.21 1.24 1.29 1.31
0.06 0.08 0.24 0.58 0.99 1.16 0.74 0.82 1.08 0.84 0.76 0.63 0.42 0.41 0.52 0.72 0.85 0.92 0.86 0.83 0.90 1.05 1.20 1.30 1.47 1.73 1.85 1.81 1.78 1.77 1.86 1.75 1.58 1.48 1.39 1.33 1.17 1.08 1.09 1.10 1.10 1.00 1.03 1.12 1.21 1.22 1.22 1.25 1.28
0.05 0.04 0.11 0.22 0.34 0.53 0.72 1.09 1.21 0.86 0.58 0.35 0.26 0.35 0.53 0.67 0.72 0.75 0.74 0.69 0.68 0.75 0.93 1.05 1.23 1.41 1.61 1.62 1.60 1.59 1.63 1.57 1.46 1.45 1.23 1.16 1.11 1.05 1.08 1.11 1.06 1.04 1.07 1.08 1.27 1.17 1.12 1.16 1.15
0.05 0.03 0.04 0.07 0.12 0.33 0.71 1.02 0.97 0.76 0.56 0.39 0.32 0.35 0.45 0.49 0.52 0.62 0.67 0.73 0.70 0.68 0.78 0.90 1.11 1.29 1.47 1.58 1.62 1.54 1.53 1.53 1.51 1.45 1.28 1.12 1.21 1.13 1.20 1.18 1.15 1.15 1.22 1.29 1.36 1.25 1.23 1.26 1.13
0.05 0.05 0.04 0.05 0.11 0.25 0.54 0.96 1.15 0.94 0.70 0.51 0.43 0.42 0.49 0.50 0.52 0.69 0.80 0.74 0.62 0.53 0.60 0.74 0.91 1.14 1.29 1.45 1.48 1.38 1.54 1.52 1.52 1.45 1.33 1.20 1.18 1.18 1.25 1.25 1.20 1.24 1.28 1.36 1.41 1.30 1.33 1.31 1.23
0.07 0.06 0.06 0.05 0.08 0.14 0.38 0.61 0.59 0.55 0.46 0.43 0.48 0.47 0.38 0.43 0.53 0.70 0.85 0.79 0.59 0.48 0.49 0.56 0.73 0.91 1.02 1.13 1.24 1.24 1.31 1.30 1.33 1.37 1.35 1.31 1.29 1.26 1.26 1.26 1.24 1.22 1.26 1.33 1.38 1.31 1.29 1.26 1.28
0.09 0.09 0.09 0.08 0.08 0.09 0.18 0.37 0.32 0.35 0.37 0.39 0.50 0.56 0.50 0.50 0.57 0.54 0.64 0.75 0.68 0.57 0.45 0.50 0.65 0.77 0.84 0.92 0.95 1.00 1.08 1.13 1.13 1.15 1.24 1.31 1.27 1.21 1.26 1.29 1.23 1.13 1.19 1.31 1.33 1.27 1.29 1.31 1.27

GEFSSGP_prec_meanprecacc_216.txt.gz
Total_Precipitation_Accumulation
0.06 0.12 0.29 0.55 1.13 1.42 1.19 0.74 0.54 0.51 0.58 0.58 0.51 0.49 0.56 0.63 0.84 1.44 1.08 0.62 0.37 0.33 0.40 0.56 0.76 0.71 0.67 0.70 0.75 0.76 0.71 0.67 0.65 0.65 0.64 0.71 0.75 0.73 0.73 0.80 0.86 0.88 0.89 0.94 0.99 0.90 0.88 0.89 0.89
0.10 0.19 0.39 0.93 1.39 1.29 1.14 0.64 0.36 0.45 0.54 0.68 0.67 0.53 0.45 0.46 0.44 0.49 0.58 0.66 0.32 0.26 0.31 0.39 0.61 0.62 0.60 0.63 0.66 0.63 0.60 0.56 0.58 0.58 0.62 0.70 0.75 0.80 0.82 0.90 0.95 0.96 0.99 1.02 0.97 0.90 0.87 0.87 0.95
0.14 0.26 0.46 0.92 0.96 0.85 0.86 0.52 0.38 0.33 0.50 0.74 0.72 0.48 0.47 0.52 0.43 0.40 0.45 0.49 0.33 0.29 0.25 0.33 0.52 0.53 0.54 0.55 0.54 0.54 0.58 0.54 0.54 0.57 0.61 0.69 0.79 0.90 0.96 1.05 1.10 1.11 1.12 1.06 0.98 0.91 0.87 0.86 0.90
0.16 0.32 0.55 0.61 0.41 0.32 0.40 0.45 0.47 0.45 0.63 0.76 0.62 0.52 0.53 0.53 0.46 0.37 0.35 0.43 0.30 0.30 0.26 0.32 0.47 0.45 0.43 0.44 0.45 0.48 0.52 0.54 0.54 0.58 0.60 0.69 0.77 0.85 0.97 1.05 1.11 1.16 1.11 0.99 0.94 0.98 0.90 0.89 0.95
0.14 0.31 0.57 0.45 0.27 0.21 0.22 0.28 0.36 0.53 0.70 0.82 0.69 0.66 0.74 0.58 0.46 0.38 0.34 0.46 0.42 0.35 0.33 0.37 0.48 0.47 0.44 0.44 0.46 0.46 0.48 0.50 0.50 0.53 0.54 0.67 0.73 0.77 0.89 0.98 1.01 0.99 0.99 0.98 1.00 1.05 1.02 1.02 1.01
0.13 0.25 0.43 0.30 0.19 0.16 0.20 0.25 0.39 0.58 0.61 0.69 0.79 0.86 0.88 0.67 0.57 0.48 0.45 0.57 0.59 0.49 0.39 0.48 0.54 0.57 0.55 0.50 0.51 0.52 0.53 0.49 0.48 0.53 0.55 0.65 0.74 0.81 0.89 0.94 0.89 0.82 0.80 0.88 0.98 1.07 1.10 1.03 0.97
0.16 0.20 0.23 0.19 0.13 0.15 0.22 0.32 0.36 0.49 0.57 0.77 0.82 0.85 0.94 0.89 0.74 0.60 0.71 0.94 0.91 0.75 0.56 0.59 0.59 0.56 0.59 0.62 0.61 0.60 0.59 0.58 0.56 0.58 0.60 0.66 0.75 0.77 0.84 0.97 0.90 0.79 0.78 0.86 0.98 1.01 1.11 0.98 0.91
0.10 0.16 0.19 0.16 0.09 0.13 0.19 0.26 0.37 0.50 0.62 0.69 0.79 0.91 0.93 0.84 0.75 0.80 1.01 1.38 1.51 1.35 1.04 0.73 0.67 0.72 0.67 0.63 0.69 0.71 0.61 0.59 0.63 0.67 0.72 0.80 0.87 0.88 0.90 0.93 1.02 0.92 0.92 0.96 1.04 1.01 0.97 0.97 0.99
0.05 0.12 0.16 0.12 0.11 0.13 0.20 0.26 0.32 0.38 0.48 0.70 0.88 1.02 0.92 0.73 0.76 0.98 1.20 1.52 1.71 1.52 1.33 1.14 1.02 0.91 0.87 0.80 0.69 0.85 0.76 0.73 0.81 0.98 1.04 1.20 1.35 1.20 1.18 1.08 1.21 1.17 1.18 1.29 1.39 1.31 1.23 1.20 1.19
0.03 0.07 0.08 0.06 0.05 0.06 0.12 0.22 0.29 0.43 0.74 1.17 1.40 1.26 1.01 0.86 0.98 1.23 1.40 1.42 1.50 1.53 1.48 1.52 1.33 1.20 1.20 1.10 1.20 1.45 1.30 1.25 1.38 1.55 1.57 1.88 2.02 1.80 1.33 1.37 1.66 1.66 1.74 1.84 1.97 2.08 1.81 1.56 1.34
0.01 0.04 0.04 0.03 0.03 0.03 0.07 0.15 0.27 0.45 0.96 1.45 1.65 1.35 1.14 1.09 1.19 1.34 1.65 1.75 1.83 1.82 1.66 1.73 1.65 1.54 1.58 1.70 1.68 1.79 1.88 1.93 2.06 2.10 2.16 2.37 2.17 1.80 1.60 1.77 2.09 2.11 2.10 2.10 2.31 2.45 2.04 2.03 2.07
0.01 0.01 0.01 0.01 0.02 0.02 0.05 0.15 0.35 0.60 1.00 1.28 1.21 1.07 1.06 1.26 1.45 1.63 1.89 2.19 2.29 2.33 2.21 1.99 1.94 2.12 2.11 2.03 1.97 1.82 1.64 1.66 1.88 2.03 1.98 2.36 2.56 2.43 2.39 2.44 2.28 2.39 2.56 2.83 2.71 2.70 2.50 2.50 2.33
0.00 0.01 0.01 0.01 0.02 0.04 0.08 0.17 0.37 0.69 0.90 0.96 0.84 0.88 1.14 1.42 1.68 2.12 2.53 2.61 2.58 2.78 2.92 2.72 2.65 2.60 2.42 2.43 2.08 1.79 1.71 1.60 1.52 1.75 1.92 2.16 2.49 2.58 2.63 2.37 2.26 2.12 2.30 2.52 2.54 2.34 2.45 2.59 2.55
0.00 0.01 0.01 0.02 0.03 0.06 0.15 0.24 0.37 0.61 0.69 0.70 0.77 1.01 1.22 1.61 1.91 2.43 2.92 2.98 3.07 3.32 3.49 3.39 3.36 3.15 2.84 2.58 2.39 2.24 1.96 1.89 1.60 1.65 1.67 2.02 2.40 2.45 2.31 2.31 2.34 2.20 2.31 2.32 2.32 2.37 2.57 2.71 2.77
0.00 0.02 0.08 0.08 0.06 0.08 0.17 0.39 0.47 0.65 0.74 0.69 0.87 1.04 1.42 1.87 2.13 2.45 2.70 3.09 3.50 3.87 3.92 3.86 3.87 3.74 3.66 3.32 2.92 2.52 2.36 2.08 1.98 1.90 1.73 1.96 2.25 2.40 2.39 2.31 2.17 2.18 2.24 2.34 2.40 2.43 2.56 2.47 2.50
0.02 0.07 0.19 0.18 0.12 0.12 0.17 0.55 0.78 0.75 0.72 0.76 0.93 1.27 1.54 1.84 2.24 2.46 2.78 3.13 3.53 4.03 4.40 4.45 3.97 3.91 3.92 3.80 3.48 3.06 2.95 2.77 2.56 2.19 1.96 1.91 2.08 2.16 2.26 2.09 2.05 2.13 2.00 2.01 2.17 2.14 2.19 2.26 2.37
0.06 0.12 0.19 0.27 0.17 0.14 0.26 0.76 1.10 0.83 0.67 0.81 1.08 1.40 1.76 1.99 2.40 2.52 2.70 2.98 3.43 4.30 5.18 5.16 4.62 4.20 3.91 3.84 3.84 3.70 3.50 3.09 2.66 2.36 2.18 2.02 1.88 1.73 1.79 1.76 1.84 1.83 1.80 1.82 1.66 1.97 2.08 2.17 2.21
0.07 0.12 0.24 0.36 0.22 0.21 0.32 0.71 0.78 0.69 0.86 0.88 0.92 1.16 1.49 1.62 1.91 2.18 2.47 3.00 3.80 4.98 5.75 5.64 5.00 4.53 4.19 3.99 3.80 3.73 3.40 3.08 2.64 2.42 2.23 1.97 1.90 1.63 1.58 1.55 1.64 1.58 1.64 1.76 1.82 1.98 1.97 1.90 1.90
0.05 0.11 0.23 0.27 0.21 0.29 0.38 0.61 0.71 0.82 1.02 1.02 0.88 0.93 1.23 1.43 1.72 2.18 2.73 3.57 4.65 5.55 5.82 5.30 4.79 4.45 4.02 3.60 3.02 2.65 2.59 2.48 2.19 1.91 1.65 1.54 1.47 1.54 1.60 1.44 1.55 1.45 1.48 1.50 1.53 1.65 1.66 1.61 1.67
0.07 0.10 0.21 0.27 0.19 0.22 0.38 0.71 1.02 1.00 0.93 0.89 0.95 0.95 1.06 1.43 1.88 2.60 3.63 4.21 4.45 4.57 4.34 3.99 3.73 3.51 3.06 2.68 2.44 2.19 2.15 1.96 1.77 1.67 1.63 1.37 1.29 1.34 1.30 1.40 1.38 1.34 1.47 1.50 1.48 1.54 1.53 1.43 1.47
0.11 0.13 0.20 0.26 0.17 0.18 0.39 0.89 1.18 1.17 0.95 0.82 0.86 0.86 1.04 1.47 2.06 2.86 3.43 3.56 3.28 2.96 2.86 2.81 2.88 2.63 2.50 2.44 2.33 2.21 2.18 1.96 1.70 1.57 1.52 1.31 1.14 1.16 1.21 1.22 1.23 1.33 1.32 1.45 1.47 1.36 1.41 1.44 1.40
0.09 0.08 0.07 0.10 0.16 0.35 0.54 1.12 1.32 1.09 1.07 0.89 0.88 0.90 0.95 1.23 1.58 2.00 2.24 2.14 2.26 2.39 2.41 2.53 2.62 2.36 2.33 2.27 1.98 1.87 1.77 1.66 1.50 1.44 1.43 1.50 1.26 1.11 1.07 1.09 1.10 1.19 1.18 1.38 1.23 1.28 1.43 1.47 1.34
0.05 0.04 0.05 0.12 0.23 0.43 0.63 0.90 1.07 0.90 1.09 0.88 0.74 0.74 0.72 0.89 0.97 1.08 1.21 1.37 1.58 1.69 1.86 2.16 2.41 2.33 2.17 2.00 1.93 1.97 1.84 1.77 1.73 1.74 1.68 1.64 1.50 1.27 1.13 1.15 1.15 1.19 1.15 1.19 1.18 1.41 1.39 1.33 1.27
0.04 0.06 0.13 0.24 0.41 0.90 0.86 0.85 1.09 1.03 1.09 0.85 0.67 0.58 0.64 0.75 0.83 0.87 0.93 1.06 1.24 1.36 1.53 1.78 2.09 2.22 2.15 1.98 1.90 1.91 1.94 1.87 1.76 1.74 1.69 1.52 1.42 1.35 1.22 1.20 1.20 1.15 1.13 1.10 1.08 1.26 1.29 1.34 1.36
0.06 0.08 0.24 0.59 0.99 1.16 0.74 0.82 1.08 0.84 0.77 0.64 0.42 0.41 0.53 0.72 0.86 0.93 0.89 0.85 0.91 1.06 1.21 1.31 1.49 1.75 1.87 1.84 1.81 1.82 1.91 1.80 1.60 1.50 1.40 1.35 1.18 1.10 1.11 1.12 1.14 1.03 1.06 1.15 1.25 1.25 1.25 1.31 1.32
0.05 0.04 0.11 0.23 0.35 0.54 0.72 1.10 1.21 0.86 0.58 0.35 0.27 0.36 0.53 0.68 0.73 0.77 0.76 0.72 0.70 0.77 0.95 1.08 1.26 1.44 1.64 1.66 1.63 1.63 1.69 1.61 1.49 1.46 1.25 1.18 1.13 1.07 1.10 1.12 1.08 1.06 1.09 1.11 1.30 1.20 1.17 1.21 1.19
0.05 0.04 0.04 0.08 0.13 0.34 0.71 1.02 0.97 0.76 0.57 0.40 0.33 0.35 0.45 0.50 0.53 0.64 0.70 0.77 0.75 0.71 0.82 0.94 1.15 1.33 1.51 1.62 1.65 1.58 1.57 1.56 1.54 1.48 1.30 1.15 1.23 1.16 1.22 1.20 1.17 1.18 1.25 1.33 1.41 1.29 1.27 1.32 1.18
0.05 0.05 0.04 0.05 0.12 0.26 0.55 0.96 1.15 0.94 0.70 0.51 0.43 0.43 0.50 0.51 0.52 0.72 0.85 0.82 0.68 0.57 0.63 0.78 0.95 1.19 1.34 1.50 1.52 1.41 1.58 1.55 1.55 1.48 1.36 1.22 1.22 1.21 1.28 1.27 1.22 1.27 1.32 1.41 1.46 1.34 1.37 1.35 1.28
0.07 0.07 0.06 0.05 0.08 0.15 0.38 0.61 0.59 0.55 0.47 0.43 0.49 0.47 0.38 0.44 0.55 0.72 0.91 0.86 0.64 0.51 0.52 0.62 0.81 0.99 1.09 1.19 1.29 1.29 1.36 1.35 1.37 1.40 1.39 1.35 1.33 1.29 1.29 1.28 1.27 1.25 1.31 1.37 1.42 1.35 1.34 1.30 1.32
0.09 0.09 0.09 0.08 0.08 0.09 0.18 0.37 0.32 0.36 0.38 0.39 0.50 0.56 0.50 0.51 0.59 0.56 0.65 0.78 0.70 0.61 0.51 0.58 0.74 0.87 0.91 0.97 0.99 1.05 1.14 1.19 1.19 1.19 1.28 1.35 1.31 1.25 1.30 1.33 1.27 1.17 1.23 1.35 1.37 1.30 1.34 1.36 1.32

GEFSSGP_prec_meanprecacc_222.txt.gz
Total_Precipitation_Accumulation
0.06 0.12 0.29 0.55 1.13 1.42 1.20 0.75 0.54 0.52 0.59 0.59 0.51 0.49 0.57 0.65 0.89 1.51 1.16 0.70 0.42 0.36 0.44 0.63 0.92 0.88 0.80 0.82 0.85 0.87 0.81 0.77 0.76 0.74 0.72 0.82 0.87 0.81 0.81 0.88 0.92 0.95 0.95 1.00 1.06 0.96 0.93 0.93 0.93
0.10 0.19 0.39 0.93 1.39 1.29 1.14 0.64 0.37 0.45 0.54 0.68 0.67 0.54 0.47 0.49 0.47 0.55 0.64 0.72 0.37 0.29 0.34 0.45 0.72 0.77 0.73 0.74 0.77 0.75 0.70 0.66 0.68 0.69 0.72 0.81 0.87 0.90 0.92 1.00 1.02 1.02 1.06 1.10 1.04 0.96 0.93 0.93 1.01
0.14 0.26 0.46 0.92 0.96 0.85 0.86 0.52 0.38 0.33 0.50 0.74 0.72 0.49 0.49 0.54 0.46 0.45 0.50 0.54 0.37 0.32 0.29 0.40 0.62 0.65 0.65 0.66 0.67 0.68 0.68 0.63 0.63 0.68 0.74 0.81 0.90 1.00 1.07 1.13 1.17 1.17 1.19 1.14 1.06 0.99 0.93 0.92 0.96
0.16 0.32 0.55 0.61 0.42 0.32 0.40 0.45 0.47 0.45 0.63 0.76 0.63 0.52 0.54 0.55 0.49 0.41 0.40 0.47 0.33 0.33 0.30 0.38 0.57 0.56 0.55 0.57 0.59 0.61 0.65 0.63 0.63 0.68 0.73 0.83 0.88 0.95 1.06 1.11 1.17 1.23 1.17 1.05 1.02 1.06 0.96 0.94 0.99
0.14 0.31 0.57 0.45 0.27 0.21 0.22 0.28 0.36 0.53 0.71 0.82 0.69 0.66 0.74 0.60 0.47 0.40 0.36 0.48 0.45 0.38 0.37 0.41 0.55 0.56 0.54 0.57 0.60 0.60 0.60 0.61 0.59 0.62 0.64 0.76 0.83 0.87 0.98 1.05 1.09 1.06 1.05 1.04 1.08 1.13 1.08 1.07 1.06
0.13 0.25 0.43 0.30 0.19 0.16 0.20 0.25 0.39 0.58 0.61 0.69 0.79 0.86 0.89 0.69 0.58 0.48 0.46 0.58 0.60 0.51 0.41 0.50 0.59 0.64 0.65 0.64 0.63 0.63 0.62 0.58 0.58 0.60 0.63 0.73 0.83 0.91 0.99 1.04 0.98 0.89 0.86 0.94 1.07 1.14 1.15 1.08 1.02
0.16 0.20 0.23 0.19 0.13 0.15 0.22 0.32 0.36 0.49 0.57 0.77 0.82 0.85 0.94 0.89 0.74 0.60 0.72 0.95 0.91 0.76 0.58 0.61 0.62 0.61 0.66 0.72 0.70 0.69 0.68 0.66 0.63 0.63 0.67 0.74 0.84 0.87 0.95 1.08 0.99 0.88 0.86 0.95 1.10 1.09 1.16 1.02 0.95
0.10 0.16 0.19 0.16 0.09 0.13 0.19 0.26 0.37 0.50 0.62 0.69 0.79 0.91 0.94 0.84 0.76 0.80 1.01 1.38 1.52 1.36 1.05 0.75 0.69 0.75 0.71 0.68 0.76 0.80 0.70 0.67 0.71 0.76 0.82 0.87 0.93 0.97 1.03 1.08 1.16 1.04 1.03 1.10 1.21 1.11 1.03 1.02 1.02
0.05 0.12 0.16 0.12 0.11 0.13 0.20 0.26 0.32 0.38 0.48 0.70 0.88 1.02 0.92 0.73 0.77 0.99 1.20 1.52 1.71 1.53 1.34 1.15 1.03 0.93 0.90 0.83 0.73 0.92 0.85 0.83 0.96 1.16 1.15 1.27 1.43 1.28 1.30 1.24 1.39 1.34 1.34 1.51 1.59 1.42 1.30 1.25 1.22
0.03 0.08 0.08 0.06 0.05 0.06 0.12 0.22 0.29 0.43 0.74 1.17 1.40 1.26 1.01 0.86 0.98 1.23 1.40 1.42 1.51 1.53 1.48 1.52 1.33 1.21 1.21 1.11 1.22 1.51 1.38 1.38 1.61 1.74 1.67 1.97 2.12 1.88 1.40 1.49 1.82 1.83 1.94 2.13 2.19 2.20 1.88 1.60 1.37
0.01 0.04 0.04 0.03 0.03 0.03 0.07 0.15 0.27 0.45 0.96 1.45 1.65 1.35 1.14 1.09 1.19 1.34 1.65 1.75 1.84 1.83 1.66 1.73 1.65 1.54 1.59 1.71 1.69 1.83 1.93 2.03 2.21 2.23 2.27 2.47 2.24 1.87 1.68 1.87 2.23 2.29 2.34 2.40 2.52 2.57 2.11 2.07 2.09
0.01 0.01 0.01 0.01 0.02 0.02 0.05 0.15 0.35 0.60 1.00 1.28 1.21 1.07 1.06 1.26 1.45 1.63 1.89 2.19 2.30 2.34 2.22 2.00 1.94 2.12 2.13 2.05 1.99 1.84 1.67 1.72 1.97 2.12 2.06 2.43 2.65 2.53 2.52 2.61 2.46 2.61 2.81 3.06 2.88 2.81 2.56 2.53 2.36
0.00 0.01 0.01 0.01 0.02 0.04 0.08 0.17 0.37 0.69 0.90 0.96 0.84 0.88 1.14 1.42 1.68 2.12 2.53 2.61 2.58 2.80 2.94 2.73 2.65 2.61 2.44 2.46 2.11 1.80 1.73 1.63 1.58 1.83 2.00 2.24 2.59 2.73 2.80 2.56 2.47 2.35 2.49 2.67 2.67 2.43 2.52 2.65 2.58
0.00 0.01 0.01 0.02 0.03 0.06 0.15 0.24 0.37 0.61 0.69 0.70 0.77 1.01 1.22 1.62 1.91 2.43 2.92 2.98 3.07 3.33 3.50 3.40 3.36 3.16 2.86 2.60 2.41 2.26 1.98 1.92 1.63 1.72 1.76 2.11 2.50 2.57 2.44 2.47 2.53 2.37 2.43 2.43 2.43 2.44 2.63 2.78 2.82
0.00 0.02 0.08 0.08 0.06 0.08 0.17 0.39 0.47 0.65 0.74 0.69 0.87 1.04 1.42 1.87 2.13 2.45 2.70 3.09 3.51 3.88 3.94 3.87 3.88 3.76 3.69 3.35 2.94 2.54 2.38 2.10 2.01 1.95 1.79 2.03 2.34 2.50 2.49 2.42 2.29 2.28 2.33 2.43 2.47 2.50 2.63 2.53 2.57
0.02 0.07 0.19 0.18 0.12 0.12 0.17 0.55 0.78 0.75 0.72 0.76 0.93 1.27 1.54 1.84 2.24 2.46 2.78 3.13 3.53 4.03 4.41 4.47 3.98 3.93 3.96 3.84 3.52 3.08 2.97 2.80 2.60 2.25 2.02 1.98 2.16 2.25 2.36 2.17 2.14 2.20 2.04 2.07 2.24 2.21 2.27 2.36 2.49
0.06 0.12 0.19 0.27 0.17 0.14 0.26 0.76 1.10 0.83 0.67 0.81 1.08 1.40 1.76 1.99 2.40 2.52 2.70 2.98 3.43 4.30 5.20 5.18 4.64 4.23 3.94 3.86 3.87 3.73 3.53 3.13 2.71 2.42 2.24 2.09 1.93 1.79 1.87 1.84 1.93 1.90 1.84 1.87 1.70 2.02 2.15 2.27 2.32
0.07 0.12 0.24 0.36 0.22 0.21 0.32 0.71 0.78 0.69 0.87 0.88 0.92 1.16 1.49 1.62 1.91 2.18 2.47 3.00 3.80 4.98 5.76 5.65 5.01 4.55 4.20 4.00 3.82 3.76 3.43 3.12 2.68 2.46 2.29 2.03 1.96 1.68 1.64 1.62 1.72 1.64 1.70 1.84 1.90 2.08 2.06 1.99 1.99
0.05 0.11 0.23 0.27 0.21 0.29 0.38 0.61 0.71 0.82 1.02 1.02 0.88 0.93 1.23 1.44 1.72 2.18 2.73 3.57 4.65 5.55 5.82 5.31 4.80 4.46 4.03 3.61 3.04 2.68 2.63 2.52 2.23 1.96 1.69 1.60 1.54 1.62 1.69 1.52 1.64 1.52 1.56 1.59 1.64 1.75 1.76 1.72 1.78
0.07 0.10 0.21 0.27 0.19 0.22 0.38 0.71 1.02 1.00 0.93 0.89 0.95 0.95 1.06 1.43 1.88 2.60 3.63 4.21 4.45 4.58 4.34 4.00 3.73 3.52 3.07 2.70 2.47 2.21 2.19 2.00 1.80 1.70 1.66 1.42 1.35 1.41 1.37 1.50 1.48 1.43 1.58 1.60 1.58 1.66 1.63 1.52 1.55
0.11 0.13 0.20 0.26 0.17 0.18 0.39 0.89 1.18 1.17 0.95 0.82 0.86 0.86 1.04 1.47 2.06 2.86 3.44 3.56 3.28 2.96 2.87 2.82 2.88 2.64 2.50 2.45 2.34 2.23 2.23 1.99 1.73 1.61 1.58 1.35 1.18 1.19 1.25 1.28 1.31 1.42 1.42 1.54 1.57 1.48 1.53 1.56 1.50
0.09 0.08 0.07 0.10 0.16 0.35 0.54 1.12 1.32 1.09 1.07 0.89 0.88 0.90 0.95 1.23 1.59 2.01 2.25 2.14 2.26 2.40 2.41 2.53 2.62 2.37 2.34 2.28 1.99 1.90 1.80 1.69 1.54 1.48 1.48 1.54 1.28 1.12 1.09 1.13 1.18 1.29 1.26 1.45 1.31 1.38 1.54 1.59 1.44
0.05 0.04 0.05 0.12 0.23 0.43 0.63 0.90 1.07 0.90 1.09 0.88 0.74 0.74 0.72 0.89 0.97 1.08 1.21 1.37 1.58 1.69 1.86 2.17 2.41 2.34 2.17 2.01 1.94 2.00 1.86 1.80 1.76 1.77 1.71 1.67 1.53 1.29 1.14 1.18 1.22 1.27 1.21 1.25 1.24 1.49 1.48 1.41 1.35
0.04 0.06 0.13 0.24 0.41 0.90 0.86 0.85 1.09 1.03 1.09 0.85 0.67 0.58 0.64 0.75 0.83 0.87 0.93 1.06 1.24 1.36 1.53 1.78 2.09 2.23 2.15 1.99 1.91 1.93 1.97 1.91 1.80 1.77 1.72 1.54 1.44 1.37 1.23 1.22 1.25 1.21 1.18 1.16 1.15 1.33 1.36 1.41 1.42
0.06 0.08 0.25 0.59 0.99 1.16 0.74 0.82 1.08 0.84 0.77 0.64 0.42 0.41 0.53 0.72 0.86 0.93 0.89 0.85 0.91 1.06 1.21 1.32 1.50 1.76 1.88 1.86 1.83 1.84 1.94 1.84 1.64 1.52 1.43 1.37 1.20 1.12 1.14 1.16 1.19 1.07 1.09 1.19 1.30 1.31 1.31 1.37 1.39
0.05 0.04 0.11 0.24 0.35 0.54 0.72 1.10 1.21 0.86 0.59 0.36 0.27 0.36 0.53 0.68 0.73 0.77 0.76 0.72 0.70 0.78 0.95 1.09 1.28 1.46 1.66 1.68 1.66 1.65 1.71 1.64 1.51 1.49 1.27 1.20 1.15 1.09 1.13 1.15 1.11 1.08 1.12 1.13 1.35 1.26 1.24 1.28 1.24
0.05 0.04 0.04 0.08 0.13 0.34 0.71 1.02 0.97 0.76 0.57 0.40 0.33 0.35 0.45 0.50 0.53 0.64 0.70 0.77 0.75 0.72 0.82 0.95 1.17 1.36 1.55 1.66 1.69 1.61 1.60 1.59 1.56 1.51 1.32 1.16 1.25 1.18 1.24 1.22 1.19 1.19 1.27 1.37 1.46 1.35 1.33 1.37 1.22
0.06 0.05 0.05 0.05 0.12 0.26 0.55 0.96 1.15 0.94 0.70 0.51 0.43 0.43 0.50 0.51 0.53 0.72 0.86 0.82 0.68 0.58 0.65 0.79 0.98 1.23 1.40 1.57 1.58 1.48 1.63 1.60 1.57 1.49 1.37 1.24 1.25 1.24 1.30 1.29 1.24 1.29 1.34 1.44 1.50 1.39 1.42 1.40 1.32
0.07 0.07 0.06 0.06 0.08 0.15 0.38 0.62 0.59 0.55 0.47 0.44 0.49 0.47 0.38 0.44 0.55 0.73 0.91 0.87 0.65 0.53 0.54 0.64 0.85 1.06 1.17 1.27 1.35 1.34 1.39 1.37 1.40 1.42 1.41 1.37 1.35 1.31 1.30 1.29 1.28 1.27 1.33 1.40 1.46 1.38 1.38 1.34 1.36
0.09 0.10 0.10 0.09 0.08 0.09 0.18 0.37 0.32 0.36 0.38 0.40 0.51 0.57 0.51 0.52 0.59 0.56 0.66 0.79 0.72 0.62 0.53 0.60 0.77 0.91 0.96 1.02 1.04 1.08 1.16 1.21 1.20 1.20 1.29 1.36 1.32 1.26 1.31 1.34 1.28 1.19 1.26 1.38 1.40 1.34 1.37 1.39 1.35

GEFSSGP_prec_meanprecacc_228.txt.gz
Total_Precipitation_Accumulation
0.06 0.12 0.29 0.56 1.19 1.45 1.21 0.75 0.55 0.54 0.60 0.60 0.52 0.51 0.59 0.69 0.97 1.60 1.23 0.75 0.46 0.42 0.52 0.71 1.01 0.97 0.89 0.90 0.95 0.99 0.94 0.88 0.86 0.84 0.82 0.92 0.95 0.89 0.90 0.96 0.99 1.03 1.03 1.09 1.15 1.05 1.02 1.02 1.02
0.10 0.20 0.39 0.94 1.43 1.30 1.15 0.65 0.37 0.46 0.55 0.69 0.69 0.57 0.50 0.53 0.52 0.60 0.71 0.78 0.40 0.33 0.42 0.54 0.79 0.85 0.81 0.81 0.86 0.88 0.83 0.77 0.79 0.77 0.82 0.92 0.97 0.98 1.02 1.08 1.08 1.08 1.13 1.17 1.14 1.06 1.02 1.01 1.10
0.14 0.26 0.47 0.94 0.97 0.85 0.86 0.52 0.38 0.33 0.51 0.75 0.74 0.51 0.54 0.62 0.52 0.50 0.55 0.58 0.40 0.35 0.33 0.45 0.69 0.73 0.75 0.74 0.77 0.80 0.79 0.75 0.76 0.78 0.84 0.92 1.00 1.09 1.15 1.20 1.23 1.23 1.27 1.21 1.15 1.07 1.00 0.99 1.02
0.16 0.32 0.55 0.62 0.42 0.32 0.40 0.45 0.47 0.46 0.64 0.77 0.64 0.55 0.57 0.61 0.55 0.46 0.43 0.50 0.36 0.37 0.35 0.43 0.65 0.67 0.64 0.66 0.67 0.70 0.75 0.76 0.74 0.79 0.86 1.00 1.04 1.06 1.13 1.18 1.24 1.30 1.24 1.13 1.10 1.13 1.02 0.99 1.04
0.15 0.32 0.60 0.47 0.27 0.21 0.22 0.28 0.36 0.53 0.71 0.83 0.70 0.67 0.76 0.63 0.49 0.42 0.37 0.50 0.49 0.45 0.43 0.46 0.67 0.71 0.66 0.65 0.66 0.66 0.69 0.72 0.69 0.72 0.80 0.99 0.99 0.96 1.05 1.12 1.17 1.13 1.11 1.10 1.16 1.20 1.13 1.11 1.09
0.15 0.28 0.45 0.32 0.19 0.16 0.20 0.25 0.39 0.58 0.61 0.69 0.79 0.86 0.90 0.70 0.58 0.49 0.47 0.59 0.63 0.54 0.45 0.54 0.70 0.77 0.75 0.71 0.69 0.69 0.68 0.67 0.67 0.70 0.80 0.92 0.97 1.00 1.07 1.12 1.05 0.96 0.92 1.01 1.14 1.20 1.20 1.12 1.05
0.18 0.22 0.24 0.19 0.13 0.15 0.22 0.32 0.36 0.49 0.57 0.77 0.82 0.85 0.95 0.90 0.75 0.61 0.73 0.96 0.93 0.79 0.62 0.65 0.71 0.70 0.75 0.79 0.77 0.74 0.74 0.74 0.70 0.71 0.82 0.88 0.95 0.96 1.04 1.15 1.06 0.94 0.92 1.01 1.16 1.14 1.20 1.04 0.97
0.11 0.17 0.19 0.16 0.09 0.13 0.19 0.26 0.37 0.50 0.62 0.69 0.79 0.91 0.94 0.85 0.77 0.81 1.02 1.39 1.53 1.39 1.08 0.78 0.74 0.81 0.76 0.73 0.81 0.84 0.75 0.73 0.75 0.80 0.92 1.00 1.04 1.07 1.12 1.15 1.22 1.10 1.08 1.16 1.26 1.15 1.07 1.04 1.04
0.05 0.13 0.17 0.13 0.11 0.13 0.20 0.26 0.32 0.38 0.48 0.70 0.88 1.02 0.93 0.73 0.77 0.99 1.21 1.54 1.74 1.57 1.40 1.19 1.06 0.96 0.94 0.86 0.75 0.96 0.90 0.87 1.00 1.19 1.21 1.41 1.56 1.40 1.42 1.32 1.45 1.40 1.40 1.57 1.65 1.46 1.33 1.26 1.24
0.03 0.08 0.09 0.06 0.06 0.06 0.12 0.22 0.29 0.43 0.74 1.17 1.40 1.26 1.01 0.86 0.98 1.23 1.40 1.43 1.52 1.56 1.53 1.56 1.36 1.24 1.25 1.13 1.26 1.58 1.46 1.46 1.71 1.81 1.74 2.10 2.27 2.01 1.52 1.59 1.89 1.90 2.01 2.19 2.25 2.25 1.91 1.63 1.41
0.01 0.04 0.04 0.03 0.03 0.03 0.07 0.15 0.27 0.46 0.96 1.45 1.65 1.35 1.14 1.09 1.19 1.34 1.65 1.75 1.85 1.84 1.69 1.76 1.68 1.57 1.63 1.76 1.75 1.94 2.10 2.22 2.36 2.32 2.35 2.57 2.35 1.98 1.77 1.97 2.32 2.37 2.43 2.50 2.61 2.65 2.17 2.11 2.14
0.01 0.01 0.01 0.01 0.02 0.02 0.06 0.15 0.35 0.60 1.00 1.28 1.21 1.07 1.06 1.26 1.45 1.63 1.89 2.19 2.30 2.35 2.24 2.02 1.97 2.16 2.19 2.10 2.04 1.93 1.80 1.84 2.07 2.19 2.12 2.49 2.74 2.64 2.61 2.70 2.55 2.70 2.95 3.21 2.99 2.92 2.65 2.60 2.40
0.00 0.01 0.01 0.01 0.02 0.04 0.08 0.17 0.37 0.69 0.90 0.96 0.84 0.88 1.14 1.42 1.68 2.12 2.53 2.61 2.59 2.81 2.95 2.74 2.67 2.65 2.48 2.50 2.18 1.86 1.80 1.69 1.63 1.88 2.05 2.28 2.65 2.80 2.89 2.66 2.58 2.47 2.62 2.78 2.76 2.52 2.60 2.70 2.62
0.00 0.01 0.01 0.02 0.03 0.06 0.15 0.24 0.37 0.61 0.70 0.70 0.77 1.01 1.22 1.62 1.91 2.43 2.92 2.98 3.08 3.34 3.52 3.40 3.38 3.19 2.89 2.63 2.47 2.31 2.03 1.96 1.67 1.77 1.80 2.15 2.55 2.63 2.53 2.58 2.67 2.51 2.53 2.52 2.51 2.53 2.73 2.84 2.87
0.00 0.02 0.08 0.08 0.07 0.08 0.17 0.39 0.48 0.66 0.74 0.70 0.87 1.04 1.42 1.87 2.13 2.45 2.70 3.09 3.51 3.88 3.95 3.88 3.89 3.79 3.73 3.39 2.97 2.57 2.41 2.14 2.05 2.00 1.84 2.07 2.38 2.56 2.57 2.54 2.42 2.39 2.42 2.53 2.56 2.59 2.71 2.60 2.64
0.02 0.07 0.20 0.19 0.12 0.12 0.17 0.56 0.80 0.75 0.72 0.76 0.93 1.28 1.54 1.84 2.24 2.46 2.78 3.13 3.54 4.04 4.42 4.49 4.00 3.95 3.98 3.87 3.57 3.12 3.00 2.82 2.64 2.29 2.06 2.01 2.21 2.31 2.45 2.27 2.24 2.29 2.13 2.16 2.32 2.28 2.35 2.43 2.55
0.06 0.12 0.20 0.28 0.18 0.15 0.26 0.77 1.11 0.83 0.67 0.81 1.08 1.40 1.76 1.99 2.40 2.52 2.70 2.98 3.43 4.31 5.20 5.20 4.68 4.27 3.96 3.89 3.90 3.77 3.57 3.18 2.75 2.46 2.30 2.15 2.00 1.86 1.97 1.93 2.02 1.98 1.92 1.96 1.76 2.09 2.22 2.33 2.39
0.07 0.12 0.24 0.37 0.23 0.22 0.33 0.72 0.78 0.69 0.87 0.88 0.92 1.16 1.49 1.62 1.91 2.18 2.47 3.00 3.80 4.98 5.77 5.67 5.04 4.59 4.24 4.04 3.86 3.80 3.48 3.17 2.72 2.52 2.36 2.10 2.05 1.77 1.75 1.73 1.80 1.71 1.78 1.92 1.97 2.16 2.14 2.06 2.06
0.06 0.11 0.24 0.28 0.21 0.31 0.39 0.61 0.71 0.82 1.02 1.02 0.88 0.93 1.23 1.44 1.72 2.18 2.73 3.57 4.65 5.55 5.83 5.32 4.83 4.49 4.07 3.66 3.09 2.73 2.70 2.59 2.30 2.03 1.75 1.68 1.63 1.71 1.80 1.60 1.72 1.60 1.63 1.67 1.70 1.83 1.84 1.80 1.86
0.07 0.11 0.21 0.27 0.19 0.23 0.39 0.72 1.02 1.00 0.93 0.89 0.95 0.95 1.06 1.43 1.88 2.60 3.63 4.21 4.45 4.58 4.34 4.00 3.75 3.54 3.09 2.73 2.50 2.27 2.25 2.04 1.85 1.76 1.74 1.48 1.41 1.47 1.43 1.57 1.55 1.50 1.66 1.68 1.65 1.73 1.70 1.59 1.64
0.11 0.13 0.21 0.26 0.17 0.19 0.39 0.90 1.19 1.17 0.96 0.82 0.86 0.86 1.04 1.47 2.06 2.87 3.44 3.57 3.28 2.96 2.87 2.82 2.89 2.65 2.51 2.48 2.37 2.27 2.27 2.03 1.77 1.67 1.63 1.39 1.21 1.22 1.29 1.33 1.35 1.48 1.49 1.61 1.65 1.55 1.61 1.63 1.58
0.10 0.08 0.07 0.10 0.17 0.35 0.54 1.13 1.33 1.10 1.07 0.90 0.88 0.90 0.95 1.23 1.59 2.01 2.25 2.14 2.26 2.40 2.41 2.53 2.63 2.37 2.35 2.30 2.02 1.93 1.82 1.72 1.59 1.53 1.51 1.58 1.32 1.15 1.12 1.17 1.22 1.35 1.31 1.52 1.36 1.43 1.62 1.67 1.53
0.05 0.04 0.05 0.12 0.24 0.44 0.64 0.91 1.09 0.92 1.10 0.89 0.75 0.74 0.72 0.89 0.97 1.08 1.21 1.37 1.59 1.70 1.87 2.17 2.41 2.35 2.18 2.03 1.96 2.03 1.89 1.83 1.80 1.80 1.76 1.72 1.57 1.32 1.17 1.22 1.27 1.33 1.26 1.30 1.29 1.56 1.55 1.50 1.43
0.04 0.06 0.14 0.25 0.41 0.91 0.87 0.86 1.11 1.04 1.11 0.86 0.68 0.59 0.64 0.75 0.83 0.87 0.93 1.07 1.24 1.36 1.53 1.78 2.09 2.23 2.16 2.00 1.92 1.96 2.00 1.95 1.85 1.81 1.76 1.58 1.47 1.40 1.26 1.26 1.29 1.25 1.23 1.21 1.19 1.38 1.42 1.48 1.51
0.06 0.08 0.25 0.60 1.01 1.17 0.75 0.83 1.08 0.85 0.78 0.65 0.43 0.41 0.53 0.72 0.86 0.93 0.89 0.86 0.91 1.06 1.22 1.32 1.50 1.77 1.89 1.86 1.84 1.85 1.97 1.88 1.68 1.56 1.47 1.41 1.23 1.14 1.17 1.19 1.23 1.11 1.14 1.23 1.35 1.37 1.36 1.43 1.45
0.05 0.04 0.12 0.25 0.37 0.55 0.74 1.10 1.21 0.87 0.59 0.36 0.27 0.36 0.53 0.68 0.73 0.77 0.76 0.73 0.71 0.78 0.96 1.09 1.28 1.46 1.66 1.68 1.67 1.67 1.73 1.66 1.54 1.52 1.30 1.22 1.17 1.11 1.15 1.17 1.12 1.10 1.14 1.17 1.41 1.31 1.29 1.33 1.30
0.06 0.04 0.05 0.09 0.15 0.36 0.73 1.03 0.99 0.77 0.57 0.40 0.33 0.35 0.45 0.50 0.53 0.64 0.70 0.77 0.75 0.72 0.83 0.96 1.19 1.39 1.57 1.67 1.70 1.63 1.61 1.61 1.59 1.54 1.34 1.18 1.27 1.20 1.25 1.24 1.21 1.21 1.30 1.40 1.52 1.40 1.39 1.43 1.28
0.06 0.06 0.05 0.06 0.14 0.28 0.57 0.99 1.16 0.95 0.70 0.51 0.43 0.43 0.50 0.51 0.53 0.72 0.86 0.82 0.69 0.58 0.65 0.80 1.01 1.27 1.44 1.60 1.60 1.49 1.65 1.62 1.61 1.52 1.40 1.27 1.27 1.26 1.33 1.31 1.27 1.32 1.37 1.47 1.55 1.43 1.47 1.46 1.37
0.07 0.07 0.07 0.07 0.09 0.16 0.41 0.63 0.60 0.56 0.48 0.45 0.50 0.48 0.39 0.45 0.55 0.73 0.91 0.87 0.65 0.54 0.55 0.66 0.88 1.11 1.22 1.30 1.38 1.37 1.42 1.40 1.42 1.44 1.43 1.40 1.38 1.33 1.33 1.33 1.32 1.31 1.37 1.44 1.50 1.42 1.43 1.39 1.42
0.10 0.11 0.12 0.11 0.10 0.11 0.21 0.40 0.33 0.37 0.40 0.43 0.53 0.59 0.52 0.53 0.60 0.57 0.67 0.80 0.74 0.65 0.56 0.65 0.82 0.96 1.01 1.07 1.09 1.16 1.23 1.25 1.23 1.23 1.31 1.38 1.33 1.28 1.33 1.37 1.31 1.21 1.28 1.41 1.42 1.37 1.41 1.45 1.42

GEFSSGP_prec_meanprecacc_234.txt.gz
Total_Precipitation_Accumulation
0.06 0.14 0.38 0.68 1.31 1.53 1.23 0.77 0.56 0.55 0.61 0.62 0.55 0.53 0.63 0.74 1.00 1.64 1.27 0.79 0.50 0.47 0.58 0.76 1.04 1.00 0.94 0.97 1.00 1.05 1.01 0.94 0.92 0.92 0.90 0.97 0.98 0.92 0.94 1.01 1.05 1.09 1.10 1.14 1.20 1.11 1.10 1.13 1.18
0.12 0.27 0.51 1.07 1.54 1.31 1.16 0.66 0.38 0.47 0.57 0.72 0.72 0.59 0.52 0.56 0.57 0.65 0.76 0.82 0.43 0.37 0.47 0.58 0.82 0.87 0.87 0.87 0.93 0.95 0.89 0.83 0.86 0.85 0.89 0.98 1.02 1.03 1.07 1.15 1.15 1.15 1.19 1.22 1.18 1.11 1.10 1.13 1.26
0.18 0.35 0.58 1.09 1.03 0.85 0.86 0.53 0.39 0.34 0.52 0.77 0.75 0.52 0.56 0.66 0.58 0.56 0.60 0.62 0.42 0.38 0.36 0.49 0.72 0.76 0.79 0.81 0.84 0.87 0.84 0.80 0.82 0.85 0.91 0.99 1.07 1.15 1.21 1.28 1.31 1.30 1.34 1.28 1.21 1.12 1.05 1.05 1.11
0.25 0.42 0.65 0.70 0.44 0.32 0.41 0.45 0.47 0.46 0.65 0.78 0.65 0.55 0.58 0.63 0.57 0.49 0.47 0.54 0.38 0.39 0.38 0.47 0.69 0.70 0.70 0.72 0.73 0.75 0.80 0.80 0.79 0.84 0.92 1.08 1.13 1.14 1.21 1.27 1.33 1.38 1.32 1.20 1.16 1.18 1.06 1.02 1.08
0.22 0.42 0.67 0.50 0.28 0.21 0.22 0.28 0.36 0.53 0.71 0.83 0.70 0.68 0.78 0.65 0.51 0.43 0.39 0.52 0.51 0.47 0.45 0.50 0.71 0.75 0.72 0.72 0.72 0.71 0.74 0.77 0.74 0.77 0.87 1.06 1.06 1.02 1.12 1.20 1.23 1.18 1.17 1.15 1.21 1.25 1.16 1.14 1.12
0.21 0.34 0.50 0.33 0.19 0.16 0.20 0.25 0.39 0.59 0.61 0.70 0.79 0.87 0.93 0.73 0.60 0.50 0.48 0.61 0.65 0.57 0.48 0.60 0.76 0.82 0.82 0.78 0.76 0.75 0.75 0.73 0.74 0.77 0.87 0.98 1.03 1.06 1.13 1.18 1.10 1.00 0.96 1.04 1.18 1.24 1.23 1.14 1.07
0.24 0.32 0.30 0.20 0.13 0.15 0.22 0.32 0.36 0.49 0.57 0.78 0.82 0.86 0.97 0.93 0.77 0.62 0.74 0.97 0.95 0.81 0.64 0.70 0.76 0.76 0.83 0.86 0.83 0.81 0.81 0.81 0.79 0.79 0.90 0.94 1.02 1.04 1.13 1.24 1.12 0.98 0.96 1.04 1.19 1.18 1.23 1.07 0.99
0.17 0.23 0.22 0.17 0.10 0.13 0.20 0.26 0.37 0.50 0.62 0.69 0.79 0.92 0.96 0.88 0.79 0.83 1.03 1.40 1.54 1.41 1.11 0.83 0.78 0.86 0.83 0.79 0.87 0.90 0.79 0.78 0.83 0.90 1.00 1.08 1.11 1.15 1.21 1.23 1.29 1.15 1.12 1.19 1.30 1.19 1.09 1.06 1.06
0.09 0.16 0.19 0.14 0.11 0.14 0.20 0.26 0.32 0.39 0.48 0.70 0.88 1.03 0.94 0.75 0.78 1.00 1.22 1.54 1.74 1.57 1.41 1.22 1.10 1.01 0.98 0.91 0.80 1.01 0.94 0.90 1.05 1.29 1.31 1.49 1.62 1.45 1.49 1.39 1.51 1.45 1.44 1.61 1.68 1.50 1.36 1.29 1.26
0.04 0.09 0.10 0.07 0.06 0.06 0.13 0.23 0.29 0.43 0.74 1.17 1.40 1.27 1.02 0.86 0.98 1.23 1.41 1.43 1.52 1.57 1.54 1.58 1.40 1.27 1.27 1.17 1.31 1.64 1.50 1.49 1.73 1.86 1.80 2.16 2.32 2.06 1.56 1.65 1.96 1.97 2.07 2.23 2.29 2.29 1.94 1.65 1.42
0.02 0.04 0.04 0.03 0.04 0.04 0.07 0.15 0.27 0.46 0.97 1.45 1.65 1.35 1.14 1.09 1.19 1.34 1.65 1.75 1.85 1.84 1.70 1.78 1.69 1.59 1.65 1.79 1.79 1.98 2.14 2.25 2.38 2.34 2.39 2.62 2.39 2.01 1.80 2.01 2.38 2.43 2.48 2.53 2.65 2.69 2.19 2.13 2.15
0.01 0.01 0.01 0.02 0.02 0.03 0.06 0.15 0.35 0.60 1.00 1.28 1.21 1.07 1.06 1.26 1.45 1.63 1.89 2.19 2.30 2.35 2.25 2.03 1.97 2.18 2.20 2.12 2.07 1.96 1.82 1.86 2.10 2.21 2.14 2.52 2.77 2.67 2.64 2.73 2.60 2.76 2.99 3.24 3.02 2.94 2.67 2.63 2.43
0.01 0.01 0.01 0.02 0.02 0.05 0.09 0.17 0.38 0.69 0.90 0.96 0.84 0.88 1.15 1.42 1.68 2.13 2.53 2.61 2.59 2.81 2.96 2.75 2.68 2.65 2.49 2.51 2.19 1.88 1.82 1.71 1.65 1.91 2.07 2.30 2.68 2.83 2.92 2.69 2.62 2.52 2.65 2.80 2.79 2.55 2.63 2.75 2.67
0.01 0.01 0.02 0.03 0.04 0.07 0.16 0.25 0.38 0.61 0.70 0.70 0.78 1.01 1.22 1.62 1.91 2.43 2.92 2.98 3.08 3.34 3.52 3.41 3.39 3.20 2.90 2.64 2.48 2.33 2.05 1.99 1.70 1.81 1.86 2.20 2.58 2.66 2.57 2.64 2.73 2.57 2.57 2.54 2.54 2.57 2.77 2.88 2.90
0.01 0.03 0.09 0.09 0.09 0.09 0.18 0.41 0.50 0.66 0.74 0.72 0.88 1.05 1.42 1.87 2.13 2.45 2.71 3.09 3.51 3.88 3.95 3.88 3.90 3.79 3.74 3.40 2.99 2.58 2.43 2.18 2.12 2.05 1.89 2.13 2.44 2.61 2.62 2.60 2.49 2.46 2.47 2.57 2.61 2.65 2.77 2.65 2.67
0.03 0.08 0.21 0.20 0.16 0.15 0.19 0.58 0.81 0.76 0.73 0.79 0.96 1.28 1.55 1.85 2.24 2.46 2.78 3.13 3.55 4.04 4.42 4.49 4.00 3.96 3.99 3.88 3.58 3.14 3.03 2.86 2.67 2.32 2.10 2.06 2.26 2.37 2.49 2.32 2.28 2.33 2.17 2.20 2.38 2.35 2.41 2.48 2.60
0.07 0.12 0.20 0.30 0.20 0.17 0.29 0.79 1.12 0.84 0.67 0.82 1.10 1.41 1.76 2.00 2.40 2.52 2.70 2.98 3.44 4.32 5.21 5.20 4.69 4.27 3.97 3.90 3.91 3.79 3.59 3.21 2.78 2.49 2.33 2.18 2.04 1.91 2.02 1.98 2.06 2.01 1.97 2.02 1.83 2.16 2.29 2.39 2.43
0.07 0.13 0.25 0.39 0.25 0.24 0.35 0.74 0.80 0.71 0.88 0.89 0.94 1.16 1.50 1.63 1.92 2.19 2.47 3.00 3.81 4.99 5.77 5.67 5.05 4.59 4.25 4.05 3.87 3.82 3.51 3.21 2.75 2.54 2.38 2.12 2.07 1.80 1.79 1.76 1.84 1.75 1.84 2.00 2.04 2.23 2.19 2.10 2.11
0.07 0.12 0.24 0.29 0.22 0.32 0.42 0.63 0.73 0.84 1.03 1.03 0.89 0.94 1.24 1.44 1.72 2.18 2.73 3.57 4.65 5.56 5.83 5.33 4.83 4.49 4.07 3.67 3.10 2.74 2.71 2.62 2.33 2.05 1.77 1.70 1.66 1.74 1.84 1.65 1.77 1.66 1.70 1.74 1.78 1.89 1.88 1.83 1.90
0.08 0.12 0.22 0.28 0.19 0.25 0.42 0.74 1.05 1.03 0.95 0.91 0.97 0.97 1.07 1.44 1.89 2.60 3.63 4.22 4.45 4.58 4.35 4.01 3.75 3.55 3.09 2.74 2.51 2.27 2.26 2.06 1.87 1.78 1.76 1.50 1.44 1.51 1.48 1.63 1.60 1.56 1.72 1.75 1.71 1.77 1.74 1.62 1.68
0.11 0.14 0.21 0.26 0.18 0.22 0.45 0.93 1.22 1.21 0.98 0.83 0.88 0.88 1.06 1.48 2.07 2.87 3.44 3.57 3.28 2.97 2.87 2.83 2.90 2.65 2.52 2.48 2.37 2.28 2.29 2.06 1.79 1.69 1.65 1.41 1.24 1.26 1.33 1.38 1.41 1.54 1.53 1.65 1.70 1.60 1.64 1.67 1.63
0.10 0.09 0.08 0.11 0.18 0.38 0.58 1.20 1.42 1.18 1.11 0.92 0.91 0.93 0.97 1.24 1.59 2.01 2.25 2.15 2.26 2.40 2.42 2.54 2.63 2.38 2.35 2.30 2.02 1.93 1.83 1.74 1.60 1.54 1.52 1.59 1.34 1.18 1.15 1.21 1.27 1.39 1.36 1.55 1.41 1.48 1.67 1.72 1.58
0.05 0.04 0.06 0.13 0.25 0.46 0.65 0.94 1.18 0.99 1.13 0.93 0.79 0.80 0.76 0.91 0.98 1.09 1.22 1.38 1.59 1.70 1.87 2.17 2.41 2.35 2.18 2.03 1.97 2.03 1.89 1.83 1.80 1.81 1.77 1.74 1.59 1.34 1.19 1.26 1.32 1.36 1.30 1.33 1.33 1.60 1.61 1.54 1.47
0.05 0.07 0.15 0.26 0.43 0.93 0.88 0.88 1.12 1.05 1.14 0.90 0.72 0.62 0.66 0.77 0.84 0.88 0.94 1.08 1.25 1.37 1.54 1.79 2.09 2.23 2.16 2.01 1.93 1.96 2.02 1.96 1.86 1.83 1.78 1.59 1.48 1.41 1.27 1.28 1.32 1.27 1.24 1.22 1.22 1.43 1.46 1.50 1.54
0.07 0.09 0.27 0.63 1.03 1.18 0.76 0.86 1.10 0.86 0.80 0.67 0.45 0.44 0.56 0.75 0.87 0.94 0.90 0.87 0.93 1.08 1.22 1.32 1.50 1.77 1.90 1.87 1.85 1.86 1.99 1.90 1.71 1.58 1.48 1.42 1.24 1.15 1.18 1.20 1.24 1.13 1.14 1.24 1.39 1.41 1.39 1.45 1.48
0.06 0.05 0.14 0.27 0.39 0.56 0.75 1.14 1.23 0.88 0.60 0.37 0.28 0.38 0.57 0.71 0.77 0.80 0.78 0.74 0.72 0.80 0.97 1.09 1.28 1.47 1.68 1.70 1.68 1.69 1.75 1.69 1.57 1.55 1.32 1.23 1.18 1.11 1.15 1.17 1.13 1.12 1.16 1.18 1.42 1.33 1.31 1.36 1.32
0.06 0.05 0.05 0.10 0.15 0.37 0.75 1.07 1.02 0.79 0.59 0.42 0.35 0.38 0.50 0.55 0.58 0.68 0.73 0.79 0.77 0.74 0.84 0.97 1.21 1.41 1.59 1.69 1.72 1.65 1.63 1.63 1.62 1.56 1.36 1.19 1.28 1.21 1.27 1.25 1.21 1.22 1.32 1.43 1.54 1.42 1.41 1.45 1.29
0.07 0.06 0.06 0.06 0.16 0.30 0.60 1.01 1.20 0.97 0.73 0.56 0.49 0.48 0.56 0.57 0.59 0.78 0.91 0.86 0.71 0.60 0.67 0.83 1.04 1.30 1.47 1.62 1.62 1.51 1.67 1.63 1.62 1.54 1.43 1.30 1.29 1.28 1.34 1.33 1.28 1.34 1.40 1.50 1.57 1.45 1.50 1.48 1.40
0.08 0.07 0.07 0.07 0.10 0.18 0.43 0.65 0.61 0.58 0.51 0.51 0.59 0.57 0.48 0.56 0.67 0.80 0.98 0.94 0.69 0.56 0.58 0.70 0.92 1.16 1.27 1.36 1.43 1.41 1.46 1.43 1.45 1.47 1.45 1.43 1.41 1.36 1.34 1.34 1.34 1.33 1.39 1.46 1.53 1.45 1.46 1.43 1.44
0.10 0.11 0.12 0.12 0.11 0.11 0.23 0.43 0.34 0.38 0.45 0.52 0.61 0.69 0.70 0.72 0.74 0.66 0.74 0.89 0.83 0.71 0.62 0.72 0.90 1.04 1.08 1.14 1.16 1.21 1.32 1.37 1.34 1.31 1.36 1.42 1.36 1.30 1.34 1.38 1.34 1.24 1.31 1.44 1.45 1.40 1.44 1.48 1.44

GEFSSGP_prec_meanprecacc_240.txt.gz
Total_Precipitation_Accumulation
0.06 0.15 0.39 0.69 1.33 1.54 1.24 0.78 0.57 0.56 0.63 0.65 0.59 0.57 0.66 0.75 1.02 1.66 1.30 0.83 0.56 0.54 0.63 0.81 1.13 1.07 1.02 1.04 1.07 1.13 1.12 1.04 0.99 0.99 0.97 1.04 1.05 0.99 1.00 1.07 1.09 1.13 1.13 1.18 1.27 1.21 1.19 1.23 1.29
0.13 0.28 0.52 1.09 1.55 1.32 1.18 0.67 0.39 0.48 0.59 0.74 0.75 0.62 0.55 0.58 0.58 0.68 0.80 0.87 0.48 0.41 0.50 0.61 0.88 0.93 0.97 0.94 0.97 1.01 0.99 0.94 0.94 0.91 0.96 1.06 1.12 1.14 1.15 1.21 1.20 1.20 1.24 1.26 1.27 1.23 1.21 1.24 1.34
0.20 0.37 0.59 1.11 1.04 0.87 0.88 0.55 0.40 0.35 0.53 0.77 0.75 0.53 0.59 0.69 0.61 0.61 0.65 0.67 0.47 0.41 0.40 0.53 0.79 0.83 0.87 0.87 0.89 0.92 0.92 0.90 0.92 0.95 1.00 1.08 1.18 1.25 1.29 1.35 1.37 1.35 1.39 1.33 1.31 1.28 1.22 1.18 1.21
0.27 0.43 0.66 0.71 0.44 0.33 0.41 0.46 0.48 0.47 0.65 0.78 0.65 0.56 0.61 0.68 0.63 0.55 0.51 0.56 0.41 0.42 0.41 0.52 0.76 0.76 0.74 0.78 0.79 0.81 0.85 0.87 0.88 0.96 1.05 1.20 1.23 1.23 1.30 1.36 1.40 1.44 1.36 1.26 1.26 1.30 1.17 1.12 1.17
0.23 0.44 0.69 0.50 0.28 0.21 0.23 0.28 0.36 0.53 0.71 0.83 0.71 0.69 0.80 0.68 0.54 0.45 0.41 0.53 0.52 0.49 0.48 0.56 0.79 0.80 0.77 0.78 0.77 0.77 0.79 0.82 0.82 0.86 0.98 1.19 1.20 1.13 1.23 1.32 1.30 1.24 1.22 1.21 1.26 1.30 1.23 1.20 1.18
0.23 0.35 0.50 0.33 0.19 0.16 0.20 0.25 0.39 0.59 0.62 0.70 0.79 0.88 0.95 0.75 0.62 0.52 0.50 0.62 0.67 0.60 0.50 0.67 0.85 0.88 0.88 0.84 0.80 0.81 0.81 0.78 0.81 0.84 0.95 1.07 1.12 1.12 1.20 1.26 1.15 1.05 1.01 1.10 1.23 1.28 1.27 1.18 1.11
0.26 0.32 0.31 0.20 0.13 0.15 0.22 0.32 0.37 0.50 0.57 0.78 0.82 0.87 0.99 0.95 0.78 0.64 0.75 0.99 0.97 0.83 0.67 0.78 0.85 0.83 0.89 0.92 0.88 0.87 0.87 0.85 0.85 0.86 0.95 1.00 1.09 1.10 1.18 1.30 1.19 1.03 1.00 1.08 1.22 1.20 1.27 1.11 1.02
0.18 0.23 0.22 0.17 0.11 0.13 0.20 0.26 0.37 0.50 0.62 0.69 0.79 0.92 0.97 0.89 0.80 0.84 1.04 1.41 1.57 1.45 1.16 0.87 0.84 0.93 0.89 0.87 0.97 0.99 0.86 0.81 0.88 0.96 1.04 1.13 1.18 1.22 1.28 1.29 1.35 1.21 1.18 1.24 1.33 1.21 1.12 1.10 1.10
0.09 0.16 0.19 0.14 0.12 0.14 0.20 0.26 0.32 0.39 0.48 0.70 0.88 1.03 0.94 0.75 0.79 1.01 1.23 1.55 1.76 1.60 1.43 1.24 1.14 1.08 1.05 0.98 0.90 1.09 1.00 0.94 1.09 1.34 1.38 1.56 1.66 1.51 1.55 1.47 1.58 1.50 1.49 1.66 1.73 1.55 1.41 1.35 1.31
0.05 0.09 0.10 0.07 0.07 0.06 0.13 0.23 0.29 0.43 0.74 1.17 1.40 1.27 1.02 0.86 0.98 1.24 1.41 1.43 1.53 1.58 1.55 1.60 1.44 1.33 1.32 1.21 1.35 1.67 1.53 1.51 1.75 1.88 1.84 2.21 2.38 2.11 1.62 1.72 2.04 2.03 2.12 2.28 2.32 2.32 1.97 1.69 1.46
0.02 0.04 0.04 0.04 0.04 0.04 0.07 0.16 0.27 0.46 0.97 1.45 1.65 1.35 1.14 1.09 1.20 1.35 1.65 1.76 1.85 1.85 1.70 1.80 1.73 1.63 1.68 1.81 1.81 1.99 2.15 2.27 2.39 2.35 2.41 2.66 2.47 2.09 1.86 2.06 2.43 2.48 2.53 2.57 2.69 2.72 2.21 2.16 2.18
0.01 0.01 0.01 0.02 0.03 0.03 0.06 0.15 0.35 0.60 1.00 1.28 1.21 1.07 1.06 1.26 1.45 1.63 1.89 2.20 2.31 2.36 2.25 2.05 1.98 2.19 2.22 2.13 2.08 1.96 1.83 1.88 2.11 2.22 2.15 2.54 2.81 2.72 2.67 2.76 2.64 2.80 3.03 3.28 3.04 2.96 2.70 2.66 2.46
0.01 0.01 0.01 0.02 0.02 0.05 0.09 0.18 0.38 0.69 0.90 0.96 0.84 0.88 1.15 1.42 1.68 2.13 2.53 2.62 2.59 2.82 2.96 2.76 2.68 2.66 2.50 2.52 2.20 1.90 1.84 1.72 1.67 1.92 2.08 2.31 2.69 2.86 2.94 2.72 2.65 2.55 2.68 2.83 2.81 2.57 2.66 2.78 2.70
0.01 0.01 0.02 0.04 0.04 0.07 0.16 0.25 0.38 0.61 0.70 0.71 0.78 1.01 1.22 1.62 1.92 2.44 2.92 2.99 3.08 3.34 3.53 3.42 3.39 3.21 2.91 2.65 2.50 2.35 2.06 2.00 1.71 1.82 1.87 2.22 2.60 2.68 2.60 2.69 2.77 2.60 2.59 2.56 2.56 2.59 2.80 2.92 2.94
0.01 0.04 0.09 0.10 0.10 0.10 0.19 0.42 0.50 0.66 0.75 0.72 0.88 1.05 1.42 1.88 2.13 2.46 2.71 3.10 3.52 3.89 3.96 3.89 3.91 3.80 3.75 3.41 3.00 2.60 2.45 2.19 2.13 2.06 1.91 2.16 2.47 2.65 2.66 2.66 2.55 2.49 2.49 2.58 2.62 2.68 2.81 2.69 2.73
0.03 0.09 0.21 0.21 0.17 0.15 0.19 0.59 0.83 0.77 0.73 0.79 0.96 1.28 1.56 1.85 2.25 2.47 2.80 3.15 3.56 4.05 4.43 4.50 4.02 3.97 4.00 3.89 3.60 3.16 3.06 2.88 2.68 2.34 2.12 2.08 2.29 2.41 2.53 2.37 2.33 2.35 2.19 2.24 2.42 2.40 2.45 2.53 2.64
0.07 0.13 0.21 0.30 0.20 0.19 0.31 0.81 1.13 0.85 0.67 0.82 1.10 1.41 1.77 2.00 2.42 2.53 2.71 3.00 3.46 4.33 5.22 5.22 4.70 4.29 3.99 3.91 3.93 3.81 3.63 3.24 2.80 2.50 2.35 2.20 2.06 1.95 2.06 2.03 2.09 2.04 2.00 2.06 1.89 2.21 2.32 2.42 2.48
0.08 0.13 0.25 0.39 0.25 0.25 0.37 0.76 0.81 0.72 0.88 0.89 0.94 1.17 1.51 1.63 1.93 2.20 2.48 3.02 3.82 5.01 5.78 5.69 5.07 4.61 4.25 4.05 3.88 3.83 3.53 3.23 2.77 2.56 2.39 2.13 2.10 1.84 1.83 1.81 1.88 1.79 1.88 2.04 2.11 2.27 2.23 2.14 2.17
0.07 0.12 0.24 0.29 0.22 0.33 0.42 0.63 0.73 0.85 1.04 1.04 0.89 0.95 1.24 1.45 1.73 2.19 2.74 3.59 4.66 5.57 5.84 5.34 4.85 4.50 4.07 3.67 3.10 2.74 2.71 2.63 2.35 2.07 1.80 1.72 1.68 1.77 1.87 1.68 1.82 1.70 1.73 1.80 1.84 1.95 1.94 1.88 1.95
0.08 0.12 0.22 0.28 0.20 0.25 0.42 0.74 1.05 1.03 0.96 0.91 0.97 0.97 1.07 1.44 1.89 2.61 3.64 4.22 4.46 4.58 4.35 4.01 3.76 3.55 3.09 2.74 2.51 2.27 2.27 2.07 1.89 1.80 1.79 1.52 1.46 1.54 1.50 1.67 1.66 1.61 1.75 1.80 1.77 1.83 1.80 1.68 1.73
0.12 0.15 0.22 0.27 0.18 0.22 0.45 0.94 1.22 1.21 0.98 0.84 0.89 0.88 1.06 1.48 2.07 2.87 3.45 3.57 3.28 2.97 2.88 2.83 2.90 2.65 2.52 2.48 2.38 2.28 2.29 2.06 1.80 1.70 1.66 1.43 1.27 1.30 1.37 1.43 1.48 1.60 1.58 1.69 1.75 1.65 1.69 1.72 1.70
0.10 0.09 0.08 0.11 0.18 0.38 0.58 1.20 1.42 1.18 1.11 0.92 0.92 0.93 0.97 1.24 1.60 2.02 2.25 2.15 2.26 2.40 2.42 2.54 2.63 2.38 2.35 2.30 2.03 1.93 1.83 1.74 1.61 1.55 1.53 1.62 1.37 1.22 1.20 1.25 1.33 1.45 1.41 1.59 1.46 1.51 1.70 1.76 1.63
0.05 0.05 0.06 0.13 0.26 0.46 0.66 0.94 1.18 0.99 1.14 0.93 0.80 0.80 0.76 0.91 0.98 1.09 1.22 1.38 1.60 1.71 1.87 2.17 2.41 2.35 2.19 2.03 1.97 2.03 1.89 1.84 1.81 1.82 1.79 1.76 1.62 1.38 1.23 1.29 1.35 1.39 1.33 1.36 1.37 1.64 1.64 1.58 1.53
0.05 0.07 0.15 0.27 0.43 0.93 0.88 0.88 1.12 1.05 1.14 0.90 0.72 0.63 0.67 0.77 0.84 0.88 0.94 1.09 1.26 1.38 1.54 1.79 2.10 2.24 2.17 2.01 1.93 1.97 2.02 1.97 1.87 1.83 1.79 1.60 1.50 1.44 1.32 1.32 1.35 1.29 1.26 1.25 1.26 1.48 1.50 1.54 1.58
0.07 0.09 0.28 0.63 1.03 1.19 0.77 0.87 1.10 0.87 0.80 0.67 0.45 0.44 0.56 0.75 0.88 0.95 0.90 0.88 0.94 1.08 1.23 1.33 1.52 1.79 1.91 1.88 1.86 1.88 2.01 1.92 1.72 1.59 1.49 1.43 1.25 1.17 1.21 1.24 1.28 1.15 1.17 1.27 1.42 1.45 1.43 1.49 1.51
0.06 0.05 0.14 0.28 0.39 0.57 0.75 1.15 1.23 0.88 0.60 0.37 0.29 0.39 0.57 0.72 0.77 0.81 0.79 0.75 0.73 0.81 0.99 1.12 1.32 1.50 1.69 1.72 1.71 1.72 1.78 1.71 1.58 1.56 1.34 1.25 1.20 1.14 1.18 1.20 1.16 1.14 1.19 1.22 1.47 1.37 1.35 1.39 1.35
0.07 0.05 0.06 0.10 0.16 0.37 0.76 1.07 1.02 0.79 0.59 0.42 0.36 0.39 0.51 0.56 0.59 0.70 0.74 0.82 0.79 0.76 0.87 1.01 1.26 1.45 1.63 1.74 1.76 1.68 1.67 1.66 1.64 1.60 1.40 1.23 1.32 1.24 1.29 1.27 1.23 1.24 1.34 1.47 1.59 1.46 1.45 1.50 1.33
0.07 0.07 0.06 0.07 0.16 0.30 0.60 1.01 1.20 0.97 0.73 0.57 0.49 0.49 0.57 0.59 0.63 0.82 0.95 0.91 0.76 0.64 0.71 0.88 1.08 1.35 1.52 1.67 1.67 1.55 1.71 1.67 1.66 1.59 1.47 1.34 1.33 1.31 1.36 1.34 1.29 1.35 1.41 1.53 1.60 1.48 1.54 1.53 1.43
0.08 0.08 0.07 0.07 0.10 0.18 0.43 0.65 0.61 0.58 0.52 0.52 0.60 0.58 0.50 0.60 0.72 0.87 1.03 0.99 0.77 0.65 0.63 0.75 0.98 1.22 1.34 1.43 1.52 1.49 1.53 1.50 1.51 1.53 1.51 1.47 1.44 1.37 1.35 1.35 1.35 1.34 1.40 1.47 1.54 1.47 1.51 1.47 1.47
0.10 0.11 0.12 0.12 0.11 0.12 0.23 0.43 0.34 0.38 0.46 0.52 0.62 0.70 0.72 0.75 0.77 0.70 0.80 0.96 0.90 0.78 0.68 0.79 1.00 1.15 1.19 1.27 1.30 1.33 1.41 1.43 1.39 1.35 1.40 1.44 1.38 1.31 1.35 1.40 1.35 1.25 1.32 1.46 1.48 1.41 1.47 1.51 1.47